<?xml version="1.0" encoding="UTF-8" standalone="no" ?>
<gpx xmlns="http://www.topografix.com/GPX/1/1" xmlns:xsi="http://www.w3.org/2001/XMLSchema-instance" xsi:schemaLocation="http://www.topografix.com/GPX/1/1 http://www.topografix.com/GPX/1/1/gpx.xsd" version="1.1" creator="VisuGPX - https://www.visugpx.com">
  <metadata>
    <name>jour 4 (RGA)</name>
    <desc><![CDATA[File with points/tracks from Locus Pro/3.8.2]]></desc>
  </metadata>
  <trk>
    <name><![CDATA[2017-06-20 09:37:42]]></name>
    <desc><![CDATA[8h:51m:17s | 233 km]]></desc>
    <trkseg>
      <trkpt lat="43.75806" lon="7.47966">
        <ele>-68.94</ele>
        <time>2017-06-20T07:40:13Z</time>
      </trkpt>
      <trkpt lat="43.75811" lon="7.47933">
        <ele>32.82</ele>
        <time>2017-06-20T07:40:20Z</time>
      </trkpt>
      <trkpt lat="43.75833" lon="7.47925">
        <ele>18.07</ele>
        <time>2017-06-20T07:40:35Z</time>
      </trkpt>
      <trkpt lat="43.75855" lon="7.47938">
        <ele>17.94</ele>
        <time>2017-06-20T07:40:42Z</time>
      </trkpt>
      <trkpt lat="43.75829" lon="7.47927">
        <ele>20.63</ele>
        <time>2017-06-20T07:44:37Z</time>
      </trkpt>
      <trkpt lat="43.75809" lon="7.47912">
        <ele>20.11</ele>
        <time>2017-06-20T07:44:43Z</time>
      </trkpt>
      <trkpt lat="43.75786" lon="7.47909">
        <ele>21.8</ele>
        <time>2017-06-20T07:44:49Z</time>
      </trkpt>
      <trkpt lat="43.75762" lon="7.47908">
        <ele>20.97</ele>
        <time>2017-06-20T07:44:54Z</time>
      </trkpt>
      <trkpt lat="43.75763" lon="7.47947">
        <ele>20.35</ele>
        <time>2017-06-20T07:44:59Z</time>
      </trkpt>
      <trkpt lat="43.7576" lon="7.47987">
        <ele>18.76</ele>
        <time>2017-06-20T07:45:04Z</time>
      </trkpt>
      <trkpt lat="43.75756" lon="7.48035">
        <ele>15.83</ele>
        <time>2017-06-20T07:45:09Z</time>
      </trkpt>
      <trkpt lat="43.75742" lon="7.48064">
        <ele>16.07</ele>
        <time>2017-06-20T07:45:17Z</time>
      </trkpt>
      <trkpt lat="43.75721" lon="7.48101">
        <ele>15.73</ele>
        <time>2017-06-20T07:45:22Z</time>
      </trkpt>
      <trkpt lat="43.75708" lon="7.48129">
        <ele>15.68</ele>
        <time>2017-06-20T07:45:27Z</time>
      </trkpt>
      <trkpt lat="43.75694" lon="7.48155">
        <ele>16.3</ele>
        <time>2017-06-20T07:45:36Z</time>
      </trkpt>
      <trkpt lat="43.75679" lon="7.48178">
        <ele>16.46</ele>
        <time>2017-06-20T07:45:41Z</time>
      </trkpt>
      <trkpt lat="43.75658" lon="7.48203">
        <ele>17.22</ele>
        <time>2017-06-20T07:45:50Z</time>
      </trkpt>
      <trkpt lat="43.7563" lon="7.48231">
        <ele>18.45</ele>
        <time>2017-06-20T07:45:55Z</time>
      </trkpt>
      <trkpt lat="43.75596" lon="7.48268">
        <ele>18.87</ele>
        <time>2017-06-20T07:46:00Z</time>
      </trkpt>
      <trkpt lat="43.75561" lon="7.48305">
        <ele>20.24</ele>
        <time>2017-06-20T07:46:05Z</time>
      </trkpt>
      <trkpt lat="43.75526" lon="7.48343">
        <ele>21.47</ele>
        <time>2017-06-20T07:46:10Z</time>
      </trkpt>
      <trkpt lat="43.75493" lon="7.48377">
        <ele>22.8</ele>
        <time>2017-06-20T07:46:15Z</time>
      </trkpt>
      <trkpt lat="43.7546" lon="7.48404">
        <ele>22.98</ele>
        <time>2017-06-20T07:46:20Z</time>
      </trkpt>
      <trkpt lat="43.75424" lon="7.48434">
        <ele>22.5</ele>
        <time>2017-06-20T07:46:25Z</time>
      </trkpt>
      <trkpt lat="43.75388" lon="7.48481">
        <ele>21.61</ele>
        <time>2017-06-20T07:46:30Z</time>
      </trkpt>
      <trkpt lat="43.75356" lon="7.48546">
        <ele>21.67</ele>
        <time>2017-06-20T07:46:35Z</time>
      </trkpt>
      <trkpt lat="43.7533" lon="7.48604">
        <ele>21.5</ele>
        <time>2017-06-20T07:46:40Z</time>
      </trkpt>
      <trkpt lat="43.75299" lon="7.48656">
        <ele>20.7</ele>
        <time>2017-06-20T07:46:45Z</time>
      </trkpt>
      <trkpt lat="43.75259" lon="7.48705">
        <ele>20.57</ele>
        <time>2017-06-20T07:46:50Z</time>
      </trkpt>
      <trkpt lat="43.75223" lon="7.48736">
        <ele>20.37</ele>
        <time>2017-06-20T07:46:55Z</time>
      </trkpt>
      <trkpt lat="43.75174" lon="7.48748">
        <ele>20.23</ele>
        <time>2017-06-20T07:47:00Z</time>
      </trkpt>
      <trkpt lat="43.75128" lon="7.48746">
        <ele>21.25</ele>
        <time>2017-06-20T07:47:05Z</time>
      </trkpt>
      <trkpt lat="43.75087" lon="7.48726">
        <ele>21.95</ele>
        <time>2017-06-20T07:47:10Z</time>
      </trkpt>
      <trkpt lat="43.75058" lon="7.487">
        <ele>24.69</ele>
        <time>2017-06-20T07:47:15Z</time>
      </trkpt>
      <trkpt lat="43.75049" lon="7.48646">
        <ele>28.65</ele>
        <time>2017-06-20T07:47:20Z</time>
      </trkpt>
      <trkpt lat="43.75074" lon="7.48609">
        <ele>32.55</ele>
        <time>2017-06-20T07:47:25Z</time>
      </trkpt>
      <trkpt lat="43.75105" lon="7.48588">
        <ele>36.83</ele>
        <time>2017-06-20T07:47:30Z</time>
      </trkpt>
      <trkpt lat="43.75141" lon="7.48605">
        <ele>39.99</ele>
        <time>2017-06-20T07:47:35Z</time>
      </trkpt>
      <trkpt lat="43.75176" lon="7.48612">
        <ele>42.84</ele>
        <time>2017-06-20T07:47:40Z</time>
      </trkpt>
      <trkpt lat="43.75195" lon="7.48573">
        <ele>45.55</ele>
        <time>2017-06-20T07:47:45Z</time>
      </trkpt>
      <trkpt lat="43.75196" lon="7.48522">
        <ele>50.16</ele>
        <time>2017-06-20T07:47:50Z</time>
      </trkpt>
      <trkpt lat="43.75194" lon="7.48469">
        <ele>56.19</ele>
        <time>2017-06-20T07:47:55Z</time>
      </trkpt>
      <trkpt lat="43.75213" lon="7.48422">
        <ele>60.51</ele>
        <time>2017-06-20T07:48:00Z</time>
      </trkpt>
      <trkpt lat="43.75249" lon="7.48374">
        <ele>64.85</ele>
        <time>2017-06-20T07:48:05Z</time>
      </trkpt>
      <trkpt lat="43.75285" lon="7.4833">
        <ele>68.37</ele>
        <time>2017-06-20T07:48:10Z</time>
      </trkpt>
      <trkpt lat="43.75317" lon="7.48279">
        <ele>71.22</ele>
        <time>2017-06-20T07:48:15Z</time>
      </trkpt>
      <trkpt lat="43.75349" lon="7.48221">
        <ele>74.61</ele>
        <time>2017-06-20T07:48:20Z</time>
      </trkpt>
      <trkpt lat="43.75377" lon="7.48166">
        <ele>76.48</ele>
        <time>2017-06-20T07:48:25Z</time>
      </trkpt>
      <trkpt lat="43.75402" lon="7.48113">
        <ele>77.95</ele>
        <time>2017-06-20T07:48:30Z</time>
      </trkpt>
      <trkpt lat="43.75419" lon="7.48052">
        <ele>79.63</ele>
        <time>2017-06-20T07:48:35Z</time>
      </trkpt>
      <trkpt lat="43.75426" lon="7.47995">
        <ele>80.02</ele>
        <time>2017-06-20T07:48:40Z</time>
      </trkpt>
      <trkpt lat="43.75445" lon="7.47956">
        <ele>81.31</ele>
        <time>2017-06-20T07:48:45Z</time>
      </trkpt>
      <trkpt lat="43.7549" lon="7.47905">
        <ele>80.35</ele>
        <time>2017-06-20T07:48:50Z</time>
      </trkpt>
      <trkpt lat="43.75524" lon="7.47866">
        <ele>79.37</ele>
        <time>2017-06-20T07:48:55Z</time>
      </trkpt>
      <trkpt lat="43.75544" lon="7.47833">
        <ele>78.42</ele>
        <time>2017-06-20T07:49:00Z</time>
      </trkpt>
      <trkpt lat="43.75569" lon="7.47806">
        <ele>77.38</ele>
        <time>2017-06-20T07:49:05Z</time>
      </trkpt>
      <trkpt lat="43.75597" lon="7.47771">
        <ele>75.77</ele>
        <time>2017-06-20T07:49:10Z</time>
      </trkpt>
      <trkpt lat="43.75617" lon="7.47739">
        <ele>74.47</ele>
        <time>2017-06-20T07:49:16Z</time>
      </trkpt>
      <trkpt lat="43.75639" lon="7.47675">
        <ele>74.47</ele>
        <time>2017-06-20T07:49:21Z</time>
      </trkpt>
      <trkpt lat="43.75656" lon="7.47614">
        <ele>74.82</ele>
        <time>2017-06-20T07:49:26Z</time>
      </trkpt>
      <trkpt lat="43.75677" lon="7.47562">
        <ele>75.31</ele>
        <time>2017-06-20T07:49:31Z</time>
      </trkpt>
      <trkpt lat="43.75698" lon="7.47512">
        <ele>77.48</ele>
        <time>2017-06-20T07:49:36Z</time>
      </trkpt>
      <trkpt lat="43.75717" lon="7.47459">
        <ele>79.18</ele>
        <time>2017-06-20T07:49:41Z</time>
      </trkpt>
      <trkpt lat="43.75741" lon="7.47425">
        <ele>81.22</ele>
        <time>2017-06-20T07:49:46Z</time>
      </trkpt>
      <trkpt lat="43.75779" lon="7.47409">
        <ele>83.05</ele>
        <time>2017-06-20T07:49:51Z</time>
      </trkpt>
      <trkpt lat="43.75818" lon="7.47387">
        <ele>84.37</ele>
        <time>2017-06-20T07:49:56Z</time>
      </trkpt>
      <trkpt lat="43.75832" lon="7.47335">
        <ele>84.97</ele>
        <time>2017-06-20T07:50:01Z</time>
      </trkpt>
      <trkpt lat="43.75829" lon="7.47281">
        <ele>85.14</ele>
        <time>2017-06-20T07:50:06Z</time>
      </trkpt>
      <trkpt lat="43.75821" lon="7.47231">
        <ele>85.21</ele>
        <time>2017-06-20T07:50:11Z</time>
      </trkpt>
      <trkpt lat="43.75822" lon="7.47172">
        <ele>85.87</ele>
        <time>2017-06-20T07:50:16Z</time>
      </trkpt>
      <trkpt lat="43.7582" lon="7.47114">
        <ele>87.31</ele>
        <time>2017-06-20T07:50:21Z</time>
      </trkpt>
      <trkpt lat="43.75803" lon="7.47054">
        <ele>89.68</ele>
        <time>2017-06-20T07:50:26Z</time>
      </trkpt>
      <trkpt lat="43.75784" lon="7.4699">
        <ele>92.24</ele>
        <time>2017-06-20T07:50:31Z</time>
      </trkpt>
      <trkpt lat="43.75775" lon="7.46928">
        <ele>93.02</ele>
        <time>2017-06-20T07:50:36Z</time>
      </trkpt>
      <trkpt lat="43.75783" lon="7.4687">
        <ele>93.44</ele>
        <time>2017-06-20T07:50:41Z</time>
      </trkpt>
      <trkpt lat="43.75805" lon="7.46816">
        <ele>92.92</ele>
        <time>2017-06-20T07:50:46Z</time>
      </trkpt>
      <trkpt lat="43.75832" lon="7.46766">
        <ele>93.94</ele>
        <time>2017-06-20T07:50:51Z</time>
      </trkpt>
      <trkpt lat="43.75859" lon="7.46722">
        <ele>95.42</ele>
        <time>2017-06-20T07:50:56Z</time>
      </trkpt>
      <trkpt lat="43.75889" lon="7.46678">
        <ele>96.8</ele>
        <time>2017-06-20T07:51:01Z</time>
      </trkpt>
      <trkpt lat="43.75917" lon="7.4664">
        <ele>97.85</ele>
        <time>2017-06-20T07:51:06Z</time>
      </trkpt>
      <trkpt lat="43.75947" lon="7.46602">
        <ele>98.65</ele>
        <time>2017-06-20T07:51:11Z</time>
      </trkpt>
      <trkpt lat="43.75985" lon="7.46553">
        <ele>99.31</ele>
        <time>2017-06-20T07:51:16Z</time>
      </trkpt>
      <trkpt lat="43.76019" lon="7.46507">
        <ele>100.47</ele>
        <time>2017-06-20T07:51:21Z</time>
      </trkpt>
      <trkpt lat="43.76042" lon="7.46469">
        <ele>100.54</ele>
        <time>2017-06-20T07:51:26Z</time>
      </trkpt>
      <trkpt lat="43.76062" lon="7.46448">
        <ele>100.46</ele>
        <time>2017-06-20T07:51:31Z</time>
      </trkpt>
      <trkpt lat="43.76086" lon="7.46442">
        <ele>101.35</ele>
        <time>2017-06-20T07:51:36Z</time>
      </trkpt>
      <trkpt lat="43.76108" lon="7.46412">
        <ele>101.46</ele>
        <time>2017-06-20T07:51:41Z</time>
      </trkpt>
      <trkpt lat="43.76123" lon="7.46387">
        <ele>101.55</ele>
        <time>2017-06-20T07:51:46Z</time>
      </trkpt>
      <trkpt lat="43.76143" lon="7.46355">
        <ele>101.44</ele>
        <time>2017-06-20T07:51:51Z</time>
      </trkpt>
      <trkpt lat="43.76167" lon="7.46323">
        <ele>101.12</ele>
        <time>2017-06-20T07:51:56Z</time>
      </trkpt>
      <trkpt lat="43.76188" lon="7.46298">
        <ele>100.45</ele>
        <time>2017-06-20T07:52:01Z</time>
      </trkpt>
      <trkpt lat="43.76207" lon="7.46275">
        <ele>99.89</ele>
        <time>2017-06-20T07:52:06Z</time>
      </trkpt>
      <trkpt lat="43.76225" lon="7.46253">
        <ele>99.3</ele>
        <time>2017-06-20T07:52:36Z</time>
      </trkpt>
      <trkpt lat="43.76248" lon="7.4622">
        <ele>99.37</ele>
        <time>2017-06-20T07:52:41Z</time>
      </trkpt>
      <trkpt lat="43.76264" lon="7.46196">
        <ele>98.63</ele>
        <time>2017-06-20T07:52:49Z</time>
      </trkpt>
      <trkpt lat="43.76271" lon="7.4616">
        <ele>98.79</ele>
        <time>2017-06-20T07:52:55Z</time>
      </trkpt>
      <trkpt lat="43.76275" lon="7.46099">
        <ele>99.03</ele>
        <time>2017-06-20T07:53:00Z</time>
      </trkpt>
      <trkpt lat="43.76256" lon="7.46045">
        <ele>98.13</ele>
        <time>2017-06-20T07:53:05Z</time>
      </trkpt>
      <trkpt lat="43.76232" lon="7.45999">
        <ele>97.79</ele>
        <time>2017-06-20T07:53:10Z</time>
      </trkpt>
      <trkpt lat="43.76226" lon="7.45948">
        <ele>97.44</ele>
        <time>2017-06-20T07:53:15Z</time>
      </trkpt>
      <trkpt lat="43.76223" lon="7.45915">
        <ele>97.11</ele>
        <time>2017-06-20T07:53:20Z</time>
      </trkpt>
      <trkpt lat="43.76218" lon="7.45863">
        <ele>96.59</ele>
        <time>2017-06-20T07:53:25Z</time>
      </trkpt>
      <trkpt lat="43.76223" lon="7.45798">
        <ele>96.34</ele>
        <time>2017-06-20T07:53:30Z</time>
      </trkpt>
      <trkpt lat="43.7622" lon="7.4574">
        <ele>95.93</ele>
        <time>2017-06-20T07:53:35Z</time>
      </trkpt>
      <trkpt lat="43.76186" lon="7.45702">
        <ele>95.97</ele>
        <time>2017-06-20T07:53:40Z</time>
      </trkpt>
      <trkpt lat="43.7617" lon="7.4566">
        <ele>95.97</ele>
        <time>2017-06-20T07:53:45Z</time>
      </trkpt>
      <trkpt lat="43.7617" lon="7.456">
        <ele>95.26</ele>
        <time>2017-06-20T07:53:50Z</time>
      </trkpt>
      <trkpt lat="43.76199" lon="7.4556">
        <ele>93.96</ele>
        <time>2017-06-20T07:53:55Z</time>
      </trkpt>
      <trkpt lat="43.76243" lon="7.45527">
        <ele>93.72</ele>
        <time>2017-06-20T07:54:00Z</time>
      </trkpt>
      <trkpt lat="43.76285" lon="7.45511">
        <ele>92.85</ele>
        <time>2017-06-20T07:54:05Z</time>
      </trkpt>
      <trkpt lat="43.76315" lon="7.45498">
        <ele>92.77</ele>
        <time>2017-06-20T07:54:10Z</time>
      </trkpt>
      <trkpt lat="43.76327" lon="7.45468">
        <ele>92.35</ele>
        <time>2017-06-20T07:54:25Z</time>
      </trkpt>
      <trkpt lat="43.76333" lon="7.45431">
        <ele>92.46</ele>
        <time>2017-06-20T07:54:31Z</time>
      </trkpt>
      <trkpt lat="43.76312" lon="7.45394">
        <ele>92.55</ele>
        <time>2017-06-20T07:54:36Z</time>
      </trkpt>
      <trkpt lat="43.76264" lon="7.45389">
        <ele>91.74</ele>
        <time>2017-06-20T07:54:41Z</time>
      </trkpt>
      <trkpt lat="43.76224" lon="7.45396">
        <ele>90.76</ele>
        <time>2017-06-20T07:54:46Z</time>
      </trkpt>
      <trkpt lat="43.76181" lon="7.45407">
        <ele>90.06</ele>
        <time>2017-06-20T07:54:51Z</time>
      </trkpt>
      <trkpt lat="43.76137" lon="7.45407">
        <ele>89.08</ele>
        <time>2017-06-20T07:54:56Z</time>
      </trkpt>
      <trkpt lat="43.76108" lon="7.4538">
        <ele>88.16</ele>
        <time>2017-06-20T07:55:01Z</time>
      </trkpt>
      <trkpt lat="43.76087" lon="7.45344">
        <ele>86.8</ele>
        <time>2017-06-20T07:55:06Z</time>
      </trkpt>
      <trkpt lat="43.76066" lon="7.45304">
        <ele>86.65</ele>
        <time>2017-06-20T07:55:11Z</time>
      </trkpt>
      <trkpt lat="43.76051" lon="7.45274">
        <ele>86.95</ele>
        <time>2017-06-20T07:55:16Z</time>
      </trkpt>
      <trkpt lat="43.7604" lon="7.45244">
        <ele>87.36</ele>
        <time>2017-06-20T07:55:34Z</time>
      </trkpt>
      <trkpt lat="43.76012" lon="7.45194">
        <ele>88.91</ele>
        <time>2017-06-20T07:55:39Z</time>
      </trkpt>
      <trkpt lat="43.75981" lon="7.45151">
        <ele>93</ele>
        <time>2017-06-20T07:55:44Z</time>
      </trkpt>
      <trkpt lat="43.75958" lon="7.45122">
        <ele>96.01</ele>
        <time>2017-06-20T07:55:49Z</time>
      </trkpt>
      <trkpt lat="43.75921" lon="7.45068">
        <ele>100.07</ele>
        <time>2017-06-20T07:55:54Z</time>
      </trkpt>
      <trkpt lat="43.75879" lon="7.45008">
        <ele>102.59</ele>
        <time>2017-06-20T07:55:59Z</time>
      </trkpt>
      <trkpt lat="43.75837" lon="7.44961">
        <ele>105.64</ele>
        <time>2017-06-20T07:56:04Z</time>
      </trkpt>
      <trkpt lat="43.75797" lon="7.44916">
        <ele>108.71</ele>
        <time>2017-06-20T07:56:09Z</time>
      </trkpt>
      <trkpt lat="43.75754" lon="7.4487">
        <ele>111.18</ele>
        <time>2017-06-20T07:56:14Z</time>
      </trkpt>
      <trkpt lat="43.75712" lon="7.44826">
        <ele>114.28</ele>
        <time>2017-06-20T07:56:19Z</time>
      </trkpt>
      <trkpt lat="43.7568" lon="7.44775">
        <ele>116.96</ele>
        <time>2017-06-20T07:56:24Z</time>
      </trkpt>
      <trkpt lat="43.75649" lon="7.44722">
        <ele>120.34</ele>
        <time>2017-06-20T07:56:29Z</time>
      </trkpt>
      <trkpt lat="43.75609" lon="7.44685">
        <ele>125.12</ele>
        <time>2017-06-20T07:56:34Z</time>
      </trkpt>
      <trkpt lat="43.75572" lon="7.44643">
        <ele>128.36</ele>
        <time>2017-06-20T07:56:39Z</time>
      </trkpt>
      <trkpt lat="43.75523" lon="7.4462">
        <ele>128.72</ele>
        <time>2017-06-20T07:56:45Z</time>
      </trkpt>
      <trkpt lat="43.75477" lon="7.44614">
        <ele>128.78</ele>
        <time>2017-06-20T07:56:50Z</time>
      </trkpt>
      <trkpt lat="43.75457" lon="7.4455">
        <ele>128.7</ele>
        <time>2017-06-20T07:56:55Z</time>
      </trkpt>
      <trkpt lat="43.75459" lon="7.44466">
        <ele>130.11</ele>
        <time>2017-06-20T07:57:00Z</time>
      </trkpt>
      <trkpt lat="43.7546" lon="7.44386">
        <ele>131.53</ele>
        <time>2017-06-20T07:57:05Z</time>
      </trkpt>
      <trkpt lat="43.75462" lon="7.44302">
        <ele>133.54</ele>
        <time>2017-06-20T07:57:10Z</time>
      </trkpt>
      <trkpt lat="43.75462" lon="7.44225">
        <ele>135.67</ele>
        <time>2017-06-20T07:57:15Z</time>
      </trkpt>
      <trkpt lat="43.75463" lon="7.44193">
        <ele>136.35</ele>
        <time>2017-06-20T07:57:20Z</time>
      </trkpt>
      <trkpt lat="43.75461" lon="7.44152">
        <ele>140.51</ele>
        <time>2017-06-20T08:02:19Z</time>
      </trkpt>
      <trkpt lat="43.75456" lon="7.44082">
        <ele>142.52</ele>
        <time>2017-06-20T08:02:24Z</time>
      </trkpt>
      <trkpt lat="43.7544" lon="7.43986">
        <ele>146.49</ele>
        <time>2017-06-20T08:02:29Z</time>
      </trkpt>
      <trkpt lat="43.75421" lon="7.4389">
        <ele>149.81</ele>
        <time>2017-06-20T08:02:34Z</time>
      </trkpt>
      <trkpt lat="43.75393" lon="7.43808">
        <ele>153.06</ele>
        <time>2017-06-20T08:02:39Z</time>
      </trkpt>
      <trkpt lat="43.75386" lon="7.43743">
        <ele>157.3</ele>
        <time>2017-06-20T08:02:44Z</time>
      </trkpt>
      <trkpt lat="43.75409" lon="7.43647">
        <ele>162.48</ele>
        <time>2017-06-20T08:02:49Z</time>
      </trkpt>
      <trkpt lat="43.75435" lon="7.43559">
        <ele>165.15</ele>
        <time>2017-06-20T08:02:54Z</time>
      </trkpt>
      <trkpt lat="43.75444" lon="7.43493">
        <ele>169.12</ele>
        <time>2017-06-20T08:02:59Z</time>
      </trkpt>
      <trkpt lat="43.75434" lon="7.43433">
        <ele>171.72</ele>
        <time>2017-06-20T08:03:04Z</time>
      </trkpt>
      <trkpt lat="43.75403" lon="7.43365">
        <ele>175.12</ele>
        <time>2017-06-20T08:03:09Z</time>
      </trkpt>
      <trkpt lat="43.75387" lon="7.43304">
        <ele>179.24</ele>
        <time>2017-06-20T08:03:14Z</time>
      </trkpt>
      <trkpt lat="43.75362" lon="7.43239">
        <ele>183.26</ele>
        <time>2017-06-20T08:03:19Z</time>
      </trkpt>
      <trkpt lat="43.75296" lon="7.43217">
        <ele>187.25</ele>
        <time>2017-06-20T08:03:24Z</time>
      </trkpt>
      <trkpt lat="43.75232" lon="7.43202">
        <ele>191.88</ele>
        <time>2017-06-20T08:03:29Z</time>
      </trkpt>
      <trkpt lat="43.75187" lon="7.43159">
        <ele>195.99</ele>
        <time>2017-06-20T08:03:34Z</time>
      </trkpt>
      <trkpt lat="43.75163" lon="7.43076">
        <ele>200.41</ele>
        <time>2017-06-20T08:03:39Z</time>
      </trkpt>
      <trkpt lat="43.75153" lon="7.42999">
        <ele>204.37</ele>
        <time>2017-06-20T08:03:44Z</time>
      </trkpt>
      <trkpt lat="43.75153" lon="7.42907">
        <ele>209.5</ele>
        <time>2017-06-20T08:03:49Z</time>
      </trkpt>
      <trkpt lat="43.75161" lon="7.42816">
        <ele>214.01</ele>
        <time>2017-06-20T08:03:54Z</time>
      </trkpt>
      <trkpt lat="43.75176" lon="7.42734">
        <ele>217.34</ele>
        <time>2017-06-20T08:03:59Z</time>
      </trkpt>
      <trkpt lat="43.75204" lon="7.42663">
        <ele>219.39</ele>
        <time>2017-06-20T08:04:04Z</time>
      </trkpt>
      <trkpt lat="43.75226" lon="7.42605">
        <ele>218.73</ele>
        <time>2017-06-20T08:04:09Z</time>
      </trkpt>
      <trkpt lat="43.75201" lon="7.42545">
        <ele>216.01</ele>
        <time>2017-06-20T08:04:14Z</time>
      </trkpt>
      <trkpt lat="43.75139" lon="7.42555">
        <ele>212.65</ele>
        <time>2017-06-20T08:04:19Z</time>
      </trkpt>
      <trkpt lat="43.75085" lon="7.42604">
        <ele>208.25</ele>
        <time>2017-06-20T08:04:24Z</time>
      </trkpt>
      <trkpt lat="43.75035" lon="7.42649">
        <ele>203.7</ele>
        <time>2017-06-20T08:04:29Z</time>
      </trkpt>
      <trkpt lat="43.74978" lon="7.42646">
        <ele>199.57</ele>
        <time>2017-06-20T08:04:34Z</time>
      </trkpt>
      <trkpt lat="43.74927" lon="7.42619">
        <ele>195.69</ele>
        <time>2017-06-20T08:04:39Z</time>
      </trkpt>
      <trkpt lat="43.74885" lon="7.42588">
        <ele>192.46</ele>
        <time>2017-06-20T08:04:44Z</time>
      </trkpt>
      <trkpt lat="43.74851" lon="7.42512">
        <ele>189.06</ele>
        <time>2017-06-20T08:04:49Z</time>
      </trkpt>
      <trkpt lat="43.74817" lon="7.42441">
        <ele>183.82</ele>
        <time>2017-06-20T08:04:54Z</time>
      </trkpt>
      <trkpt lat="43.74769" lon="7.42411">
        <ele>180.71</ele>
        <time>2017-06-20T08:04:59Z</time>
      </trkpt>
      <trkpt lat="43.7473" lon="7.42474">
        <ele>178.85</ele>
        <time>2017-06-20T08:05:04Z</time>
      </trkpt>
      <trkpt lat="43.74702" lon="7.42563">
        <ele>177.79</ele>
        <time>2017-06-20T08:05:09Z</time>
      </trkpt>
      <trkpt lat="43.74657" lon="7.42613">
        <ele>177.96</ele>
        <time>2017-06-20T08:05:14Z</time>
      </trkpt>
      <trkpt lat="43.74601" lon="7.42602">
        <ele>178.82</ele>
        <time>2017-06-20T08:05:19Z</time>
      </trkpt>
      <trkpt lat="43.74563" lon="7.42541">
        <ele>179.92</ele>
        <time>2017-06-20T08:05:24Z</time>
      </trkpt>
      <trkpt lat="43.74534" lon="7.42474">
        <ele>183.82</ele>
        <time>2017-06-20T08:05:29Z</time>
      </trkpt>
      <trkpt lat="43.74518" lon="7.42384">
        <ele>188.5</ele>
        <time>2017-06-20T08:05:34Z</time>
      </trkpt>
      <trkpt lat="43.74499" lon="7.42309">
        <ele>192.18</ele>
        <time>2017-06-20T08:05:39Z</time>
      </trkpt>
      <trkpt lat="43.74478" lon="7.42252">
        <ele>194.86</ele>
        <time>2017-06-20T08:05:44Z</time>
      </trkpt>
      <trkpt lat="43.74495" lon="7.42282">
        <ele>197.07</ele>
        <time>2017-06-20T08:05:55Z</time>
      </trkpt>
      <trkpt lat="43.74524" lon="7.42344">
        <ele>200.19</ele>
        <time>2017-06-20T08:06:00Z</time>
      </trkpt>
      <trkpt lat="43.74557" lon="7.42415">
        <ele>203.15</ele>
        <time>2017-06-20T08:06:05Z</time>
      </trkpt>
      <trkpt lat="43.74592" lon="7.42485">
        <ele>206.58</ele>
        <time>2017-06-20T08:06:10Z</time>
      </trkpt>
      <trkpt lat="43.74613" lon="7.4252">
        <ele>208.08</ele>
        <time>2017-06-20T08:06:15Z</time>
      </trkpt>
      <trkpt lat="43.74617" lon="7.42483">
        <ele>210.05</ele>
        <time>2017-06-20T08:06:20Z</time>
      </trkpt>
      <trkpt lat="43.74591" lon="7.42408">
        <ele>214.22</ele>
        <time>2017-06-20T08:06:25Z</time>
      </trkpt>
      <trkpt lat="43.74565" lon="7.42335">
        <ele>218.39</ele>
        <time>2017-06-20T08:06:30Z</time>
      </trkpt>
      <trkpt lat="43.74541" lon="7.42264">
        <ele>222.04</ele>
        <time>2017-06-20T08:06:35Z</time>
      </trkpt>
      <trkpt lat="43.74519" lon="7.42195">
        <ele>226.3</ele>
        <time>2017-06-20T08:06:40Z</time>
      </trkpt>
      <trkpt lat="43.74498" lon="7.42131">
        <ele>229.24</ele>
        <time>2017-06-20T08:06:45Z</time>
      </trkpt>
      <trkpt lat="43.74472" lon="7.42084">
        <ele>231.96</ele>
        <time>2017-06-20T08:06:50Z</time>
      </trkpt>
      <trkpt lat="43.74493" lon="7.42114">
        <ele>234.86</ele>
        <time>2017-06-20T08:06:58Z</time>
      </trkpt>
      <trkpt lat="43.74522" lon="7.42175">
        <ele>237.62</ele>
        <time>2017-06-20T08:07:03Z</time>
      </trkpt>
      <trkpt lat="43.74557" lon="7.42234">
        <ele>240.35</ele>
        <time>2017-06-20T08:07:08Z</time>
      </trkpt>
      <trkpt lat="43.74593" lon="7.42291">
        <ele>243.92</ele>
        <time>2017-06-20T08:07:13Z</time>
      </trkpt>
      <trkpt lat="43.74615" lon="7.42335">
        <ele>244.83</ele>
        <time>2017-06-20T08:07:18Z</time>
      </trkpt>
      <trkpt lat="43.74632" lon="7.42364">
        <ele>246.23</ele>
        <time>2017-06-20T08:07:23Z</time>
      </trkpt>
      <trkpt lat="43.74633" lon="7.42333">
        <ele>247.15</ele>
        <time>2017-06-20T08:07:28Z</time>
      </trkpt>
      <trkpt lat="43.746" lon="7.42273">
        <ele>249.99</ele>
        <time>2017-06-20T08:07:33Z</time>
      </trkpt>
      <trkpt lat="43.74577" lon="7.42218">
        <ele>252.33</ele>
        <time>2017-06-20T08:07:38Z</time>
      </trkpt>
      <trkpt lat="43.74557" lon="7.42164">
        <ele>254.92</ele>
        <time>2017-06-20T08:07:43Z</time>
      </trkpt>
      <trkpt lat="43.74536" lon="7.42095">
        <ele>259</ele>
        <time>2017-06-20T08:07:48Z</time>
      </trkpt>
      <trkpt lat="43.74531" lon="7.42017">
        <ele>263.08</ele>
        <time>2017-06-20T08:07:53Z</time>
      </trkpt>
      <trkpt lat="43.74522" lon="7.41941">
        <ele>266.57</ele>
        <time>2017-06-20T08:07:58Z</time>
      </trkpt>
      <trkpt lat="43.74505" lon="7.41868">
        <ele>270.05</ele>
        <time>2017-06-20T08:08:03Z</time>
      </trkpt>
      <trkpt lat="43.74488" lon="7.41801">
        <ele>273.91</ele>
        <time>2017-06-20T08:08:08Z</time>
      </trkpt>
      <trkpt lat="43.74483" lon="7.41734">
        <ele>277.37</ele>
        <time>2017-06-20T08:08:13Z</time>
      </trkpt>
      <trkpt lat="43.74494" lon="7.4167">
        <ele>280.87</ele>
        <time>2017-06-20T08:08:18Z</time>
      </trkpt>
      <trkpt lat="43.74523" lon="7.41621">
        <ele>284.66</ele>
        <time>2017-06-20T08:08:23Z</time>
      </trkpt>
      <trkpt lat="43.74526" lon="7.41564">
        <ele>287.43</ele>
        <time>2017-06-20T08:08:28Z</time>
      </trkpt>
      <trkpt lat="43.74487" lon="7.4151">
        <ele>290.33</ele>
        <time>2017-06-20T08:08:33Z</time>
      </trkpt>
      <trkpt lat="43.74455" lon="7.41466">
        <ele>293.68</ele>
        <time>2017-06-20T08:08:38Z</time>
      </trkpt>
      <trkpt lat="43.7446" lon="7.41423">
        <ele>296.79</ele>
        <time>2017-06-20T08:08:43Z</time>
      </trkpt>
      <trkpt lat="43.74486" lon="7.41395">
        <ele>298.8</ele>
        <time>2017-06-20T08:08:48Z</time>
      </trkpt>
      <trkpt lat="43.74477" lon="7.41432">
        <ele>301.05</ele>
        <time>2017-06-20T08:08:54Z</time>
      </trkpt>
      <trkpt lat="43.74481" lon="7.41474">
        <ele>303.71</ele>
        <time>2017-06-20T08:08:59Z</time>
      </trkpt>
      <trkpt lat="43.74535" lon="7.41482">
        <ele>307.44</ele>
        <time>2017-06-20T08:09:04Z</time>
      </trkpt>
      <trkpt lat="43.74596" lon="7.41449">
        <ele>311.13</ele>
        <time>2017-06-20T08:09:09Z</time>
      </trkpt>
      <trkpt lat="43.74649" lon="7.41432">
        <ele>314.61</ele>
        <time>2017-06-20T08:09:14Z</time>
      </trkpt>
      <trkpt lat="43.74705" lon="7.41439">
        <ele>318.47</ele>
        <time>2017-06-20T08:09:19Z</time>
      </trkpt>
      <trkpt lat="43.74758" lon="7.41463">
        <ele>321.91</ele>
        <time>2017-06-20T08:09:24Z</time>
      </trkpt>
      <trkpt lat="43.74806" lon="7.41502">
        <ele>325.64</ele>
        <time>2017-06-20T08:09:29Z</time>
      </trkpt>
      <trkpt lat="43.74847" lon="7.41546">
        <ele>328.65</ele>
        <time>2017-06-20T08:09:34Z</time>
      </trkpt>
      <trkpt lat="43.74881" lon="7.41579">
        <ele>331.69</ele>
        <time>2017-06-20T08:09:39Z</time>
      </trkpt>
      <trkpt lat="43.74895" lon="7.41644">
        <ele>334.94</ele>
        <time>2017-06-20T08:09:44Z</time>
      </trkpt>
      <trkpt lat="43.74931" lon="7.41694">
        <ele>338.38</ele>
        <time>2017-06-20T08:09:49Z</time>
      </trkpt>
      <trkpt lat="43.74951" lon="7.41736">
        <ele>341.06</ele>
        <time>2017-06-20T08:09:54Z</time>
      </trkpt>
      <trkpt lat="43.74953" lon="7.41803">
        <ele>343.95</ele>
        <time>2017-06-20T08:09:59Z</time>
      </trkpt>
      <trkpt lat="43.74966" lon="7.41834">
        <ele>346.15</ele>
        <time>2017-06-20T08:10:04Z</time>
      </trkpt>
      <trkpt lat="43.74962" lon="7.41792">
        <ele>347.78</ele>
        <time>2017-06-20T08:10:09Z</time>
      </trkpt>
      <trkpt lat="43.74976" lon="7.41725">
        <ele>351.09</ele>
        <time>2017-06-20T08:10:14Z</time>
      </trkpt>
      <trkpt lat="43.74978" lon="7.41658">
        <ele>354.17</ele>
        <time>2017-06-20T08:10:19Z</time>
      </trkpt>
      <trkpt lat="43.74957" lon="7.41597">
        <ele>357.16</ele>
        <time>2017-06-20T08:10:24Z</time>
      </trkpt>
      <trkpt lat="43.74945" lon="7.41533">
        <ele>360.75</ele>
        <time>2017-06-20T08:10:29Z</time>
      </trkpt>
      <trkpt lat="43.74915" lon="7.41481">
        <ele>363.95</ele>
        <time>2017-06-20T08:10:34Z</time>
      </trkpt>
      <trkpt lat="43.749" lon="7.41456">
        <ele>365.55</ele>
        <time>2017-06-20T08:10:39Z</time>
      </trkpt>
      <trkpt lat="43.74924" lon="7.41485">
        <ele>367.35</ele>
        <time>2017-06-20T08:10:45Z</time>
      </trkpt>
      <trkpt lat="43.74961" lon="7.41528">
        <ele>370.15</ele>
        <time>2017-06-20T08:10:50Z</time>
      </trkpt>
      <trkpt lat="43.74995" lon="7.41578">
        <ele>373.12</ele>
        <time>2017-06-20T08:10:55Z</time>
      </trkpt>
      <trkpt lat="43.75037" lon="7.41615">
        <ele>376.98</ele>
        <time>2017-06-20T08:11:00Z</time>
      </trkpt>
      <trkpt lat="43.75071" lon="7.4167">
        <ele>379.97</ele>
        <time>2017-06-20T08:11:05Z</time>
      </trkpt>
      <trkpt lat="43.75098" lon="7.41725">
        <ele>382.82</ele>
        <time>2017-06-20T08:11:10Z</time>
      </trkpt>
      <trkpt lat="43.75097" lon="7.41689">
        <ele>384.98</ele>
        <time>2017-06-20T08:11:17Z</time>
      </trkpt>
      <trkpt lat="43.75082" lon="7.41615">
        <ele>389</ele>
        <time>2017-06-20T08:11:22Z</time>
      </trkpt>
      <trkpt lat="43.75067" lon="7.41545">
        <ele>392.78</ele>
        <time>2017-06-20T08:11:27Z</time>
      </trkpt>
      <trkpt lat="43.7505" lon="7.41475">
        <ele>396.26</ele>
        <time>2017-06-20T08:11:32Z</time>
      </trkpt>
      <trkpt lat="43.75031" lon="7.41405">
        <ele>400.27</ele>
        <time>2017-06-20T08:11:37Z</time>
      </trkpt>
      <trkpt lat="43.75013" lon="7.41334">
        <ele>404.55</ele>
        <time>2017-06-20T08:11:42Z</time>
      </trkpt>
      <trkpt lat="43.74984" lon="7.41281">
        <ele>407.24</ele>
        <time>2017-06-20T08:11:47Z</time>
      </trkpt>
      <trkpt lat="43.74945" lon="7.41246">
        <ele>409.83</ele>
        <time>2017-06-20T08:11:52Z</time>
      </trkpt>
      <trkpt lat="43.74972" lon="7.41243">
        <ele>415.32</ele>
        <time>2017-06-20T08:12:03Z</time>
      </trkpt>
      <trkpt lat="43.75016" lon="7.41261">
        <ele>418.1</ele>
        <time>2017-06-20T08:12:08Z</time>
      </trkpt>
      <trkpt lat="43.75041" lon="7.41298">
        <ele>420.23</ele>
        <time>2017-06-20T08:12:13Z</time>
      </trkpt>
      <trkpt lat="43.75039" lon="7.41261">
        <ele>422.58</ele>
        <time>2017-06-20T08:12:20Z</time>
      </trkpt>
      <trkpt lat="43.75014" lon="7.41201">
        <ele>425.85</ele>
        <time>2017-06-20T08:12:25Z</time>
      </trkpt>
      <trkpt lat="43.74993" lon="7.41137">
        <ele>429.67</ele>
        <time>2017-06-20T08:12:30Z</time>
      </trkpt>
      <trkpt lat="43.74965" lon="7.41073">
        <ele>433.2</ele>
        <time>2017-06-20T08:12:35Z</time>
      </trkpt>
      <trkpt lat="43.74959" lon="7.41013">
        <ele>436.58</ele>
        <time>2017-06-20T08:12:40Z</time>
      </trkpt>
      <trkpt lat="43.74956" lon="7.40951">
        <ele>439.47</ele>
        <time>2017-06-20T08:12:45Z</time>
      </trkpt>
      <trkpt lat="43.74954" lon="7.40893">
        <ele>442.71</ele>
        <time>2017-06-20T08:12:50Z</time>
      </trkpt>
      <trkpt lat="43.74959" lon="7.40849">
        <ele>444.88</ele>
        <time>2017-06-20T08:13:01Z</time>
      </trkpt>
      <trkpt lat="43.74964" lon="7.40779">
        <ele>446.9</ele>
        <time>2017-06-20T08:13:06Z</time>
      </trkpt>
      <trkpt lat="43.74982" lon="7.40714">
        <ele>448.12</ele>
        <time>2017-06-20T08:13:11Z</time>
      </trkpt>
      <trkpt lat="43.75025" lon="7.4067">
        <ele>450.01</ele>
        <time>2017-06-20T08:13:16Z</time>
      </trkpt>
      <trkpt lat="43.75048" lon="7.40616">
        <ele>451.87</ele>
        <time>2017-06-20T08:13:21Z</time>
      </trkpt>
      <trkpt lat="43.75067" lon="7.4055">
        <ele>453.46</ele>
        <time>2017-06-20T08:13:26Z</time>
      </trkpt>
      <trkpt lat="43.75085" lon="7.405">
        <ele>455.36</ele>
        <time>2017-06-20T08:13:31Z</time>
      </trkpt>
      <trkpt lat="43.7511" lon="7.40456">
        <ele>457.62</ele>
        <time>2017-06-20T08:13:36Z</time>
      </trkpt>
      <trkpt lat="43.75096" lon="7.40392">
        <ele>459.13</ele>
        <time>2017-06-20T08:13:41Z</time>
      </trkpt>
      <trkpt lat="43.75068" lon="7.40338">
        <ele>459.86</ele>
        <time>2017-06-20T08:13:46Z</time>
      </trkpt>
      <trkpt lat="43.7503" lon="7.40298">
        <ele>462.62</ele>
        <time>2017-06-20T08:13:51Z</time>
      </trkpt>
      <trkpt lat="43.74983" lon="7.40288">
        <ele>464.43</ele>
        <time>2017-06-20T08:13:56Z</time>
      </trkpt>
      <trkpt lat="43.74949" lon="7.4028">
        <ele>465.9</ele>
        <time>2017-06-20T08:14:01Z</time>
      </trkpt>
      <trkpt lat="43.74894" lon="7.40258">
        <ele>467.65</ele>
        <time>2017-06-20T08:14:06Z</time>
      </trkpt>
      <trkpt lat="43.74852" lon="7.40242">
        <ele>468.91</ele>
        <time>2017-06-20T08:14:11Z</time>
      </trkpt>
      <trkpt lat="43.74818" lon="7.40224">
        <ele>470.58</ele>
        <time>2017-06-20T08:14:16Z</time>
      </trkpt>
      <trkpt lat="43.74776" lon="7.4019">
        <ele>472.58</ele>
        <time>2017-06-20T08:14:21Z</time>
      </trkpt>
      <trkpt lat="43.74739" lon="7.40158">
        <ele>473.89</ele>
        <time>2017-06-20T08:14:26Z</time>
      </trkpt>
      <trkpt lat="43.74708" lon="7.40142">
        <ele>474.41</ele>
        <time>2017-06-20T08:14:31Z</time>
      </trkpt>
      <trkpt lat="43.74677" lon="7.4012">
        <ele>476.09</ele>
        <time>2017-06-20T08:14:36Z</time>
      </trkpt>
      <trkpt lat="43.74645" lon="7.40089">
        <ele>477.52</ele>
        <time>2017-06-20T08:14:41Z</time>
      </trkpt>
      <trkpt lat="43.74611" lon="7.40069">
        <ele>477.72</ele>
        <time>2017-06-20T08:14:46Z</time>
      </trkpt>
      <trkpt lat="43.74585" lon="7.40055">
        <ele>479.49</ele>
        <time>2017-06-20T08:14:51Z</time>
      </trkpt>
      <trkpt lat="43.74563" lon="7.40024">
        <ele>480.64</ele>
        <time>2017-06-20T08:14:56Z</time>
      </trkpt>
      <trkpt lat="43.7455" lon="7.3999">
        <ele>481.35</ele>
        <time>2017-06-20T08:15:01Z</time>
      </trkpt>
      <trkpt lat="43.74547" lon="7.39936">
        <ele>481.48</ele>
        <time>2017-06-20T08:15:06Z</time>
      </trkpt>
      <trkpt lat="43.74547" lon="7.39876">
        <ele>479.39</ele>
        <time>2017-06-20T08:15:11Z</time>
      </trkpt>
      <trkpt lat="43.7456" lon="7.39822">
        <ele>477.35</ele>
        <time>2017-06-20T08:15:16Z</time>
      </trkpt>
      <trkpt lat="43.74578" lon="7.39758">
        <ele>474.91</ele>
        <time>2017-06-20T08:15:21Z</time>
      </trkpt>
      <trkpt lat="43.74577" lon="7.39688">
        <ele>473.14</ele>
        <time>2017-06-20T08:15:26Z</time>
      </trkpt>
      <trkpt lat="43.74569" lon="7.39618">
        <ele>471.32</ele>
        <time>2017-06-20T08:15:31Z</time>
      </trkpt>
      <trkpt lat="43.74551" lon="7.39552">
        <ele>468.84</ele>
        <time>2017-06-20T08:15:36Z</time>
      </trkpt>
      <trkpt lat="43.74521" lon="7.39493">
        <ele>467.12</ele>
        <time>2017-06-20T08:15:41Z</time>
      </trkpt>
      <trkpt lat="43.74492" lon="7.39456">
        <ele>464.87</ele>
        <time>2017-06-20T08:15:46Z</time>
      </trkpt>
      <trkpt lat="43.7448" lon="7.39427">
        <ele>463.33</ele>
        <time>2017-06-20T08:15:52Z</time>
      </trkpt>
      <trkpt lat="43.74448" lon="7.39413">
        <ele>464.43</ele>
        <time>2017-06-20T08:15:57Z</time>
      </trkpt>
      <trkpt lat="43.74405" lon="7.39376">
        <ele>466.08</ele>
        <time>2017-06-20T08:16:02Z</time>
      </trkpt>
      <trkpt lat="43.74364" lon="7.3933">
        <ele>468.26</ele>
        <time>2017-06-20T08:16:07Z</time>
      </trkpt>
      <trkpt lat="43.74321" lon="7.39258">
        <ele>471.24</ele>
        <time>2017-06-20T08:16:12Z</time>
      </trkpt>
      <trkpt lat="43.74282" lon="7.39185">
        <ele>474.11</ele>
        <time>2017-06-20T08:16:17Z</time>
      </trkpt>
      <trkpt lat="43.74242" lon="7.39117">
        <ele>476.79</ele>
        <time>2017-06-20T08:16:22Z</time>
      </trkpt>
      <trkpt lat="43.74173" lon="7.39085">
        <ele>479.71</ele>
        <time>2017-06-20T08:16:27Z</time>
      </trkpt>
      <trkpt lat="43.74099" lon="7.39059">
        <ele>482.33</ele>
        <time>2017-06-20T08:16:32Z</time>
      </trkpt>
      <trkpt lat="43.74023" lon="7.39028">
        <ele>485.5</ele>
        <time>2017-06-20T08:16:37Z</time>
      </trkpt>
      <trkpt lat="43.73948" lon="7.38984">
        <ele>486.63</ele>
        <time>2017-06-20T08:16:42Z</time>
      </trkpt>
      <trkpt lat="43.73881" lon="7.38934">
        <ele>487.14</ele>
        <time>2017-06-20T08:16:47Z</time>
      </trkpt>
      <trkpt lat="43.73853" lon="7.38869">
        <ele>486.77</ele>
        <time>2017-06-20T08:16:52Z</time>
      </trkpt>
      <trkpt lat="43.73842" lon="7.38776">
        <ele>487.99</ele>
        <time>2017-06-20T08:16:57Z</time>
      </trkpt>
      <trkpt lat="43.73834" lon="7.38702">
        <ele>488.06</ele>
        <time>2017-06-20T08:17:02Z</time>
      </trkpt>
      <trkpt lat="43.73824" lon="7.38632">
        <ele>488.94</ele>
        <time>2017-06-20T08:17:07Z</time>
      </trkpt>
      <trkpt lat="43.73777" lon="7.38553">
        <ele>490.41</ele>
        <time>2017-06-20T08:17:12Z</time>
      </trkpt>
      <trkpt lat="43.73718" lon="7.38476">
        <ele>490.15</ele>
        <time>2017-06-20T08:17:17Z</time>
      </trkpt>
      <trkpt lat="43.73662" lon="7.38395">
        <ele>491</ele>
        <time>2017-06-20T08:17:22Z</time>
      </trkpt>
      <trkpt lat="43.73617" lon="7.38306">
        <ele>490.72</ele>
        <time>2017-06-20T08:17:27Z</time>
      </trkpt>
      <trkpt lat="43.73602" lon="7.38211">
        <ele>492.51</ele>
        <time>2017-06-20T08:17:32Z</time>
      </trkpt>
      <trkpt lat="43.73592" lon="7.38125">
        <ele>493.8</ele>
        <time>2017-06-20T08:17:37Z</time>
      </trkpt>
      <trkpt lat="43.73585" lon="7.38059">
        <ele>495.09</ele>
        <time>2017-06-20T08:17:42Z</time>
      </trkpt>
      <trkpt lat="43.73574" lon="7.38029">
        <ele>495.66</ele>
        <time>2017-06-20T08:17:47Z</time>
      </trkpt>
      <trkpt lat="43.73555" lon="7.38009">
        <ele>496.05</ele>
        <time>2017-06-20T08:17:55Z</time>
      </trkpt>
      <trkpt lat="43.73538" lon="7.37983">
        <ele>496.61</ele>
        <time>2017-06-20T08:18:02Z</time>
      </trkpt>
      <trkpt lat="43.73523" lon="7.37958">
        <ele>496.89</ele>
        <time>2017-06-20T08:18:08Z</time>
      </trkpt>
      <trkpt lat="43.73504" lon="7.37928">
        <ele>497.56</ele>
        <time>2017-06-20T08:18:13Z</time>
      </trkpt>
      <trkpt lat="43.73488" lon="7.379">
        <ele>498.1</ele>
        <time>2017-06-20T08:18:20Z</time>
      </trkpt>
      <trkpt lat="43.73476" lon="7.3787">
        <ele>498.81</ele>
        <time>2017-06-20T08:18:27Z</time>
      </trkpt>
      <trkpt lat="43.73475" lon="7.37831">
        <ele>501.15</ele>
        <time>2017-06-20T08:21:32Z</time>
      </trkpt>
      <trkpt lat="43.7346" lon="7.37763">
        <ele>502.9</ele>
        <time>2017-06-20T08:21:37Z</time>
      </trkpt>
      <trkpt lat="43.73439" lon="7.37682">
        <ele>504.32</ele>
        <time>2017-06-20T08:21:42Z</time>
      </trkpt>
      <trkpt lat="43.73433" lon="7.3758">
        <ele>507.38</ele>
        <time>2017-06-20T08:21:47Z</time>
      </trkpt>
      <trkpt lat="43.73434" lon="7.37466">
        <ele>510.24</ele>
        <time>2017-06-20T08:21:52Z</time>
      </trkpt>
      <trkpt lat="43.73404" lon="7.37353">
        <ele>511.95</ele>
        <time>2017-06-20T08:21:57Z</time>
      </trkpt>
      <trkpt lat="43.73374" lon="7.37257">
        <ele>512.99</ele>
        <time>2017-06-20T08:22:02Z</time>
      </trkpt>
      <trkpt lat="43.73353" lon="7.37164">
        <ele>515.09</ele>
        <time>2017-06-20T08:22:07Z</time>
      </trkpt>
      <trkpt lat="43.73333" lon="7.37069">
        <ele>516.95</ele>
        <time>2017-06-20T08:22:12Z</time>
      </trkpt>
      <trkpt lat="43.73316" lon="7.36992">
        <ele>518.39</ele>
        <time>2017-06-20T08:22:17Z</time>
      </trkpt>
      <trkpt lat="43.73329" lon="7.36915">
        <ele>520.25</ele>
        <time>2017-06-20T08:22:22Z</time>
      </trkpt>
      <trkpt lat="43.73375" lon="7.3686">
        <ele>521.88</ele>
        <time>2017-06-20T08:22:27Z</time>
      </trkpt>
      <trkpt lat="43.73448" lon="7.36853">
        <ele>524.17</ele>
        <time>2017-06-20T08:22:32Z</time>
      </trkpt>
      <trkpt lat="43.73515" lon="7.36816">
        <ele>525.45</ele>
        <time>2017-06-20T08:22:37Z</time>
      </trkpt>
      <trkpt lat="43.73553" lon="7.36748">
        <ele>527.25</ele>
        <time>2017-06-20T08:22:42Z</time>
      </trkpt>
      <trkpt lat="43.73579" lon="7.36671">
        <ele>528.47</ele>
        <time>2017-06-20T08:22:47Z</time>
      </trkpt>
      <trkpt lat="43.73577" lon="7.36581">
        <ele>529.7</ele>
        <time>2017-06-20T08:22:52Z</time>
      </trkpt>
      <trkpt lat="43.7356" lon="7.36503">
        <ele>529.43</ele>
        <time>2017-06-20T08:22:57Z</time>
      </trkpt>
      <trkpt lat="43.73585" lon="7.36414">
        <ele>530.67</ele>
        <time>2017-06-20T08:23:02Z</time>
      </trkpt>
      <trkpt lat="43.73625" lon="7.36319">
        <ele>530.8</ele>
        <time>2017-06-20T08:23:07Z</time>
      </trkpt>
      <trkpt lat="43.73639" lon="7.36219">
        <ele>531.27</ele>
        <time>2017-06-20T08:23:12Z</time>
      </trkpt>
      <trkpt lat="43.73628" lon="7.36118">
        <ele>531.25</ele>
        <time>2017-06-20T08:23:17Z</time>
      </trkpt>
      <trkpt lat="43.73631" lon="7.36039">
        <ele>530.34</ele>
        <time>2017-06-20T08:23:22Z</time>
      </trkpt>
      <trkpt lat="43.7368" lon="7.35993">
        <ele>531.61</ele>
        <time>2017-06-20T08:23:27Z</time>
      </trkpt>
      <trkpt lat="43.73725" lon="7.35928">
        <ele>532</ele>
        <time>2017-06-20T08:23:32Z</time>
      </trkpt>
      <trkpt lat="43.73737" lon="7.35839">
        <ele>530.83</ele>
        <time>2017-06-20T08:23:37Z</time>
      </trkpt>
      <trkpt lat="43.73732" lon="7.35748">
        <ele>529.71</ele>
        <time>2017-06-20T08:23:42Z</time>
      </trkpt>
      <trkpt lat="43.73689" lon="7.35652">
        <ele>527.94</ele>
        <time>2017-06-20T08:23:47Z</time>
      </trkpt>
      <trkpt lat="43.73641" lon="7.35593">
        <ele>526.09</ele>
        <time>2017-06-20T08:23:52Z</time>
      </trkpt>
      <trkpt lat="43.73632" lon="7.35499">
        <ele>524.68</ele>
        <time>2017-06-20T08:23:57Z</time>
      </trkpt>
      <trkpt lat="43.73643" lon="7.35389">
        <ele>523.15</ele>
        <time>2017-06-20T08:24:02Z</time>
      </trkpt>
      <trkpt lat="43.73658" lon="7.35289">
        <ele>521.57</ele>
        <time>2017-06-20T08:24:07Z</time>
      </trkpt>
      <trkpt lat="43.73674" lon="7.35206">
        <ele>520.18</ele>
        <time>2017-06-20T08:24:12Z</time>
      </trkpt>
      <trkpt lat="43.73691" lon="7.35118">
        <ele>519.27</ele>
        <time>2017-06-20T08:24:17Z</time>
      </trkpt>
      <trkpt lat="43.73687" lon="7.35055">
        <ele>517.98</ele>
        <time>2017-06-20T08:24:22Z</time>
      </trkpt>
      <trkpt lat="43.73632" lon="7.3503">
        <ele>517.52</ele>
        <time>2017-06-20T08:24:27Z</time>
      </trkpt>
      <trkpt lat="43.73583" lon="7.35018">
        <ele>515.84</ele>
        <time>2017-06-20T08:24:32Z</time>
      </trkpt>
      <trkpt lat="43.73555" lon="7.3498">
        <ele>516</ele>
        <time>2017-06-20T08:24:37Z</time>
      </trkpt>
      <trkpt lat="43.73513" lon="7.34916">
        <ele>515.07</ele>
        <time>2017-06-20T08:24:42Z</time>
      </trkpt>
      <trkpt lat="43.73473" lon="7.34872">
        <ele>513.29</ele>
        <time>2017-06-20T08:24:47Z</time>
      </trkpt>
      <trkpt lat="43.73449" lon="7.348">
        <ele>513.17</ele>
        <time>2017-06-20T08:24:52Z</time>
      </trkpt>
      <trkpt lat="43.73427" lon="7.34729">
        <ele>510.91</ele>
        <time>2017-06-20T08:24:57Z</time>
      </trkpt>
      <trkpt lat="43.73413" lon="7.34683">
        <ele>509.42</ele>
        <time>2017-06-20T08:25:02Z</time>
      </trkpt>
      <trkpt lat="43.73404" lon="7.34653">
        <ele>509.32</ele>
        <time>2017-06-20T08:25:10Z</time>
      </trkpt>
      <trkpt lat="43.73393" lon="7.34607">
        <ele>509.44</ele>
        <time>2017-06-20T08:25:15Z</time>
      </trkpt>
      <trkpt lat="43.73355" lon="7.34566">
        <ele>508.58</ele>
        <time>2017-06-20T08:25:20Z</time>
      </trkpt>
      <trkpt lat="43.73296" lon="7.34599">
        <ele>507.42</ele>
        <time>2017-06-20T08:25:25Z</time>
      </trkpt>
      <trkpt lat="43.73248" lon="7.34621">
        <ele>506.3</ele>
        <time>2017-06-20T08:25:30Z</time>
      </trkpt>
      <trkpt lat="43.73225" lon="7.34556">
        <ele>505.88</ele>
        <time>2017-06-20T08:25:35Z</time>
      </trkpt>
      <trkpt lat="43.73214" lon="7.34451">
        <ele>504.36</ele>
        <time>2017-06-20T08:25:40Z</time>
      </trkpt>
      <trkpt lat="43.73227" lon="7.3435">
        <ele>503.76</ele>
        <time>2017-06-20T08:25:45Z</time>
      </trkpt>
      <trkpt lat="43.73198" lon="7.3427">
        <ele>502.85</ele>
        <time>2017-06-20T08:25:50Z</time>
      </trkpt>
      <trkpt lat="43.7315" lon="7.34193">
        <ele>501.45</ele>
        <time>2017-06-20T08:25:55Z</time>
      </trkpt>
      <trkpt lat="43.73103" lon="7.34153">
        <ele>500.45</ele>
        <time>2017-06-20T08:26:00Z</time>
      </trkpt>
      <trkpt lat="43.73047" lon="7.34199">
        <ele>502.23</ele>
        <time>2017-06-20T08:26:05Z</time>
      </trkpt>
      <trkpt lat="43.73004" lon="7.34267">
        <ele>502.87</ele>
        <time>2017-06-20T08:26:10Z</time>
      </trkpt>
      <trkpt lat="43.72937" lon="7.34299">
        <ele>504.3</ele>
        <time>2017-06-20T08:26:15Z</time>
      </trkpt>
      <trkpt lat="43.7287" lon="7.34315">
        <ele>505.01</ele>
        <time>2017-06-20T08:26:20Z</time>
      </trkpt>
      <trkpt lat="43.72805" lon="7.34352">
        <ele>506.8</ele>
        <time>2017-06-20T08:26:25Z</time>
      </trkpt>
      <trkpt lat="43.72736" lon="7.34369">
        <ele>507.69</ele>
        <time>2017-06-20T08:26:30Z</time>
      </trkpt>
      <trkpt lat="43.72667" lon="7.34367">
        <ele>509.57</ele>
        <time>2017-06-20T08:26:35Z</time>
      </trkpt>
      <trkpt lat="43.7262" lon="7.34351">
        <ele>508.99</ele>
        <time>2017-06-20T08:26:40Z</time>
      </trkpt>
      <trkpt lat="43.72611" lon="7.34301">
        <ele>507.79</ele>
        <time>2017-06-20T08:26:45Z</time>
      </trkpt>
      <trkpt lat="43.72608" lon="7.34253">
        <ele>507.73</ele>
        <time>2017-06-20T08:26:50Z</time>
      </trkpt>
      <trkpt lat="43.72626" lon="7.34197">
        <ele>506.97</ele>
        <time>2017-06-20T08:26:55Z</time>
      </trkpt>
      <trkpt lat="43.7264" lon="7.34161">
        <ele>505.83</ele>
        <time>2017-06-20T08:27:00Z</time>
      </trkpt>
      <trkpt lat="43.7266" lon="7.34106">
        <ele>505.94</ele>
        <time>2017-06-20T08:27:05Z</time>
      </trkpt>
      <trkpt lat="43.72643" lon="7.34142">
        <ele>506.45</ele>
        <time>2017-06-20T08:27:19Z</time>
      </trkpt>
      <trkpt lat="43.72618" lon="7.34214">
        <ele>507.33</ele>
        <time>2017-06-20T08:27:24Z</time>
      </trkpt>
      <trkpt lat="43.72604" lon="7.34284">
        <ele>508.02</ele>
        <time>2017-06-20T08:27:29Z</time>
      </trkpt>
      <trkpt lat="43.72613" lon="7.34345">
        <ele>508.64</ele>
        <time>2017-06-20T08:27:34Z</time>
      </trkpt>
      <trkpt lat="43.72628" lon="7.34373">
        <ele>509.22</ele>
        <time>2017-06-20T08:27:41Z</time>
      </trkpt>
      <trkpt lat="43.72623" lon="7.34339">
        <ele>509.17</ele>
        <time>2017-06-20T08:27:46Z</time>
      </trkpt>
      <trkpt lat="43.72611" lon="7.34285">
        <ele>508.16</ele>
        <time>2017-06-20T08:27:51Z</time>
      </trkpt>
      <trkpt lat="43.72614" lon="7.34239">
        <ele>506.9</ele>
        <time>2017-06-20T08:27:56Z</time>
      </trkpt>
      <trkpt lat="43.72626" lon="7.3421">
        <ele>505.94</ele>
        <time>2017-06-20T08:30:19Z</time>
      </trkpt>
      <trkpt lat="43.7264" lon="7.34164">
        <ele>506.15</ele>
        <time>2017-06-20T08:30:24Z</time>
      </trkpt>
      <trkpt lat="43.72664" lon="7.3409">
        <ele>505.53</ele>
        <time>2017-06-20T08:30:29Z</time>
      </trkpt>
      <trkpt lat="43.72695" lon="7.34002">
        <ele>505.71</ele>
        <time>2017-06-20T08:30:34Z</time>
      </trkpt>
      <trkpt lat="43.72693" lon="7.33935">
        <ele>504.69</ele>
        <time>2017-06-20T08:30:39Z</time>
      </trkpt>
      <trkpt lat="43.72643" lon="7.33901">
        <ele>503.1</ele>
        <time>2017-06-20T08:30:44Z</time>
      </trkpt>
      <trkpt lat="43.72626" lon="7.33809">
        <ele>503.69</ele>
        <time>2017-06-20T08:30:49Z</time>
      </trkpt>
      <trkpt lat="43.72598" lon="7.33689">
        <ele>502.21</ele>
        <time>2017-06-20T08:30:54Z</time>
      </trkpt>
      <trkpt lat="43.72562" lon="7.33602">
        <ele>499.59</ele>
        <time>2017-06-20T08:30:59Z</time>
      </trkpt>
      <trkpt lat="43.72518" lon="7.33592">
        <ele>499.01</ele>
        <time>2017-06-20T08:31:04Z</time>
      </trkpt>
      <trkpt lat="43.72472" lon="7.3368">
        <ele>498.07</ele>
        <time>2017-06-20T08:31:09Z</time>
      </trkpt>
      <trkpt lat="43.72424" lon="7.3369">
        <ele>497.19</ele>
        <time>2017-06-20T08:31:14Z</time>
      </trkpt>
      <trkpt lat="43.72349" lon="7.33629">
        <ele>495.46</ele>
        <time>2017-06-20T08:31:19Z</time>
      </trkpt>
      <trkpt lat="43.72311" lon="7.3357">
        <ele>492.07</ele>
        <time>2017-06-20T08:31:24Z</time>
      </trkpt>
      <trkpt lat="43.72284" lon="7.33471">
        <ele>488.19</ele>
        <time>2017-06-20T08:31:29Z</time>
      </trkpt>
      <trkpt lat="43.72251" lon="7.33408">
        <ele>482.61</ele>
        <time>2017-06-20T08:31:34Z</time>
      </trkpt>
      <trkpt lat="43.72201" lon="7.33442">
        <ele>479.1</ele>
        <time>2017-06-20T08:31:39Z</time>
      </trkpt>
      <trkpt lat="43.72154" lon="7.33444">
        <ele>475.86</ele>
        <time>2017-06-20T08:31:44Z</time>
      </trkpt>
      <trkpt lat="43.72113" lon="7.33379">
        <ele>471.89</ele>
        <time>2017-06-20T08:31:49Z</time>
      </trkpt>
      <trkpt lat="43.72086" lon="7.33316">
        <ele>467.13</ele>
        <time>2017-06-20T08:31:54Z</time>
      </trkpt>
      <trkpt lat="43.72055" lon="7.33265">
        <ele>463.56</ele>
        <time>2017-06-20T08:31:59Z</time>
      </trkpt>
      <trkpt lat="43.72017" lon="7.33207">
        <ele>459.41</ele>
        <time>2017-06-20T08:32:04Z</time>
      </trkpt>
      <trkpt lat="43.71987" lon="7.33153">
        <ele>454.58</ele>
        <time>2017-06-20T08:32:09Z</time>
      </trkpt>
      <trkpt lat="43.71979" lon="7.33077">
        <ele>450.83</ele>
        <time>2017-06-20T08:32:14Z</time>
      </trkpt>
      <trkpt lat="43.7199" lon="7.33003">
        <ele>445.88</ele>
        <time>2017-06-20T08:32:19Z</time>
      </trkpt>
      <trkpt lat="43.72011" lon="7.32948">
        <ele>441.98</ele>
        <time>2017-06-20T08:32:24Z</time>
      </trkpt>
      <trkpt lat="43.72005" lon="7.32909">
        <ele>439.87</ele>
        <time>2017-06-20T08:32:33Z</time>
      </trkpt>
      <trkpt lat="43.71972" lon="7.32883">
        <ele>437.12</ele>
        <time>2017-06-20T08:32:38Z</time>
      </trkpt>
      <trkpt lat="43.71935" lon="7.32855">
        <ele>435</ele>
        <time>2017-06-20T08:32:43Z</time>
      </trkpt>
      <trkpt lat="43.71914" lon="7.32803">
        <ele>432.83</ele>
        <time>2017-06-20T08:32:48Z</time>
      </trkpt>
      <trkpt lat="43.71899" lon="7.32738">
        <ele>430.51</ele>
        <time>2017-06-20T08:32:53Z</time>
      </trkpt>
      <trkpt lat="43.7187" lon="7.32696">
        <ele>427.51</ele>
        <time>2017-06-20T08:32:58Z</time>
      </trkpt>
      <trkpt lat="43.71822" lon="7.32667">
        <ele>424.3</ele>
        <time>2017-06-20T08:33:03Z</time>
      </trkpt>
      <trkpt lat="43.71781" lon="7.32612">
        <ele>420.66</ele>
        <time>2017-06-20T08:33:08Z</time>
      </trkpt>
      <trkpt lat="43.71738" lon="7.3253">
        <ele>417.21</ele>
        <time>2017-06-20T08:33:13Z</time>
      </trkpt>
      <trkpt lat="43.71703" lon="7.32452">
        <ele>411.97</ele>
        <time>2017-06-20T08:33:18Z</time>
      </trkpt>
      <trkpt lat="43.71686" lon="7.32366">
        <ele>408.76</ele>
        <time>2017-06-20T08:33:23Z</time>
      </trkpt>
      <trkpt lat="43.71672" lon="7.32274">
        <ele>404.33</ele>
        <time>2017-06-20T08:33:28Z</time>
      </trkpt>
      <trkpt lat="43.71659" lon="7.32182">
        <ele>400.19</ele>
        <time>2017-06-20T08:33:33Z</time>
      </trkpt>
      <trkpt lat="43.71655" lon="7.32106">
        <ele>395.63</ele>
        <time>2017-06-20T08:33:38Z</time>
      </trkpt>
      <trkpt lat="43.71679" lon="7.32024">
        <ele>390.92</ele>
        <time>2017-06-20T08:33:43Z</time>
      </trkpt>
      <trkpt lat="43.71683" lon="7.31934">
        <ele>384.64</ele>
        <time>2017-06-20T08:33:48Z</time>
      </trkpt>
      <trkpt lat="43.71681" lon="7.31854">
        <ele>379.44</ele>
        <time>2017-06-20T08:33:53Z</time>
      </trkpt>
      <trkpt lat="43.71687" lon="7.31763">
        <ele>373.96</ele>
        <time>2017-06-20T08:33:58Z</time>
      </trkpt>
      <trkpt lat="43.71694" lon="7.31676">
        <ele>367.94</ele>
        <time>2017-06-20T08:34:03Z</time>
      </trkpt>
      <trkpt lat="43.71695" lon="7.31592">
        <ele>362.61</ele>
        <time>2017-06-20T08:34:08Z</time>
      </trkpt>
      <trkpt lat="43.71686" lon="7.31507">
        <ele>357.05</ele>
        <time>2017-06-20T08:34:13Z</time>
      </trkpt>
      <trkpt lat="43.71678" lon="7.31428">
        <ele>351.66</ele>
        <time>2017-06-20T08:34:18Z</time>
      </trkpt>
      <trkpt lat="43.7167" lon="7.31351">
        <ele>346.37</ele>
        <time>2017-06-20T08:34:23Z</time>
      </trkpt>
      <trkpt lat="43.71672" lon="7.31283">
        <ele>341.14</ele>
        <time>2017-06-20T08:34:28Z</time>
      </trkpt>
      <trkpt lat="43.71684" lon="7.3123">
        <ele>339.61</ele>
        <time>2017-06-20T08:34:33Z</time>
      </trkpt>
      <trkpt lat="43.71696" lon="7.31183">
        <ele>338.78</ele>
        <time>2017-06-20T08:34:38Z</time>
      </trkpt>
      <trkpt lat="43.71704" lon="7.31117">
        <ele>336.34</ele>
        <time>2017-06-20T08:34:43Z</time>
      </trkpt>
      <trkpt lat="43.71712" lon="7.31069">
        <ele>334.58</ele>
        <time>2017-06-20T08:34:48Z</time>
      </trkpt>
      <trkpt lat="43.71761" lon="7.31045">
        <ele>332.97</ele>
        <time>2017-06-20T08:34:53Z</time>
      </trkpt>
      <trkpt lat="43.71826" lon="7.31024">
        <ele>329.93</ele>
        <time>2017-06-20T08:34:58Z</time>
      </trkpt>
      <trkpt lat="43.71877" lon="7.31004">
        <ele>327.74</ele>
        <time>2017-06-20T08:35:03Z</time>
      </trkpt>
      <trkpt lat="43.71904" lon="7.30959">
        <ele>325.61</ele>
        <time>2017-06-20T08:35:08Z</time>
      </trkpt>
      <trkpt lat="43.71919" lon="7.30929">
        <ele>323.37</ele>
        <time>2017-06-20T08:38:13Z</time>
      </trkpt>
      <trkpt lat="43.7194" lon="7.30871">
        <ele>322.86</ele>
        <time>2017-06-20T08:38:18Z</time>
      </trkpt>
      <trkpt lat="43.71929" lon="7.30794">
        <ele>320.82</ele>
        <time>2017-06-20T08:38:23Z</time>
      </trkpt>
      <trkpt lat="43.71895" lon="7.30729">
        <ele>317.85</ele>
        <time>2017-06-20T08:38:28Z</time>
      </trkpt>
      <trkpt lat="43.71924" lon="7.30653">
        <ele>315.89</ele>
        <time>2017-06-20T08:38:33Z</time>
      </trkpt>
      <trkpt lat="43.71978" lon="7.30566">
        <ele>312.69</ele>
        <time>2017-06-20T08:38:38Z</time>
      </trkpt>
      <trkpt lat="43.72023" lon="7.30517">
        <ele>308.61</ele>
        <time>2017-06-20T08:38:43Z</time>
      </trkpt>
      <trkpt lat="43.72046" lon="7.30499">
        <ele>306.06</ele>
        <time>2017-06-20T08:38:48Z</time>
      </trkpt>
      <trkpt lat="43.72067" lon="7.30479">
        <ele>305.36</ele>
        <time>2017-06-20T08:39:02Z</time>
      </trkpt>
      <trkpt lat="43.72088" lon="7.30455">
        <ele>304</ele>
        <time>2017-06-20T08:39:08Z</time>
      </trkpt>
      <trkpt lat="43.72096" lon="7.30408">
        <ele>302.84</ele>
        <time>2017-06-20T08:39:13Z</time>
      </trkpt>
      <trkpt lat="43.72099" lon="7.30343">
        <ele>300.83</ele>
        <time>2017-06-20T08:39:18Z</time>
      </trkpt>
      <trkpt lat="43.7212" lon="7.30306">
        <ele>299.04</ele>
        <time>2017-06-20T08:39:23Z</time>
      </trkpt>
      <trkpt lat="43.72165" lon="7.30332">
        <ele>296.94</ele>
        <time>2017-06-20T08:39:28Z</time>
      </trkpt>
      <trkpt lat="43.72222" lon="7.30373">
        <ele>294.51</ele>
        <time>2017-06-20T08:39:33Z</time>
      </trkpt>
      <trkpt lat="43.72267" lon="7.30393">
        <ele>293.59</ele>
        <time>2017-06-20T08:39:38Z</time>
      </trkpt>
      <trkpt lat="43.72324" lon="7.30379">
        <ele>292.51</ele>
        <time>2017-06-20T08:39:43Z</time>
      </trkpt>
      <trkpt lat="43.72386" lon="7.30355">
        <ele>291.55</ele>
        <time>2017-06-20T08:39:48Z</time>
      </trkpt>
      <trkpt lat="43.72437" lon="7.30336">
        <ele>291.08</ele>
        <time>2017-06-20T08:39:53Z</time>
      </trkpt>
      <trkpt lat="43.72495" lon="7.30338">
        <ele>289.39</ele>
        <time>2017-06-20T08:39:58Z</time>
      </trkpt>
      <trkpt lat="43.72534" lon="7.30304">
        <ele>287.99</ele>
        <time>2017-06-20T08:40:03Z</time>
      </trkpt>
      <trkpt lat="43.72583" lon="7.30299">
        <ele>287.03</ele>
        <time>2017-06-20T08:40:08Z</time>
      </trkpt>
      <trkpt lat="43.7264" lon="7.30319">
        <ele>285.39</ele>
        <time>2017-06-20T08:40:13Z</time>
      </trkpt>
      <trkpt lat="43.72691" lon="7.30342">
        <ele>285.61</ele>
        <time>2017-06-20T08:40:18Z</time>
      </trkpt>
      <trkpt lat="43.72744" lon="7.30325">
        <ele>285.41</ele>
        <time>2017-06-20T08:40:23Z</time>
      </trkpt>
      <trkpt lat="43.72796" lon="7.30296">
        <ele>284.98</ele>
        <time>2017-06-20T08:40:28Z</time>
      </trkpt>
      <trkpt lat="43.72844" lon="7.30277">
        <ele>284.54</ele>
        <time>2017-06-20T08:40:33Z</time>
      </trkpt>
      <trkpt lat="43.72903" lon="7.30272">
        <ele>284.23</ele>
        <time>2017-06-20T08:40:38Z</time>
      </trkpt>
      <trkpt lat="43.72966" lon="7.30273">
        <ele>283.57</ele>
        <time>2017-06-20T08:40:43Z</time>
      </trkpt>
      <trkpt lat="43.72995" lon="7.3022">
        <ele>281.73</ele>
        <time>2017-06-20T08:40:48Z</time>
      </trkpt>
      <trkpt lat="43.72987" lon="7.30129">
        <ele>276.97</ele>
        <time>2017-06-20T08:40:53Z</time>
      </trkpt>
      <trkpt lat="43.72957" lon="7.30055">
        <ele>272.22</ele>
        <time>2017-06-20T08:40:58Z</time>
      </trkpt>
      <trkpt lat="43.72973" lon="7.30003">
        <ele>268.18</ele>
        <time>2017-06-20T08:41:03Z</time>
      </trkpt>
      <trkpt lat="43.73007" lon="7.29951">
        <ele>264.68</ele>
        <time>2017-06-20T08:41:08Z</time>
      </trkpt>
      <trkpt lat="43.73039" lon="7.29901">
        <ele>260.6</ele>
        <time>2017-06-20T08:41:13Z</time>
      </trkpt>
      <trkpt lat="43.73069" lon="7.29826">
        <ele>254.79</ele>
        <time>2017-06-20T08:41:18Z</time>
      </trkpt>
      <trkpt lat="43.73079" lon="7.29759">
        <ele>250.5</ele>
        <time>2017-06-20T08:41:23Z</time>
      </trkpt>
      <trkpt lat="43.73086" lon="7.29692">
        <ele>246.51</ele>
        <time>2017-06-20T08:41:28Z</time>
      </trkpt>
      <trkpt lat="43.73077" lon="7.29626">
        <ele>242.52</ele>
        <time>2017-06-20T08:41:33Z</time>
      </trkpt>
      <trkpt lat="43.73051" lon="7.29577">
        <ele>239.14</ele>
        <time>2017-06-20T08:41:38Z</time>
      </trkpt>
      <trkpt lat="43.72983" lon="7.29575">
        <ele>234.42</ele>
        <time>2017-06-20T08:41:43Z</time>
      </trkpt>
      <trkpt lat="43.72915" lon="7.29565">
        <ele>228.95</ele>
        <time>2017-06-20T08:41:48Z</time>
      </trkpt>
      <trkpt lat="43.72838" lon="7.29541">
        <ele>222.82</ele>
        <time>2017-06-20T08:41:53Z</time>
      </trkpt>
      <trkpt lat="43.7277" lon="7.29519">
        <ele>218.87</ele>
        <time>2017-06-20T08:41:58Z</time>
      </trkpt>
      <trkpt lat="43.72707" lon="7.29497">
        <ele>218.13</ele>
        <time>2017-06-20T08:42:03Z</time>
      </trkpt>
      <trkpt lat="43.72648" lon="7.29474">
        <ele>217.07</ele>
        <time>2017-06-20T08:42:08Z</time>
      </trkpt>
      <trkpt lat="43.726" lon="7.29469">
        <ele>213.8</ele>
        <time>2017-06-20T08:42:13Z</time>
      </trkpt>
      <trkpt lat="43.72559" lon="7.29508">
        <ele>209.61</ele>
        <time>2017-06-20T08:42:18Z</time>
      </trkpt>
      <trkpt lat="43.72521" lon="7.29553">
        <ele>205.37</ele>
        <time>2017-06-20T08:42:23Z</time>
      </trkpt>
      <trkpt lat="43.72485" lon="7.29597">
        <ele>201.77</ele>
        <time>2017-06-20T08:42:28Z</time>
      </trkpt>
      <trkpt lat="43.72442" lon="7.2964">
        <ele>198.15</ele>
        <time>2017-06-20T08:42:33Z</time>
      </trkpt>
      <trkpt lat="43.72398" lon="7.29652">
        <ele>194.38</ele>
        <time>2017-06-20T08:42:38Z</time>
      </trkpt>
      <trkpt lat="43.72354" lon="7.29633">
        <ele>191.25</ele>
        <time>2017-06-20T08:42:43Z</time>
      </trkpt>
      <trkpt lat="43.72321" lon="7.29584">
        <ele>187.98</ele>
        <time>2017-06-20T08:42:48Z</time>
      </trkpt>
      <trkpt lat="43.7229" lon="7.29552">
        <ele>184.43</ele>
        <time>2017-06-20T08:42:53Z</time>
      </trkpt>
      <trkpt lat="43.72251" lon="7.29543">
        <ele>180.57</ele>
        <time>2017-06-20T08:42:58Z</time>
      </trkpt>
      <trkpt lat="43.72206" lon="7.29542">
        <ele>177.16</ele>
        <time>2017-06-20T08:43:03Z</time>
      </trkpt>
      <trkpt lat="43.72164" lon="7.29569">
        <ele>173.62</ele>
        <time>2017-06-20T08:43:08Z</time>
      </trkpt>
      <trkpt lat="43.72121" lon="7.29631">
        <ele>168.82</ele>
        <time>2017-06-20T08:43:13Z</time>
      </trkpt>
      <trkpt lat="43.72085" lon="7.29682">
        <ele>164.02</ele>
        <time>2017-06-20T08:43:18Z</time>
      </trkpt>
      <trkpt lat="43.72043" lon="7.29677">
        <ele>160.11</ele>
        <time>2017-06-20T08:43:23Z</time>
      </trkpt>
      <trkpt lat="43.72025" lon="7.29658">
        <ele>156.38</ele>
        <time>2017-06-20T08:43:50Z</time>
      </trkpt>
      <trkpt lat="43.72005" lon="7.29642">
        <ele>155.33</ele>
        <time>2017-06-20T08:43:55Z</time>
      </trkpt>
      <trkpt lat="43.71964" lon="7.29639">
        <ele>152.15</ele>
        <time>2017-06-20T08:44:00Z</time>
      </trkpt>
      <trkpt lat="43.71924" lon="7.29679">
        <ele>147.99</ele>
        <time>2017-06-20T08:44:05Z</time>
      </trkpt>
      <trkpt lat="43.71889" lon="7.29722">
        <ele>143.89</ele>
        <time>2017-06-20T08:44:10Z</time>
      </trkpt>
      <trkpt lat="43.7185" lon="7.29769">
        <ele>139.99</ele>
        <time>2017-06-20T08:44:15Z</time>
      </trkpt>
      <trkpt lat="43.71812" lon="7.29815">
        <ele>135.14</ele>
        <time>2017-06-20T08:44:20Z</time>
      </trkpt>
      <trkpt lat="43.71775" lon="7.29842">
        <ele>131.35</ele>
        <time>2017-06-20T08:44:25Z</time>
      </trkpt>
      <trkpt lat="43.71742" lon="7.29798">
        <ele>127.83</ele>
        <time>2017-06-20T08:44:30Z</time>
      </trkpt>
      <trkpt lat="43.71711" lon="7.2975">
        <ele>123.59</ele>
        <time>2017-06-20T08:44:35Z</time>
      </trkpt>
      <trkpt lat="43.71655" lon="7.29734">
        <ele>119.32</ele>
        <time>2017-06-20T08:44:40Z</time>
      </trkpt>
      <trkpt lat="43.71602" lon="7.2972">
        <ele>114.68</ele>
        <time>2017-06-20T08:44:45Z</time>
      </trkpt>
      <trkpt lat="43.71547" lon="7.29707">
        <ele>109.67</ele>
        <time>2017-06-20T08:44:50Z</time>
      </trkpt>
      <trkpt lat="43.7149" lon="7.29692">
        <ele>105.16</ele>
        <time>2017-06-20T08:44:55Z</time>
      </trkpt>
      <trkpt lat="43.71424" lon="7.29668">
        <ele>100.26</ele>
        <time>2017-06-20T08:45:00Z</time>
      </trkpt>
      <trkpt lat="43.71361" lon="7.29633">
        <ele>94.6</ele>
        <time>2017-06-20T08:45:05Z</time>
      </trkpt>
      <trkpt lat="43.71309" lon="7.29603">
        <ele>89.6</ele>
        <time>2017-06-20T08:45:10Z</time>
      </trkpt>
      <trkpt lat="43.71261" lon="7.29582">
        <ele>85.13</ele>
        <time>2017-06-20T08:45:15Z</time>
      </trkpt>
      <trkpt lat="43.71206" lon="7.29571">
        <ele>80.39</ele>
        <time>2017-06-20T08:45:20Z</time>
      </trkpt>
      <trkpt lat="43.71155" lon="7.29553">
        <ele>76.49</ele>
        <time>2017-06-20T08:45:25Z</time>
      </trkpt>
      <trkpt lat="43.71113" lon="7.29533">
        <ele>72.87</ele>
        <time>2017-06-20T08:45:30Z</time>
      </trkpt>
      <trkpt lat="43.71082" lon="7.29513">
        <ele>68.87</ele>
        <time>2017-06-20T08:45:35Z</time>
      </trkpt>
      <trkpt lat="43.71048" lon="7.29484">
        <ele>65.62</ele>
        <time>2017-06-20T08:45:40Z</time>
      </trkpt>
      <trkpt lat="43.71007" lon="7.29454">
        <ele>61.73</ele>
        <time>2017-06-20T08:45:45Z</time>
      </trkpt>
      <trkpt lat="43.70963" lon="7.29437">
        <ele>57.34</ele>
        <time>2017-06-20T08:45:50Z</time>
      </trkpt>
      <trkpt lat="43.70922" lon="7.2942">
        <ele>53.06</ele>
        <time>2017-06-20T08:45:55Z</time>
      </trkpt>
      <trkpt lat="43.70874" lon="7.29392">
        <ele>48.66</ele>
        <time>2017-06-20T08:46:00Z</time>
      </trkpt>
      <trkpt lat="43.70843" lon="7.29365">
        <ele>44.57</ele>
        <time>2017-06-20T08:46:05Z</time>
      </trkpt>
      <trkpt lat="43.70838" lon="7.2933">
        <ele>42.03</ele>
        <time>2017-06-20T08:46:17Z</time>
      </trkpt>
      <trkpt lat="43.70836" lon="7.29295">
        <ele>40.26</ele>
        <time>2017-06-20T08:46:22Z</time>
      </trkpt>
      <trkpt lat="43.70855" lon="7.2928">
        <ele>39.93</ele>
        <time>2017-06-20T08:46:28Z</time>
      </trkpt>
      <trkpt lat="43.70886" lon="7.29282">
        <ele>39.31</ele>
        <time>2017-06-20T08:46:33Z</time>
      </trkpt>
      <trkpt lat="43.70909" lon="7.29286">
        <ele>39.47</ele>
        <time>2017-06-20T08:46:41Z</time>
      </trkpt>
      <trkpt lat="43.70932" lon="7.29286">
        <ele>39.7</ele>
        <time>2017-06-20T08:47:00Z</time>
      </trkpt>
      <trkpt lat="43.70965" lon="7.29285">
        <ele>40</ele>
        <time>2017-06-20T08:47:05Z</time>
      </trkpt>
      <trkpt lat="43.70998" lon="7.29284">
        <ele>40.14</ele>
        <time>2017-06-20T08:47:10Z</time>
      </trkpt>
      <trkpt lat="43.71034" lon="7.29283">
        <ele>40.32</ele>
        <time>2017-06-20T08:47:15Z</time>
      </trkpt>
      <trkpt lat="43.7106" lon="7.29284">
        <ele>39.99</ele>
        <time>2017-06-20T08:47:21Z</time>
      </trkpt>
      <trkpt lat="43.71087" lon="7.29276">
        <ele>40.58</ele>
        <time>2017-06-20T08:48:04Z</time>
      </trkpt>
      <trkpt lat="43.71124" lon="7.29273">
        <ele>40.88</ele>
        <time>2017-06-20T08:48:09Z</time>
      </trkpt>
      <trkpt lat="43.7115" lon="7.29278">
        <ele>41.29</ele>
        <time>2017-06-20T08:48:14Z</time>
      </trkpt>
      <trkpt lat="43.71184" lon="7.29284">
        <ele>41.58</ele>
        <time>2017-06-20T08:48:19Z</time>
      </trkpt>
      <trkpt lat="43.71227" lon="7.29286">
        <ele>42.09</ele>
        <time>2017-06-20T08:48:24Z</time>
      </trkpt>
      <trkpt lat="43.71251" lon="7.2929">
        <ele>42.61</ele>
        <time>2017-06-20T08:48:29Z</time>
      </trkpt>
      <trkpt lat="43.71291" lon="7.29291">
        <ele>42.8</ele>
        <time>2017-06-20T08:48:34Z</time>
      </trkpt>
      <trkpt lat="43.71334" lon="7.2929">
        <ele>43.63</ele>
        <time>2017-06-20T08:48:39Z</time>
      </trkpt>
      <trkpt lat="43.71374" lon="7.29291">
        <ele>44.28</ele>
        <time>2017-06-20T08:48:44Z</time>
      </trkpt>
      <trkpt lat="43.71416" lon="7.29296">
        <ele>44.68</ele>
        <time>2017-06-20T08:48:49Z</time>
      </trkpt>
      <trkpt lat="43.71465" lon="7.29294">
        <ele>45.19</ele>
        <time>2017-06-20T08:48:54Z</time>
      </trkpt>
      <trkpt lat="43.7149" lon="7.29291">
        <ele>44.81</ele>
        <time>2017-06-20T08:48:59Z</time>
      </trkpt>
      <trkpt lat="43.71517" lon="7.29289">
        <ele>45.31</ele>
        <time>2017-06-20T08:49:17Z</time>
      </trkpt>
      <trkpt lat="43.71548" lon="7.29285">
        <ele>45.54</ele>
        <time>2017-06-20T08:49:22Z</time>
      </trkpt>
      <trkpt lat="43.71577" lon="7.29283">
        <ele>46.09</ele>
        <time>2017-06-20T08:49:27Z</time>
      </trkpt>
      <trkpt lat="43.71625" lon="7.29272">
        <ele>46.85</ele>
        <time>2017-06-20T08:49:32Z</time>
      </trkpt>
      <trkpt lat="43.71661" lon="7.29255">
        <ele>46.89</ele>
        <time>2017-06-20T08:49:37Z</time>
      </trkpt>
      <trkpt lat="43.71691" lon="7.29243">
        <ele>46.9</ele>
        <time>2017-06-20T08:49:42Z</time>
      </trkpt>
      <trkpt lat="43.71728" lon="7.29228">
        <ele>47.26</ele>
        <time>2017-06-20T08:49:47Z</time>
      </trkpt>
      <trkpt lat="43.71776" lon="7.29208">
        <ele>48.2</ele>
        <time>2017-06-20T08:49:52Z</time>
      </trkpt>
      <trkpt lat="43.71826" lon="7.29188">
        <ele>49.2</ele>
        <time>2017-06-20T08:49:57Z</time>
      </trkpt>
      <trkpt lat="43.71862" lon="7.29176">
        <ele>49.72</ele>
        <time>2017-06-20T08:50:02Z</time>
      </trkpt>
      <trkpt lat="43.71891" lon="7.29171">
        <ele>50.5</ele>
        <time>2017-06-20T08:50:27Z</time>
      </trkpt>
      <trkpt lat="43.71939" lon="7.29161">
        <ele>50.97</ele>
        <time>2017-06-20T08:50:32Z</time>
      </trkpt>
      <trkpt lat="43.71995" lon="7.29169">
        <ele>51.55</ele>
        <time>2017-06-20T08:50:37Z</time>
      </trkpt>
      <trkpt lat="43.72059" lon="7.29177">
        <ele>51.97</ele>
        <time>2017-06-20T08:50:42Z</time>
      </trkpt>
      <trkpt lat="43.72036" lon="7.2919">
        <ele>51.19</ele>
        <time>2017-06-20T08:50:59Z</time>
      </trkpt>
      <trkpt lat="43.72058" lon="7.29182">
        <ele>51.11</ele>
        <time>2017-06-20T08:57:59Z</time>
      </trkpt>
      <trkpt lat="43.72089" lon="7.29179">
        <ele>51.82</ele>
        <time>2017-06-20T08:58:07Z</time>
      </trkpt>
      <trkpt lat="43.72144" lon="7.29185">
        <ele>53.09</ele>
        <time>2017-06-20T08:58:12Z</time>
      </trkpt>
      <trkpt lat="43.72186" lon="7.29188">
        <ele>53.87</ele>
        <time>2017-06-20T08:58:17Z</time>
      </trkpt>
      <trkpt lat="43.72216" lon="7.2919">
        <ele>55.09</ele>
        <time>2017-06-20T08:58:22Z</time>
      </trkpt>
      <trkpt lat="43.72242" lon="7.29192">
        <ele>56.19</ele>
        <time>2017-06-20T08:58:58Z</time>
      </trkpt>
      <trkpt lat="43.72268" lon="7.29191">
        <ele>58</ele>
        <time>2017-06-20T08:59:03Z</time>
      </trkpt>
      <trkpt lat="43.72286" lon="7.29169">
        <ele>59.23</ele>
        <time>2017-06-20T08:59:08Z</time>
      </trkpt>
      <trkpt lat="43.72291" lon="7.29121">
        <ele>59.25</ele>
        <time>2017-06-20T08:59:13Z</time>
      </trkpt>
      <trkpt lat="43.72294" lon="7.29082">
        <ele>57.69</ele>
        <time>2017-06-20T08:59:18Z</time>
      </trkpt>
      <trkpt lat="43.72299" lon="7.29041">
        <ele>56.33</ele>
        <time>2017-06-20T08:59:23Z</time>
      </trkpt>
      <trkpt lat="43.72303" lon="7.29001">
        <ele>56.33</ele>
        <time>2017-06-20T08:59:33Z</time>
      </trkpt>
      <trkpt lat="43.72308" lon="7.2894">
        <ele>55.76</ele>
        <time>2017-06-20T08:59:38Z</time>
      </trkpt>
      <trkpt lat="43.72311" lon="7.28885">
        <ele>55.62</ele>
        <time>2017-06-20T08:59:43Z</time>
      </trkpt>
      <trkpt lat="43.72327" lon="7.28862">
        <ele>56.1</ele>
        <time>2017-06-20T08:59:48Z</time>
      </trkpt>
      <trkpt lat="43.72376" lon="7.28846">
        <ele>55.55</ele>
        <time>2017-06-20T08:59:53Z</time>
      </trkpt>
      <trkpt lat="43.72441" lon="7.28827">
        <ele>56.18</ele>
        <time>2017-06-20T08:59:58Z</time>
      </trkpt>
      <trkpt lat="43.72506" lon="7.2879">
        <ele>56.7</ele>
        <time>2017-06-20T09:00:03Z</time>
      </trkpt>
      <trkpt lat="43.72559" lon="7.28719">
        <ele>57.68</ele>
        <time>2017-06-20T09:00:08Z</time>
      </trkpt>
      <trkpt lat="43.72603" lon="7.28636">
        <ele>58.27</ele>
        <time>2017-06-20T09:00:13Z</time>
      </trkpt>
      <trkpt lat="43.72648" lon="7.28545">
        <ele>59.15</ele>
        <time>2017-06-20T09:00:18Z</time>
      </trkpt>
      <trkpt lat="43.72699" lon="7.2845">
        <ele>60.48</ele>
        <time>2017-06-20T09:00:23Z</time>
      </trkpt>
      <trkpt lat="43.72763" lon="7.28376">
        <ele>61.17</ele>
        <time>2017-06-20T09:00:28Z</time>
      </trkpt>
      <trkpt lat="43.72826" lon="7.28337">
        <ele>61.35</ele>
        <time>2017-06-20T09:00:33Z</time>
      </trkpt>
      <trkpt lat="43.72896" lon="7.28317">
        <ele>62</ele>
        <time>2017-06-20T09:00:38Z</time>
      </trkpt>
      <trkpt lat="43.72958" lon="7.28332">
        <ele>62.46</ele>
        <time>2017-06-20T09:00:43Z</time>
      </trkpt>
      <trkpt lat="43.73017" lon="7.28372">
        <ele>63.42</ele>
        <time>2017-06-20T09:00:48Z</time>
      </trkpt>
      <trkpt lat="43.73051" lon="7.28429">
        <ele>63.74</ele>
        <time>2017-06-20T09:00:53Z</time>
      </trkpt>
      <trkpt lat="43.73061" lon="7.28471">
        <ele>64.77</ele>
        <time>2017-06-20T09:00:58Z</time>
      </trkpt>
      <trkpt lat="43.73071" lon="7.28506">
        <ele>65.23</ele>
        <time>2017-06-20T09:01:05Z</time>
      </trkpt>
      <trkpt lat="43.73083" lon="7.28539">
        <ele>65.45</ele>
        <time>2017-06-20T09:01:35Z</time>
      </trkpt>
      <trkpt lat="43.73092" lon="7.28571">
        <ele>65.93</ele>
        <time>2017-06-20T09:01:44Z</time>
      </trkpt>
      <trkpt lat="43.7307" lon="7.28588">
        <ele>65.57</ele>
        <time>2017-06-20T09:02:39Z</time>
      </trkpt>
      <trkpt lat="43.73049" lon="7.28537">
        <ele>66.34</ele>
        <time>2017-06-20T09:02:44Z</time>
      </trkpt>
      <trkpt lat="43.73036" lon="7.28449">
        <ele>65.49</ele>
        <time>2017-06-20T09:02:49Z</time>
      </trkpt>
      <trkpt lat="43.72995" lon="7.28389">
        <ele>64.14</ele>
        <time>2017-06-20T09:02:54Z</time>
      </trkpt>
      <trkpt lat="43.72919" lon="7.28374">
        <ele>63.92</ele>
        <time>2017-06-20T09:02:59Z</time>
      </trkpt>
      <trkpt lat="43.72839" lon="7.28376">
        <ele>62.58</ele>
        <time>2017-06-20T09:03:04Z</time>
      </trkpt>
      <trkpt lat="43.72766" lon="7.28399">
        <ele>62.26</ele>
        <time>2017-06-20T09:03:09Z</time>
      </trkpt>
      <trkpt lat="43.72719" lon="7.28462">
        <ele>60.85</ele>
        <time>2017-06-20T09:03:14Z</time>
      </trkpt>
      <trkpt lat="43.72674" lon="7.28544">
        <ele>59.74</ele>
        <time>2017-06-20T09:03:19Z</time>
      </trkpt>
      <trkpt lat="43.72634" lon="7.28621">
        <ele>58.92</ele>
        <time>2017-06-20T09:03:24Z</time>
      </trkpt>
      <trkpt lat="43.72606" lon="7.28673">
        <ele>58.15</ele>
        <time>2017-06-20T09:03:29Z</time>
      </trkpt>
      <trkpt lat="43.72577" lon="7.28729">
        <ele>58.01</ele>
        <time>2017-06-20T09:03:34Z</time>
      </trkpt>
      <trkpt lat="43.72539" lon="7.28806">
        <ele>57.84</ele>
        <time>2017-06-20T09:03:39Z</time>
      </trkpt>
      <trkpt lat="43.72514" lon="7.28849">
        <ele>56.27</ele>
        <time>2017-06-20T09:03:44Z</time>
      </trkpt>
      <trkpt lat="43.72499" lon="7.28875">
        <ele>56.08</ele>
        <time>2017-06-20T09:03:52Z</time>
      </trkpt>
      <trkpt lat="43.72472" lon="7.28917">
        <ele>56.34</ele>
        <time>2017-06-20T09:03:57Z</time>
      </trkpt>
      <trkpt lat="43.72457" lon="7.28946">
        <ele>55.08</ele>
        <time>2017-06-20T09:04:12Z</time>
      </trkpt>
      <trkpt lat="43.7242" lon="7.28982">
        <ele>55.79</ele>
        <time>2017-06-20T09:04:17Z</time>
      </trkpt>
      <trkpt lat="43.72367" lon="7.29007">
        <ele>56.38</ele>
        <time>2017-06-20T09:04:22Z</time>
      </trkpt>
      <trkpt lat="43.72313" lon="7.29006">
        <ele>56.47</ele>
        <time>2017-06-20T09:04:27Z</time>
      </trkpt>
      <trkpt lat="43.72298" lon="7.2898">
        <ele>55.87</ele>
        <time>2017-06-20T09:04:32Z</time>
      </trkpt>
      <trkpt lat="43.72303" lon="7.28947">
        <ele>55.74</ele>
        <time>2017-06-20T09:04:58Z</time>
      </trkpt>
      <trkpt lat="43.72307" lon="7.28916">
        <ele>55.63</ele>
        <time>2017-06-20T09:05:04Z</time>
      </trkpt>
      <trkpt lat="43.72308" lon="7.28877">
        <ele>56.75</ele>
        <time>2017-06-20T09:05:45Z</time>
      </trkpt>
      <trkpt lat="43.72314" lon="7.28822">
        <ele>57.89</ele>
        <time>2017-06-20T09:05:50Z</time>
      </trkpt>
      <trkpt lat="43.72318" lon="7.28775">
        <ele>58.13</ele>
        <time>2017-06-20T09:05:55Z</time>
      </trkpt>
      <trkpt lat="43.72324" lon="7.28733">
        <ele>57.14</ele>
        <time>2017-06-20T09:06:00Z</time>
      </trkpt>
      <trkpt lat="43.72356" lon="7.28717">
        <ele>56.86</ele>
        <time>2017-06-20T09:06:05Z</time>
      </trkpt>
      <trkpt lat="43.72406" lon="7.28699">
        <ele>56.6</ele>
        <time>2017-06-20T09:06:10Z</time>
      </trkpt>
      <trkpt lat="43.72449" lon="7.2867">
        <ele>56.94</ele>
        <time>2017-06-20T09:06:15Z</time>
      </trkpt>
      <trkpt lat="43.72474" lon="7.28646">
        <ele>57.41</ele>
        <time>2017-06-20T09:06:20Z</time>
      </trkpt>
      <trkpt lat="43.72493" lon="7.28625">
        <ele>58.33</ele>
        <time>2017-06-20T09:06:25Z</time>
      </trkpt>
      <trkpt lat="43.72515" lon="7.2859">
        <ele>58.29</ele>
        <time>2017-06-20T09:06:30Z</time>
      </trkpt>
      <trkpt lat="43.72531" lon="7.28553">
        <ele>58.79</ele>
        <time>2017-06-20T09:06:58Z</time>
      </trkpt>
      <trkpt lat="43.72566" lon="7.28488">
        <ele>59.92</ele>
        <time>2017-06-20T09:07:03Z</time>
      </trkpt>
      <trkpt lat="43.72604" lon="7.28417">
        <ele>61.3</ele>
        <time>2017-06-20T09:07:08Z</time>
      </trkpt>
      <trkpt lat="43.72651" lon="7.28348">
        <ele>61.79</ele>
        <time>2017-06-20T09:07:13Z</time>
      </trkpt>
      <trkpt lat="43.72698" lon="7.28288">
        <ele>62.56</ele>
        <time>2017-06-20T09:07:18Z</time>
      </trkpt>
      <trkpt lat="43.72747" lon="7.28241">
        <ele>62.95</ele>
        <time>2017-06-20T09:07:23Z</time>
      </trkpt>
      <trkpt lat="43.72804" lon="7.2821">
        <ele>63.48</ele>
        <time>2017-06-20T09:07:28Z</time>
      </trkpt>
      <trkpt lat="43.72875" lon="7.28199">
        <ele>64.52</ele>
        <time>2017-06-20T09:07:33Z</time>
      </trkpt>
      <trkpt lat="43.72949" lon="7.28196">
        <ele>64.74</ele>
        <time>2017-06-20T09:07:38Z</time>
      </trkpt>
      <trkpt lat="43.73008" lon="7.28221">
        <ele>65.24</ele>
        <time>2017-06-20T09:07:43Z</time>
      </trkpt>
      <trkpt lat="43.73052" lon="7.28271">
        <ele>65.56</ele>
        <time>2017-06-20T09:07:48Z</time>
      </trkpt>
      <trkpt lat="43.73091" lon="7.28334">
        <ele>67.23</ele>
        <time>2017-06-20T09:07:53Z</time>
      </trkpt>
      <trkpt lat="43.73139" lon="7.2841">
        <ele>67.61</ele>
        <time>2017-06-20T09:07:58Z</time>
      </trkpt>
      <trkpt lat="43.73177" lon="7.28454">
        <ele>66.7</ele>
        <time>2017-06-20T09:08:03Z</time>
      </trkpt>
      <trkpt lat="43.73198" lon="7.28466">
        <ele>67.29</ele>
        <time>2017-06-20T09:08:08Z</time>
      </trkpt>
      <trkpt lat="43.7322" lon="7.28477">
        <ele>67.74</ele>
        <time>2017-06-20T09:09:02Z</time>
      </trkpt>
      <trkpt lat="43.73276" lon="7.28484">
        <ele>68.92</ele>
        <time>2017-06-20T09:09:07Z</time>
      </trkpt>
      <trkpt lat="43.73337" lon="7.28487">
        <ele>68.92</ele>
        <time>2017-06-20T09:09:12Z</time>
      </trkpt>
      <trkpt lat="43.73382" lon="7.28519">
        <ele>69.74</ele>
        <time>2017-06-20T09:09:17Z</time>
      </trkpt>
      <trkpt lat="43.73418" lon="7.28589">
        <ele>70.89</ele>
        <time>2017-06-20T09:09:22Z</time>
      </trkpt>
      <trkpt lat="43.73437" lon="7.28668">
        <ele>71</ele>
        <time>2017-06-20T09:09:27Z</time>
      </trkpt>
      <trkpt lat="43.73451" lon="7.28725">
        <ele>71.69</ele>
        <time>2017-06-20T09:09:32Z</time>
      </trkpt>
      <trkpt lat="43.73496" lon="7.28778">
        <ele>72.96</ele>
        <time>2017-06-20T09:09:37Z</time>
      </trkpt>
      <trkpt lat="43.73564" lon="7.28784">
        <ele>74.08</ele>
        <time>2017-06-20T09:09:42Z</time>
      </trkpt>
      <trkpt lat="43.73621" lon="7.2876">
        <ele>74.06</ele>
        <time>2017-06-20T09:09:47Z</time>
      </trkpt>
      <trkpt lat="43.73662" lon="7.28738">
        <ele>75.74</ele>
        <time>2017-06-20T09:09:52Z</time>
      </trkpt>
      <trkpt lat="43.73698" lon="7.28718">
        <ele>74.96</ele>
        <time>2017-06-20T09:09:57Z</time>
      </trkpt>
      <trkpt lat="43.7373" lon="7.28713">
        <ele>75.25</ele>
        <time>2017-06-20T09:10:02Z</time>
      </trkpt>
      <trkpt lat="43.73757" lon="7.28725">
        <ele>75.95</ele>
        <time>2017-06-20T09:10:07Z</time>
      </trkpt>
      <trkpt lat="43.73789" lon="7.28724">
        <ele>75.8</ele>
        <time>2017-06-20T09:10:12Z</time>
      </trkpt>
      <trkpt lat="43.73829" lon="7.28718">
        <ele>75.96</ele>
        <time>2017-06-20T09:10:17Z</time>
      </trkpt>
      <trkpt lat="43.73855" lon="7.28722">
        <ele>76.32</ele>
        <time>2017-06-20T09:10:22Z</time>
      </trkpt>
      <trkpt lat="43.7388" lon="7.28734">
        <ele>76.85</ele>
        <time>2017-06-20T09:10:27Z</time>
      </trkpt>
      <trkpt lat="43.73903" lon="7.28744">
        <ele>76.98</ele>
        <time>2017-06-20T09:10:33Z</time>
      </trkpt>
      <trkpt lat="43.73925" lon="7.28752">
        <ele>77.96</ele>
        <time>2017-06-20T09:10:42Z</time>
      </trkpt>
      <trkpt lat="43.73954" lon="7.28765">
        <ele>79.56</ele>
        <time>2017-06-20T09:10:47Z</time>
      </trkpt>
      <trkpt lat="43.73995" lon="7.2878">
        <ele>79</ele>
        <time>2017-06-20T09:10:52Z</time>
      </trkpt>
      <trkpt lat="43.74033" lon="7.28786">
        <ele>79.61</ele>
        <time>2017-06-20T09:10:57Z</time>
      </trkpt>
      <trkpt lat="43.74066" lon="7.28792">
        <ele>80.26</ele>
        <time>2017-06-20T09:11:02Z</time>
      </trkpt>
      <trkpt lat="43.74096" lon="7.28793">
        <ele>80.47</ele>
        <time>2017-06-20T09:11:07Z</time>
      </trkpt>
      <trkpt lat="43.74134" lon="7.28797">
        <ele>81.6</ele>
        <time>2017-06-20T09:11:12Z</time>
      </trkpt>
      <trkpt lat="43.74176" lon="7.28798">
        <ele>82.12</ele>
        <time>2017-06-20T09:11:17Z</time>
      </trkpt>
      <trkpt lat="43.74213" lon="7.28799">
        <ele>82.89</ele>
        <time>2017-06-20T09:11:22Z</time>
      </trkpt>
      <trkpt lat="43.7425" lon="7.28803">
        <ele>83.23</ele>
        <time>2017-06-20T09:11:27Z</time>
      </trkpt>
      <trkpt lat="43.7429" lon="7.28806">
        <ele>83.81</ele>
        <time>2017-06-20T09:11:32Z</time>
      </trkpt>
      <trkpt lat="43.74325" lon="7.28807">
        <ele>83.86</ele>
        <time>2017-06-20T09:11:37Z</time>
      </trkpt>
      <trkpt lat="43.74383" lon="7.28816">
        <ele>86.19</ele>
        <time>2017-06-20T09:11:42Z</time>
      </trkpt>
      <trkpt lat="43.7444" lon="7.28814">
        <ele>85.93</ele>
        <time>2017-06-20T09:11:47Z</time>
      </trkpt>
      <trkpt lat="43.74474" lon="7.28797">
        <ele>87.48</ele>
        <time>2017-06-20T09:11:52Z</time>
      </trkpt>
      <trkpt lat="43.74509" lon="7.28768">
        <ele>89.68</ele>
        <time>2017-06-20T09:11:57Z</time>
      </trkpt>
      <trkpt lat="43.74544" lon="7.28741">
        <ele>91.58</ele>
        <time>2017-06-20T09:12:02Z</time>
      </trkpt>
      <trkpt lat="43.74579" lon="7.28738">
        <ele>93.97</ele>
        <time>2017-06-20T09:12:07Z</time>
      </trkpt>
      <trkpt lat="43.74623" lon="7.2876">
        <ele>96.48</ele>
        <time>2017-06-20T09:12:12Z</time>
      </trkpt>
      <trkpt lat="43.74662" lon="7.28733">
        <ele>99.11</ele>
        <time>2017-06-20T09:12:17Z</time>
      </trkpt>
      <trkpt lat="43.74702" lon="7.28694">
        <ele>101.56</ele>
        <time>2017-06-20T09:12:22Z</time>
      </trkpt>
      <trkpt lat="43.74745" lon="7.28659">
        <ele>104.15</ele>
        <time>2017-06-20T09:12:27Z</time>
      </trkpt>
      <trkpt lat="43.74793" lon="7.28629">
        <ele>107.01</ele>
        <time>2017-06-20T09:12:32Z</time>
      </trkpt>
      <trkpt lat="43.74835" lon="7.28598">
        <ele>110.49</ele>
        <time>2017-06-20T09:12:37Z</time>
      </trkpt>
      <trkpt lat="43.74878" lon="7.2856">
        <ele>113.04</ele>
        <time>2017-06-20T09:12:42Z</time>
      </trkpt>
      <trkpt lat="43.74904" lon="7.28495">
        <ele>115.89</ele>
        <time>2017-06-20T09:12:47Z</time>
      </trkpt>
      <trkpt lat="43.74932" lon="7.28442">
        <ele>117.64</ele>
        <time>2017-06-20T09:12:52Z</time>
      </trkpt>
      <trkpt lat="43.74971" lon="7.28402">
        <ele>120.34</ele>
        <time>2017-06-20T09:12:57Z</time>
      </trkpt>
      <trkpt lat="43.75015" lon="7.28383">
        <ele>123.39</ele>
        <time>2017-06-20T09:13:02Z</time>
      </trkpt>
      <trkpt lat="43.7505" lon="7.2837">
        <ele>124.8</ele>
        <time>2017-06-20T09:13:07Z</time>
      </trkpt>
      <trkpt lat="43.75104" lon="7.28337">
        <ele>127.05</ele>
        <time>2017-06-20T09:13:12Z</time>
      </trkpt>
      <trkpt lat="43.75133" lon="7.28255">
        <ele>128.64</ele>
        <time>2017-06-20T09:13:17Z</time>
      </trkpt>
      <trkpt lat="43.75127" lon="7.2817">
        <ele>130.18</ele>
        <time>2017-06-20T09:13:22Z</time>
      </trkpt>
      <trkpt lat="43.7513" lon="7.28082">
        <ele>133.47</ele>
        <time>2017-06-20T09:13:27Z</time>
      </trkpt>
      <trkpt lat="43.75142" lon="7.28018">
        <ele>135.83</ele>
        <time>2017-06-20T09:13:32Z</time>
      </trkpt>
      <trkpt lat="43.75186" lon="7.27957">
        <ele>139.02</ele>
        <time>2017-06-20T09:13:37Z</time>
      </trkpt>
      <trkpt lat="43.75206" lon="7.2788">
        <ele>141.1</ele>
        <time>2017-06-20T09:13:42Z</time>
      </trkpt>
      <trkpt lat="43.7519" lon="7.27813">
        <ele>142.99</ele>
        <time>2017-06-20T09:13:47Z</time>
      </trkpt>
      <trkpt lat="43.75215" lon="7.27753">
        <ele>145.71</ele>
        <time>2017-06-20T09:13:52Z</time>
      </trkpt>
      <trkpt lat="43.75263" lon="7.27705">
        <ele>148.83</ele>
        <time>2017-06-20T09:13:57Z</time>
      </trkpt>
      <trkpt lat="43.75318" lon="7.27706">
        <ele>152.93</ele>
        <time>2017-06-20T09:14:02Z</time>
      </trkpt>
      <trkpt lat="43.75376" lon="7.27752">
        <ele>156.84</ele>
        <time>2017-06-20T09:14:07Z</time>
      </trkpt>
      <trkpt lat="43.7542" lon="7.27799">
        <ele>159.52</ele>
        <time>2017-06-20T09:14:12Z</time>
      </trkpt>
      <trkpt lat="43.75434" lon="7.27823">
        <ele>160.12</ele>
        <time>2017-06-20T09:14:18Z</time>
      </trkpt>
      <trkpt lat="43.75457" lon="7.2787">
        <ele>161.63</ele>
        <time>2017-06-20T09:14:23Z</time>
      </trkpt>
      <trkpt lat="43.75471" lon="7.27958">
        <ele>164.52</ele>
        <time>2017-06-20T09:14:28Z</time>
      </trkpt>
      <trkpt lat="43.75486" lon="7.28019">
        <ele>167.41</ele>
        <time>2017-06-20T09:14:33Z</time>
      </trkpt>
      <trkpt lat="43.75548" lon="7.27984">
        <ele>172.06</ele>
        <time>2017-06-20T09:14:38Z</time>
      </trkpt>
      <trkpt lat="43.7561" lon="7.27964">
        <ele>175.53</ele>
        <time>2017-06-20T09:14:43Z</time>
      </trkpt>
      <trkpt lat="43.7566" lon="7.27885">
        <ele>182.03</ele>
        <time>2017-06-20T09:14:48Z</time>
      </trkpt>
      <trkpt lat="43.75717" lon="7.27807">
        <ele>186.13</ele>
        <time>2017-06-20T09:14:53Z</time>
      </trkpt>
      <trkpt lat="43.75766" lon="7.27808">
        <ele>189.94</ele>
        <time>2017-06-20T09:14:58Z</time>
      </trkpt>
      <trkpt lat="43.75805" lon="7.27858">
        <ele>193.69</ele>
        <time>2017-06-20T09:15:03Z</time>
      </trkpt>
      <trkpt lat="43.75854" lon="7.27808">
        <ele>197.69</ele>
        <time>2017-06-20T09:15:08Z</time>
      </trkpt>
      <trkpt lat="43.75954" lon="7.2776">
        <ele>205.67</ele>
        <time>2017-06-20T09:15:13Z</time>
      </trkpt>
      <trkpt lat="43.76019" lon="7.27709">
        <ele>210.42</ele>
        <time>2017-06-20T09:15:18Z</time>
      </trkpt>
      <trkpt lat="43.76047" lon="7.27754">
        <ele>213.13</ele>
        <time>2017-06-20T09:15:23Z</time>
      </trkpt>
      <trkpt lat="43.76109" lon="7.27847">
        <ele>221.76</ele>
        <time>2017-06-20T09:15:28Z</time>
      </trkpt>
      <trkpt lat="43.76186" lon="7.27976">
        <ele>224.99</ele>
        <time>2017-06-20T09:15:33Z</time>
      </trkpt>
      <trkpt lat="43.76228" lon="7.28082">
        <ele>228.28</ele>
        <time>2017-06-20T09:15:38Z</time>
      </trkpt>
      <trkpt lat="43.76263" lon="7.28181">
        <ele>229.52</ele>
        <time>2017-06-20T09:15:43Z</time>
      </trkpt>
      <trkpt lat="43.76314" lon="7.28231">
        <ele>231.02</ele>
        <time>2017-06-20T09:15:48Z</time>
      </trkpt>
      <trkpt lat="43.76402" lon="7.28223">
        <ele>233.19</ele>
        <time>2017-06-20T09:15:53Z</time>
      </trkpt>
      <trkpt lat="43.76486" lon="7.2816">
        <ele>235.85</ele>
        <time>2017-06-20T09:15:58Z</time>
      </trkpt>
      <trkpt lat="43.76558" lon="7.28099">
        <ele>238.2</ele>
        <time>2017-06-20T09:16:03Z</time>
      </trkpt>
      <trkpt lat="43.76641" lon="7.28068">
        <ele>240.74</ele>
        <time>2017-06-20T09:16:08Z</time>
      </trkpt>
      <trkpt lat="43.76719" lon="7.28038">
        <ele>240.36</ele>
        <time>2017-06-20T09:16:13Z</time>
      </trkpt>
      <trkpt lat="43.76789" lon="7.27998">
        <ele>241.2</ele>
        <time>2017-06-20T09:16:18Z</time>
      </trkpt>
      <trkpt lat="43.76861" lon="7.2797">
        <ele>245.68</ele>
        <time>2017-06-20T09:16:23Z</time>
      </trkpt>
      <trkpt lat="43.76925" lon="7.27957">
        <ele>249.08</ele>
        <time>2017-06-20T09:16:28Z</time>
      </trkpt>
      <trkpt lat="43.76981" lon="7.27933">
        <ele>247.69</ele>
        <time>2017-06-20T09:16:33Z</time>
      </trkpt>
      <trkpt lat="43.77029" lon="7.27987">
        <ele>245.65</ele>
        <time>2017-06-20T09:16:38Z</time>
      </trkpt>
      <trkpt lat="43.77059" lon="7.28049">
        <ele>248.46</ele>
        <time>2017-06-20T09:16:43Z</time>
      </trkpt>
      <trkpt lat="43.77116" lon="7.28068">
        <ele>250.57</ele>
        <time>2017-06-20T09:16:48Z</time>
      </trkpt>
      <trkpt lat="43.77169" lon="7.2807">
        <ele>251.69</ele>
        <time>2017-06-20T09:16:53Z</time>
      </trkpt>
      <trkpt lat="43.77221" lon="7.28047">
        <ele>253.27</ele>
        <time>2017-06-20T09:16:58Z</time>
      </trkpt>
      <trkpt lat="43.77275" lon="7.28012">
        <ele>254.68</ele>
        <time>2017-06-20T09:17:03Z</time>
      </trkpt>
      <trkpt lat="43.77328" lon="7.27982">
        <ele>256.34</ele>
        <time>2017-06-20T09:17:08Z</time>
      </trkpt>
      <trkpt lat="43.77373" lon="7.27994">
        <ele>256.83</ele>
        <time>2017-06-20T09:17:13Z</time>
      </trkpt>
      <trkpt lat="43.774" lon="7.27956">
        <ele>257.22</ele>
        <time>2017-06-20T09:17:18Z</time>
      </trkpt>
      <trkpt lat="43.77408" lon="7.27902">
        <ele>260.55</ele>
        <time>2017-06-20T09:17:23Z</time>
      </trkpt>
      <trkpt lat="43.77425" lon="7.27864">
        <ele>263.15</ele>
        <time>2017-06-20T09:17:28Z</time>
      </trkpt>
      <trkpt lat="43.7744" lon="7.27837">
        <ele>264.89</ele>
        <time>2017-06-20T09:17:35Z</time>
      </trkpt>
      <trkpt lat="43.77451" lon="7.27805">
        <ele>266.67</ele>
        <time>2017-06-20T09:17:40Z</time>
      </trkpt>
      <trkpt lat="43.77475" lon="7.27782">
        <ele>269.34</ele>
        <time>2017-06-20T09:17:45Z</time>
      </trkpt>
      <trkpt lat="43.77512" lon="7.27768">
        <ele>271.44</ele>
        <time>2017-06-20T09:17:50Z</time>
      </trkpt>
      <trkpt lat="43.77544" lon="7.27732">
        <ele>273.88</ele>
        <time>2017-06-20T09:17:55Z</time>
      </trkpt>
      <trkpt lat="43.77576" lon="7.27686">
        <ele>275.71</ele>
        <time>2017-06-20T09:18:00Z</time>
      </trkpt>
      <trkpt lat="43.77623" lon="7.27672">
        <ele>279.56</ele>
        <time>2017-06-20T09:18:05Z</time>
      </trkpt>
      <trkpt lat="43.77686" lon="7.27649">
        <ele>284.53</ele>
        <time>2017-06-20T09:18:10Z</time>
      </trkpt>
      <trkpt lat="43.77759" lon="7.27601">
        <ele>288.68</ele>
        <time>2017-06-20T09:18:15Z</time>
      </trkpt>
      <trkpt lat="43.7781" lon="7.27548">
        <ele>292.09</ele>
        <time>2017-06-20T09:18:20Z</time>
      </trkpt>
      <trkpt lat="43.77855" lon="7.27557">
        <ele>295.06</ele>
        <time>2017-06-20T09:18:25Z</time>
      </trkpt>
      <trkpt lat="43.77911" lon="7.27571">
        <ele>299.48</ele>
        <time>2017-06-20T09:18:30Z</time>
      </trkpt>
      <trkpt lat="43.77972" lon="7.27562">
        <ele>302.81</ele>
        <time>2017-06-20T09:18:35Z</time>
      </trkpt>
      <trkpt lat="43.78043" lon="7.27575">
        <ele>307.27</ele>
        <time>2017-06-20T09:18:40Z</time>
      </trkpt>
      <trkpt lat="43.78122" lon="7.27563">
        <ele>312.59</ele>
        <time>2017-06-20T09:18:45Z</time>
      </trkpt>
      <trkpt lat="43.78193" lon="7.27523">
        <ele>317.44</ele>
        <time>2017-06-20T09:18:50Z</time>
      </trkpt>
      <trkpt lat="43.78245" lon="7.27477">
        <ele>321.45</ele>
        <time>2017-06-20T09:18:55Z</time>
      </trkpt>
      <trkpt lat="43.78297" lon="7.27448">
        <ele>324.57</ele>
        <time>2017-06-20T09:19:00Z</time>
      </trkpt>
      <trkpt lat="43.78348" lon="7.27394">
        <ele>329.09</ele>
        <time>2017-06-20T09:19:05Z</time>
      </trkpt>
      <trkpt lat="43.7839" lon="7.27339">
        <ele>332.09</ele>
        <time>2017-06-20T09:19:10Z</time>
      </trkpt>
      <trkpt lat="43.78406" lon="7.27253">
        <ele>335.32</ele>
        <time>2017-06-20T09:19:15Z</time>
      </trkpt>
      <trkpt lat="43.78423" lon="7.27181">
        <ele>340.02</ele>
        <time>2017-06-20T09:19:20Z</time>
      </trkpt>
      <trkpt lat="43.7845" lon="7.27149">
        <ele>342.21</ele>
        <time>2017-06-20T09:19:25Z</time>
      </trkpt>
      <trkpt lat="43.78487" lon="7.27148">
        <ele>344.78</ele>
        <time>2017-06-20T09:19:30Z</time>
      </trkpt>
      <trkpt lat="43.7853" lon="7.27155">
        <ele>347.5</ele>
        <time>2017-06-20T09:19:35Z</time>
      </trkpt>
      <trkpt lat="43.78573" lon="7.27159">
        <ele>349.74</ele>
        <time>2017-06-20T09:19:40Z</time>
      </trkpt>
      <trkpt lat="43.78617" lon="7.27163">
        <ele>352.55</ele>
        <time>2017-06-20T09:19:45Z</time>
      </trkpt>
      <trkpt lat="43.78657" lon="7.27166">
        <ele>354.42</ele>
        <time>2017-06-20T09:19:50Z</time>
      </trkpt>
      <trkpt lat="43.78692" lon="7.27186">
        <ele>356.73</ele>
        <time>2017-06-20T09:19:55Z</time>
      </trkpt>
      <trkpt lat="43.78724" lon="7.27219">
        <ele>359.11</ele>
        <time>2017-06-20T09:20:00Z</time>
      </trkpt>
      <trkpt lat="43.78761" lon="7.27253">
        <ele>361.04</ele>
        <time>2017-06-20T09:20:05Z</time>
      </trkpt>
      <trkpt lat="43.78788" lon="7.27274">
        <ele>361.81</ele>
        <time>2017-06-20T09:20:10Z</time>
      </trkpt>
      <trkpt lat="43.78808" lon="7.27291">
        <ele>362.8</ele>
        <time>2017-06-20T09:20:16Z</time>
      </trkpt>
      <trkpt lat="43.78828" lon="7.27306">
        <ele>364.46</ele>
        <time>2017-06-20T09:20:21Z</time>
      </trkpt>
      <trkpt lat="43.78868" lon="7.27335">
        <ele>366.66</ele>
        <time>2017-06-20T09:20:26Z</time>
      </trkpt>
      <trkpt lat="43.78915" lon="7.27368">
        <ele>369.14</ele>
        <time>2017-06-20T09:20:31Z</time>
      </trkpt>
      <trkpt lat="43.78944" lon="7.2738">
        <ele>370.14</ele>
        <time>2017-06-20T09:20:36Z</time>
      </trkpt>
      <trkpt lat="43.78971" lon="7.2738">
        <ele>371.35</ele>
        <time>2017-06-20T09:20:42Z</time>
      </trkpt>
      <trkpt lat="43.79008" lon="7.27379">
        <ele>373.39</ele>
        <time>2017-06-20T09:20:47Z</time>
      </trkpt>
      <trkpt lat="43.79032" lon="7.27375">
        <ele>374.64</ele>
        <time>2017-06-20T09:20:52Z</time>
      </trkpt>
      <trkpt lat="43.79056" lon="7.27372">
        <ele>376.33</ele>
        <time>2017-06-20T09:20:57Z</time>
      </trkpt>
      <trkpt lat="43.79089" lon="7.27369">
        <ele>377.76</ele>
        <time>2017-06-20T09:21:02Z</time>
      </trkpt>
      <trkpt lat="43.79121" lon="7.27371">
        <ele>378.99</ele>
        <time>2017-06-20T09:21:07Z</time>
      </trkpt>
      <trkpt lat="43.79155" lon="7.27375">
        <ele>379.8</ele>
        <time>2017-06-20T09:21:12Z</time>
      </trkpt>
      <trkpt lat="43.79194" lon="7.27372">
        <ele>380.17</ele>
        <time>2017-06-20T09:21:17Z</time>
      </trkpt>
      <trkpt lat="43.79238" lon="7.27336">
        <ele>380.36</ele>
        <time>2017-06-20T09:21:22Z</time>
      </trkpt>
      <trkpt lat="43.7928" lon="7.27305">
        <ele>380.43</ele>
        <time>2017-06-20T09:21:27Z</time>
      </trkpt>
      <trkpt lat="43.79308" lon="7.27285">
        <ele>380.66</ele>
        <time>2017-06-20T09:21:32Z</time>
      </trkpt>
      <trkpt lat="43.79335" lon="7.27266">
        <ele>380.83</ele>
        <time>2017-06-20T09:21:37Z</time>
      </trkpt>
      <trkpt lat="43.79365" lon="7.27282">
        <ele>381.65</ele>
        <time>2017-06-20T09:21:42Z</time>
      </trkpt>
      <trkpt lat="43.79361" lon="7.2734">
        <ele>382.23</ele>
        <time>2017-06-20T09:21:47Z</time>
      </trkpt>
      <trkpt lat="43.79344" lon="7.27407">
        <ele>384.9</ele>
        <time>2017-06-20T09:21:52Z</time>
      </trkpt>
      <trkpt lat="43.7931" lon="7.27509">
        <ele>385.01</ele>
        <time>2017-06-20T09:21:57Z</time>
      </trkpt>
      <trkpt lat="43.79305" lon="7.27587">
        <ele>385.06</ele>
        <time>2017-06-20T09:22:02Z</time>
      </trkpt>
      <trkpt lat="43.79356" lon="7.27629">
        <ele>384.92</ele>
        <time>2017-06-20T09:22:07Z</time>
      </trkpt>
      <trkpt lat="43.79428" lon="7.27607">
        <ele>386.14</ele>
        <time>2017-06-20T09:22:12Z</time>
      </trkpt>
      <trkpt lat="43.79485" lon="7.27579">
        <ele>386.53</ele>
        <time>2017-06-20T09:22:17Z</time>
      </trkpt>
      <trkpt lat="43.79558" lon="7.27621">
        <ele>386.88</ele>
        <time>2017-06-20T09:22:22Z</time>
      </trkpt>
      <trkpt lat="43.79609" lon="7.27678">
        <ele>386.74</ele>
        <time>2017-06-20T09:22:27Z</time>
      </trkpt>
      <trkpt lat="43.79676" lon="7.27663">
        <ele>387.73</ele>
        <time>2017-06-20T09:22:32Z</time>
      </trkpt>
      <trkpt lat="43.79746" lon="7.27646">
        <ele>388.16</ele>
        <time>2017-06-20T09:22:37Z</time>
      </trkpt>
      <trkpt lat="43.79831" lon="7.2765">
        <ele>388.36</ele>
        <time>2017-06-20T09:22:42Z</time>
      </trkpt>
      <trkpt lat="43.79898" lon="7.27645">
        <ele>386.78</ele>
        <time>2017-06-20T09:22:47Z</time>
      </trkpt>
      <trkpt lat="43.79931" lon="7.27569">
        <ele>387.98</ele>
        <time>2017-06-20T09:22:52Z</time>
      </trkpt>
      <trkpt lat="43.79978" lon="7.27528">
        <ele>388.53</ele>
        <time>2017-06-20T09:22:57Z</time>
      </trkpt>
      <trkpt lat="43.7999" lon="7.27457">
        <ele>388.17</ele>
        <time>2017-06-20T09:23:02Z</time>
      </trkpt>
      <trkpt lat="43.80002" lon="7.27387">
        <ele>387.97</ele>
        <time>2017-06-20T09:23:07Z</time>
      </trkpt>
      <trkpt lat="43.80015" lon="7.27349">
        <ele>388.3</ele>
        <time>2017-06-20T09:23:12Z</time>
      </trkpt>
      <trkpt lat="43.80014" lon="7.27311">
        <ele>388.14</ele>
        <time>2017-06-20T09:23:17Z</time>
      </trkpt>
      <trkpt lat="43.80039" lon="7.27237">
        <ele>387.91</ele>
        <time>2017-06-20T09:23:22Z</time>
      </trkpt>
      <trkpt lat="43.80089" lon="7.27184">
        <ele>389.46</ele>
        <time>2017-06-20T09:23:27Z</time>
      </trkpt>
      <trkpt lat="43.80139" lon="7.27129">
        <ele>390.34</ele>
        <time>2017-06-20T09:23:32Z</time>
      </trkpt>
      <trkpt lat="43.80178" lon="7.2708">
        <ele>390.97</ele>
        <time>2017-06-20T09:23:37Z</time>
      </trkpt>
      <trkpt lat="43.80212" lon="7.27038">
        <ele>391.6</ele>
        <time>2017-06-20T09:23:42Z</time>
      </trkpt>
      <trkpt lat="43.80238" lon="7.27004">
        <ele>392.99</ele>
        <time>2017-06-20T09:23:47Z</time>
      </trkpt>
      <trkpt lat="43.80255" lon="7.26982">
        <ele>393.76</ele>
        <time>2017-06-20T09:23:54Z</time>
      </trkpt>
      <trkpt lat="43.80277" lon="7.26951">
        <ele>394.31</ele>
        <time>2017-06-20T09:24:47Z</time>
      </trkpt>
      <trkpt lat="43.80306" lon="7.26912">
        <ele>394.99</ele>
        <time>2017-06-20T09:24:52Z</time>
      </trkpt>
      <trkpt lat="43.80333" lon="7.26876">
        <ele>395.54</ele>
        <time>2017-06-20T09:24:57Z</time>
      </trkpt>
      <trkpt lat="43.80365" lon="7.26845">
        <ele>396.6</ele>
        <time>2017-06-20T09:25:02Z</time>
      </trkpt>
      <trkpt lat="43.80412" lon="7.26834">
        <ele>397.9</ele>
        <time>2017-06-20T09:25:07Z</time>
      </trkpt>
      <trkpt lat="43.80458" lon="7.26846">
        <ele>398.41</ele>
        <time>2017-06-20T09:25:12Z</time>
      </trkpt>
      <trkpt lat="43.80521" lon="7.26872">
        <ele>400.17</ele>
        <time>2017-06-20T09:25:17Z</time>
      </trkpt>
      <trkpt lat="43.80588" lon="7.26872">
        <ele>401.42</ele>
        <time>2017-06-20T09:25:22Z</time>
      </trkpt>
      <trkpt lat="43.80642" lon="7.2682">
        <ele>403.11</ele>
        <time>2017-06-20T09:25:27Z</time>
      </trkpt>
      <trkpt lat="43.80694" lon="7.26753">
        <ele>404.57</ele>
        <time>2017-06-20T09:25:32Z</time>
      </trkpt>
      <trkpt lat="43.80748" lon="7.26704">
        <ele>406.88</ele>
        <time>2017-06-20T09:25:37Z</time>
      </trkpt>
      <trkpt lat="43.80809" lon="7.26638">
        <ele>409.77</ele>
        <time>2017-06-20T09:25:42Z</time>
      </trkpt>
      <trkpt lat="43.80859" lon="7.26608">
        <ele>411.3</ele>
        <time>2017-06-20T09:25:47Z</time>
      </trkpt>
      <trkpt lat="43.80929" lon="7.26577">
        <ele>413.58</ele>
        <time>2017-06-20T09:25:52Z</time>
      </trkpt>
      <trkpt lat="43.80996" lon="7.26552">
        <ele>416.71</ele>
        <time>2017-06-20T09:25:57Z</time>
      </trkpt>
      <trkpt lat="43.81074" lon="7.26538">
        <ele>418.97</ele>
        <time>2017-06-20T09:26:02Z</time>
      </trkpt>
      <trkpt lat="43.81134" lon="7.2657">
        <ele>421.25</ele>
        <time>2017-06-20T09:26:07Z</time>
      </trkpt>
      <trkpt lat="43.81192" lon="7.26619">
        <ele>422.84</ele>
        <time>2017-06-20T09:26:12Z</time>
      </trkpt>
      <trkpt lat="43.81256" lon="7.26613">
        <ele>425.1</ele>
        <time>2017-06-20T09:26:17Z</time>
      </trkpt>
      <trkpt lat="43.81315" lon="7.26565">
        <ele>427.28</ele>
        <time>2017-06-20T09:26:22Z</time>
      </trkpt>
      <trkpt lat="43.81374" lon="7.26555">
        <ele>428.97</ele>
        <time>2017-06-20T09:26:27Z</time>
      </trkpt>
      <trkpt lat="43.81431" lon="7.26574">
        <ele>431.12</ele>
        <time>2017-06-20T09:26:32Z</time>
      </trkpt>
      <trkpt lat="43.81495" lon="7.2654">
        <ele>432.98</ele>
        <time>2017-06-20T09:26:37Z</time>
      </trkpt>
      <trkpt lat="43.81551" lon="7.2653">
        <ele>434.84</ele>
        <time>2017-06-20T09:26:42Z</time>
      </trkpt>
      <trkpt lat="43.81614" lon="7.2654">
        <ele>437.42</ele>
        <time>2017-06-20T09:26:47Z</time>
      </trkpt>
      <trkpt lat="43.81684" lon="7.26505">
        <ele>439.46</ele>
        <time>2017-06-20T09:26:52Z</time>
      </trkpt>
      <trkpt lat="43.8174" lon="7.26511">
        <ele>440.35</ele>
        <time>2017-06-20T09:26:57Z</time>
      </trkpt>
      <trkpt lat="43.81802" lon="7.26495">
        <ele>442.93</ele>
        <time>2017-06-20T09:27:02Z</time>
      </trkpt>
      <trkpt lat="43.81872" lon="7.26462">
        <ele>445.55</ele>
        <time>2017-06-20T09:27:07Z</time>
      </trkpt>
      <trkpt lat="43.8195" lon="7.26425">
        <ele>448.47</ele>
        <time>2017-06-20T09:27:12Z</time>
      </trkpt>
      <trkpt lat="43.82027" lon="7.26388">
        <ele>451.17</ele>
        <time>2017-06-20T09:27:17Z</time>
      </trkpt>
      <trkpt lat="43.82098" lon="7.26355">
        <ele>453.37</ele>
        <time>2017-06-20T09:27:22Z</time>
      </trkpt>
      <trkpt lat="43.82164" lon="7.26326">
        <ele>455.17</ele>
        <time>2017-06-20T09:27:27Z</time>
      </trkpt>
      <trkpt lat="43.82227" lon="7.26309">
        <ele>456.79</ele>
        <time>2017-06-20T09:27:32Z</time>
      </trkpt>
      <trkpt lat="43.8228" lon="7.26265">
        <ele>458.12</ele>
        <time>2017-06-20T09:27:37Z</time>
      </trkpt>
      <trkpt lat="43.8234" lon="7.26222">
        <ele>458.7</ele>
        <time>2017-06-20T09:27:42Z</time>
      </trkpt>
      <trkpt lat="43.82407" lon="7.26174">
        <ele>459.43</ele>
        <time>2017-06-20T09:27:47Z</time>
      </trkpt>
      <trkpt lat="43.82468" lon="7.26118">
        <ele>459.9</ele>
        <time>2017-06-20T09:27:52Z</time>
      </trkpt>
      <trkpt lat="43.82527" lon="7.2609">
        <ele>459.79</ele>
        <time>2017-06-20T09:27:57Z</time>
      </trkpt>
      <trkpt lat="43.82589" lon="7.26094">
        <ele>460.19</ele>
        <time>2017-06-20T09:28:02Z</time>
      </trkpt>
      <trkpt lat="43.82647" lon="7.26081">
        <ele>460.06</ele>
        <time>2017-06-20T09:28:07Z</time>
      </trkpt>
      <trkpt lat="43.82684" lon="7.26014">
        <ele>461.35</ele>
        <time>2017-06-20T09:28:12Z</time>
      </trkpt>
      <trkpt lat="43.82715" lon="7.25948">
        <ele>464.46</ele>
        <time>2017-06-20T09:28:17Z</time>
      </trkpt>
      <trkpt lat="43.82765" lon="7.25878">
        <ele>467.22</ele>
        <time>2017-06-20T09:28:22Z</time>
      </trkpt>
      <trkpt lat="43.82796" lon="7.25774">
        <ele>471.11</ele>
        <time>2017-06-20T09:28:27Z</time>
      </trkpt>
      <trkpt lat="43.82825" lon="7.25726">
        <ele>473.12</ele>
        <time>2017-06-20T09:28:32Z</time>
      </trkpt>
      <trkpt lat="43.82891" lon="7.25733">
        <ele>476.62</ele>
        <time>2017-06-20T09:28:37Z</time>
      </trkpt>
      <trkpt lat="43.8295" lon="7.25654">
        <ele>479.81</ele>
        <time>2017-06-20T09:28:42Z</time>
      </trkpt>
      <trkpt lat="43.82963" lon="7.25575">
        <ele>481.37</ele>
        <time>2017-06-20T09:28:47Z</time>
      </trkpt>
      <trkpt lat="43.83014" lon="7.25562">
        <ele>484.14</ele>
        <time>2017-06-20T09:28:52Z</time>
      </trkpt>
      <trkpt lat="43.83084" lon="7.25568">
        <ele>488.22</ele>
        <time>2017-06-20T09:28:57Z</time>
      </trkpt>
      <trkpt lat="43.83124" lon="7.2549">
        <ele>490.22</ele>
        <time>2017-06-20T09:29:02Z</time>
      </trkpt>
      <trkpt lat="43.8314" lon="7.25378">
        <ele>494.67</ele>
        <time>2017-06-20T09:29:07Z</time>
      </trkpt>
      <trkpt lat="43.83159" lon="7.25291">
        <ele>496.99</ele>
        <time>2017-06-20T09:29:12Z</time>
      </trkpt>
      <trkpt lat="43.8321" lon="7.25222">
        <ele>499.97</ele>
        <time>2017-06-20T09:29:17Z</time>
      </trkpt>
      <trkpt lat="43.83255" lon="7.25155">
        <ele>502.73</ele>
        <time>2017-06-20T09:29:22Z</time>
      </trkpt>
      <trkpt lat="43.83316" lon="7.25149">
        <ele>505.34</ele>
        <time>2017-06-20T09:29:27Z</time>
      </trkpt>
      <trkpt lat="43.83391" lon="7.25125">
        <ele>509.41</ele>
        <time>2017-06-20T09:29:32Z</time>
      </trkpt>
      <trkpt lat="43.83452" lon="7.25102">
        <ele>511.82</ele>
        <time>2017-06-20T09:29:37Z</time>
      </trkpt>
      <trkpt lat="43.83532" lon="7.25087">
        <ele>515.44</ele>
        <time>2017-06-20T09:29:42Z</time>
      </trkpt>
      <trkpt lat="43.83578" lon="7.25053">
        <ele>517.38</ele>
        <time>2017-06-20T09:29:47Z</time>
      </trkpt>
      <trkpt lat="43.83594" lon="7.24958">
        <ele>517.62</ele>
        <time>2017-06-20T09:29:52Z</time>
      </trkpt>
      <trkpt lat="43.83591" lon="7.24871">
        <ele>517.25</ele>
        <time>2017-06-20T09:29:57Z</time>
      </trkpt>
      <trkpt lat="43.83608" lon="7.24812">
        <ele>517.85</ele>
        <time>2017-06-20T09:30:02Z</time>
      </trkpt>
      <trkpt lat="43.83622" lon="7.24761">
        <ele>517</ele>
        <time>2017-06-20T09:30:07Z</time>
      </trkpt>
      <trkpt lat="43.83618" lon="7.24707">
        <ele>517.26</ele>
        <time>2017-06-20T09:30:12Z</time>
      </trkpt>
      <trkpt lat="43.83626" lon="7.24659">
        <ele>518.38</ele>
        <time>2017-06-20T09:30:17Z</time>
      </trkpt>
      <trkpt lat="43.83666" lon="7.24634">
        <ele>519.95</ele>
        <time>2017-06-20T09:30:22Z</time>
      </trkpt>
      <trkpt lat="43.83711" lon="7.24622">
        <ele>520.86</ele>
        <time>2017-06-20T09:30:27Z</time>
      </trkpt>
      <trkpt lat="43.83766" lon="7.24623">
        <ele>521.35</ele>
        <time>2017-06-20T09:30:32Z</time>
      </trkpt>
      <trkpt lat="43.83828" lon="7.24636">
        <ele>522.61</ele>
        <time>2017-06-20T09:30:37Z</time>
      </trkpt>
      <trkpt lat="43.83885" lon="7.24597">
        <ele>523.25</ele>
        <time>2017-06-20T09:30:42Z</time>
      </trkpt>
      <trkpt lat="43.83941" lon="7.24542">
        <ele>524.15</ele>
        <time>2017-06-20T09:30:47Z</time>
      </trkpt>
      <trkpt lat="43.84003" lon="7.24532">
        <ele>526.1</ele>
        <time>2017-06-20T09:30:52Z</time>
      </trkpt>
      <trkpt lat="43.84068" lon="7.24537">
        <ele>527.72</ele>
        <time>2017-06-20T09:30:57Z</time>
      </trkpt>
      <trkpt lat="43.84128" lon="7.24486">
        <ele>529.3</ele>
        <time>2017-06-20T09:31:02Z</time>
      </trkpt>
      <trkpt lat="43.84187" lon="7.24427">
        <ele>531.22</ele>
        <time>2017-06-20T09:31:07Z</time>
      </trkpt>
      <trkpt lat="43.84239" lon="7.24372">
        <ele>532.63</ele>
        <time>2017-06-20T09:31:12Z</time>
      </trkpt>
      <trkpt lat="43.84288" lon="7.24326">
        <ele>534.67</ele>
        <time>2017-06-20T09:31:17Z</time>
      </trkpt>
      <trkpt lat="43.84342" lon="7.24275">
        <ele>538.11</ele>
        <time>2017-06-20T09:31:22Z</time>
      </trkpt>
      <trkpt lat="43.84376" lon="7.24214">
        <ele>539.19</ele>
        <time>2017-06-20T09:31:27Z</time>
      </trkpt>
      <trkpt lat="43.84391" lon="7.2419">
        <ele>539.17</ele>
        <time>2017-06-20T09:31:33Z</time>
      </trkpt>
      <trkpt lat="43.84402" lon="7.24154">
        <ele>541.9</ele>
        <time>2017-06-20T09:33:15Z</time>
      </trkpt>
      <trkpt lat="43.84428" lon="7.24123">
        <ele>542.67</ele>
        <time>2017-06-20T09:33:20Z</time>
      </trkpt>
      <trkpt lat="43.84459" lon="7.24106">
        <ele>543.41</ele>
        <time>2017-06-20T09:33:34Z</time>
      </trkpt>
      <trkpt lat="43.84522" lon="7.24059">
        <ele>544.74</ele>
        <time>2017-06-20T09:33:39Z</time>
      </trkpt>
      <trkpt lat="43.84574" lon="7.2402">
        <ele>545.88</ele>
        <time>2017-06-20T09:33:44Z</time>
      </trkpt>
      <trkpt lat="43.8461" lon="7.23991">
        <ele>546.4</ele>
        <time>2017-06-20T09:33:49Z</time>
      </trkpt>
      <trkpt lat="43.84647" lon="7.23959">
        <ele>547.75</ele>
        <time>2017-06-20T09:33:54Z</time>
      </trkpt>
      <trkpt lat="43.84696" lon="7.23918">
        <ele>549.69</ele>
        <time>2017-06-20T09:33:59Z</time>
      </trkpt>
      <trkpt lat="43.84752" lon="7.23878">
        <ele>549.86</ele>
        <time>2017-06-20T09:34:04Z</time>
      </trkpt>
      <trkpt lat="43.84806" lon="7.23838">
        <ele>550.2</ele>
        <time>2017-06-20T09:34:09Z</time>
      </trkpt>
      <trkpt lat="43.84864" lon="7.23794">
        <ele>550.53</ele>
        <time>2017-06-20T09:34:14Z</time>
      </trkpt>
      <trkpt lat="43.84908" lon="7.23764">
        <ele>549.32</ele>
        <time>2017-06-20T09:34:19Z</time>
      </trkpt>
      <trkpt lat="43.84939" lon="7.23741">
        <ele>550.21</ele>
        <time>2017-06-20T09:34:24Z</time>
      </trkpt>
      <trkpt lat="43.84983" lon="7.23706">
        <ele>549.58</ele>
        <time>2017-06-20T09:34:29Z</time>
      </trkpt>
      <trkpt lat="43.85033" lon="7.23668">
        <ele>546.42</ele>
        <time>2017-06-20T09:34:34Z</time>
      </trkpt>
      <trkpt lat="43.85077" lon="7.23635">
        <ele>542.78</ele>
        <time>2017-06-20T09:34:39Z</time>
      </trkpt>
      <trkpt lat="43.85112" lon="7.23613">
        <ele>540.39</ele>
        <time>2017-06-20T09:34:44Z</time>
      </trkpt>
      <trkpt lat="43.85161" lon="7.23587">
        <ele>537.77</ele>
        <time>2017-06-20T09:34:49Z</time>
      </trkpt>
      <trkpt lat="43.85203" lon="7.23526">
        <ele>534.47</ele>
        <time>2017-06-20T09:34:54Z</time>
      </trkpt>
      <trkpt lat="43.85235" lon="7.23467">
        <ele>530.49</ele>
        <time>2017-06-20T09:34:59Z</time>
      </trkpt>
      <trkpt lat="43.85278" lon="7.23432">
        <ele>527</ele>
        <time>2017-06-20T09:35:04Z</time>
      </trkpt>
      <trkpt lat="43.85323" lon="7.23381">
        <ele>526.54</ele>
        <time>2017-06-20T09:35:09Z</time>
      </trkpt>
      <trkpt lat="43.85365" lon="7.23316">
        <ele>526.32</ele>
        <time>2017-06-20T09:35:14Z</time>
      </trkpt>
      <trkpt lat="43.85408" lon="7.23268">
        <ele>526.42</ele>
        <time>2017-06-20T09:35:19Z</time>
      </trkpt>
      <trkpt lat="43.85451" lon="7.23237">
        <ele>525.05</ele>
        <time>2017-06-20T09:35:24Z</time>
      </trkpt>
      <trkpt lat="43.8548" lon="7.23215">
        <ele>523.93</ele>
        <time>2017-06-20T09:35:29Z</time>
      </trkpt>
      <trkpt lat="43.8548" lon="7.23184">
        <ele>523.24</ele>
        <time>2017-06-20T09:35:34Z</time>
      </trkpt>
      <trkpt lat="43.85479" lon="7.23142">
        <ele>520.5</ele>
        <time>2017-06-20T09:35:39Z</time>
      </trkpt>
      <trkpt lat="43.8548" lon="7.23104">
        <ele>518.46</ele>
        <time>2017-06-20T09:35:44Z</time>
      </trkpt>
      <trkpt lat="43.8546" lon="7.23118">
        <ele>516.62</ele>
        <time>2017-06-20T09:35:52Z</time>
      </trkpt>
      <trkpt lat="43.8545" lon="7.23149">
        <ele>515.3</ele>
        <time>2017-06-20T09:36:33Z</time>
      </trkpt>
      <trkpt lat="43.85451" lon="7.23103">
        <ele>512.94</ele>
        <time>2017-06-20T09:36:43Z</time>
      </trkpt>
      <trkpt lat="43.85458" lon="7.23032">
        <ele>510.8</ele>
        <time>2017-06-20T09:36:48Z</time>
      </trkpt>
      <trkpt lat="43.85461" lon="7.22988">
        <ele>508.39</ele>
        <time>2017-06-20T09:36:53Z</time>
      </trkpt>
      <trkpt lat="43.85445" lon="7.22946">
        <ele>507.15</ele>
        <time>2017-06-20T09:36:58Z</time>
      </trkpt>
      <trkpt lat="43.85412" lon="7.22882">
        <ele>507.14</ele>
        <time>2017-06-20T09:37:03Z</time>
      </trkpt>
      <trkpt lat="43.85371" lon="7.22844">
        <ele>509.73</ele>
        <time>2017-06-20T09:37:08Z</time>
      </trkpt>
      <trkpt lat="43.85336" lon="7.22818">
        <ele>509.26</ele>
        <time>2017-06-20T09:37:13Z</time>
      </trkpt>
      <trkpt lat="43.85287" lon="7.22755">
        <ele>510.5</ele>
        <time>2017-06-20T09:37:18Z</time>
      </trkpt>
      <trkpt lat="43.85238" lon="7.22703">
        <ele>507.54</ele>
        <time>2017-06-20T09:37:23Z</time>
      </trkpt>
      <trkpt lat="43.85178" lon="7.2266">
        <ele>506.54</ele>
        <time>2017-06-20T09:37:28Z</time>
      </trkpt>
      <trkpt lat="43.85127" lon="7.2259">
        <ele>502.95</ele>
        <time>2017-06-20T09:37:33Z</time>
      </trkpt>
      <trkpt lat="43.85081" lon="7.22496">
        <ele>499.79</ele>
        <time>2017-06-20T09:37:38Z</time>
      </trkpt>
      <trkpt lat="43.85054" lon="7.2242">
        <ele>496.45</ele>
        <time>2017-06-20T09:37:43Z</time>
      </trkpt>
      <trkpt lat="43.85034" lon="7.22379">
        <ele>495.27</ele>
        <time>2017-06-20T09:37:48Z</time>
      </trkpt>
      <trkpt lat="43.84981" lon="7.22366">
        <ele>495</ele>
        <time>2017-06-20T09:37:53Z</time>
      </trkpt>
      <trkpt lat="43.84927" lon="7.22316">
        <ele>495.54</ele>
        <time>2017-06-20T09:37:58Z</time>
      </trkpt>
      <trkpt lat="43.8486" lon="7.22256">
        <ele>497.65</ele>
        <time>2017-06-20T09:38:03Z</time>
      </trkpt>
      <trkpt lat="43.8482" lon="7.22192">
        <ele>499.25</ele>
        <time>2017-06-20T09:38:08Z</time>
      </trkpt>
      <trkpt lat="43.84789" lon="7.22097">
        <ele>501.62</ele>
        <time>2017-06-20T09:38:13Z</time>
      </trkpt>
      <trkpt lat="43.84766" lon="7.22031">
        <ele>500.7</ele>
        <time>2017-06-20T09:38:18Z</time>
      </trkpt>
      <trkpt lat="43.84744" lon="7.21974">
        <ele>499.55</ele>
        <time>2017-06-20T09:38:23Z</time>
      </trkpt>
      <trkpt lat="43.84692" lon="7.21985">
        <ele>499.26</ele>
        <time>2017-06-20T09:38:28Z</time>
      </trkpt>
      <trkpt lat="43.84615" lon="7.21969">
        <ele>498.5</ele>
        <time>2017-06-20T09:38:33Z</time>
      </trkpt>
      <trkpt lat="43.84569" lon="7.21915">
        <ele>493.34</ele>
        <time>2017-06-20T09:38:38Z</time>
      </trkpt>
      <trkpt lat="43.84555" lon="7.21817">
        <ele>491.7</ele>
        <time>2017-06-20T09:38:43Z</time>
      </trkpt>
      <trkpt lat="43.84504" lon="7.21742">
        <ele>489.5</ele>
        <time>2017-06-20T09:38:48Z</time>
      </trkpt>
      <trkpt lat="43.84452" lon="7.21657">
        <ele>487.74</ele>
        <time>2017-06-20T09:38:53Z</time>
      </trkpt>
      <trkpt lat="43.84423" lon="7.21566">
        <ele>485.98</ele>
        <time>2017-06-20T09:38:58Z</time>
      </trkpt>
      <trkpt lat="43.84376" lon="7.21512">
        <ele>486.92</ele>
        <time>2017-06-20T09:39:03Z</time>
      </trkpt>
      <trkpt lat="43.84283" lon="7.21483">
        <ele>486.98</ele>
        <time>2017-06-20T09:39:08Z</time>
      </trkpt>
      <trkpt lat="43.84212" lon="7.21478">
        <ele>486.37</ele>
        <time>2017-06-20T09:39:13Z</time>
      </trkpt>
      <trkpt lat="43.84159" lon="7.21442">
        <ele>486.93</ele>
        <time>2017-06-20T09:39:18Z</time>
      </trkpt>
      <trkpt lat="43.84113" lon="7.2138">
        <ele>486.14</ele>
        <time>2017-06-20T09:39:23Z</time>
      </trkpt>
      <trkpt lat="43.84074" lon="7.21396">
        <ele>486.92</ele>
        <time>2017-06-20T09:39:28Z</time>
      </trkpt>
      <trkpt lat="43.84024" lon="7.21351">
        <ele>488.66</ele>
        <time>2017-06-20T09:39:33Z</time>
      </trkpt>
      <trkpt lat="43.83979" lon="7.21283">
        <ele>488.47</ele>
        <time>2017-06-20T09:39:38Z</time>
      </trkpt>
      <trkpt lat="43.83928" lon="7.2127">
        <ele>489.22</ele>
        <time>2017-06-20T09:39:43Z</time>
      </trkpt>
      <trkpt lat="43.83877" lon="7.21315">
        <ele>489.05</ele>
        <time>2017-06-20T09:39:48Z</time>
      </trkpt>
      <trkpt lat="43.83845" lon="7.21309">
        <ele>488.18</ele>
        <time>2017-06-20T09:39:53Z</time>
      </trkpt>
      <trkpt lat="43.83809" lon="7.21245">
        <ele>483.19</ele>
        <time>2017-06-20T09:39:58Z</time>
      </trkpt>
      <trkpt lat="43.83797" lon="7.21275">
        <ele>480.3</ele>
        <time>2017-06-20T09:40:05Z</time>
      </trkpt>
      <trkpt lat="43.83771" lon="7.21296">
        <ele>478.67</ele>
        <time>2017-06-20T09:40:10Z</time>
      </trkpt>
      <trkpt lat="43.83709" lon="7.2129">
        <ele>475.84</ele>
        <time>2017-06-20T09:40:15Z</time>
      </trkpt>
      <trkpt lat="43.83677" lon="7.21221">
        <ele>474.25</ele>
        <time>2017-06-20T09:40:20Z</time>
      </trkpt>
      <trkpt lat="43.83655" lon="7.21155">
        <ele>470.94</ele>
        <time>2017-06-20T09:40:25Z</time>
      </trkpt>
      <trkpt lat="43.83628" lon="7.21101">
        <ele>466.95</ele>
        <time>2017-06-20T09:40:30Z</time>
      </trkpt>
      <trkpt lat="43.83644" lon="7.21022">
        <ele>464.12</ele>
        <time>2017-06-20T09:40:35Z</time>
      </trkpt>
      <trkpt lat="43.83627" lon="7.20936">
        <ele>460.66</ele>
        <time>2017-06-20T09:40:40Z</time>
      </trkpt>
      <trkpt lat="43.83547" lon="7.20893">
        <ele>457.22</ele>
        <time>2017-06-20T09:40:45Z</time>
      </trkpt>
      <trkpt lat="43.83474" lon="7.20855">
        <ele>452.78</ele>
        <time>2017-06-20T09:40:50Z</time>
      </trkpt>
      <trkpt lat="43.83414" lon="7.20799">
        <ele>449.49</ele>
        <time>2017-06-20T09:40:55Z</time>
      </trkpt>
      <trkpt lat="43.83361" lon="7.20768">
        <ele>445.07</ele>
        <time>2017-06-20T09:41:00Z</time>
      </trkpt>
      <trkpt lat="43.8333" lon="7.20773">
        <ele>442.17</ele>
        <time>2017-06-20T09:41:05Z</time>
      </trkpt>
      <trkpt lat="43.83358" lon="7.20763">
        <ele>440.33</ele>
        <time>2017-06-20T09:41:12Z</time>
      </trkpt>
      <trkpt lat="43.8341" lon="7.20761">
        <ele>438.3</ele>
        <time>2017-06-20T09:41:17Z</time>
      </trkpt>
      <trkpt lat="43.83391" lon="7.20742">
        <ele>435.16</ele>
        <time>2017-06-20T09:41:27Z</time>
      </trkpt>
      <trkpt lat="43.83323" lon="7.2074">
        <ele>431.8</ele>
        <time>2017-06-20T09:41:32Z</time>
      </trkpt>
      <trkpt lat="43.83273" lon="7.20798">
        <ele>427.8</ele>
        <time>2017-06-20T09:41:37Z</time>
      </trkpt>
      <trkpt lat="43.83223" lon="7.20799">
        <ele>425.08</ele>
        <time>2017-06-20T09:41:42Z</time>
      </trkpt>
      <trkpt lat="43.832" lon="7.20733">
        <ele>422.01</ele>
        <time>2017-06-20T09:41:47Z</time>
      </trkpt>
      <trkpt lat="43.8319" lon="7.20699">
        <ele>419.18</ele>
        <time>2017-06-20T09:41:52Z</time>
      </trkpt>
      <trkpt lat="43.83159" lon="7.20684">
        <ele>417.37</ele>
        <time>2017-06-20T09:41:57Z</time>
      </trkpt>
      <trkpt lat="43.83115" lon="7.20629">
        <ele>414.67</ele>
        <time>2017-06-20T09:42:02Z</time>
      </trkpt>
      <trkpt lat="43.83074" lon="7.20563">
        <ele>410.35</ele>
        <time>2017-06-20T09:42:07Z</time>
      </trkpt>
      <trkpt lat="43.83045" lon="7.205">
        <ele>406.75</ele>
        <time>2017-06-20T09:42:12Z</time>
      </trkpt>
      <trkpt lat="43.83009" lon="7.20467">
        <ele>404.17</ele>
        <time>2017-06-20T09:42:17Z</time>
      </trkpt>
      <trkpt lat="43.82973" lon="7.20492">
        <ele>401.1</ele>
        <time>2017-06-20T09:42:22Z</time>
      </trkpt>
      <trkpt lat="43.82963" lon="7.20546">
        <ele>397.49</ele>
        <time>2017-06-20T09:42:27Z</time>
      </trkpt>
      <trkpt lat="43.82963" lon="7.20513">
        <ele>394.46</ele>
        <time>2017-06-20T09:42:35Z</time>
      </trkpt>
      <trkpt lat="43.82959" lon="7.20458">
        <ele>394.11</ele>
        <time>2017-06-20T09:42:40Z</time>
      </trkpt>
      <trkpt lat="43.82967" lon="7.20399">
        <ele>390.08</ele>
        <time>2017-06-20T09:42:45Z</time>
      </trkpt>
      <trkpt lat="43.83003" lon="7.20419">
        <ele>387.63</ele>
        <time>2017-06-20T09:42:50Z</time>
      </trkpt>
      <trkpt lat="43.83028" lon="7.2041">
        <ele>385.1</ele>
        <time>2017-06-20T09:42:55Z</time>
      </trkpt>
      <trkpt lat="43.83" lon="7.20369">
        <ele>382.81</ele>
        <time>2017-06-20T09:43:00Z</time>
      </trkpt>
      <trkpt lat="43.82955" lon="7.20343">
        <ele>378.75</ele>
        <time>2017-06-20T09:43:05Z</time>
      </trkpt>
      <trkpt lat="43.82947" lon="7.20287">
        <ele>375.76</ele>
        <time>2017-06-20T09:43:10Z</time>
      </trkpt>
      <trkpt lat="43.82926" lon="7.20235">
        <ele>372.86</ele>
        <time>2017-06-20T09:43:15Z</time>
      </trkpt>
      <trkpt lat="43.82906" lon="7.20182">
        <ele>368.52</ele>
        <time>2017-06-20T09:43:20Z</time>
      </trkpt>
      <trkpt lat="43.82911" lon="7.20127">
        <ele>365.2</ele>
        <time>2017-06-20T09:43:25Z</time>
      </trkpt>
      <trkpt lat="43.82887" lon="7.2012">
        <ele>363.75</ele>
        <time>2017-06-20T09:43:30Z</time>
      </trkpt>
      <trkpt lat="43.82834" lon="7.20119">
        <ele>360.26</ele>
        <time>2017-06-20T09:43:35Z</time>
      </trkpt>
      <trkpt lat="43.82794" lon="7.2007">
        <ele>355.7</ele>
        <time>2017-06-20T09:43:40Z</time>
      </trkpt>
      <trkpt lat="43.8277" lon="7.19982">
        <ele>352.1</ele>
        <time>2017-06-20T09:43:45Z</time>
      </trkpt>
      <trkpt lat="43.82732" lon="7.19907">
        <ele>347.09</ele>
        <time>2017-06-20T09:43:50Z</time>
      </trkpt>
      <trkpt lat="43.827" lon="7.19823">
        <ele>342.81</ele>
        <time>2017-06-20T09:43:55Z</time>
      </trkpt>
      <trkpt lat="43.82693" lon="7.19763">
        <ele>338.51</ele>
        <time>2017-06-20T09:44:00Z</time>
      </trkpt>
      <trkpt lat="43.82699" lon="7.19694">
        <ele>335.91</ele>
        <time>2017-06-20T09:44:05Z</time>
      </trkpt>
      <trkpt lat="43.82696" lon="7.19602">
        <ele>333.25</ele>
        <time>2017-06-20T09:44:10Z</time>
      </trkpt>
      <trkpt lat="43.82702" lon="7.19539">
        <ele>331.06</ele>
        <time>2017-06-20T09:44:15Z</time>
      </trkpt>
      <trkpt lat="43.82722" lon="7.19564">
        <ele>329.93</ele>
        <time>2017-06-20T09:44:20Z</time>
      </trkpt>
      <trkpt lat="43.82763" lon="7.19608">
        <ele>327.36</ele>
        <time>2017-06-20T09:44:25Z</time>
      </trkpt>
      <trkpt lat="43.82823" lon="7.19674">
        <ele>322.8</ele>
        <time>2017-06-20T09:44:30Z</time>
      </trkpt>
      <trkpt lat="43.8287" lon="7.19731">
        <ele>318.46</ele>
        <time>2017-06-20T09:44:35Z</time>
      </trkpt>
      <trkpt lat="43.82918" lon="7.19809">
        <ele>313.71</ele>
        <time>2017-06-20T09:44:40Z</time>
      </trkpt>
      <trkpt lat="43.82965" lon="7.19861">
        <ele>310.49</ele>
        <time>2017-06-20T09:44:45Z</time>
      </trkpt>
      <trkpt lat="43.82998" lon="7.19928">
        <ele>307.04</ele>
        <time>2017-06-20T09:44:50Z</time>
      </trkpt>
      <trkpt lat="43.83052" lon="7.19955">
        <ele>303.41</ele>
        <time>2017-06-20T09:44:55Z</time>
      </trkpt>
      <trkpt lat="43.83087" lon="7.19891">
        <ele>300.78</ele>
        <time>2017-06-20T09:45:00Z</time>
      </trkpt>
      <trkpt lat="43.83123" lon="7.19865">
        <ele>297.11</ele>
        <time>2017-06-20T09:45:05Z</time>
      </trkpt>
      <trkpt lat="43.83145" lon="7.19816">
        <ele>294.02</ele>
        <time>2017-06-20T09:45:10Z</time>
      </trkpt>
      <trkpt lat="43.83111" lon="7.19766">
        <ele>290.19</ele>
        <time>2017-06-20T09:45:15Z</time>
      </trkpt>
      <trkpt lat="43.83108" lon="7.19683">
        <ele>287.57</ele>
        <time>2017-06-20T09:45:20Z</time>
      </trkpt>
      <trkpt lat="43.83127" lon="7.1963">
        <ele>283.5</ele>
        <time>2017-06-20T09:45:25Z</time>
      </trkpt>
      <trkpt lat="43.83162" lon="7.19591">
        <ele>280.3</ele>
        <time>2017-06-20T09:45:30Z</time>
      </trkpt>
      <trkpt lat="43.832" lon="7.19598">
        <ele>278.1</ele>
        <time>2017-06-20T09:45:35Z</time>
      </trkpt>
      <trkpt lat="43.83241" lon="7.19599">
        <ele>275.66</ele>
        <time>2017-06-20T09:45:40Z</time>
      </trkpt>
      <trkpt lat="43.83219" lon="7.19583">
        <ele>273.32</ele>
        <time>2017-06-20T09:45:49Z</time>
      </trkpt>
      <trkpt lat="43.83161" lon="7.19572">
        <ele>270.11</ele>
        <time>2017-06-20T09:45:54Z</time>
      </trkpt>
      <trkpt lat="43.83102" lon="7.19597">
        <ele>266.63</ele>
        <time>2017-06-20T09:45:59Z</time>
      </trkpt>
      <trkpt lat="43.83058" lon="7.1965">
        <ele>263.48</ele>
        <time>2017-06-20T09:46:04Z</time>
      </trkpt>
      <trkpt lat="43.83055" lon="7.19728">
        <ele>259.71</ele>
        <time>2017-06-20T09:46:09Z</time>
      </trkpt>
      <trkpt lat="43.83034" lon="7.19739">
        <ele>255.29</ele>
        <time>2017-06-20T09:46:15Z</time>
      </trkpt>
      <trkpt lat="43.8299" lon="7.19689">
        <ele>253.18</ele>
        <time>2017-06-20T09:46:20Z</time>
      </trkpt>
      <trkpt lat="43.82946" lon="7.19633">
        <ele>248.8</ele>
        <time>2017-06-20T09:46:25Z</time>
      </trkpt>
      <trkpt lat="43.8293" lon="7.1955">
        <ele>245.41</ele>
        <time>2017-06-20T09:46:30Z</time>
      </trkpt>
      <trkpt lat="43.82909" lon="7.19491">
        <ele>241.47</ele>
        <time>2017-06-20T09:46:35Z</time>
      </trkpt>
      <trkpt lat="43.82857" lon="7.19467">
        <ele>239.46</ele>
        <time>2017-06-20T09:46:40Z</time>
      </trkpt>
      <trkpt lat="43.82799" lon="7.19446">
        <ele>234.25</ele>
        <time>2017-06-20T09:46:45Z</time>
      </trkpt>
      <trkpt lat="43.82748" lon="7.19398">
        <ele>230.02</ele>
        <time>2017-06-20T09:46:50Z</time>
      </trkpt>
      <trkpt lat="43.8272" lon="7.19337">
        <ele>227.68</ele>
        <time>2017-06-20T09:46:55Z</time>
      </trkpt>
      <trkpt lat="43.82667" lon="7.19289">
        <ele>223.96</ele>
        <time>2017-06-20T09:47:00Z</time>
      </trkpt>
      <trkpt lat="43.82605" lon="7.19254">
        <ele>219.01</ele>
        <time>2017-06-20T09:47:05Z</time>
      </trkpt>
      <trkpt lat="43.82561" lon="7.19225">
        <ele>214.59</ele>
        <time>2017-06-20T09:47:10Z</time>
      </trkpt>
      <trkpt lat="43.82586" lon="7.19213">
        <ele>210.97</ele>
        <time>2017-06-20T09:47:18Z</time>
      </trkpt>
      <trkpt lat="43.82653" lon="7.19257">
        <ele>209.16</ele>
        <time>2017-06-20T09:47:23Z</time>
      </trkpt>
      <trkpt lat="43.82726" lon="7.19286">
        <ele>203.69</ele>
        <time>2017-06-20T09:47:28Z</time>
      </trkpt>
      <trkpt lat="43.82801" lon="7.19323">
        <ele>199.68</ele>
        <time>2017-06-20T09:47:33Z</time>
      </trkpt>
      <trkpt lat="43.8287" lon="7.19364">
        <ele>192.37</ele>
        <time>2017-06-20T09:47:38Z</time>
      </trkpt>
      <trkpt lat="43.82935" lon="7.19374">
        <ele>188.18</ele>
        <time>2017-06-20T09:47:43Z</time>
      </trkpt>
      <trkpt lat="43.82999" lon="7.19399">
        <ele>183.92</ele>
        <time>2017-06-20T09:47:48Z</time>
      </trkpt>
      <trkpt lat="43.83024" lon="7.19421">
        <ele>180.7</ele>
        <time>2017-06-20T09:47:53Z</time>
      </trkpt>
      <trkpt lat="43.83004" lon="7.1939">
        <ele>179.73</ele>
        <time>2017-06-20T09:47:58Z</time>
      </trkpt>
      <trkpt lat="43.82942" lon="7.19356">
        <ele>177.65</ele>
        <time>2017-06-20T09:48:03Z</time>
      </trkpt>
      <trkpt lat="43.82887" lon="7.19325">
        <ele>173.68</ele>
        <time>2017-06-20T09:48:08Z</time>
      </trkpt>
      <trkpt lat="43.82843" lon="7.19277">
        <ele>169.3</ele>
        <time>2017-06-20T09:48:13Z</time>
      </trkpt>
      <trkpt lat="43.82797" lon="7.19242">
        <ele>165.64</ele>
        <time>2017-06-20T09:48:18Z</time>
      </trkpt>
      <trkpt lat="43.82749" lon="7.19176">
        <ele>162.06</ele>
        <time>2017-06-20T09:48:23Z</time>
      </trkpt>
      <trkpt lat="43.82712" lon="7.19101">
        <ele>158.35</ele>
        <time>2017-06-20T09:48:28Z</time>
      </trkpt>
      <trkpt lat="43.82684" lon="7.19054">
        <ele>154.78</ele>
        <time>2017-06-20T09:48:33Z</time>
      </trkpt>
      <trkpt lat="43.82627" lon="7.1903">
        <ele>151.21</ele>
        <time>2017-06-20T09:48:38Z</time>
      </trkpt>
      <trkpt lat="43.82569" lon="7.18998">
        <ele>147.33</ele>
        <time>2017-06-20T09:48:43Z</time>
      </trkpt>
      <trkpt lat="43.82529" lon="7.18982">
        <ele>144.77</ele>
        <time>2017-06-20T09:48:48Z</time>
      </trkpt>
      <trkpt lat="43.82493" lon="7.1899">
        <ele>142.7</ele>
        <time>2017-06-20T09:48:53Z</time>
      </trkpt>
      <trkpt lat="43.8247" lon="7.18986">
        <ele>139.66</ele>
        <time>2017-06-20T09:48:58Z</time>
      </trkpt>
      <trkpt lat="43.82486" lon="7.18965">
        <ele>138.41</ele>
        <time>2017-06-20T09:49:04Z</time>
      </trkpt>
      <trkpt lat="43.82513" lon="7.18961">
        <ele>138.87</ele>
        <time>2017-06-20T09:49:10Z</time>
      </trkpt>
      <trkpt lat="43.82576" lon="7.18984">
        <ele>139.63</ele>
        <time>2017-06-20T09:49:15Z</time>
      </trkpt>
      <trkpt lat="43.82658" lon="7.19016">
        <ele>141.5</ele>
        <time>2017-06-20T09:49:20Z</time>
      </trkpt>
      <trkpt lat="43.82755" lon="7.19053">
        <ele>143.25</ele>
        <time>2017-06-20T09:49:25Z</time>
      </trkpt>
      <trkpt lat="43.82855" lon="7.19088">
        <ele>142.85</ele>
        <time>2017-06-20T09:49:30Z</time>
      </trkpt>
      <trkpt lat="43.82961" lon="7.19127">
        <ele>144.04</ele>
        <time>2017-06-20T09:49:35Z</time>
      </trkpt>
      <trkpt lat="43.83066" lon="7.19164">
        <ele>143.92</ele>
        <time>2017-06-20T09:49:40Z</time>
      </trkpt>
      <trkpt lat="43.8317" lon="7.19202">
        <ele>144.63</ele>
        <time>2017-06-20T09:49:45Z</time>
      </trkpt>
      <trkpt lat="43.83261" lon="7.19235">
        <ele>144.91</ele>
        <time>2017-06-20T09:49:50Z</time>
      </trkpt>
      <trkpt lat="43.83354" lon="7.19269">
        <ele>145.74</ele>
        <time>2017-06-20T09:49:55Z</time>
      </trkpt>
      <trkpt lat="43.83431" lon="7.19297">
        <ele>145.51</ele>
        <time>2017-06-20T09:50:00Z</time>
      </trkpt>
      <trkpt lat="43.83497" lon="7.19324">
        <ele>145.95</ele>
        <time>2017-06-20T09:50:05Z</time>
      </trkpt>
      <trkpt lat="43.83537" lon="7.19364">
        <ele>144.9</ele>
        <time>2017-06-20T09:50:10Z</time>
      </trkpt>
      <trkpt lat="43.83576" lon="7.19355">
        <ele>145.79</ele>
        <time>2017-06-20T09:50:15Z</time>
      </trkpt>
      <trkpt lat="43.83623" lon="7.19363">
        <ele>146.11</ele>
        <time>2017-06-20T09:50:20Z</time>
      </trkpt>
      <trkpt lat="43.83672" lon="7.19381">
        <ele>146.81</ele>
        <time>2017-06-20T09:50:25Z</time>
      </trkpt>
      <trkpt lat="43.83727" lon="7.19403">
        <ele>146.64</ele>
        <time>2017-06-20T09:50:30Z</time>
      </trkpt>
      <trkpt lat="43.8378" lon="7.19427">
        <ele>146.92</ele>
        <time>2017-06-20T09:50:35Z</time>
      </trkpt>
      <trkpt lat="43.83836" lon="7.19448">
        <ele>147.64</ele>
        <time>2017-06-20T09:50:40Z</time>
      </trkpt>
      <trkpt lat="43.83886" lon="7.19468">
        <ele>148.24</ele>
        <time>2017-06-20T09:50:45Z</time>
      </trkpt>
      <trkpt lat="43.83907" lon="7.19498">
        <ele>148.57</ele>
        <time>2017-06-20T09:50:50Z</time>
      </trkpt>
      <trkpt lat="43.8392" lon="7.19472">
        <ele>148.51</ele>
        <time>2017-06-20T09:50:57Z</time>
      </trkpt>
      <trkpt lat="43.83872" lon="7.19449">
        <ele>149.43</ele>
        <time>2017-06-20T09:51:02Z</time>
      </trkpt>
      <trkpt lat="43.83817" lon="7.19428">
        <ele>149.1</ele>
        <time>2017-06-20T09:51:07Z</time>
      </trkpt>
      <trkpt lat="43.83788" lon="7.19409">
        <ele>147.58</ele>
        <time>2017-06-20T09:51:12Z</time>
      </trkpt>
      <trkpt lat="43.83791" lon="7.19368">
        <ele>148.62</ele>
        <time>2017-06-20T09:51:17Z</time>
      </trkpt>
      <trkpt lat="43.83804" lon="7.19298">
        <ele>149.37</ele>
        <time>2017-06-20T09:51:22Z</time>
      </trkpt>
      <trkpt lat="43.83821" lon="7.19217">
        <ele>150.16</ele>
        <time>2017-06-20T09:51:27Z</time>
      </trkpt>
      <trkpt lat="43.83833" lon="7.19152">
        <ele>148.14</ele>
        <time>2017-06-20T09:51:32Z</time>
      </trkpt>
      <trkpt lat="43.83846" lon="7.19105">
        <ele>148.25</ele>
        <time>2017-06-20T09:51:37Z</time>
      </trkpt>
      <trkpt lat="43.83881" lon="7.19061">
        <ele>151.04</ele>
        <time>2017-06-20T09:51:42Z</time>
      </trkpt>
      <trkpt lat="43.83934" lon="7.19033">
        <ele>154.21</ele>
        <time>2017-06-20T09:51:47Z</time>
      </trkpt>
      <trkpt lat="43.83993" lon="7.1902">
        <ele>157.23</ele>
        <time>2017-06-20T09:51:52Z</time>
      </trkpt>
      <trkpt lat="43.84063" lon="7.19007">
        <ele>160.47</ele>
        <time>2017-06-20T09:51:57Z</time>
      </trkpt>
      <trkpt lat="43.84126" lon="7.19002">
        <ele>163.59</ele>
        <time>2017-06-20T09:52:02Z</time>
      </trkpt>
      <trkpt lat="43.84169" lon="7.19">
        <ele>165.33</ele>
        <time>2017-06-20T09:52:07Z</time>
      </trkpt>
      <trkpt lat="43.84154" lon="7.1897">
        <ele>166.63</ele>
        <time>2017-06-20T09:52:13Z</time>
      </trkpt>
      <trkpt lat="43.8409" lon="7.18964">
        <ele>170.76</ele>
        <time>2017-06-20T09:52:18Z</time>
      </trkpt>
      <trkpt lat="43.84032" lon="7.18945">
        <ele>173.42</ele>
        <time>2017-06-20T09:52:23Z</time>
      </trkpt>
      <trkpt lat="43.83977" lon="7.18949">
        <ele>175.66</ele>
        <time>2017-06-20T09:52:28Z</time>
      </trkpt>
      <trkpt lat="43.83955" lon="7.1894">
        <ele>176.62</ele>
        <time>2017-06-20T09:52:35Z</time>
      </trkpt>
      <trkpt lat="43.83929" lon="7.1893">
        <ele>178.57</ele>
        <time>2017-06-20T09:53:13Z</time>
      </trkpt>
      <trkpt lat="43.83885" lon="7.18927">
        <ele>181.26</ele>
        <time>2017-06-20T09:53:18Z</time>
      </trkpt>
      <trkpt lat="43.83847" lon="7.1896">
        <ele>183.89</ele>
        <time>2017-06-20T09:53:23Z</time>
      </trkpt>
      <trkpt lat="43.83816" lon="7.18976">
        <ele>185.83</ele>
        <time>2017-06-20T09:53:28Z</time>
      </trkpt>
      <trkpt lat="43.83777" lon="7.18943">
        <ele>188.73</ele>
        <time>2017-06-20T09:53:33Z</time>
      </trkpt>
      <trkpt lat="43.8377" lon="7.18877">
        <ele>190.68</ele>
        <time>2017-06-20T09:53:38Z</time>
      </trkpt>
      <trkpt lat="43.83738" lon="7.1883">
        <ele>193.49</ele>
        <time>2017-06-20T09:53:43Z</time>
      </trkpt>
      <trkpt lat="43.83666" lon="7.18798">
        <ele>198.28</ele>
        <time>2017-06-20T09:53:48Z</time>
      </trkpt>
      <trkpt lat="43.83606" lon="7.18773">
        <ele>200.69</ele>
        <time>2017-06-20T09:53:53Z</time>
      </trkpt>
      <trkpt lat="43.83549" lon="7.1872">
        <ele>204.62</ele>
        <time>2017-06-20T09:53:58Z</time>
      </trkpt>
      <trkpt lat="43.83509" lon="7.18643">
        <ele>207.68</ele>
        <time>2017-06-20T09:54:03Z</time>
      </trkpt>
      <trkpt lat="43.83438" lon="7.18598">
        <ele>212.33</ele>
        <time>2017-06-20T09:54:08Z</time>
      </trkpt>
      <trkpt lat="43.8337" lon="7.18539">
        <ele>216.58</ele>
        <time>2017-06-20T09:54:13Z</time>
      </trkpt>
      <trkpt lat="43.83287" lon="7.18467">
        <ele>223.14</ele>
        <time>2017-06-20T09:54:18Z</time>
      </trkpt>
      <trkpt lat="43.83209" lon="7.18418">
        <ele>226.86</ele>
        <time>2017-06-20T09:54:23Z</time>
      </trkpt>
      <trkpt lat="43.83152" lon="7.18347">
        <ele>230.77</ele>
        <time>2017-06-20T09:54:28Z</time>
      </trkpt>
      <trkpt lat="43.83118" lon="7.18281">
        <ele>234.16</ele>
        <time>2017-06-20T09:54:33Z</time>
      </trkpt>
      <trkpt lat="43.83119" lon="7.18202">
        <ele>237.24</ele>
        <time>2017-06-20T09:54:38Z</time>
      </trkpt>
      <trkpt lat="43.83154" lon="7.18171">
        <ele>239.96</ele>
        <time>2017-06-20T09:54:43Z</time>
      </trkpt>
      <trkpt lat="43.83183" lon="7.18253">
        <ele>244.48</ele>
        <time>2017-06-20T09:54:48Z</time>
      </trkpt>
      <trkpt lat="43.83202" lon="7.1836">
        <ele>248.28</ele>
        <time>2017-06-20T09:54:53Z</time>
      </trkpt>
      <trkpt lat="43.83256" lon="7.18402">
        <ele>251.63</ele>
        <time>2017-06-20T09:54:58Z</time>
      </trkpt>
      <trkpt lat="43.83342" lon="7.18429">
        <ele>256.04</ele>
        <time>2017-06-20T09:55:03Z</time>
      </trkpt>
      <trkpt lat="43.83417" lon="7.18482">
        <ele>260.56</ele>
        <time>2017-06-20T09:55:08Z</time>
      </trkpt>
      <trkpt lat="43.8347" lon="7.18525">
        <ele>263.03</ele>
        <time>2017-06-20T09:55:13Z</time>
      </trkpt>
      <trkpt lat="43.83557" lon="7.18542">
        <ele>268.82</ele>
        <time>2017-06-20T09:55:18Z</time>
      </trkpt>
      <trkpt lat="43.83602" lon="7.18607">
        <ele>271.88</ele>
        <time>2017-06-20T09:55:23Z</time>
      </trkpt>
      <trkpt lat="43.8365" lon="7.18634">
        <ele>275.07</ele>
        <time>2017-06-20T09:55:28Z</time>
      </trkpt>
      <trkpt lat="43.83728" lon="7.18603">
        <ele>281.08</ele>
        <time>2017-06-20T09:55:33Z</time>
      </trkpt>
      <trkpt lat="43.83808" lon="7.18584">
        <ele>283.78</ele>
        <time>2017-06-20T09:55:38Z</time>
      </trkpt>
      <trkpt lat="43.83867" lon="7.18552">
        <ele>286.63</ele>
        <time>2017-06-20T09:55:43Z</time>
      </trkpt>
      <trkpt lat="43.8391" lon="7.18608">
        <ele>289.91</ele>
        <time>2017-06-20T09:55:48Z</time>
      </trkpt>
      <trkpt lat="43.83988" lon="7.18606">
        <ele>295.26</ele>
        <time>2017-06-20T09:55:53Z</time>
      </trkpt>
      <trkpt lat="43.84072" lon="7.18575">
        <ele>299.86</ele>
        <time>2017-06-20T09:55:58Z</time>
      </trkpt>
      <trkpt lat="43.8415" lon="7.186">
        <ele>304.16</ele>
        <time>2017-06-20T09:56:03Z</time>
      </trkpt>
      <trkpt lat="43.84209" lon="7.18617">
        <ele>305.91</ele>
        <time>2017-06-20T09:56:08Z</time>
      </trkpt>
      <trkpt lat="43.84265" lon="7.18553">
        <ele>311.3</ele>
        <time>2017-06-20T09:56:13Z</time>
      </trkpt>
      <trkpt lat="43.84311" lon="7.18554">
        <ele>314.23</ele>
        <time>2017-06-20T09:56:18Z</time>
      </trkpt>
      <trkpt lat="43.84332" lon="7.18645">
        <ele>318.96</ele>
        <time>2017-06-20T09:56:23Z</time>
      </trkpt>
      <trkpt lat="43.84376" lon="7.18685">
        <ele>321.92</ele>
        <time>2017-06-20T09:56:28Z</time>
      </trkpt>
      <trkpt lat="43.8443" lon="7.18703">
        <ele>324.61</ele>
        <time>2017-06-20T09:56:33Z</time>
      </trkpt>
      <trkpt lat="43.84452" lon="7.18677">
        <ele>325.45</ele>
        <time>2017-06-20T09:56:38Z</time>
      </trkpt>
      <trkpt lat="43.8443" lon="7.18668">
        <ele>326.29</ele>
        <time>2017-06-20T09:56:44Z</time>
      </trkpt>
      <trkpt lat="43.8439" lon="7.18658">
        <ele>328.66</ele>
        <time>2017-06-20T09:56:49Z</time>
      </trkpt>
      <trkpt lat="43.84377" lon="7.18633">
        <ele>329.07</ele>
        <time>2017-06-20T09:56:54Z</time>
      </trkpt>
      <trkpt lat="43.84357" lon="7.18599">
        <ele>334.55</ele>
        <time>2017-06-20T09:57:57Z</time>
      </trkpt>
      <trkpt lat="43.84349" lon="7.18531">
        <ele>336.71</ele>
        <time>2017-06-20T09:58:02Z</time>
      </trkpt>
      <trkpt lat="43.84343" lon="7.18456">
        <ele>340.48</ele>
        <time>2017-06-20T09:58:07Z</time>
      </trkpt>
      <trkpt lat="43.843" lon="7.18435">
        <ele>343.11</ele>
        <time>2017-06-20T09:58:12Z</time>
      </trkpt>
      <trkpt lat="43.84242" lon="7.1845">
        <ele>345.85</ele>
        <time>2017-06-20T09:58:17Z</time>
      </trkpt>
      <trkpt lat="43.84202" lon="7.18406">
        <ele>348.78</ele>
        <time>2017-06-20T09:58:22Z</time>
      </trkpt>
      <trkpt lat="43.84154" lon="7.1841">
        <ele>352.06</ele>
        <time>2017-06-20T09:58:27Z</time>
      </trkpt>
      <trkpt lat="43.84089" lon="7.1841">
        <ele>355.93</ele>
        <time>2017-06-20T09:58:32Z</time>
      </trkpt>
      <trkpt lat="43.84031" lon="7.18396">
        <ele>359.88</ele>
        <time>2017-06-20T09:58:37Z</time>
      </trkpt>
      <trkpt lat="43.83981" lon="7.18347">
        <ele>363.15</ele>
        <time>2017-06-20T09:58:42Z</time>
      </trkpt>
      <trkpt lat="43.83934" lon="7.18306">
        <ele>367.01</ele>
        <time>2017-06-20T09:58:47Z</time>
      </trkpt>
      <trkpt lat="43.83874" lon="7.18348">
        <ele>372.35</ele>
        <time>2017-06-20T09:58:52Z</time>
      </trkpt>
      <trkpt lat="43.83823" lon="7.1841">
        <ele>376.26</ele>
        <time>2017-06-20T09:58:57Z</time>
      </trkpt>
      <trkpt lat="43.83779" lon="7.18395">
        <ele>379.7</ele>
        <time>2017-06-20T09:59:02Z</time>
      </trkpt>
      <trkpt lat="43.83723" lon="7.18339">
        <ele>382.95</ele>
        <time>2017-06-20T09:59:07Z</time>
      </trkpt>
      <trkpt lat="43.83673" lon="7.18304">
        <ele>386.36</ele>
        <time>2017-06-20T09:59:12Z</time>
      </trkpt>
      <trkpt lat="43.83678" lon="7.18239">
        <ele>389.86</ele>
        <time>2017-06-20T09:59:17Z</time>
      </trkpt>
      <trkpt lat="43.83726" lon="7.1817">
        <ele>392.49</ele>
        <time>2017-06-20T09:59:22Z</time>
      </trkpt>
      <trkpt lat="43.83776" lon="7.1814">
        <ele>394.54</ele>
        <time>2017-06-20T09:59:27Z</time>
      </trkpt>
      <trkpt lat="43.8383" lon="7.18125">
        <ele>396.94</ele>
        <time>2017-06-20T09:59:32Z</time>
      </trkpt>
      <trkpt lat="43.83863" lon="7.18124">
        <ele>398</ele>
        <time>2017-06-20T09:59:37Z</time>
      </trkpt>
      <trkpt lat="43.8389" lon="7.1812">
        <ele>398.65</ele>
        <time>2017-06-20T09:59:43Z</time>
      </trkpt>
      <trkpt lat="43.83914" lon="7.18113">
        <ele>399.62</ele>
        <time>2017-06-20T09:59:48Z</time>
      </trkpt>
      <trkpt lat="43.83952" lon="7.18084">
        <ele>401.22</ele>
        <time>2017-06-20T09:59:53Z</time>
      </trkpt>
      <trkpt lat="43.84014" lon="7.18032">
        <ele>405.19</ele>
        <time>2017-06-20T09:59:58Z</time>
      </trkpt>
      <trkpt lat="43.84059" lon="7.17962">
        <ele>407.29</ele>
        <time>2017-06-20T10:00:03Z</time>
      </trkpt>
      <trkpt lat="43.84108" lon="7.17897">
        <ele>410.79</ele>
        <time>2017-06-20T10:00:08Z</time>
      </trkpt>
      <trkpt lat="43.84151" lon="7.17811">
        <ele>415.58</ele>
        <time>2017-06-20T10:00:13Z</time>
      </trkpt>
      <trkpt lat="43.842" lon="7.17743">
        <ele>418.05</ele>
        <time>2017-06-20T10:00:18Z</time>
      </trkpt>
      <trkpt lat="43.84237" lon="7.17672">
        <ele>419.13</ele>
        <time>2017-06-20T10:00:23Z</time>
      </trkpt>
      <trkpt lat="43.84255" lon="7.17585">
        <ele>421.21</ele>
        <time>2017-06-20T10:00:28Z</time>
      </trkpt>
      <trkpt lat="43.84294" lon="7.17536">
        <ele>423.16</ele>
        <time>2017-06-20T10:00:33Z</time>
      </trkpt>
      <trkpt lat="43.84345" lon="7.17479">
        <ele>425.2</ele>
        <time>2017-06-20T10:00:38Z</time>
      </trkpt>
      <trkpt lat="43.84358" lon="7.17407">
        <ele>427.51</ele>
        <time>2017-06-20T10:00:43Z</time>
      </trkpt>
      <trkpt lat="43.84407" lon="7.17384">
        <ele>429.53</ele>
        <time>2017-06-20T10:00:48Z</time>
      </trkpt>
      <trkpt lat="43.84454" lon="7.17331">
        <ele>431.16</ele>
        <time>2017-06-20T10:00:53Z</time>
      </trkpt>
      <trkpt lat="43.84503" lon="7.17261">
        <ele>433.84</ele>
        <time>2017-06-20T10:00:58Z</time>
      </trkpt>
      <trkpt lat="43.84554" lon="7.17193">
        <ele>437.89</ele>
        <time>2017-06-20T10:01:03Z</time>
      </trkpt>
      <trkpt lat="43.84589" lon="7.17089">
        <ele>442.35</ele>
        <time>2017-06-20T10:01:08Z</time>
      </trkpt>
      <trkpt lat="43.84615" lon="7.16993">
        <ele>446.48</ele>
        <time>2017-06-20T10:01:13Z</time>
      </trkpt>
      <trkpt lat="43.84638" lon="7.16936">
        <ele>448.88</ele>
        <time>2017-06-20T10:01:18Z</time>
      </trkpt>
      <trkpt lat="43.84644" lon="7.16903">
        <ele>450.09</ele>
        <time>2017-06-20T10:01:26Z</time>
      </trkpt>
      <trkpt lat="43.84663" lon="7.16864">
        <ele>452.21</ele>
        <time>2017-06-20T10:01:31Z</time>
      </trkpt>
      <trkpt lat="43.84695" lon="7.16808">
        <ele>455.63</ele>
        <time>2017-06-20T10:01:36Z</time>
      </trkpt>
      <trkpt lat="43.84751" lon="7.16753">
        <ele>460.35</ele>
        <time>2017-06-20T10:01:41Z</time>
      </trkpt>
      <trkpt lat="43.84796" lon="7.16683">
        <ele>463.61</ele>
        <time>2017-06-20T10:01:46Z</time>
      </trkpt>
      <trkpt lat="43.84829" lon="7.16608">
        <ele>465.85</ele>
        <time>2017-06-20T10:01:51Z</time>
      </trkpt>
      <trkpt lat="43.84847" lon="7.16561">
        <ele>468.29</ele>
        <time>2017-06-20T10:01:56Z</time>
      </trkpt>
      <trkpt lat="43.84869" lon="7.1651">
        <ele>468.95</ele>
        <time>2017-06-20T10:02:01Z</time>
      </trkpt>
      <trkpt lat="43.84883" lon="7.16478">
        <ele>468.73</ele>
        <time>2017-06-20T10:02:06Z</time>
      </trkpt>
      <trkpt lat="43.84903" lon="7.16463">
        <ele>468.16</ele>
        <time>2017-06-20T10:02:13Z</time>
      </trkpt>
      <trkpt lat="43.84927" lon="7.16439">
        <ele>468.55</ele>
        <time>2017-06-20T10:02:22Z</time>
      </trkpt>
      <trkpt lat="43.84947" lon="7.16379">
        <ele>468.7</ele>
        <time>2017-06-20T10:02:27Z</time>
      </trkpt>
      <trkpt lat="43.84967" lon="7.16362">
        <ele>468.3</ele>
        <time>2017-06-20T10:02:34Z</time>
      </trkpt>
      <trkpt lat="43.8499" lon="7.16347">
        <ele>468.38</ele>
        <time>2017-06-20T10:02:41Z</time>
      </trkpt>
      <trkpt lat="43.85013" lon="7.16337">
        <ele>468.72</ele>
        <time>2017-06-20T10:02:46Z</time>
      </trkpt>
      <trkpt lat="43.85038" lon="7.16347">
        <ele>468.85</ele>
        <time>2017-06-20T10:02:51Z</time>
      </trkpt>
      <trkpt lat="43.85075" lon="7.16391">
        <ele>468.47</ele>
        <time>2017-06-20T10:02:56Z</time>
      </trkpt>
      <trkpt lat="43.851" lon="7.16406">
        <ele>468.09</ele>
        <time>2017-06-20T10:03:01Z</time>
      </trkpt>
      <trkpt lat="43.85129" lon="7.16393">
        <ele>468.71</ele>
        <time>2017-06-20T10:03:07Z</time>
      </trkpt>
      <trkpt lat="43.85137" lon="7.16362">
        <ele>467.36</ele>
        <time>2017-06-20T10:03:13Z</time>
      </trkpt>
      <trkpt lat="43.85113" lon="7.16375">
        <ele>468.22</ele>
        <time>2017-06-20T10:03:28Z</time>
      </trkpt>
      <trkpt lat="43.85089" lon="7.16383">
        <ele>468.52</ele>
        <time>2017-06-20T10:03:35Z</time>
      </trkpt>
      <trkpt lat="43.85062" lon="7.1638">
        <ele>468.68</ele>
        <time>2017-06-20T10:03:42Z</time>
      </trkpt>
      <trkpt lat="43.85043" lon="7.16362">
        <ele>468.64</ele>
        <time>2017-06-20T10:03:47Z</time>
      </trkpt>
      <trkpt lat="43.85021" lon="7.16342">
        <ele>468.49</ele>
        <time>2017-06-20T10:03:53Z</time>
      </trkpt>
      <trkpt lat="43.84994" lon="7.16338">
        <ele>468.99</ele>
        <time>2017-06-20T10:03:59Z</time>
      </trkpt>
      <trkpt lat="43.84971" lon="7.1635">
        <ele>468.45</ele>
        <time>2017-06-20T10:04:04Z</time>
      </trkpt>
      <trkpt lat="43.84948" lon="7.16346">
        <ele>468.94</ele>
        <time>2017-06-20T10:04:20Z</time>
      </trkpt>
      <trkpt lat="43.8497" lon="7.16353">
        <ele>468.26</ele>
        <time>2017-06-20T10:13:41Z</time>
      </trkpt>
      <trkpt lat="43.84948" lon="7.16358">
        <ele>468.62</ele>
        <time>2017-06-20T10:38:51Z</time>
      </trkpt>
      <trkpt lat="43.84974" lon="7.16357">
        <ele>468.68</ele>
        <time>2017-06-20T10:39:05Z</time>
      </trkpt>
      <trkpt lat="43.84998" lon="7.16342">
        <ele>468.71</ele>
        <time>2017-06-20T10:39:10Z</time>
      </trkpt>
      <trkpt lat="43.85024" lon="7.1633">
        <ele>468.8</ele>
        <time>2017-06-20T10:39:16Z</time>
      </trkpt>
      <trkpt lat="43.85057" lon="7.16362">
        <ele>468.76</ele>
        <time>2017-06-20T10:39:21Z</time>
      </trkpt>
      <trkpt lat="43.85094" lon="7.16383">
        <ele>468.49</ele>
        <time>2017-06-20T10:39:26Z</time>
      </trkpt>
      <trkpt lat="43.85133" lon="7.16373">
        <ele>468.63</ele>
        <time>2017-06-20T10:39:31Z</time>
      </trkpt>
      <trkpt lat="43.85164" lon="7.16347">
        <ele>467.38</ele>
        <time>2017-06-20T10:39:36Z</time>
      </trkpt>
      <trkpt lat="43.85193" lon="7.16369">
        <ele>467.33</ele>
        <time>2017-06-20T10:39:41Z</time>
      </trkpt>
      <trkpt lat="43.85194" lon="7.16424">
        <ele>466.14</ele>
        <time>2017-06-20T10:39:46Z</time>
      </trkpt>
      <trkpt lat="43.85205" lon="7.16459">
        <ele>465.16</ele>
        <time>2017-06-20T10:39:51Z</time>
      </trkpt>
      <trkpt lat="43.85234" lon="7.1646">
        <ele>463.87</ele>
        <time>2017-06-20T10:39:56Z</time>
      </trkpt>
      <trkpt lat="43.85255" lon="7.16445">
        <ele>463.55</ele>
        <time>2017-06-20T10:40:03Z</time>
      </trkpt>
      <trkpt lat="43.85292" lon="7.16433">
        <ele>463.12</ele>
        <time>2017-06-20T10:40:08Z</time>
      </trkpt>
      <trkpt lat="43.85331" lon="7.16404">
        <ele>463.1</ele>
        <time>2017-06-20T10:40:13Z</time>
      </trkpt>
      <trkpt lat="43.85367" lon="7.16382">
        <ele>461.76</ele>
        <time>2017-06-20T10:40:18Z</time>
      </trkpt>
      <trkpt lat="43.85415" lon="7.16329">
        <ele>461.95</ele>
        <time>2017-06-20T10:40:23Z</time>
      </trkpt>
      <trkpt lat="43.85444" lon="7.16261">
        <ele>459.91</ele>
        <time>2017-06-20T10:40:28Z</time>
      </trkpt>
      <trkpt lat="43.85481" lon="7.16231">
        <ele>458.84</ele>
        <time>2017-06-20T10:40:33Z</time>
      </trkpt>
      <trkpt lat="43.85534" lon="7.16242">
        <ele>457.97</ele>
        <time>2017-06-20T10:40:38Z</time>
      </trkpt>
      <trkpt lat="43.85586" lon="7.16196">
        <ele>456.57</ele>
        <time>2017-06-20T10:40:43Z</time>
      </trkpt>
      <trkpt lat="43.85617" lon="7.16144">
        <ele>455.87</ele>
        <time>2017-06-20T10:40:48Z</time>
      </trkpt>
      <trkpt lat="43.85665" lon="7.16142">
        <ele>455.18</ele>
        <time>2017-06-20T10:40:53Z</time>
      </trkpt>
      <trkpt lat="43.85719" lon="7.16109">
        <ele>454.37</ele>
        <time>2017-06-20T10:40:58Z</time>
      </trkpt>
      <trkpt lat="43.85755" lon="7.16044">
        <ele>452.67</ele>
        <time>2017-06-20T10:41:03Z</time>
      </trkpt>
      <trkpt lat="43.8579" lon="7.15994">
        <ele>451.64</ele>
        <time>2017-06-20T10:41:08Z</time>
      </trkpt>
      <trkpt lat="43.85838" lon="7.16012">
        <ele>450.29</ele>
        <time>2017-06-20T10:41:13Z</time>
      </trkpt>
      <trkpt lat="43.85897" lon="7.16069">
        <ele>448.15</ele>
        <time>2017-06-20T10:41:18Z</time>
      </trkpt>
      <trkpt lat="43.85973" lon="7.16078">
        <ele>445.63</ele>
        <time>2017-06-20T10:41:23Z</time>
      </trkpt>
      <trkpt lat="43.86026" lon="7.16078">
        <ele>442.43</ele>
        <time>2017-06-20T10:41:28Z</time>
      </trkpt>
      <trkpt lat="43.86077" lon="7.16082">
        <ele>439.07</ele>
        <time>2017-06-20T10:41:33Z</time>
      </trkpt>
      <trkpt lat="43.86096" lon="7.16151">
        <ele>437.87</ele>
        <time>2017-06-20T10:41:38Z</time>
      </trkpt>
      <trkpt lat="43.86127" lon="7.16181">
        <ele>437.37</ele>
        <time>2017-06-20T10:41:43Z</time>
      </trkpt>
      <trkpt lat="43.86144" lon="7.16103">
        <ele>434.82</ele>
        <time>2017-06-20T10:41:48Z</time>
      </trkpt>
      <trkpt lat="43.86167" lon="7.16042">
        <ele>432</ele>
        <time>2017-06-20T10:41:53Z</time>
      </trkpt>
      <trkpt lat="43.86165" lon="7.15961">
        <ele>429.75</ele>
        <time>2017-06-20T10:41:58Z</time>
      </trkpt>
      <trkpt lat="43.86149" lon="7.15897">
        <ele>429.88</ele>
        <time>2017-06-20T10:42:03Z</time>
      </trkpt>
      <trkpt lat="43.86094" lon="7.15899">
        <ele>430.25</ele>
        <time>2017-06-20T10:42:08Z</time>
      </trkpt>
      <trkpt lat="43.86044" lon="7.15867">
        <ele>431.19</ele>
        <time>2017-06-20T10:42:13Z</time>
      </trkpt>
      <trkpt lat="43.86012" lon="7.15808">
        <ele>431.51</ele>
        <time>2017-06-20T10:42:18Z</time>
      </trkpt>
      <trkpt lat="43.85973" lon="7.15769">
        <ele>431.68</ele>
        <time>2017-06-20T10:42:23Z</time>
      </trkpt>
      <trkpt lat="43.85947" lon="7.15716">
        <ele>431.45</ele>
        <time>2017-06-20T10:42:28Z</time>
      </trkpt>
      <trkpt lat="43.85927" lon="7.15653">
        <ele>432.04</ele>
        <time>2017-06-20T10:42:33Z</time>
      </trkpt>
      <trkpt lat="43.85902" lon="7.15599">
        <ele>432.56</ele>
        <time>2017-06-20T10:42:38Z</time>
      </trkpt>
      <trkpt lat="43.85843" lon="7.15559">
        <ele>435.03</ele>
        <time>2017-06-20T10:42:43Z</time>
      </trkpt>
      <trkpt lat="43.8577" lon="7.15515">
        <ele>433.95</ele>
        <time>2017-06-20T10:42:48Z</time>
      </trkpt>
      <trkpt lat="43.85711" lon="7.15464">
        <ele>434.35</ele>
        <time>2017-06-20T10:42:53Z</time>
      </trkpt>
      <trkpt lat="43.85657" lon="7.15449">
        <ele>433.55</ele>
        <time>2017-06-20T10:42:58Z</time>
      </trkpt>
      <trkpt lat="43.85644" lon="7.15399">
        <ele>434.04</ele>
        <time>2017-06-20T10:43:03Z</time>
      </trkpt>
      <trkpt lat="43.85662" lon="7.15321">
        <ele>435.58</ele>
        <time>2017-06-20T10:43:08Z</time>
      </trkpt>
      <trkpt lat="43.85718" lon="7.15245">
        <ele>436.29</ele>
        <time>2017-06-20T10:43:13Z</time>
      </trkpt>
      <trkpt lat="43.85792" lon="7.15204">
        <ele>437.33</ele>
        <time>2017-06-20T10:43:18Z</time>
      </trkpt>
      <trkpt lat="43.85841" lon="7.15143">
        <ele>436.99</ele>
        <time>2017-06-20T10:43:23Z</time>
      </trkpt>
      <trkpt lat="43.85846" lon="7.15053">
        <ele>437.26</ele>
        <time>2017-06-20T10:43:28Z</time>
      </trkpt>
      <trkpt lat="43.85807" lon="7.14991">
        <ele>436.59</ele>
        <time>2017-06-20T10:43:33Z</time>
      </trkpt>
      <trkpt lat="43.85753" lon="7.14914">
        <ele>438.25</ele>
        <time>2017-06-20T10:43:38Z</time>
      </trkpt>
      <trkpt lat="43.85767" lon="7.14847">
        <ele>439.3</ele>
        <time>2017-06-20T10:43:43Z</time>
      </trkpt>
      <trkpt lat="43.85836" lon="7.14751">
        <ele>442.04</ele>
        <time>2017-06-20T10:43:48Z</time>
      </trkpt>
      <trkpt lat="43.85857" lon="7.1468">
        <ele>439.95</ele>
        <time>2017-06-20T10:43:53Z</time>
      </trkpt>
      <trkpt lat="43.85839" lon="7.1461">
        <ele>440.39</ele>
        <time>2017-06-20T10:43:58Z</time>
      </trkpt>
      <trkpt lat="43.85852" lon="7.14498">
        <ele>441.46</ele>
        <time>2017-06-20T10:44:03Z</time>
      </trkpt>
      <trkpt lat="43.85809" lon="7.14434">
        <ele>442.73</ele>
        <time>2017-06-20T10:44:08Z</time>
      </trkpt>
      <trkpt lat="43.85718" lon="7.14426">
        <ele>443.58</ele>
        <time>2017-06-20T10:44:13Z</time>
      </trkpt>
      <trkpt lat="43.85638" lon="7.14406">
        <ele>444.34</ele>
        <time>2017-06-20T10:44:18Z</time>
      </trkpt>
      <trkpt lat="43.85577" lon="7.14402">
        <ele>444.28</ele>
        <time>2017-06-20T10:44:23Z</time>
      </trkpt>
      <trkpt lat="43.85509" lon="7.1436">
        <ele>445.39</ele>
        <time>2017-06-20T10:44:28Z</time>
      </trkpt>
      <trkpt lat="43.85473" lon="7.14268">
        <ele>446.2</ele>
        <time>2017-06-20T10:44:33Z</time>
      </trkpt>
      <trkpt lat="43.85436" lon="7.14211">
        <ele>445.19</ele>
        <time>2017-06-20T10:44:38Z</time>
      </trkpt>
      <trkpt lat="43.85364" lon="7.14214">
        <ele>442.35</ele>
        <time>2017-06-20T10:44:43Z</time>
      </trkpt>
      <trkpt lat="43.85322" lon="7.14186">
        <ele>440.07</ele>
        <time>2017-06-20T10:44:48Z</time>
      </trkpt>
      <trkpt lat="43.85315" lon="7.14111">
        <ele>436.29</ele>
        <time>2017-06-20T10:44:53Z</time>
      </trkpt>
      <trkpt lat="43.85352" lon="7.14044">
        <ele>433.04</ele>
        <time>2017-06-20T10:44:58Z</time>
      </trkpt>
      <trkpt lat="43.85391" lon="7.13943">
        <ele>428.59</ele>
        <time>2017-06-20T10:45:03Z</time>
      </trkpt>
      <trkpt lat="43.85425" lon="7.13834">
        <ele>423.63</ele>
        <time>2017-06-20T10:45:08Z</time>
      </trkpt>
      <trkpt lat="43.85464" lon="7.13717">
        <ele>418.41</ele>
        <time>2017-06-20T10:45:13Z</time>
      </trkpt>
      <trkpt lat="43.85496" lon="7.13668">
        <ele>411.82</ele>
        <time>2017-06-20T10:45:18Z</time>
      </trkpt>
      <trkpt lat="43.85572" lon="7.13676">
        <ele>409.47</ele>
        <time>2017-06-20T10:45:23Z</time>
      </trkpt>
      <trkpt lat="43.85637" lon="7.13653">
        <ele>405.74</ele>
        <time>2017-06-20T10:45:28Z</time>
      </trkpt>
      <trkpt lat="43.85675" lon="7.13602">
        <ele>399.76</ele>
        <time>2017-06-20T10:45:33Z</time>
      </trkpt>
      <trkpt lat="43.85745" lon="7.13588">
        <ele>396.96</ele>
        <time>2017-06-20T10:45:38Z</time>
      </trkpt>
      <trkpt lat="43.85775" lon="7.13527">
        <ele>394.1</ele>
        <time>2017-06-20T10:45:43Z</time>
      </trkpt>
      <trkpt lat="43.8575" lon="7.13428">
        <ele>389.81</ele>
        <time>2017-06-20T10:45:48Z</time>
      </trkpt>
      <trkpt lat="43.85743" lon="7.13341">
        <ele>385.76</ele>
        <time>2017-06-20T10:45:53Z</time>
      </trkpt>
      <trkpt lat="43.85798" lon="7.13274">
        <ele>383.69</ele>
        <time>2017-06-20T10:45:58Z</time>
      </trkpt>
      <trkpt lat="43.85853" lon="7.1319">
        <ele>378.74</ele>
        <time>2017-06-20T10:46:03Z</time>
      </trkpt>
      <trkpt lat="43.85903" lon="7.13115">
        <ele>373.55</ele>
        <time>2017-06-20T10:46:08Z</time>
      </trkpt>
      <trkpt lat="43.8588" lon="7.13073">
        <ele>371.75</ele>
        <time>2017-06-20T10:46:13Z</time>
      </trkpt>
      <trkpt lat="43.85815" lon="7.13056">
        <ele>367.81</ele>
        <time>2017-06-20T10:46:18Z</time>
      </trkpt>
      <trkpt lat="43.85784" lon="7.12996">
        <ele>365.16</ele>
        <time>2017-06-20T10:46:23Z</time>
      </trkpt>
      <trkpt lat="43.85745" lon="7.12909">
        <ele>362.49</ele>
        <time>2017-06-20T10:46:28Z</time>
      </trkpt>
      <trkpt lat="43.85757" lon="7.12836">
        <ele>360.3</ele>
        <time>2017-06-20T10:46:33Z</time>
      </trkpt>
      <trkpt lat="43.85775" lon="7.12733">
        <ele>355.81</ele>
        <time>2017-06-20T10:46:38Z</time>
      </trkpt>
      <trkpt lat="43.8578" lon="7.12633">
        <ele>351.26</ele>
        <time>2017-06-20T10:46:43Z</time>
      </trkpt>
      <trkpt lat="43.85765" lon="7.12549">
        <ele>347.4</ele>
        <time>2017-06-20T10:46:48Z</time>
      </trkpt>
      <trkpt lat="43.85795" lon="7.1245">
        <ele>344.44</ele>
        <time>2017-06-20T10:46:53Z</time>
      </trkpt>
      <trkpt lat="43.85815" lon="7.12323">
        <ele>340.26</ele>
        <time>2017-06-20T10:46:58Z</time>
      </trkpt>
      <trkpt lat="43.85802" lon="7.12203">
        <ele>334.79</ele>
        <time>2017-06-20T10:47:03Z</time>
      </trkpt>
      <trkpt lat="43.85759" lon="7.12099">
        <ele>332.86</ele>
        <time>2017-06-20T10:47:08Z</time>
      </trkpt>
      <trkpt lat="43.8574" lon="7.12009">
        <ele>331.69</ele>
        <time>2017-06-20T10:47:13Z</time>
      </trkpt>
      <trkpt lat="43.85728" lon="7.11896">
        <ele>330.36</ele>
        <time>2017-06-20T10:47:18Z</time>
      </trkpt>
      <trkpt lat="43.85695" lon="7.11817">
        <ele>328.36</ele>
        <time>2017-06-20T10:47:23Z</time>
      </trkpt>
      <trkpt lat="43.85693" lon="7.11749">
        <ele>328.4</ele>
        <time>2017-06-20T10:47:28Z</time>
      </trkpt>
      <trkpt lat="43.85733" lon="7.11717">
        <ele>327.54</ele>
        <time>2017-06-20T10:47:33Z</time>
      </trkpt>
      <trkpt lat="43.85794" lon="7.11713">
        <ele>326.21</ele>
        <time>2017-06-20T10:47:38Z</time>
      </trkpt>
      <trkpt lat="43.85862" lon="7.11715">
        <ele>325.5</ele>
        <time>2017-06-20T10:47:43Z</time>
      </trkpt>
      <trkpt lat="43.8595" lon="7.11672">
        <ele>324.7</ele>
        <time>2017-06-20T10:47:48Z</time>
      </trkpt>
      <trkpt lat="43.86028" lon="7.11622">
        <ele>322.89</ele>
        <time>2017-06-20T10:47:53Z</time>
      </trkpt>
      <trkpt lat="43.86094" lon="7.11546">
        <ele>320.42</ele>
        <time>2017-06-20T10:47:58Z</time>
      </trkpt>
      <trkpt lat="43.86139" lon="7.11448">
        <ele>319.11</ele>
        <time>2017-06-20T10:48:03Z</time>
      </trkpt>
      <trkpt lat="43.86185" lon="7.11412">
        <ele>317.24</ele>
        <time>2017-06-20T10:48:08Z</time>
      </trkpt>
      <trkpt lat="43.8623" lon="7.1146">
        <ele>316.27</ele>
        <time>2017-06-20T10:48:13Z</time>
      </trkpt>
      <trkpt lat="43.86267" lon="7.11549">
        <ele>315.01</ele>
        <time>2017-06-20T10:48:18Z</time>
      </trkpt>
      <trkpt lat="43.86302" lon="7.11612">
        <ele>313.67</ele>
        <time>2017-06-20T10:48:23Z</time>
      </trkpt>
      <trkpt lat="43.86353" lon="7.1158">
        <ele>313.79</ele>
        <time>2017-06-20T10:48:28Z</time>
      </trkpt>
      <trkpt lat="43.86343" lon="7.11509">
        <ele>316.52</ele>
        <time>2017-06-20T10:48:33Z</time>
      </trkpt>
      <trkpt lat="43.86304" lon="7.11424">
        <ele>319.88</ele>
        <time>2017-06-20T10:48:38Z</time>
      </trkpt>
      <trkpt lat="43.86319" lon="7.11365">
        <ele>322.69</ele>
        <time>2017-06-20T10:48:43Z</time>
      </trkpt>
      <trkpt lat="43.86371" lon="7.11334">
        <ele>325.73</ele>
        <time>2017-06-20T10:48:48Z</time>
      </trkpt>
      <trkpt lat="43.86378" lon="7.11252">
        <ele>329.2</ele>
        <time>2017-06-20T10:48:53Z</time>
      </trkpt>
      <trkpt lat="43.86399" lon="7.11181">
        <ele>332.62</ele>
        <time>2017-06-20T10:48:58Z</time>
      </trkpt>
      <trkpt lat="43.86427" lon="7.11089">
        <ele>338.75</ele>
        <time>2017-06-20T10:49:03Z</time>
      </trkpt>
      <trkpt lat="43.86456" lon="7.10991">
        <ele>341.54</ele>
        <time>2017-06-20T10:49:08Z</time>
      </trkpt>
      <trkpt lat="43.86507" lon="7.10917">
        <ele>346.64</ele>
        <time>2017-06-20T10:49:13Z</time>
      </trkpt>
      <trkpt lat="43.86569" lon="7.10889">
        <ele>349.48</ele>
        <time>2017-06-20T10:49:18Z</time>
      </trkpt>
      <trkpt lat="43.86626" lon="7.10897">
        <ele>353.63</ele>
        <time>2017-06-20T10:49:23Z</time>
      </trkpt>
      <trkpt lat="43.86636" lon="7.10831">
        <ele>355.32</ele>
        <time>2017-06-20T10:49:28Z</time>
      </trkpt>
      <trkpt lat="43.86563" lon="7.10791">
        <ele>360.39</ele>
        <time>2017-06-20T10:49:33Z</time>
      </trkpt>
      <trkpt lat="43.86485" lon="7.10765">
        <ele>364.51</ele>
        <time>2017-06-20T10:49:38Z</time>
      </trkpt>
      <trkpt lat="43.86461" lon="7.1073">
        <ele>366.24</ele>
        <time>2017-06-20T10:49:43Z</time>
      </trkpt>
      <trkpt lat="43.86449" lon="7.10675">
        <ele>367.76</ele>
        <time>2017-06-20T10:49:48Z</time>
      </trkpt>
      <trkpt lat="43.86472" lon="7.10625">
        <ele>369.39</ele>
        <time>2017-06-20T10:49:53Z</time>
      </trkpt>
      <trkpt lat="43.8651" lon="7.106">
        <ele>369.75</ele>
        <time>2017-06-20T10:49:58Z</time>
      </trkpt>
      <trkpt lat="43.86488" lon="7.10616">
        <ele>369.35</ele>
        <time>2017-06-20T10:50:14Z</time>
      </trkpt>
      <trkpt lat="43.86464" lon="7.10622">
        <ele>371</ele>
        <time>2017-06-20T10:51:37Z</time>
      </trkpt>
      <trkpt lat="43.86492" lon="7.10621">
        <ele>371.7</ele>
        <time>2017-06-20T10:51:44Z</time>
      </trkpt>
      <trkpt lat="43.86519" lon="7.10546">
        <ele>372.54</ele>
        <time>2017-06-20T10:51:49Z</time>
      </trkpt>
      <trkpt lat="43.86542" lon="7.10456">
        <ele>373.4</ele>
        <time>2017-06-20T10:51:54Z</time>
      </trkpt>
      <trkpt lat="43.86583" lon="7.10364">
        <ele>373.24</ele>
        <time>2017-06-20T10:51:59Z</time>
      </trkpt>
      <trkpt lat="43.8664" lon="7.10351">
        <ele>373.61</ele>
        <time>2017-06-20T10:52:04Z</time>
      </trkpt>
      <trkpt lat="43.86696" lon="7.10319">
        <ele>374.29</ele>
        <time>2017-06-20T10:52:09Z</time>
      </trkpt>
      <trkpt lat="43.86695" lon="7.10249">
        <ele>373.73</ele>
        <time>2017-06-20T10:52:14Z</time>
      </trkpt>
      <trkpt lat="43.86647" lon="7.10216">
        <ele>374.56</ele>
        <time>2017-06-20T10:52:19Z</time>
      </trkpt>
      <trkpt lat="43.86601" lon="7.1017">
        <ele>374.31</ele>
        <time>2017-06-20T10:52:24Z</time>
      </trkpt>
      <trkpt lat="43.86565" lon="7.10129">
        <ele>374.29</ele>
        <time>2017-06-20T10:52:29Z</time>
      </trkpt>
      <trkpt lat="43.86549" lon="7.10066">
        <ele>375.04</ele>
        <time>2017-06-20T10:52:34Z</time>
      </trkpt>
      <trkpt lat="43.86562" lon="7.10016">
        <ele>375.1</ele>
        <time>2017-06-20T10:52:39Z</time>
      </trkpt>
      <trkpt lat="43.86613" lon="7.09992">
        <ele>375.77</ele>
        <time>2017-06-20T10:52:44Z</time>
      </trkpt>
      <trkpt lat="43.86667" lon="7.10001">
        <ele>377.14</ele>
        <time>2017-06-20T10:52:49Z</time>
      </trkpt>
      <trkpt lat="43.86737" lon="7.10036">
        <ele>378.3</ele>
        <time>2017-06-20T10:52:54Z</time>
      </trkpt>
      <trkpt lat="43.86806" lon="7.10051">
        <ele>378.67</ele>
        <time>2017-06-20T10:52:59Z</time>
      </trkpt>
      <trkpt lat="43.86866" lon="7.10009">
        <ele>379.3</ele>
        <time>2017-06-20T10:53:04Z</time>
      </trkpt>
      <trkpt lat="43.86846" lon="7.09948">
        <ele>380.05</ele>
        <time>2017-06-20T10:53:09Z</time>
      </trkpt>
      <trkpt lat="43.86777" lon="7.09942">
        <ele>380.84</ele>
        <time>2017-06-20T10:53:14Z</time>
      </trkpt>
      <trkpt lat="43.86737" lon="7.09855">
        <ele>380.62</ele>
        <time>2017-06-20T10:53:19Z</time>
      </trkpt>
      <trkpt lat="43.86738" lon="7.09766">
        <ele>381.48</ele>
        <time>2017-06-20T10:53:24Z</time>
      </trkpt>
      <trkpt lat="43.86782" lon="7.09641">
        <ele>382.36</ele>
        <time>2017-06-20T10:53:29Z</time>
      </trkpt>
      <trkpt lat="43.86786" lon="7.09545">
        <ele>381.92</ele>
        <time>2017-06-20T10:53:34Z</time>
      </trkpt>
      <trkpt lat="43.86755" lon="7.09498">
        <ele>381.07</ele>
        <time>2017-06-20T10:53:39Z</time>
      </trkpt>
      <trkpt lat="43.86709" lon="7.09564">
        <ele>380.63</ele>
        <time>2017-06-20T10:53:44Z</time>
      </trkpt>
      <trkpt lat="43.86641" lon="7.09602">
        <ele>379.39</ele>
        <time>2017-06-20T10:53:49Z</time>
      </trkpt>
      <trkpt lat="43.86577" lon="7.09638">
        <ele>377.11</ele>
        <time>2017-06-20T10:53:54Z</time>
      </trkpt>
      <trkpt lat="43.86503" lon="7.09662">
        <ele>376.06</ele>
        <time>2017-06-20T10:53:59Z</time>
      </trkpt>
      <trkpt lat="43.86448" lon="7.09638">
        <ele>374.81</ele>
        <time>2017-06-20T10:54:05Z</time>
      </trkpt>
      <trkpt lat="43.8639" lon="7.09575">
        <ele>373.24</ele>
        <time>2017-06-20T10:54:10Z</time>
      </trkpt>
      <trkpt lat="43.8638" lon="7.09499">
        <ele>372.36</ele>
        <time>2017-06-20T10:54:15Z</time>
      </trkpt>
      <trkpt lat="43.86401" lon="7.09419">
        <ele>371.93</ele>
        <time>2017-06-20T10:54:20Z</time>
      </trkpt>
      <trkpt lat="43.86421" lon="7.09342">
        <ele>370.91</ele>
        <time>2017-06-20T10:54:25Z</time>
      </trkpt>
      <trkpt lat="43.86432" lon="7.09266">
        <ele>369.04</ele>
        <time>2017-06-20T10:54:30Z</time>
      </trkpt>
      <trkpt lat="43.86405" lon="7.09226">
        <ele>367.69</ele>
        <time>2017-06-20T10:54:35Z</time>
      </trkpt>
      <trkpt lat="43.86365" lon="7.09201">
        <ele>368</ele>
        <time>2017-06-20T10:54:40Z</time>
      </trkpt>
      <trkpt lat="43.86323" lon="7.09163">
        <ele>366.88</ele>
        <time>2017-06-20T10:54:45Z</time>
      </trkpt>
      <trkpt lat="43.86286" lon="7.0911">
        <ele>365.8</ele>
        <time>2017-06-20T10:54:50Z</time>
      </trkpt>
      <trkpt lat="43.86218" lon="7.09139">
        <ele>365.19</ele>
        <time>2017-06-20T10:54:55Z</time>
      </trkpt>
      <trkpt lat="43.86144" lon="7.09154">
        <ele>363.48</ele>
        <time>2017-06-20T10:55:00Z</time>
      </trkpt>
      <trkpt lat="43.86087" lon="7.09115">
        <ele>361.94</ele>
        <time>2017-06-20T10:55:05Z</time>
      </trkpt>
      <trkpt lat="43.86063" lon="7.09037">
        <ele>360.72</ele>
        <time>2017-06-20T10:55:10Z</time>
      </trkpt>
      <trkpt lat="43.86064" lon="7.08931">
        <ele>360.03</ele>
        <time>2017-06-20T10:55:15Z</time>
      </trkpt>
      <trkpt lat="43.86055" lon="7.0884">
        <ele>358.43</ele>
        <time>2017-06-20T10:55:20Z</time>
      </trkpt>
      <trkpt lat="43.86039" lon="7.08758">
        <ele>356.69</ele>
        <time>2017-06-20T10:55:25Z</time>
      </trkpt>
      <trkpt lat="43.86069" lon="7.08707">
        <ele>356.05</ele>
        <time>2017-06-20T10:55:30Z</time>
      </trkpt>
      <trkpt lat="43.86114" lon="7.08668">
        <ele>355.23</ele>
        <time>2017-06-20T10:55:35Z</time>
      </trkpt>
      <trkpt lat="43.8617" lon="7.08675">
        <ele>355</ele>
        <time>2017-06-20T10:55:40Z</time>
      </trkpt>
      <trkpt lat="43.86237" lon="7.08622">
        <ele>353.68</ele>
        <time>2017-06-20T10:55:45Z</time>
      </trkpt>
      <trkpt lat="43.86256" lon="7.08541">
        <ele>351.71</ele>
        <time>2017-06-20T10:55:50Z</time>
      </trkpt>
      <trkpt lat="43.86209" lon="7.08524">
        <ele>351</ele>
        <time>2017-06-20T10:55:55Z</time>
      </trkpt>
      <trkpt lat="43.86156" lon="7.08552">
        <ele>353.04</ele>
        <time>2017-06-20T10:56:00Z</time>
      </trkpt>
      <trkpt lat="43.86061" lon="7.08508">
        <ele>357.33</ele>
        <time>2017-06-20T10:56:05Z</time>
      </trkpt>
      <trkpt lat="43.85974" lon="7.08488">
        <ele>357.36</ele>
        <time>2017-06-20T10:56:10Z</time>
      </trkpt>
      <trkpt lat="43.85899" lon="7.08467">
        <ele>360.11</ele>
        <time>2017-06-20T10:56:15Z</time>
      </trkpt>
      <trkpt lat="43.8583" lon="7.08421">
        <ele>361.87</ele>
        <time>2017-06-20T10:56:20Z</time>
      </trkpt>
      <trkpt lat="43.85784" lon="7.08431">
        <ele>362.8</ele>
        <time>2017-06-20T10:56:25Z</time>
      </trkpt>
      <trkpt lat="43.85749" lon="7.08404">
        <ele>364.29</ele>
        <time>2017-06-20T10:56:30Z</time>
      </trkpt>
      <trkpt lat="43.85752" lon="7.08312">
        <ele>366.59</ele>
        <time>2017-06-20T10:56:35Z</time>
      </trkpt>
      <trkpt lat="43.85723" lon="7.08163">
        <ele>371.2</ele>
        <time>2017-06-20T10:56:40Z</time>
      </trkpt>
      <trkpt lat="43.8568" lon="7.08041">
        <ele>372.37</ele>
        <time>2017-06-20T10:56:45Z</time>
      </trkpt>
      <trkpt lat="43.85688" lon="7.07967">
        <ele>373.4</ele>
        <time>2017-06-20T10:56:50Z</time>
      </trkpt>
      <trkpt lat="43.85709" lon="7.07829">
        <ele>376.02</ele>
        <time>2017-06-20T10:56:55Z</time>
      </trkpt>
      <trkpt lat="43.8573" lon="7.07683">
        <ele>376.22</ele>
        <time>2017-06-20T10:57:00Z</time>
      </trkpt>
      <trkpt lat="43.85757" lon="7.07588">
        <ele>375.27</ele>
        <time>2017-06-20T10:57:05Z</time>
      </trkpt>
      <trkpt lat="43.85743" lon="7.07513">
        <ele>375.65</ele>
        <time>2017-06-20T10:57:10Z</time>
      </trkpt>
      <trkpt lat="43.85749" lon="7.07417">
        <ele>377.19</ele>
        <time>2017-06-20T10:57:15Z</time>
      </trkpt>
      <trkpt lat="43.85744" lon="7.07312">
        <ele>377.41</ele>
        <time>2017-06-20T10:57:20Z</time>
      </trkpt>
      <trkpt lat="43.85724" lon="7.07174">
        <ele>378.62</ele>
        <time>2017-06-20T10:57:25Z</time>
      </trkpt>
      <trkpt lat="43.85707" lon="7.07041">
        <ele>380.57</ele>
        <time>2017-06-20T10:57:30Z</time>
      </trkpt>
      <trkpt lat="43.857" lon="7.06921">
        <ele>379.07</ele>
        <time>2017-06-20T10:57:35Z</time>
      </trkpt>
      <trkpt lat="43.85701" lon="7.06838">
        <ele>379.25</ele>
        <time>2017-06-20T10:57:40Z</time>
      </trkpt>
      <trkpt lat="43.85691" lon="7.06726">
        <ele>380.58</ele>
        <time>2017-06-20T10:57:45Z</time>
      </trkpt>
      <trkpt lat="43.85695" lon="7.06598">
        <ele>381.32</ele>
        <time>2017-06-20T10:57:50Z</time>
      </trkpt>
      <trkpt lat="43.85695" lon="7.06453">
        <ele>382.39</ele>
        <time>2017-06-20T10:57:55Z</time>
      </trkpt>
      <trkpt lat="43.85699" lon="7.06312">
        <ele>382.79</ele>
        <time>2017-06-20T10:58:00Z</time>
      </trkpt>
      <trkpt lat="43.85716" lon="7.06201">
        <ele>382.04</ele>
        <time>2017-06-20T10:58:05Z</time>
      </trkpt>
      <trkpt lat="43.85727" lon="7.06127">
        <ele>381.68</ele>
        <time>2017-06-20T10:58:10Z</time>
      </trkpt>
      <trkpt lat="43.8573" lon="7.06036">
        <ele>382.73</ele>
        <time>2017-06-20T10:58:15Z</time>
      </trkpt>
      <trkpt lat="43.85747" lon="7.05909">
        <ele>384.33</ele>
        <time>2017-06-20T10:58:20Z</time>
      </trkpt>
      <trkpt lat="43.85769" lon="7.05759">
        <ele>384.1</ele>
        <time>2017-06-20T10:58:25Z</time>
      </trkpt>
      <trkpt lat="43.85774" lon="7.05652">
        <ele>383.08</ele>
        <time>2017-06-20T10:58:30Z</time>
      </trkpt>
      <trkpt lat="43.85748" lon="7.05571">
        <ele>383.71</ele>
        <time>2017-06-20T10:58:35Z</time>
      </trkpt>
      <trkpt lat="43.8575" lon="7.05457">
        <ele>385.22</ele>
        <time>2017-06-20T10:58:40Z</time>
      </trkpt>
      <trkpt lat="43.85742" lon="7.05357">
        <ele>386.42</ele>
        <time>2017-06-20T10:58:45Z</time>
      </trkpt>
      <trkpt lat="43.85746" lon="7.05225">
        <ele>386.53</ele>
        <time>2017-06-20T10:58:50Z</time>
      </trkpt>
      <trkpt lat="43.85775" lon="7.05167">
        <ele>386.27</ele>
        <time>2017-06-20T10:58:55Z</time>
      </trkpt>
      <trkpt lat="43.85839" lon="7.05146">
        <ele>387.87</ele>
        <time>2017-06-20T10:59:00Z</time>
      </trkpt>
      <trkpt lat="43.85851" lon="7.05075">
        <ele>387.33</ele>
        <time>2017-06-20T10:59:05Z</time>
      </trkpt>
      <trkpt lat="43.85853" lon="7.04981">
        <ele>387.55</ele>
        <time>2017-06-20T10:59:10Z</time>
      </trkpt>
      <trkpt lat="43.85847" lon="7.04894">
        <ele>387.28</ele>
        <time>2017-06-20T10:59:15Z</time>
      </trkpt>
      <trkpt lat="43.85848" lon="7.04823">
        <ele>387.89</ele>
        <time>2017-06-20T10:59:20Z</time>
      </trkpt>
      <trkpt lat="43.85818" lon="7.04757">
        <ele>388.61</ele>
        <time>2017-06-20T10:59:25Z</time>
      </trkpt>
      <trkpt lat="43.85819" lon="7.04685">
        <ele>389.97</ele>
        <time>2017-06-20T10:59:30Z</time>
      </trkpt>
      <trkpt lat="43.85802" lon="7.04608">
        <ele>390.87</ele>
        <time>2017-06-20T10:59:35Z</time>
      </trkpt>
      <trkpt lat="43.85794" lon="7.04556">
        <ele>390.51</ele>
        <time>2017-06-20T10:59:40Z</time>
      </trkpt>
      <trkpt lat="43.85788" lon="7.04504">
        <ele>391.1</ele>
        <time>2017-06-20T10:59:45Z</time>
      </trkpt>
      <trkpt lat="43.85793" lon="7.0444">
        <ele>391.23</ele>
        <time>2017-06-20T10:59:50Z</time>
      </trkpt>
      <trkpt lat="43.85771" lon="7.04379">
        <ele>392.03</ele>
        <time>2017-06-20T10:59:55Z</time>
      </trkpt>
      <trkpt lat="43.85752" lon="7.04331">
        <ele>392.22</ele>
        <time>2017-06-20T11:00:00Z</time>
      </trkpt>
      <trkpt lat="43.8574" lon="7.04275">
        <ele>392.33</ele>
        <time>2017-06-20T11:00:05Z</time>
      </trkpt>
      <trkpt lat="43.85748" lon="7.0421">
        <ele>392.9</ele>
        <time>2017-06-20T11:00:10Z</time>
      </trkpt>
      <trkpt lat="43.85775" lon="7.04158">
        <ele>392.08</ele>
        <time>2017-06-20T11:00:15Z</time>
      </trkpt>
      <trkpt lat="43.85809" lon="7.04118">
        <ele>391.35</ele>
        <time>2017-06-20T11:00:20Z</time>
      </trkpt>
      <trkpt lat="43.85843" lon="7.04049">
        <ele>390.36</ele>
        <time>2017-06-20T11:00:25Z</time>
      </trkpt>
      <trkpt lat="43.85882" lon="7.04017">
        <ele>389.86</ele>
        <time>2017-06-20T11:00:30Z</time>
      </trkpt>
      <trkpt lat="43.85871" lon="7.03926">
        <ele>389.18</ele>
        <time>2017-06-20T11:00:35Z</time>
      </trkpt>
      <trkpt lat="43.85856" lon="7.03841">
        <ele>387.96</ele>
        <time>2017-06-20T11:00:40Z</time>
      </trkpt>
      <trkpt lat="43.85884" lon="7.03783">
        <ele>387.19</ele>
        <time>2017-06-20T11:00:45Z</time>
      </trkpt>
      <trkpt lat="43.85896" lon="7.03715">
        <ele>387.7</ele>
        <time>2017-06-20T11:00:50Z</time>
      </trkpt>
      <trkpt lat="43.85891" lon="7.03643">
        <ele>386.29</ele>
        <time>2017-06-20T11:00:55Z</time>
      </trkpt>
      <trkpt lat="43.85891" lon="7.03583">
        <ele>385.66</ele>
        <time>2017-06-20T11:01:00Z</time>
      </trkpt>
      <trkpt lat="43.85909" lon="7.03527">
        <ele>384.73</ele>
        <time>2017-06-20T11:01:05Z</time>
      </trkpt>
      <trkpt lat="43.85963" lon="7.03475">
        <ele>385.05</ele>
        <time>2017-06-20T11:01:10Z</time>
      </trkpt>
      <trkpt lat="43.85996" lon="7.03392">
        <ele>384.88</ele>
        <time>2017-06-20T11:01:15Z</time>
      </trkpt>
      <trkpt lat="43.86018" lon="7.03289">
        <ele>384.12</ele>
        <time>2017-06-20T11:01:20Z</time>
      </trkpt>
      <trkpt lat="43.86032" lon="7.03175">
        <ele>383.06</ele>
        <time>2017-06-20T11:01:25Z</time>
      </trkpt>
      <trkpt lat="43.86053" lon="7.03058">
        <ele>381.92</ele>
        <time>2017-06-20T11:01:30Z</time>
      </trkpt>
      <trkpt lat="43.86069" lon="7.02939">
        <ele>381.29</ele>
        <time>2017-06-20T11:01:35Z</time>
      </trkpt>
      <trkpt lat="43.86084" lon="7.02812">
        <ele>381.39</ele>
        <time>2017-06-20T11:01:40Z</time>
      </trkpt>
      <trkpt lat="43.86089" lon="7.02712">
        <ele>378.8</ele>
        <time>2017-06-20T11:01:45Z</time>
      </trkpt>
      <trkpt lat="43.86091" lon="7.02632">
        <ele>377.6</ele>
        <time>2017-06-20T11:01:50Z</time>
      </trkpt>
      <trkpt lat="43.86078" lon="7.02544">
        <ele>377.89</ele>
        <time>2017-06-20T11:01:55Z</time>
      </trkpt>
      <trkpt lat="43.86081" lon="7.0244">
        <ele>376.72</ele>
        <time>2017-06-20T11:02:00Z</time>
      </trkpt>
      <trkpt lat="43.86083" lon="7.02343">
        <ele>376.32</ele>
        <time>2017-06-20T11:02:05Z</time>
      </trkpt>
      <trkpt lat="43.86063" lon="7.02239">
        <ele>375.73</ele>
        <time>2017-06-20T11:02:10Z</time>
      </trkpt>
      <trkpt lat="43.86019" lon="7.02143">
        <ele>374.7</ele>
        <time>2017-06-20T11:02:15Z</time>
      </trkpt>
      <trkpt lat="43.86008" lon="7.0207">
        <ele>373.25</ele>
        <time>2017-06-20T11:02:20Z</time>
      </trkpt>
      <trkpt lat="43.8605" lon="7.01992">
        <ele>373.61</ele>
        <time>2017-06-20T11:02:25Z</time>
      </trkpt>
      <trkpt lat="43.86095" lon="7.01931">
        <ele>372.35</ele>
        <time>2017-06-20T11:02:30Z</time>
      </trkpt>
      <trkpt lat="43.86151" lon="7.01889">
        <ele>371.59</ele>
        <time>2017-06-20T11:02:35Z</time>
      </trkpt>
      <trkpt lat="43.86219" lon="7.01886">
        <ele>371.64</ele>
        <time>2017-06-20T11:02:40Z</time>
      </trkpt>
      <trkpt lat="43.86301" lon="7.01896">
        <ele>371.38</ele>
        <time>2017-06-20T11:02:45Z</time>
      </trkpt>
      <trkpt lat="43.86385" lon="7.01883">
        <ele>370.09</ele>
        <time>2017-06-20T11:02:50Z</time>
      </trkpt>
      <trkpt lat="43.86456" lon="7.01834">
        <ele>368.51</ele>
        <time>2017-06-20T11:02:55Z</time>
      </trkpt>
      <trkpt lat="43.86527" lon="7.01773">
        <ele>367.08</ele>
        <time>2017-06-20T11:03:00Z</time>
      </trkpt>
      <trkpt lat="43.86582" lon="7.01724">
        <ele>366.5</ele>
        <time>2017-06-20T11:03:05Z</time>
      </trkpt>
      <trkpt lat="43.86613" lon="7.01661">
        <ele>364.9</ele>
        <time>2017-06-20T11:03:10Z</time>
      </trkpt>
      <trkpt lat="43.86641" lon="7.01673">
        <ele>364.01</ele>
        <time>2017-06-20T11:03:15Z</time>
      </trkpt>
      <trkpt lat="43.8667" lon="7.01709">
        <ele>363.99</ele>
        <time>2017-06-20T11:03:20Z</time>
      </trkpt>
      <trkpt lat="43.8669" lon="7.01662">
        <ele>363.56</ele>
        <time>2017-06-20T11:03:25Z</time>
      </trkpt>
      <trkpt lat="43.86685" lon="7.01595">
        <ele>362.73</ele>
        <time>2017-06-20T11:03:30Z</time>
      </trkpt>
      <trkpt lat="43.86716" lon="7.01526">
        <ele>363.18</ele>
        <time>2017-06-20T11:03:35Z</time>
      </trkpt>
      <trkpt lat="43.86755" lon="7.01449">
        <ele>362.9</ele>
        <time>2017-06-20T11:03:40Z</time>
      </trkpt>
      <trkpt lat="43.86799" lon="7.01393">
        <ele>361.88</ele>
        <time>2017-06-20T11:03:45Z</time>
      </trkpt>
      <trkpt lat="43.86851" lon="7.01387">
        <ele>360.83</ele>
        <time>2017-06-20T11:03:50Z</time>
      </trkpt>
      <trkpt lat="43.86857" lon="7.01314">
        <ele>360.9</ele>
        <time>2017-06-20T11:03:55Z</time>
      </trkpt>
      <trkpt lat="43.86891" lon="7.01222">
        <ele>360.82</ele>
        <time>2017-06-20T11:04:00Z</time>
      </trkpt>
      <trkpt lat="43.86944" lon="7.01113">
        <ele>360.29</ele>
        <time>2017-06-20T11:04:05Z</time>
      </trkpt>
      <trkpt lat="43.86991" lon="7.00999">
        <ele>359.69</ele>
        <time>2017-06-20T11:04:10Z</time>
      </trkpt>
      <trkpt lat="43.87028" lon="7.00905">
        <ele>357.08</ele>
        <time>2017-06-20T11:04:15Z</time>
      </trkpt>
      <trkpt lat="43.87053" lon="7.00804">
        <ele>356.22</ele>
        <time>2017-06-20T11:04:20Z</time>
      </trkpt>
      <trkpt lat="43.87088" lon="7.00717">
        <ele>355.57</ele>
        <time>2017-06-20T11:04:25Z</time>
      </trkpt>
      <trkpt lat="43.87136" lon="7.00651">
        <ele>354.42</ele>
        <time>2017-06-20T11:04:30Z</time>
      </trkpt>
      <trkpt lat="43.87191" lon="7.00656">
        <ele>353.43</ele>
        <time>2017-06-20T11:04:35Z</time>
      </trkpt>
      <trkpt lat="43.87233" lon="7.00723">
        <ele>352.91</ele>
        <time>2017-06-20T11:04:40Z</time>
      </trkpt>
      <trkpt lat="43.87258" lon="7.00801">
        <ele>352.33</ele>
        <time>2017-06-20T11:04:45Z</time>
      </trkpt>
      <trkpt lat="43.87309" lon="7.00836">
        <ele>352.67</ele>
        <time>2017-06-20T11:04:50Z</time>
      </trkpt>
      <trkpt lat="43.87364" lon="7.00893">
        <ele>352.59</ele>
        <time>2017-06-20T11:04:55Z</time>
      </trkpt>
      <trkpt lat="43.87407" lon="7.00945">
        <ele>351.44</ele>
        <time>2017-06-20T11:05:00Z</time>
      </trkpt>
      <trkpt lat="43.87458" lon="7.00943">
        <ele>351.78</ele>
        <time>2017-06-20T11:05:05Z</time>
      </trkpt>
      <trkpt lat="43.87491" lon="7.0092">
        <ele>351.34</ele>
        <time>2017-06-20T11:05:10Z</time>
      </trkpt>
      <trkpt lat="43.87489" lon="7.0088">
        <ele>352.29</ele>
        <time>2017-06-20T11:05:15Z</time>
      </trkpt>
      <trkpt lat="43.87461" lon="7.00804">
        <ele>355.35</ele>
        <time>2017-06-20T11:05:20Z</time>
      </trkpt>
      <trkpt lat="43.87418" lon="7.00718">
        <ele>358.09</ele>
        <time>2017-06-20T11:05:25Z</time>
      </trkpt>
      <trkpt lat="43.87406" lon="7.00652">
        <ele>359.52</ele>
        <time>2017-06-20T11:05:30Z</time>
      </trkpt>
      <trkpt lat="43.87414" lon="7.00589">
        <ele>360.94</ele>
        <time>2017-06-20T11:05:35Z</time>
      </trkpt>
      <trkpt lat="43.87418" lon="7.00536">
        <ele>361.96</ele>
        <time>2017-06-20T11:05:40Z</time>
      </trkpt>
      <trkpt lat="43.87419" lon="7.00471">
        <ele>364.12</ele>
        <time>2017-06-20T11:05:45Z</time>
      </trkpt>
      <trkpt lat="43.87419" lon="7.0042">
        <ele>364.95</ele>
        <time>2017-06-20T11:05:50Z</time>
      </trkpt>
      <trkpt lat="43.87418" lon="7.00386">
        <ele>364.89</ele>
        <time>2017-06-20T11:05:55Z</time>
      </trkpt>
      <trkpt lat="43.8741" lon="7.0033">
        <ele>367.45</ele>
        <time>2017-06-20T11:06:00Z</time>
      </trkpt>
      <trkpt lat="43.87405" lon="7.00269">
        <ele>369.92</ele>
        <time>2017-06-20T11:06:05Z</time>
      </trkpt>
      <trkpt lat="43.87394" lon="7.0021">
        <ele>373.37</ele>
        <time>2017-06-20T11:06:10Z</time>
      </trkpt>
      <trkpt lat="43.87398" lon="7.00136">
        <ele>376.74</ele>
        <time>2017-06-20T11:06:15Z</time>
      </trkpt>
      <trkpt lat="43.87437" lon="7.00075">
        <ele>380.08</ele>
        <time>2017-06-20T11:06:20Z</time>
      </trkpt>
      <trkpt lat="43.87467" lon="7.00045">
        <ele>382.98</ele>
        <time>2017-06-20T11:06:25Z</time>
      </trkpt>
      <trkpt lat="43.87464" lon="7.00118">
        <ele>387.08</ele>
        <time>2017-06-20T11:06:30Z</time>
      </trkpt>
      <trkpt lat="43.87464" lon="7.00221">
        <ele>392.04</ele>
        <time>2017-06-20T11:06:35Z</time>
      </trkpt>
      <trkpt lat="43.87504" lon="7.00285">
        <ele>395.35</ele>
        <time>2017-06-20T11:06:40Z</time>
      </trkpt>
      <trkpt lat="43.87552" lon="7.00363">
        <ele>399.72</ele>
        <time>2017-06-20T11:06:45Z</time>
      </trkpt>
      <trkpt lat="43.87582" lon="7.00432">
        <ele>403.3</ele>
        <time>2017-06-20T11:06:50Z</time>
      </trkpt>
      <trkpt lat="43.87594" lon="7.00474">
        <ele>405.31</ele>
        <time>2017-06-20T11:06:55Z</time>
      </trkpt>
      <trkpt lat="43.87594" lon="7.00424">
        <ele>407.84</ele>
        <time>2017-06-20T11:07:00Z</time>
      </trkpt>
      <trkpt lat="43.87575" lon="7.00348">
        <ele>410.87</ele>
        <time>2017-06-20T11:07:05Z</time>
      </trkpt>
      <trkpt lat="43.87555" lon="7.00253">
        <ele>416.02</ele>
        <time>2017-06-20T11:07:10Z</time>
      </trkpt>
      <trkpt lat="43.87561" lon="7.00181">
        <ele>419.76</ele>
        <time>2017-06-20T11:07:15Z</time>
      </trkpt>
      <trkpt lat="43.87601" lon="7.00104">
        <ele>424.68</ele>
        <time>2017-06-20T11:07:20Z</time>
      </trkpt>
      <trkpt lat="43.87626" lon="7.00002">
        <ele>428.65</ele>
        <time>2017-06-20T11:07:25Z</time>
      </trkpt>
      <trkpt lat="43.87621" lon="6.99902">
        <ele>433.02</ele>
        <time>2017-06-20T11:07:30Z</time>
      </trkpt>
      <trkpt lat="43.87596" lon="6.99829">
        <ele>437.17</ele>
        <time>2017-06-20T11:07:35Z</time>
      </trkpt>
      <trkpt lat="43.87607" lon="6.99736">
        <ele>442.67</ele>
        <time>2017-06-20T11:07:40Z</time>
      </trkpt>
      <trkpt lat="43.87629" lon="6.99642">
        <ele>447.16</ele>
        <time>2017-06-20T11:07:45Z</time>
      </trkpt>
      <trkpt lat="43.87665" lon="6.99578">
        <ele>450.08</ele>
        <time>2017-06-20T11:07:50Z</time>
      </trkpt>
      <trkpt lat="43.87723" lon="6.9949">
        <ele>455.95</ele>
        <time>2017-06-20T11:07:55Z</time>
      </trkpt>
      <trkpt lat="43.87775" lon="6.99372">
        <ele>461.32</ele>
        <time>2017-06-20T11:08:00Z</time>
      </trkpt>
      <trkpt lat="43.87827" lon="6.99257">
        <ele>467.8</ele>
        <time>2017-06-20T11:08:05Z</time>
      </trkpt>
      <trkpt lat="43.87846" lon="6.99138">
        <ele>472.29</ele>
        <time>2017-06-20T11:08:10Z</time>
      </trkpt>
      <trkpt lat="43.87826" lon="6.98998">
        <ele>478.8</ele>
        <time>2017-06-20T11:08:15Z</time>
      </trkpt>
      <trkpt lat="43.8783" lon="6.98881">
        <ele>484.33</ele>
        <time>2017-06-20T11:08:20Z</time>
      </trkpt>
      <trkpt lat="43.87816" lon="6.98783">
        <ele>489.57</ele>
        <time>2017-06-20T11:08:25Z</time>
      </trkpt>
      <trkpt lat="43.878" lon="6.98683">
        <ele>494.44</ele>
        <time>2017-06-20T11:08:30Z</time>
      </trkpt>
      <trkpt lat="43.87762" lon="6.98655">
        <ele>497.51</ele>
        <time>2017-06-20T11:08:35Z</time>
      </trkpt>
      <trkpt lat="43.87742" lon="6.98616">
        <ele>499.04</ele>
        <time>2017-06-20T11:08:40Z</time>
      </trkpt>
      <trkpt lat="43.87752" lon="6.98529">
        <ele>501.75</ele>
        <time>2017-06-20T11:08:45Z</time>
      </trkpt>
      <trkpt lat="43.87766" lon="6.98431">
        <ele>505.34</ele>
        <time>2017-06-20T11:08:50Z</time>
      </trkpt>
      <trkpt lat="43.87763" lon="6.98303">
        <ele>510.76</ele>
        <time>2017-06-20T11:08:55Z</time>
      </trkpt>
      <trkpt lat="43.87762" lon="6.98202">
        <ele>514.92</ele>
        <time>2017-06-20T11:09:00Z</time>
      </trkpt>
      <trkpt lat="43.87783" lon="6.98096">
        <ele>518.59</ele>
        <time>2017-06-20T11:09:05Z</time>
      </trkpt>
      <trkpt lat="43.87773" lon="6.97977">
        <ele>524.04</ele>
        <time>2017-06-20T11:09:10Z</time>
      </trkpt>
      <trkpt lat="43.87724" lon="6.97901">
        <ele>528.92</ele>
        <time>2017-06-20T11:09:15Z</time>
      </trkpt>
      <trkpt lat="43.87698" lon="6.97827">
        <ele>531.77</ele>
        <time>2017-06-20T11:09:20Z</time>
      </trkpt>
      <trkpt lat="43.87675" lon="6.97756">
        <ele>535.76</ele>
        <time>2017-06-20T11:09:25Z</time>
      </trkpt>
      <trkpt lat="43.87623" lon="6.97731">
        <ele>538.74</ele>
        <time>2017-06-20T11:09:30Z</time>
      </trkpt>
      <trkpt lat="43.87612" lon="6.97669">
        <ele>541.42</ele>
        <time>2017-06-20T11:09:35Z</time>
      </trkpt>
      <trkpt lat="43.87631" lon="6.97697">
        <ele>544.37</ele>
        <time>2017-06-20T11:09:43Z</time>
      </trkpt>
      <trkpt lat="43.87661" lon="6.97731">
        <ele>546.59</ele>
        <time>2017-06-20T11:09:48Z</time>
      </trkpt>
      <trkpt lat="43.87718" lon="6.97736">
        <ele>549.85</ele>
        <time>2017-06-20T11:09:53Z</time>
      </trkpt>
      <trkpt lat="43.8775" lon="6.97819">
        <ele>553.29</ele>
        <time>2017-06-20T11:09:58Z</time>
      </trkpt>
      <trkpt lat="43.87803" lon="6.97855">
        <ele>556.7</ele>
        <time>2017-06-20T11:10:03Z</time>
      </trkpt>
      <trkpt lat="43.87836" lon="6.97931">
        <ele>559.98</ele>
        <time>2017-06-20T11:10:08Z</time>
      </trkpt>
      <trkpt lat="43.87859" lon="6.97964">
        <ele>561.89</ele>
        <time>2017-06-20T11:10:13Z</time>
      </trkpt>
      <trkpt lat="43.87844" lon="6.97925">
        <ele>564.02</ele>
        <time>2017-06-20T11:10:18Z</time>
      </trkpt>
      <trkpt lat="43.87842" lon="6.97849">
        <ele>567.92</ele>
        <time>2017-06-20T11:10:23Z</time>
      </trkpt>
      <trkpt lat="43.87803" lon="6.97789">
        <ele>572.21</ele>
        <time>2017-06-20T11:10:28Z</time>
      </trkpt>
      <trkpt lat="43.87758" lon="6.97714">
        <ele>578.2</ele>
        <time>2017-06-20T11:10:33Z</time>
      </trkpt>
      <trkpt lat="43.87723" lon="6.97603">
        <ele>584.22</ele>
        <time>2017-06-20T11:10:38Z</time>
      </trkpt>
      <trkpt lat="43.87677" lon="6.97504">
        <ele>589.79</ele>
        <time>2017-06-20T11:10:43Z</time>
      </trkpt>
      <trkpt lat="43.87618" lon="6.97427">
        <ele>594.2</ele>
        <time>2017-06-20T11:10:48Z</time>
      </trkpt>
      <trkpt lat="43.87571" lon="6.9733">
        <ele>599.43</ele>
        <time>2017-06-20T11:10:53Z</time>
      </trkpt>
      <trkpt lat="43.87529" lon="6.97258">
        <ele>604.06</ele>
        <time>2017-06-20T11:10:58Z</time>
      </trkpt>
      <trkpt lat="43.87476" lon="6.97173">
        <ele>609.87</ele>
        <time>2017-06-20T11:11:03Z</time>
      </trkpt>
      <trkpt lat="43.87438" lon="6.97071">
        <ele>615.17</ele>
        <time>2017-06-20T11:11:08Z</time>
      </trkpt>
      <trkpt lat="43.87398" lon="6.96987">
        <ele>619.7</ele>
        <time>2017-06-20T11:11:13Z</time>
      </trkpt>
      <trkpt lat="43.87365" lon="6.96926">
        <ele>621.75</ele>
        <time>2017-06-20T11:11:18Z</time>
      </trkpt>
      <trkpt lat="43.87352" lon="6.96885">
        <ele>623.75</ele>
        <time>2017-06-20T11:11:23Z</time>
      </trkpt>
      <trkpt lat="43.87351" lon="6.96851">
        <ele>624.62</ele>
        <time>2017-06-20T11:16:52Z</time>
      </trkpt>
      <trkpt lat="43.87349" lon="6.9682">
        <ele>625.74</ele>
        <time>2017-06-20T11:16:57Z</time>
      </trkpt>
      <trkpt lat="43.87348" lon="6.96765">
        <ele>627.65</ele>
        <time>2017-06-20T11:17:02Z</time>
      </trkpt>
      <trkpt lat="43.87341" lon="6.96684">
        <ele>629.98</ele>
        <time>2017-06-20T11:17:07Z</time>
      </trkpt>
      <trkpt lat="43.87332" lon="6.96613">
        <ele>632.61</ele>
        <time>2017-06-20T11:17:12Z</time>
      </trkpt>
      <trkpt lat="43.87325" lon="6.96548">
        <ele>634.5</ele>
        <time>2017-06-20T11:17:17Z</time>
      </trkpt>
      <trkpt lat="43.8733" lon="6.9647">
        <ele>635.98</ele>
        <time>2017-06-20T11:17:22Z</time>
      </trkpt>
      <trkpt lat="43.8731" lon="6.96426">
        <ele>637.74</ele>
        <time>2017-06-20T11:17:27Z</time>
      </trkpt>
      <trkpt lat="43.87272" lon="6.96441">
        <ele>639.2</ele>
        <time>2017-06-20T11:17:32Z</time>
      </trkpt>
      <trkpt lat="43.87245" lon="6.96472">
        <ele>638.88</ele>
        <time>2017-06-20T11:17:37Z</time>
      </trkpt>
      <trkpt lat="43.87219" lon="6.96482">
        <ele>639.5</ele>
        <time>2017-06-20T11:17:42Z</time>
      </trkpt>
      <trkpt lat="43.87194" lon="6.96457">
        <ele>639.84</ele>
        <time>2017-06-20T11:17:47Z</time>
      </trkpt>
      <trkpt lat="43.87182" lon="6.96423">
        <ele>640.05</ele>
        <time>2017-06-20T11:17:52Z</time>
      </trkpt>
      <trkpt lat="43.87182" lon="6.9638">
        <ele>640.16</ele>
        <time>2017-06-20T11:17:57Z</time>
      </trkpt>
      <trkpt lat="43.87181" lon="6.96334">
        <ele>640.09</ele>
        <time>2017-06-20T11:18:02Z</time>
      </trkpt>
      <trkpt lat="43.87191" lon="6.96298">
        <ele>641.04</ele>
        <time>2017-06-20T11:18:07Z</time>
      </trkpt>
      <trkpt lat="43.87221" lon="6.96283">
        <ele>641.83</ele>
        <time>2017-06-20T11:18:12Z</time>
      </trkpt>
      <trkpt lat="43.8725" lon="6.96255">
        <ele>642.86</ele>
        <time>2017-06-20T11:18:17Z</time>
      </trkpt>
      <trkpt lat="43.87263" lon="6.96207">
        <ele>644.34</ele>
        <time>2017-06-20T11:18:22Z</time>
      </trkpt>
      <trkpt lat="43.87243" lon="6.96114">
        <ele>648.7</ele>
        <time>2017-06-20T11:18:27Z</time>
      </trkpt>
      <trkpt lat="43.87221" lon="6.96027">
        <ele>651.89</ele>
        <time>2017-06-20T11:18:32Z</time>
      </trkpt>
      <trkpt lat="43.87238" lon="6.95957">
        <ele>655.54</ele>
        <time>2017-06-20T11:18:37Z</time>
      </trkpt>
      <trkpt lat="43.8727" lon="6.95885">
        <ele>658.26</ele>
        <time>2017-06-20T11:18:42Z</time>
      </trkpt>
      <trkpt lat="43.87301" lon="6.95786">
        <ele>660.56</ele>
        <time>2017-06-20T11:18:47Z</time>
      </trkpt>
      <trkpt lat="43.87312" lon="6.95689">
        <ele>662.1</ele>
        <time>2017-06-20T11:18:52Z</time>
      </trkpt>
      <trkpt lat="43.8731" lon="6.95596">
        <ele>665.04</ele>
        <time>2017-06-20T11:18:57Z</time>
      </trkpt>
      <trkpt lat="43.87304" lon="6.95523">
        <ele>667.01</ele>
        <time>2017-06-20T11:19:02Z</time>
      </trkpt>
      <trkpt lat="43.87319" lon="6.9547">
        <ele>668.15</ele>
        <time>2017-06-20T11:19:07Z</time>
      </trkpt>
      <trkpt lat="43.87308" lon="6.95398">
        <ele>670.35</ele>
        <time>2017-06-20T11:19:12Z</time>
      </trkpt>
      <trkpt lat="43.87286" lon="6.95334">
        <ele>670.75</ele>
        <time>2017-06-20T11:19:17Z</time>
      </trkpt>
      <trkpt lat="43.87306" lon="6.95253">
        <ele>672.96</ele>
        <time>2017-06-20T11:19:22Z</time>
      </trkpt>
      <trkpt lat="43.87336" lon="6.95157">
        <ele>674.74</ele>
        <time>2017-06-20T11:19:27Z</time>
      </trkpt>
      <trkpt lat="43.87366" lon="6.95145">
        <ele>675.8</ele>
        <time>2017-06-20T11:19:32Z</time>
      </trkpt>
      <trkpt lat="43.87414" lon="6.95172">
        <ele>677.79</ele>
        <time>2017-06-20T11:19:37Z</time>
      </trkpt>
      <trkpt lat="43.87449" lon="6.95203">
        <ele>677.99</ele>
        <time>2017-06-20T11:19:42Z</time>
      </trkpt>
      <trkpt lat="43.87488" lon="6.95211">
        <ele>680.11</ele>
        <time>2017-06-20T11:19:47Z</time>
      </trkpt>
      <trkpt lat="43.87525" lon="6.95131">
        <ele>683.49</ele>
        <time>2017-06-20T11:19:52Z</time>
      </trkpt>
      <trkpt lat="43.87565" lon="6.95034">
        <ele>687.93</ele>
        <time>2017-06-20T11:19:57Z</time>
      </trkpt>
      <trkpt lat="43.87607" lon="6.9498">
        <ele>689.03</ele>
        <time>2017-06-20T11:20:02Z</time>
      </trkpt>
      <trkpt lat="43.87661" lon="6.95012">
        <ele>688.36</ele>
        <time>2017-06-20T11:20:07Z</time>
      </trkpt>
      <trkpt lat="43.87709" lon="6.94961">
        <ele>685.63</ele>
        <time>2017-06-20T11:20:12Z</time>
      </trkpt>
      <trkpt lat="43.87749" lon="6.94844">
        <ele>683.26</ele>
        <time>2017-06-20T11:20:17Z</time>
      </trkpt>
      <trkpt lat="43.87795" lon="6.9472">
        <ele>679.11</ele>
        <time>2017-06-20T11:20:22Z</time>
      </trkpt>
      <trkpt lat="43.87816" lon="6.94621">
        <ele>677.19</ele>
        <time>2017-06-20T11:20:27Z</time>
      </trkpt>
      <trkpt lat="43.87867" lon="6.94551">
        <ele>676.38</ele>
        <time>2017-06-20T11:20:32Z</time>
      </trkpt>
      <trkpt lat="43.87902" lon="6.94447">
        <ele>675.1</ele>
        <time>2017-06-20T11:20:37Z</time>
      </trkpt>
      <trkpt lat="43.87947" lon="6.9434">
        <ele>673.04</ele>
        <time>2017-06-20T11:20:42Z</time>
      </trkpt>
      <trkpt lat="43.87989" lon="6.94233">
        <ele>670.06</ele>
        <time>2017-06-20T11:20:47Z</time>
      </trkpt>
      <trkpt lat="43.88012" lon="6.94107">
        <ele>666.69</ele>
        <time>2017-06-20T11:20:52Z</time>
      </trkpt>
      <trkpt lat="43.88033" lon="6.94016">
        <ele>663.12</ele>
        <time>2017-06-20T11:20:57Z</time>
      </trkpt>
      <trkpt lat="43.88071" lon="6.93943">
        <ele>660.09</ele>
        <time>2017-06-20T11:21:02Z</time>
      </trkpt>
      <trkpt lat="43.88109" lon="6.93895">
        <ele>657.34</ele>
        <time>2017-06-20T11:21:07Z</time>
      </trkpt>
      <trkpt lat="43.88163" lon="6.93856">
        <ele>655.13</ele>
        <time>2017-06-20T11:21:12Z</time>
      </trkpt>
      <trkpt lat="43.88202" lon="6.93794">
        <ele>652.66</ele>
        <time>2017-06-20T11:21:17Z</time>
      </trkpt>
      <trkpt lat="43.88216" lon="6.93754">
        <ele>650.27</ele>
        <time>2017-06-20T11:21:22Z</time>
      </trkpt>
      <trkpt lat="43.88246" lon="6.93758">
        <ele>648.81</ele>
        <time>2017-06-20T11:21:27Z</time>
      </trkpt>
      <trkpt lat="43.88278" lon="6.93755">
        <ele>646.91</ele>
        <time>2017-06-20T11:21:32Z</time>
      </trkpt>
      <trkpt lat="43.88323" lon="6.93788">
        <ele>644.66</ele>
        <time>2017-06-20T11:21:37Z</time>
      </trkpt>
      <trkpt lat="43.88375" lon="6.93768">
        <ele>641.63</ele>
        <time>2017-06-20T11:21:42Z</time>
      </trkpt>
      <trkpt lat="43.88423" lon="6.93736">
        <ele>638.93</ele>
        <time>2017-06-20T11:21:47Z</time>
      </trkpt>
      <trkpt lat="43.88464" lon="6.93717">
        <ele>636.98</ele>
        <time>2017-06-20T11:21:52Z</time>
      </trkpt>
      <trkpt lat="43.88495" lon="6.93742">
        <ele>634.77</ele>
        <time>2017-06-20T11:21:57Z</time>
      </trkpt>
      <trkpt lat="43.88517" lon="6.93796">
        <ele>633.93</ele>
        <time>2017-06-20T11:22:02Z</time>
      </trkpt>
      <trkpt lat="43.88561" lon="6.93818">
        <ele>632.45</ele>
        <time>2017-06-20T11:22:07Z</time>
      </trkpt>
      <trkpt lat="43.88599" lon="6.93858">
        <ele>630.69</ele>
        <time>2017-06-20T11:22:12Z</time>
      </trkpt>
      <trkpt lat="43.88636" lon="6.93888">
        <ele>629.63</ele>
        <time>2017-06-20T11:22:17Z</time>
      </trkpt>
      <trkpt lat="43.88657" lon="6.93983">
        <ele>628.03</ele>
        <time>2017-06-20T11:22:22Z</time>
      </trkpt>
      <trkpt lat="43.88667" lon="6.94082">
        <ele>624.53</ele>
        <time>2017-06-20T11:22:27Z</time>
      </trkpt>
      <trkpt lat="43.88694" lon="6.94125">
        <ele>621.49</ele>
        <time>2017-06-20T11:22:32Z</time>
      </trkpt>
      <trkpt lat="43.88719" lon="6.94081">
        <ele>620.29</ele>
        <time>2017-06-20T11:22:37Z</time>
      </trkpt>
      <trkpt lat="43.88719" lon="6.9399">
        <ele>620.86</ele>
        <time>2017-06-20T11:22:42Z</time>
      </trkpt>
      <trkpt lat="43.88729" lon="6.93903">
        <ele>618.83</ele>
        <time>2017-06-20T11:22:47Z</time>
      </trkpt>
      <trkpt lat="43.88771" lon="6.93901">
        <ele>618.74</ele>
        <time>2017-06-20T11:22:52Z</time>
      </trkpt>
      <trkpt lat="43.88844" lon="6.93873">
        <ele>619.09</ele>
        <time>2017-06-20T11:22:57Z</time>
      </trkpt>
      <trkpt lat="43.88916" lon="6.93845">
        <ele>620.85</ele>
        <time>2017-06-20T11:23:02Z</time>
      </trkpt>
      <trkpt lat="43.8899" lon="6.93853">
        <ele>621.37</ele>
        <time>2017-06-20T11:23:07Z</time>
      </trkpt>
      <trkpt lat="43.89067" lon="6.93828">
        <ele>621.29</ele>
        <time>2017-06-20T11:23:12Z</time>
      </trkpt>
      <trkpt lat="43.8914" lon="6.93764">
        <ele>620.73</ele>
        <time>2017-06-20T11:23:17Z</time>
      </trkpt>
      <trkpt lat="43.89198" lon="6.93761">
        <ele>621.24</ele>
        <time>2017-06-20T11:23:22Z</time>
      </trkpt>
      <trkpt lat="43.89261" lon="6.93746">
        <ele>620.96</ele>
        <time>2017-06-20T11:23:27Z</time>
      </trkpt>
      <trkpt lat="43.89318" lon="6.93721">
        <ele>620.9</ele>
        <time>2017-06-20T11:23:32Z</time>
      </trkpt>
      <trkpt lat="43.89403" lon="6.9373">
        <ele>622.56</ele>
        <time>2017-06-20T11:23:37Z</time>
      </trkpt>
      <trkpt lat="43.89478" lon="6.93749">
        <ele>621.24</ele>
        <time>2017-06-20T11:23:42Z</time>
      </trkpt>
      <trkpt lat="43.89523" lon="6.93753">
        <ele>620.08</ele>
        <time>2017-06-20T11:23:47Z</time>
      </trkpt>
      <trkpt lat="43.89547" lon="6.93736">
        <ele>620.67</ele>
        <time>2017-06-20T11:23:56Z</time>
      </trkpt>
      <trkpt lat="43.89601" lon="6.93738">
        <ele>622.08</ele>
        <time>2017-06-20T11:24:01Z</time>
      </trkpt>
      <trkpt lat="43.89646" lon="6.93767">
        <ele>621.85</ele>
        <time>2017-06-20T11:24:06Z</time>
      </trkpt>
      <trkpt lat="43.89691" lon="6.93817">
        <ele>623.29</ele>
        <time>2017-06-20T11:24:11Z</time>
      </trkpt>
      <trkpt lat="43.89724" lon="6.93895">
        <ele>624.56</ele>
        <time>2017-06-20T11:24:16Z</time>
      </trkpt>
      <trkpt lat="43.89736" lon="6.93981">
        <ele>625.81</ele>
        <time>2017-06-20T11:24:21Z</time>
      </trkpt>
      <trkpt lat="43.89733" lon="6.94041">
        <ele>625.8</ele>
        <time>2017-06-20T11:24:26Z</time>
      </trkpt>
      <trkpt lat="43.89739" lon="6.94133">
        <ele>627.92</ele>
        <time>2017-06-20T11:24:31Z</time>
      </trkpt>
      <trkpt lat="43.89755" lon="6.94243">
        <ele>630.48</ele>
        <time>2017-06-20T11:24:36Z</time>
      </trkpt>
      <trkpt lat="43.89768" lon="6.94368">
        <ele>631.42</ele>
        <time>2017-06-20T11:24:41Z</time>
      </trkpt>
      <trkpt lat="43.89795" lon="6.94465">
        <ele>631.49</ele>
        <time>2017-06-20T11:24:46Z</time>
      </trkpt>
      <trkpt lat="43.89866" lon="6.9454">
        <ele>634.08</ele>
        <time>2017-06-20T11:24:51Z</time>
      </trkpt>
      <trkpt lat="43.89959" lon="6.94597">
        <ele>635.73</ele>
        <time>2017-06-20T11:24:56Z</time>
      </trkpt>
      <trkpt lat="43.90034" lon="6.94619">
        <ele>637.57</ele>
        <time>2017-06-20T11:25:01Z</time>
      </trkpt>
      <trkpt lat="43.90119" lon="6.94619">
        <ele>639.48</ele>
        <time>2017-06-20T11:25:06Z</time>
      </trkpt>
      <trkpt lat="43.90171" lon="6.94637">
        <ele>640.02</ele>
        <time>2017-06-20T11:25:11Z</time>
      </trkpt>
      <trkpt lat="43.90215" lon="6.94709">
        <ele>642.38</ele>
        <time>2017-06-20T11:25:16Z</time>
      </trkpt>
      <trkpt lat="43.90275" lon="6.94756">
        <ele>645.26</ele>
        <time>2017-06-20T11:25:21Z</time>
      </trkpt>
      <trkpt lat="43.90355" lon="6.94779">
        <ele>647.09</ele>
        <time>2017-06-20T11:25:26Z</time>
      </trkpt>
      <trkpt lat="43.90462" lon="6.9479">
        <ele>648.58</ele>
        <time>2017-06-20T11:25:31Z</time>
      </trkpt>
      <trkpt lat="43.9054" lon="6.94784">
        <ele>652.3</ele>
        <time>2017-06-20T11:25:36Z</time>
      </trkpt>
      <trkpt lat="43.90593" lon="6.94769">
        <ele>656.36</ele>
        <time>2017-06-20T11:25:41Z</time>
      </trkpt>
      <trkpt lat="43.90655" lon="6.94771">
        <ele>657.56</ele>
        <time>2017-06-20T11:25:46Z</time>
      </trkpt>
      <trkpt lat="43.90728" lon="6.94809">
        <ele>656.72</ele>
        <time>2017-06-20T11:25:51Z</time>
      </trkpt>
      <trkpt lat="43.90807" lon="6.9482">
        <ele>658</ele>
        <time>2017-06-20T11:25:56Z</time>
      </trkpt>
      <trkpt lat="43.90878" lon="6.9483">
        <ele>659.55</ele>
        <time>2017-06-20T11:26:01Z</time>
      </trkpt>
      <trkpt lat="43.90942" lon="6.94849">
        <ele>659.68</ele>
        <time>2017-06-20T11:26:06Z</time>
      </trkpt>
      <trkpt lat="43.91006" lon="6.94872">
        <ele>661.22</ele>
        <time>2017-06-20T11:26:11Z</time>
      </trkpt>
      <trkpt lat="43.91064" lon="6.9492">
        <ele>663.69</ele>
        <time>2017-06-20T11:26:16Z</time>
      </trkpt>
      <trkpt lat="43.91132" lon="6.94922">
        <ele>665.09</ele>
        <time>2017-06-20T11:26:21Z</time>
      </trkpt>
      <trkpt lat="43.91202" lon="6.94956">
        <ele>665.21</ele>
        <time>2017-06-20T11:26:26Z</time>
      </trkpt>
      <trkpt lat="43.91255" lon="6.94995">
        <ele>664.95</ele>
        <time>2017-06-20T11:26:31Z</time>
      </trkpt>
      <trkpt lat="43.91308" lon="6.94986">
        <ele>665.72</ele>
        <time>2017-06-20T11:26:36Z</time>
      </trkpt>
      <trkpt lat="43.91349" lon="6.94966">
        <ele>667.75</ele>
        <time>2017-06-20T11:26:41Z</time>
      </trkpt>
      <trkpt lat="43.91357" lon="6.95031">
        <ele>670.39</ele>
        <time>2017-06-20T11:26:46Z</time>
      </trkpt>
      <trkpt lat="43.91353" lon="6.95121">
        <ele>674.89</ele>
        <time>2017-06-20T11:26:51Z</time>
      </trkpt>
      <trkpt lat="43.91394" lon="6.95188">
        <ele>678.35</ele>
        <time>2017-06-20T11:26:56Z</time>
      </trkpt>
      <trkpt lat="43.91461" lon="6.95197">
        <ele>682.2</ele>
        <time>2017-06-20T11:27:01Z</time>
      </trkpt>
      <trkpt lat="43.91551" lon="6.95164">
        <ele>687.25</ele>
        <time>2017-06-20T11:27:06Z</time>
      </trkpt>
      <trkpt lat="43.91636" lon="6.9512">
        <ele>691.02</ele>
        <time>2017-06-20T11:27:11Z</time>
      </trkpt>
      <trkpt lat="43.91712" lon="6.95111">
        <ele>694.62</ele>
        <time>2017-06-20T11:27:16Z</time>
      </trkpt>
      <trkpt lat="43.91796" lon="6.95134">
        <ele>700.18</ele>
        <time>2017-06-20T11:27:21Z</time>
      </trkpt>
      <trkpt lat="43.91873" lon="6.95139">
        <ele>704.2</ele>
        <time>2017-06-20T11:27:26Z</time>
      </trkpt>
      <trkpt lat="43.91953" lon="6.95107">
        <ele>710.21</ele>
        <time>2017-06-20T11:27:31Z</time>
      </trkpt>
      <trkpt lat="43.9203" lon="6.95089">
        <ele>716.49</ele>
        <time>2017-06-20T11:27:36Z</time>
      </trkpt>
      <trkpt lat="43.92092" lon="6.95138">
        <ele>721.69</ele>
        <time>2017-06-20T11:27:41Z</time>
      </trkpt>
      <trkpt lat="43.92136" lon="6.95153">
        <ele>724.99</ele>
        <time>2017-06-20T11:27:46Z</time>
      </trkpt>
      <trkpt lat="43.92133" lon="6.95093">
        <ele>728.37</ele>
        <time>2017-06-20T11:27:51Z</time>
      </trkpt>
      <trkpt lat="43.92133" lon="6.9502">
        <ele>732.29</ele>
        <time>2017-06-20T11:27:56Z</time>
      </trkpt>
      <trkpt lat="43.92173" lon="6.94975">
        <ele>736.23</ele>
        <time>2017-06-20T11:28:01Z</time>
      </trkpt>
      <trkpt lat="43.92227" lon="6.94983">
        <ele>738.84</ele>
        <time>2017-06-20T11:28:06Z</time>
      </trkpt>
      <trkpt lat="43.92297" lon="6.94971">
        <ele>741.12</ele>
        <time>2017-06-20T11:28:11Z</time>
      </trkpt>
      <trkpt lat="43.92368" lon="6.94926">
        <ele>742.98</ele>
        <time>2017-06-20T11:28:16Z</time>
      </trkpt>
      <trkpt lat="43.92394" lon="6.94852">
        <ele>746.37</ele>
        <time>2017-06-20T11:28:21Z</time>
      </trkpt>
      <trkpt lat="43.92455" lon="6.94836">
        <ele>752.27</ele>
        <time>2017-06-20T11:28:26Z</time>
      </trkpt>
      <trkpt lat="43.92531" lon="6.94867">
        <ele>758.4</ele>
        <time>2017-06-20T11:28:31Z</time>
      </trkpt>
      <trkpt lat="43.92574" lon="6.94954">
        <ele>762.99</ele>
        <time>2017-06-20T11:28:36Z</time>
      </trkpt>
      <trkpt lat="43.92619" lon="6.94972">
        <ele>766.4</ele>
        <time>2017-06-20T11:28:41Z</time>
      </trkpt>
      <trkpt lat="43.92669" lon="6.94944">
        <ele>769.2</ele>
        <time>2017-06-20T11:28:46Z</time>
      </trkpt>
      <trkpt lat="43.92722" lon="6.94951">
        <ele>769.28</ele>
        <time>2017-06-20T11:28:51Z</time>
      </trkpt>
      <trkpt lat="43.92784" lon="6.95001">
        <ele>770.32</ele>
        <time>2017-06-20T11:28:56Z</time>
      </trkpt>
      <trkpt lat="43.92829" lon="6.95034">
        <ele>769.71</ele>
        <time>2017-06-20T11:29:01Z</time>
      </trkpt>
      <trkpt lat="43.9289" lon="6.9504">
        <ele>770.98</ele>
        <time>2017-06-20T11:29:06Z</time>
      </trkpt>
      <trkpt lat="43.92932" lon="6.94983">
        <ele>771.76</ele>
        <time>2017-06-20T11:29:11Z</time>
      </trkpt>
      <trkpt lat="43.92963" lon="6.94898">
        <ele>772.01</ele>
        <time>2017-06-20T11:29:16Z</time>
      </trkpt>
      <trkpt lat="43.92963" lon="6.94826">
        <ele>772.12</ele>
        <time>2017-06-20T11:29:21Z</time>
      </trkpt>
      <trkpt lat="43.92998" lon="6.94827">
        <ele>773.11</ele>
        <time>2017-06-20T11:29:26Z</time>
      </trkpt>
      <trkpt lat="43.93058" lon="6.94825">
        <ele>774.31</ele>
        <time>2017-06-20T11:29:31Z</time>
      </trkpt>
      <trkpt lat="43.93114" lon="6.94807">
        <ele>774.59</ele>
        <time>2017-06-20T11:29:36Z</time>
      </trkpt>
      <trkpt lat="43.93149" lon="6.94825">
        <ele>775.39</ele>
        <time>2017-06-20T11:29:41Z</time>
      </trkpt>
      <trkpt lat="43.93168" lon="6.94772">
        <ele>777.55</ele>
        <time>2017-06-20T11:29:46Z</time>
      </trkpt>
      <trkpt lat="43.93182" lon="6.94662">
        <ele>782.08</ele>
        <time>2017-06-20T11:29:51Z</time>
      </trkpt>
      <trkpt lat="43.93181" lon="6.94544">
        <ele>786.32</ele>
        <time>2017-06-20T11:29:56Z</time>
      </trkpt>
      <trkpt lat="43.9319" lon="6.94457">
        <ele>791.24</ele>
        <time>2017-06-20T11:30:01Z</time>
      </trkpt>
      <trkpt lat="43.93184" lon="6.94352">
        <ele>796.35</ele>
        <time>2017-06-20T11:30:06Z</time>
      </trkpt>
      <trkpt lat="43.9316" lon="6.94266">
        <ele>799.91</ele>
        <time>2017-06-20T11:30:11Z</time>
      </trkpt>
      <trkpt lat="43.93169" lon="6.94167">
        <ele>804.94</ele>
        <time>2017-06-20T11:30:16Z</time>
      </trkpt>
      <trkpt lat="43.932" lon="6.94105">
        <ele>808</ele>
        <time>2017-06-20T11:30:21Z</time>
      </trkpt>
      <trkpt lat="43.93228" lon="6.94037">
        <ele>812.03</ele>
        <time>2017-06-20T11:30:26Z</time>
      </trkpt>
      <trkpt lat="43.93248" lon="6.94015">
        <ele>815.3</ele>
        <time>2017-06-20T11:30:31Z</time>
      </trkpt>
      <trkpt lat="43.93285" lon="6.94026">
        <ele>818.53</ele>
        <time>2017-06-20T11:30:36Z</time>
      </trkpt>
      <trkpt lat="43.93325" lon="6.94006">
        <ele>821.57</ele>
        <time>2017-06-20T11:30:41Z</time>
      </trkpt>
      <trkpt lat="43.93362" lon="6.94029">
        <ele>824.14</ele>
        <time>2017-06-20T11:30:46Z</time>
      </trkpt>
      <trkpt lat="43.93399" lon="6.94053">
        <ele>825.86</ele>
        <time>2017-06-20T11:30:51Z</time>
      </trkpt>
      <trkpt lat="43.93429" lon="6.94013">
        <ele>828.43</ele>
        <time>2017-06-20T11:30:56Z</time>
      </trkpt>
      <trkpt lat="43.93452" lon="6.93952">
        <ele>831.39</ele>
        <time>2017-06-20T11:31:01Z</time>
      </trkpt>
      <trkpt lat="43.93483" lon="6.93896">
        <ele>834.75</ele>
        <time>2017-06-20T11:31:06Z</time>
      </trkpt>
      <trkpt lat="43.93501" lon="6.9383">
        <ele>837.52</ele>
        <time>2017-06-20T11:31:11Z</time>
      </trkpt>
      <trkpt lat="43.9352" lon="6.93751">
        <ele>841.36</ele>
        <time>2017-06-20T11:31:16Z</time>
      </trkpt>
      <trkpt lat="43.93539" lon="6.93681">
        <ele>844.16</ele>
        <time>2017-06-20T11:31:21Z</time>
      </trkpt>
      <trkpt lat="43.93551" lon="6.93653">
        <ele>846.04</ele>
        <time>2017-06-20T11:31:26Z</time>
      </trkpt>
      <trkpt lat="43.93548" lon="6.93619">
        <ele>847.88</ele>
        <time>2017-06-20T11:31:31Z</time>
      </trkpt>
      <trkpt lat="43.93568" lon="6.93578">
        <ele>850.79</ele>
        <time>2017-06-20T11:31:36Z</time>
      </trkpt>
      <trkpt lat="43.93601" lon="6.93539">
        <ele>853.89</ele>
        <time>2017-06-20T11:31:41Z</time>
      </trkpt>
      <trkpt lat="43.93619" lon="6.9348">
        <ele>856.46</ele>
        <time>2017-06-20T11:31:46Z</time>
      </trkpt>
      <trkpt lat="43.93643" lon="6.93433">
        <ele>859.2</ele>
        <time>2017-06-20T11:31:51Z</time>
      </trkpt>
      <trkpt lat="43.93664" lon="6.93384">
        <ele>861.88</ele>
        <time>2017-06-20T11:31:56Z</time>
      </trkpt>
      <trkpt lat="43.93676" lon="6.93321">
        <ele>864.18</ele>
        <time>2017-06-20T11:32:01Z</time>
      </trkpt>
      <trkpt lat="43.93685" lon="6.93268">
        <ele>867.32</ele>
        <time>2017-06-20T11:32:06Z</time>
      </trkpt>
      <trkpt lat="43.93712" lon="6.93253">
        <ele>869.21</ele>
        <time>2017-06-20T11:32:12Z</time>
      </trkpt>
      <trkpt lat="43.9375" lon="6.93253">
        <ele>872.52</ele>
        <time>2017-06-20T11:32:17Z</time>
      </trkpt>
      <trkpt lat="43.9378" lon="6.93252">
        <ele>873.06</ele>
        <time>2017-06-20T11:32:23Z</time>
      </trkpt>
      <trkpt lat="43.93823" lon="6.93241">
        <ele>870.58</ele>
        <time>2017-06-20T11:32:28Z</time>
      </trkpt>
      <trkpt lat="43.93855" lon="6.93209">
        <ele>867.02</ele>
        <time>2017-06-20T11:32:33Z</time>
      </trkpt>
      <trkpt lat="43.93875" lon="6.93158">
        <ele>864.89</ele>
        <time>2017-06-20T11:32:38Z</time>
      </trkpt>
      <trkpt lat="43.93899" lon="6.93096">
        <ele>861.46</ele>
        <time>2017-06-20T11:32:43Z</time>
      </trkpt>
      <trkpt lat="43.93927" lon="6.93063">
        <ele>857.88</ele>
        <time>2017-06-20T11:32:48Z</time>
      </trkpt>
      <trkpt lat="43.93957" lon="6.93078">
        <ele>855.21</ele>
        <time>2017-06-20T11:32:53Z</time>
      </trkpt>
      <trkpt lat="43.93988" lon="6.93114">
        <ele>851.71</ele>
        <time>2017-06-20T11:32:58Z</time>
      </trkpt>
      <trkpt lat="43.94013" lon="6.93111">
        <ele>850.63</ele>
        <time>2017-06-20T11:33:03Z</time>
      </trkpt>
      <trkpt lat="43.94023" lon="6.93071">
        <ele>849.26</ele>
        <time>2017-06-20T11:33:08Z</time>
      </trkpt>
      <trkpt lat="43.94049" lon="6.93063">
        <ele>847.33</ele>
        <time>2017-06-20T11:33:13Z</time>
      </trkpt>
      <trkpt lat="43.94073" lon="6.93049">
        <ele>845.44</ele>
        <time>2017-06-20T11:33:18Z</time>
      </trkpt>
      <trkpt lat="43.94099" lon="6.93016">
        <ele>844.03</ele>
        <time>2017-06-20T11:33:23Z</time>
      </trkpt>
      <trkpt lat="43.94125" lon="6.92975">
        <ele>841.78</ele>
        <time>2017-06-20T11:33:28Z</time>
      </trkpt>
      <trkpt lat="43.94124" lon="6.92913">
        <ele>839.64</ele>
        <time>2017-06-20T11:33:33Z</time>
      </trkpt>
      <trkpt lat="43.9414" lon="6.92852">
        <ele>836.18</ele>
        <time>2017-06-20T11:33:38Z</time>
      </trkpt>
      <trkpt lat="43.94151" lon="6.92788">
        <ele>832.68</ele>
        <time>2017-06-20T11:33:43Z</time>
      </trkpt>
      <trkpt lat="43.94165" lon="6.92726">
        <ele>830.29</ele>
        <time>2017-06-20T11:33:48Z</time>
      </trkpt>
      <trkpt lat="43.94175" lon="6.92692">
        <ele>828.05</ele>
        <time>2017-06-20T11:33:53Z</time>
      </trkpt>
      <trkpt lat="43.94188" lon="6.92616">
        <ele>825.92</ele>
        <time>2017-06-20T11:33:58Z</time>
      </trkpt>
      <trkpt lat="43.94189" lon="6.92506">
        <ele>822.63</ele>
        <time>2017-06-20T11:34:03Z</time>
      </trkpt>
      <trkpt lat="43.94185" lon="6.92376">
        <ele>816.75</ele>
        <time>2017-06-20T11:34:08Z</time>
      </trkpt>
      <trkpt lat="43.94192" lon="6.9226">
        <ele>811.16</ele>
        <time>2017-06-20T11:34:13Z</time>
      </trkpt>
      <trkpt lat="43.94201" lon="6.92173">
        <ele>806.35</ele>
        <time>2017-06-20T11:34:18Z</time>
      </trkpt>
      <trkpt lat="43.94188" lon="6.92095">
        <ele>802.76</ele>
        <time>2017-06-20T11:34:23Z</time>
      </trkpt>
      <trkpt lat="43.94197" lon="6.92014">
        <ele>799.75</ele>
        <time>2017-06-20T11:34:28Z</time>
      </trkpt>
      <trkpt lat="43.94218" lon="6.91948">
        <ele>796.21</ele>
        <time>2017-06-20T11:34:33Z</time>
      </trkpt>
      <trkpt lat="43.94266" lon="6.91912">
        <ele>793.13</ele>
        <time>2017-06-20T11:34:38Z</time>
      </trkpt>
      <trkpt lat="43.9431" lon="6.91853">
        <ele>789.34</ele>
        <time>2017-06-20T11:34:43Z</time>
      </trkpt>
      <trkpt lat="43.94342" lon="6.91856">
        <ele>785.36</ele>
        <time>2017-06-20T11:34:48Z</time>
      </trkpt>
      <trkpt lat="43.94364" lon="6.91902">
        <ele>782.82</ele>
        <time>2017-06-20T11:34:53Z</time>
      </trkpt>
      <trkpt lat="43.94391" lon="6.91936">
        <ele>780.25</ele>
        <time>2017-06-20T11:34:58Z</time>
      </trkpt>
      <trkpt lat="43.94428" lon="6.91953">
        <ele>778.53</ele>
        <time>2017-06-20T11:35:03Z</time>
      </trkpt>
      <trkpt lat="43.94499" lon="6.91917">
        <ele>775.24</ele>
        <time>2017-06-20T11:35:08Z</time>
      </trkpt>
      <trkpt lat="43.94568" lon="6.91891">
        <ele>770.97</ele>
        <time>2017-06-20T11:35:13Z</time>
      </trkpt>
      <trkpt lat="43.94635" lon="6.91838">
        <ele>767.63</ele>
        <time>2017-06-20T11:35:18Z</time>
      </trkpt>
      <trkpt lat="43.94671" lon="6.91795">
        <ele>764.29</ele>
        <time>2017-06-20T11:35:23Z</time>
      </trkpt>
      <trkpt lat="43.94656" lon="6.91822">
        <ele>761.76</ele>
        <time>2017-06-20T11:35:31Z</time>
      </trkpt>
      <trkpt lat="43.94614" lon="6.91874">
        <ele>759.23</ele>
        <time>2017-06-20T11:35:36Z</time>
      </trkpt>
      <trkpt lat="43.94556" lon="6.91942">
        <ele>753.74</ele>
        <time>2017-06-20T11:35:41Z</time>
      </trkpt>
      <trkpt lat="43.94478" lon="6.91985">
        <ele>748.88</ele>
        <time>2017-06-20T11:35:46Z</time>
      </trkpt>
      <trkpt lat="43.94427" lon="6.92012">
        <ele>743.9</ele>
        <time>2017-06-20T11:35:51Z</time>
      </trkpt>
      <trkpt lat="43.94457" lon="6.92006">
        <ele>740.64</ele>
        <time>2017-06-20T11:36:02Z</time>
      </trkpt>
      <trkpt lat="43.94531" lon="6.91981">
        <ele>737.03</ele>
        <time>2017-06-20T11:36:07Z</time>
      </trkpt>
      <trkpt lat="43.94613" lon="6.91966">
        <ele>731.71</ele>
        <time>2017-06-20T11:36:12Z</time>
      </trkpt>
      <trkpt lat="43.94682" lon="6.91909">
        <ele>725.93</ele>
        <time>2017-06-20T11:36:17Z</time>
      </trkpt>
      <trkpt lat="43.94739" lon="6.91847">
        <ele>720.52</ele>
        <time>2017-06-20T11:36:22Z</time>
      </trkpt>
      <trkpt lat="43.94768" lon="6.91789">
        <ele>716.46</ele>
        <time>2017-06-20T11:36:27Z</time>
      </trkpt>
      <trkpt lat="43.94745" lon="6.91704">
        <ele>712.76</ele>
        <time>2017-06-20T11:36:32Z</time>
      </trkpt>
      <trkpt lat="43.94722" lon="6.91583">
        <ele>706.31</ele>
        <time>2017-06-20T11:36:37Z</time>
      </trkpt>
      <trkpt lat="43.94711" lon="6.91453">
        <ele>699.63</ele>
        <time>2017-06-20T11:36:42Z</time>
      </trkpt>
      <trkpt lat="43.94697" lon="6.91323">
        <ele>693.29</ele>
        <time>2017-06-20T11:36:47Z</time>
      </trkpt>
      <trkpt lat="43.947" lon="6.91217">
        <ele>686.21</ele>
        <time>2017-06-20T11:36:52Z</time>
      </trkpt>
      <trkpt lat="43.94706" lon="6.91122">
        <ele>681.04</ele>
        <time>2017-06-20T11:36:57Z</time>
      </trkpt>
      <trkpt lat="43.94693" lon="6.91006">
        <ele>676.22</ele>
        <time>2017-06-20T11:37:02Z</time>
      </trkpt>
      <trkpt lat="43.94666" lon="6.90893">
        <ele>670.63</ele>
        <time>2017-06-20T11:37:07Z</time>
      </trkpt>
      <trkpt lat="43.94659" lon="6.90794">
        <ele>665.03</ele>
        <time>2017-06-20T11:37:12Z</time>
      </trkpt>
      <trkpt lat="43.94642" lon="6.90724">
        <ele>660.12</ele>
        <time>2017-06-20T11:37:17Z</time>
      </trkpt>
      <trkpt lat="43.94663" lon="6.90743">
        <ele>656.9</ele>
        <time>2017-06-20T11:37:26Z</time>
      </trkpt>
      <trkpt lat="43.94701" lon="6.90802">
        <ele>653.87</ele>
        <time>2017-06-20T11:37:31Z</time>
      </trkpt>
      <trkpt lat="43.94702" lon="6.90905">
        <ele>650.21</ele>
        <time>2017-06-20T11:37:36Z</time>
      </trkpt>
      <trkpt lat="43.94729" lon="6.90993">
        <ele>645.14</ele>
        <time>2017-06-20T11:37:41Z</time>
      </trkpt>
      <trkpt lat="43.94766" lon="6.91049">
        <ele>641.65</ele>
        <time>2017-06-20T11:37:46Z</time>
      </trkpt>
      <trkpt lat="43.9478" lon="6.91138">
        <ele>638.17</ele>
        <time>2017-06-20T11:37:51Z</time>
      </trkpt>
      <trkpt lat="43.9479" lon="6.91225">
        <ele>633.13</ele>
        <time>2017-06-20T11:37:56Z</time>
      </trkpt>
      <trkpt lat="43.94824" lon="6.91322">
        <ele>629.28</ele>
        <time>2017-06-20T11:38:01Z</time>
      </trkpt>
      <trkpt lat="43.94848" lon="6.91428">
        <ele>624.85</ele>
        <time>2017-06-20T11:38:06Z</time>
      </trkpt>
      <trkpt lat="43.94874" lon="6.91532">
        <ele>619.07</ele>
        <time>2017-06-20T11:38:11Z</time>
      </trkpt>
      <trkpt lat="43.94912" lon="6.91625">
        <ele>613.55</ele>
        <time>2017-06-20T11:38:16Z</time>
      </trkpt>
      <trkpt lat="43.94934" lon="6.91694">
        <ele>610.26</ele>
        <time>2017-06-20T11:38:21Z</time>
      </trkpt>
      <trkpt lat="43.94943" lon="6.91663">
        <ele>607.8</ele>
        <time>2017-06-20T11:38:29Z</time>
      </trkpt>
      <trkpt lat="43.94925" lon="6.9157">
        <ele>603.89</ele>
        <time>2017-06-20T11:38:34Z</time>
      </trkpt>
      <trkpt lat="43.94923" lon="6.91453">
        <ele>598.25</ele>
        <time>2017-06-20T11:38:39Z</time>
      </trkpt>
      <trkpt lat="43.94939" lon="6.91364">
        <ele>594.43</ele>
        <time>2017-06-20T11:38:44Z</time>
      </trkpt>
      <trkpt lat="43.94951" lon="6.91294">
        <ele>590.25</ele>
        <time>2017-06-20T11:38:49Z</time>
      </trkpt>
      <trkpt lat="43.94947" lon="6.91215">
        <ele>586.06</ele>
        <time>2017-06-20T11:38:54Z</time>
      </trkpt>
      <trkpt lat="43.94989" lon="6.91148">
        <ele>582.76</ele>
        <time>2017-06-20T11:38:59Z</time>
      </trkpt>
      <trkpt lat="43.95013" lon="6.91114">
        <ele>579.12</ele>
        <time>2017-06-20T11:39:04Z</time>
      </trkpt>
      <trkpt lat="43.95002" lon="6.91155">
        <ele>577.66</ele>
        <time>2017-06-20T11:39:09Z</time>
      </trkpt>
      <trkpt lat="43.94982" lon="6.91232">
        <ele>574.14</ele>
        <time>2017-06-20T11:39:14Z</time>
      </trkpt>
      <trkpt lat="43.94982" lon="6.91303">
        <ele>571.31</ele>
        <time>2017-06-20T11:39:19Z</time>
      </trkpt>
      <trkpt lat="43.95015" lon="6.91406">
        <ele>567.65</ele>
        <time>2017-06-20T11:39:24Z</time>
      </trkpt>
      <trkpt lat="43.95051" lon="6.91504">
        <ele>562.41</ele>
        <time>2017-06-20T11:39:29Z</time>
      </trkpt>
      <trkpt lat="43.95062" lon="6.91597">
        <ele>558.99</ele>
        <time>2017-06-20T11:39:34Z</time>
      </trkpt>
      <trkpt lat="43.95063" lon="6.91665">
        <ele>555.9</ele>
        <time>2017-06-20T11:39:39Z</time>
      </trkpt>
      <trkpt lat="43.95072" lon="6.91635">
        <ele>555.54</ele>
        <time>2017-06-20T11:39:46Z</time>
      </trkpt>
      <trkpt lat="43.95072" lon="6.91553">
        <ele>555.86</ele>
        <time>2017-06-20T11:39:51Z</time>
      </trkpt>
      <trkpt lat="43.95068" lon="6.91459">
        <ele>552.04</ele>
        <time>2017-06-20T11:39:56Z</time>
      </trkpt>
      <trkpt lat="43.95049" lon="6.91362">
        <ele>547.98</ele>
        <time>2017-06-20T11:40:01Z</time>
      </trkpt>
      <trkpt lat="43.95048" lon="6.9128">
        <ele>544.1</ele>
        <time>2017-06-20T11:40:06Z</time>
      </trkpt>
      <trkpt lat="43.95055" lon="6.91203">
        <ele>541.07</ele>
        <time>2017-06-20T11:40:11Z</time>
      </trkpt>
      <trkpt lat="43.95095" lon="6.91133">
        <ele>535.9</ele>
        <time>2017-06-20T11:40:16Z</time>
      </trkpt>
      <trkpt lat="43.95123" lon="6.91029">
        <ele>531.59</ele>
        <time>2017-06-20T11:40:21Z</time>
      </trkpt>
      <trkpt lat="43.95107" lon="6.9094">
        <ele>528.43</ele>
        <time>2017-06-20T11:40:26Z</time>
      </trkpt>
      <trkpt lat="43.95061" lon="6.90841">
        <ele>523.84</ele>
        <time>2017-06-20T11:40:31Z</time>
      </trkpt>
      <trkpt lat="43.95009" lon="6.90763">
        <ele>518.27</ele>
        <time>2017-06-20T11:40:36Z</time>
      </trkpt>
      <trkpt lat="43.94989" lon="6.9067">
        <ele>512.83</ele>
        <time>2017-06-20T11:40:41Z</time>
      </trkpt>
      <trkpt lat="43.9499" lon="6.906">
        <ele>508.91</ele>
        <time>2017-06-20T11:40:46Z</time>
      </trkpt>
      <trkpt lat="43.94961" lon="6.90517">
        <ele>506.11</ele>
        <time>2017-06-20T11:40:51Z</time>
      </trkpt>
      <trkpt lat="43.94937" lon="6.90442">
        <ele>501.92</ele>
        <time>2017-06-20T11:40:56Z</time>
      </trkpt>
      <trkpt lat="43.94955" lon="6.90462">
        <ele>498.39</ele>
        <time>2017-06-20T11:41:06Z</time>
      </trkpt>
      <trkpt lat="43.94994" lon="6.90545">
        <ele>494.98</ele>
        <time>2017-06-20T11:41:11Z</time>
      </trkpt>
      <trkpt lat="43.95022" lon="6.90608">
        <ele>490.85</ele>
        <time>2017-06-20T11:41:16Z</time>
      </trkpt>
      <trkpt lat="43.95027" lon="6.90574">
        <ele>488.36</ele>
        <time>2017-06-20T11:41:24Z</time>
      </trkpt>
      <trkpt lat="43.94997" lon="6.9049">
        <ele>484.12</ele>
        <time>2017-06-20T11:41:29Z</time>
      </trkpt>
      <trkpt lat="43.94969" lon="6.90414">
        <ele>479.78</ele>
        <time>2017-06-20T11:41:34Z</time>
      </trkpt>
      <trkpt lat="43.94976" lon="6.90341">
        <ele>475.58</ele>
        <time>2017-06-20T11:41:39Z</time>
      </trkpt>
      <trkpt lat="43.95007" lon="6.90241">
        <ele>469.53</ele>
        <time>2017-06-20T11:41:44Z</time>
      </trkpt>
      <trkpt lat="43.95048" lon="6.90162">
        <ele>464.86</ele>
        <time>2017-06-20T11:41:49Z</time>
      </trkpt>
      <trkpt lat="43.95071" lon="6.90071">
        <ele>459.97</ele>
        <time>2017-06-20T11:41:54Z</time>
      </trkpt>
      <trkpt lat="43.9508" lon="6.90002">
        <ele>456.82</ele>
        <time>2017-06-20T11:41:59Z</time>
      </trkpt>
      <trkpt lat="43.95129" lon="6.89976">
        <ele>454.31</ele>
        <time>2017-06-20T11:42:04Z</time>
      </trkpt>
      <trkpt lat="43.95166" lon="6.89872">
        <ele>451.8</ele>
        <time>2017-06-20T11:42:09Z</time>
      </trkpt>
      <trkpt lat="43.95207" lon="6.898">
        <ele>448.2</ele>
        <time>2017-06-20T11:42:14Z</time>
      </trkpt>
      <trkpt lat="43.95269" lon="6.8974">
        <ele>446.77</ele>
        <time>2017-06-20T11:42:19Z</time>
      </trkpt>
      <trkpt lat="43.95325" lon="6.89688">
        <ele>442.57</ele>
        <time>2017-06-20T11:42:24Z</time>
      </trkpt>
      <trkpt lat="43.95378" lon="6.89665">
        <ele>438.98</ele>
        <time>2017-06-20T11:42:29Z</time>
      </trkpt>
      <trkpt lat="43.954" lon="6.89604">
        <ele>436.01</ele>
        <time>2017-06-20T11:42:34Z</time>
      </trkpt>
      <trkpt lat="43.95441" lon="6.89586">
        <ele>432.49</ele>
        <time>2017-06-20T11:42:39Z</time>
      </trkpt>
      <trkpt lat="43.95476" lon="6.89577">
        <ele>430.39</ele>
        <time>2017-06-20T11:42:44Z</time>
      </trkpt>
      <trkpt lat="43.95499" lon="6.89571">
        <ele>428.79</ele>
        <time>2017-06-20T11:42:49Z</time>
      </trkpt>
      <trkpt lat="43.95512" lon="6.89599">
        <ele>423.94</ele>
        <time>2017-06-20T11:44:02Z</time>
      </trkpt>
      <trkpt lat="43.95517" lon="6.89671">
        <ele>423.48</ele>
        <time>2017-06-20T11:44:07Z</time>
      </trkpt>
      <trkpt lat="43.95509" lon="6.89774">
        <ele>422.69</ele>
        <time>2017-06-20T11:44:12Z</time>
      </trkpt>
      <trkpt lat="43.95496" lon="6.8988">
        <ele>421.54</ele>
        <time>2017-06-20T11:44:17Z</time>
      </trkpt>
      <trkpt lat="43.95474" lon="6.89958">
        <ele>420.25</ele>
        <time>2017-06-20T11:44:22Z</time>
      </trkpt>
      <trkpt lat="43.95423" lon="6.90017">
        <ele>419.65</ele>
        <time>2017-06-20T11:44:27Z</time>
      </trkpt>
      <trkpt lat="43.9536" lon="6.90088">
        <ele>419.9</ele>
        <time>2017-06-20T11:44:32Z</time>
      </trkpt>
      <trkpt lat="43.95305" lon="6.90192">
        <ele>419.8</ele>
        <time>2017-06-20T11:44:37Z</time>
      </trkpt>
      <trkpt lat="43.95263" lon="6.90315">
        <ele>417.75</ele>
        <time>2017-06-20T11:44:42Z</time>
      </trkpt>
      <trkpt lat="43.95226" lon="6.90448">
        <ele>415.83</ele>
        <time>2017-06-20T11:44:47Z</time>
      </trkpt>
      <trkpt lat="43.95219" lon="6.90598">
        <ele>414.38</ele>
        <time>2017-06-20T11:44:52Z</time>
      </trkpt>
      <trkpt lat="43.95261" lon="6.90749">
        <ele>413.02</ele>
        <time>2017-06-20T11:44:57Z</time>
      </trkpt>
      <trkpt lat="43.95327" lon="6.90881">
        <ele>411.26</ele>
        <time>2017-06-20T11:45:02Z</time>
      </trkpt>
      <trkpt lat="43.95395" lon="6.9101">
        <ele>409.76</ele>
        <time>2017-06-20T11:45:07Z</time>
      </trkpt>
      <trkpt lat="43.95458" lon="6.91138">
        <ele>408.3</ele>
        <time>2017-06-20T11:45:12Z</time>
      </trkpt>
      <trkpt lat="43.95504" lon="6.91256">
        <ele>406.56</ele>
        <time>2017-06-20T11:45:17Z</time>
      </trkpt>
      <trkpt lat="43.9552" lon="6.91386">
        <ele>404.59</ele>
        <time>2017-06-20T11:45:22Z</time>
      </trkpt>
      <trkpt lat="43.95499" lon="6.91524">
        <ele>403.7</ele>
        <time>2017-06-20T11:45:27Z</time>
      </trkpt>
      <trkpt lat="43.95448" lon="6.91638">
        <ele>402.1</ele>
        <time>2017-06-20T11:45:32Z</time>
      </trkpt>
      <trkpt lat="43.95395" lon="6.91744">
        <ele>401</ele>
        <time>2017-06-20T11:45:37Z</time>
      </trkpt>
      <trkpt lat="43.95349" lon="6.91841">
        <ele>399.23</ele>
        <time>2017-06-20T11:45:42Z</time>
      </trkpt>
      <trkpt lat="43.95306" lon="6.91931">
        <ele>398.37</ele>
        <time>2017-06-20T11:45:47Z</time>
      </trkpt>
      <trkpt lat="43.95277" lon="6.9203">
        <ele>396.43</ele>
        <time>2017-06-20T11:45:52Z</time>
      </trkpt>
      <trkpt lat="43.95275" lon="6.92134">
        <ele>395.85</ele>
        <time>2017-06-20T11:45:57Z</time>
      </trkpt>
      <trkpt lat="43.95295" lon="6.92238">
        <ele>395.39</ele>
        <time>2017-06-20T11:46:02Z</time>
      </trkpt>
      <trkpt lat="43.95328" lon="6.92356">
        <ele>393.71</ele>
        <time>2017-06-20T11:46:07Z</time>
      </trkpt>
      <trkpt lat="43.95379" lon="6.92455">
        <ele>393.11</ele>
        <time>2017-06-20T11:46:12Z</time>
      </trkpt>
      <trkpt lat="43.95422" lon="6.92545">
        <ele>391.64</ele>
        <time>2017-06-20T11:46:17Z</time>
      </trkpt>
      <trkpt lat="43.95442" lon="6.9264">
        <ele>390.72</ele>
        <time>2017-06-20T11:46:22Z</time>
      </trkpt>
      <trkpt lat="43.95431" lon="6.92744">
        <ele>390.98</ele>
        <time>2017-06-20T11:46:27Z</time>
      </trkpt>
      <trkpt lat="43.95408" lon="6.92855">
        <ele>391.91</ele>
        <time>2017-06-20T11:46:32Z</time>
      </trkpt>
      <trkpt lat="43.95386" lon="6.92964">
        <ele>392.19</ele>
        <time>2017-06-20T11:46:37Z</time>
      </trkpt>
      <trkpt lat="43.95372" lon="6.9308">
        <ele>391.35</ele>
        <time>2017-06-20T11:46:42Z</time>
      </trkpt>
      <trkpt lat="43.95365" lon="6.932">
        <ele>391.84</ele>
        <time>2017-06-20T11:46:47Z</time>
      </trkpt>
      <trkpt lat="43.95364" lon="6.93334">
        <ele>392.38</ele>
        <time>2017-06-20T11:46:52Z</time>
      </trkpt>
      <trkpt lat="43.95374" lon="6.93486">
        <ele>393.22</ele>
        <time>2017-06-20T11:46:57Z</time>
      </trkpt>
      <trkpt lat="43.95356" lon="6.93687">
        <ele>391.72</ele>
        <time>2017-06-20T11:47:02Z</time>
      </trkpt>
      <trkpt lat="43.95309" lon="6.93875">
        <ele>387.56</ele>
        <time>2017-06-20T11:47:07Z</time>
      </trkpt>
      <trkpt lat="43.95261" lon="6.94062">
        <ele>384.49</ele>
        <time>2017-06-20T11:47:12Z</time>
      </trkpt>
      <trkpt lat="43.95215" lon="6.94246">
        <ele>383.59</ele>
        <time>2017-06-20T11:47:17Z</time>
      </trkpt>
      <trkpt lat="43.95186" lon="6.94429">
        <ele>384.22</ele>
        <time>2017-06-20T11:47:22Z</time>
      </trkpt>
      <trkpt lat="43.95176" lon="6.94614">
        <ele>385.31</ele>
        <time>2017-06-20T11:47:27Z</time>
      </trkpt>
      <trkpt lat="43.95158" lon="6.94802">
        <ele>386.8</ele>
        <time>2017-06-20T11:47:32Z</time>
      </trkpt>
      <trkpt lat="43.95145" lon="6.94984">
        <ele>386.56</ele>
        <time>2017-06-20T11:47:37Z</time>
      </trkpt>
      <trkpt lat="43.9514" lon="6.95151">
        <ele>384.65</ele>
        <time>2017-06-20T11:47:42Z</time>
      </trkpt>
      <trkpt lat="43.95145" lon="6.9533">
        <ele>381.23</ele>
        <time>2017-06-20T11:47:47Z</time>
      </trkpt>
      <trkpt lat="43.95129" lon="6.95505">
        <ele>377.91</ele>
        <time>2017-06-20T11:47:52Z</time>
      </trkpt>
      <trkpt lat="43.95081" lon="6.95663">
        <ele>374.54</ele>
        <time>2017-06-20T11:47:57Z</time>
      </trkpt>
      <trkpt lat="43.95016" lon="6.9581">
        <ele>372.84</ele>
        <time>2017-06-20T11:48:02Z</time>
      </trkpt>
      <trkpt lat="43.9495" lon="6.95961">
        <ele>371.94</ele>
        <time>2017-06-20T11:48:07Z</time>
      </trkpt>
      <trkpt lat="43.9488" lon="6.96127">
        <ele>370.39</ele>
        <time>2017-06-20T11:48:12Z</time>
      </trkpt>
      <trkpt lat="43.94829" lon="6.96314">
        <ele>370.28</ele>
        <time>2017-06-20T11:48:17Z</time>
      </trkpt>
      <trkpt lat="43.94802" lon="6.96549">
        <ele>372.43</ele>
        <time>2017-06-20T11:48:22Z</time>
      </trkpt>
      <trkpt lat="43.94812" lon="6.96822">
        <ele>369.34</ele>
        <time>2017-06-20T11:48:27Z</time>
      </trkpt>
      <trkpt lat="43.94818" lon="6.97032">
        <ele>363.89</ele>
        <time>2017-06-20T11:48:32Z</time>
      </trkpt>
      <trkpt lat="43.94822" lon="6.9721">
        <ele>360.87</ele>
        <time>2017-06-20T11:48:37Z</time>
      </trkpt>
      <trkpt lat="43.94828" lon="6.97373">
        <ele>360.23</ele>
        <time>2017-06-20T11:48:42Z</time>
      </trkpt>
      <trkpt lat="43.94845" lon="6.97535">
        <ele>359.52</ele>
        <time>2017-06-20T11:48:47Z</time>
      </trkpt>
      <trkpt lat="43.94858" lon="6.97702">
        <ele>359.2</ele>
        <time>2017-06-20T11:48:52Z</time>
      </trkpt>
      <trkpt lat="43.94882" lon="6.97862">
        <ele>358.21</ele>
        <time>2017-06-20T11:48:57Z</time>
      </trkpt>
      <trkpt lat="43.94925" lon="6.98015">
        <ele>356.7</ele>
        <time>2017-06-20T11:49:02Z</time>
      </trkpt>
      <trkpt lat="43.94979" lon="6.98158">
        <ele>354.5</ele>
        <time>2017-06-20T11:49:07Z</time>
      </trkpt>
      <trkpt lat="43.95009" lon="6.98297">
        <ele>353.9</ele>
        <time>2017-06-20T11:49:12Z</time>
      </trkpt>
      <trkpt lat="43.95011" lon="6.98446">
        <ele>353.83</ele>
        <time>2017-06-20T11:49:17Z</time>
      </trkpt>
      <trkpt lat="43.95012" lon="6.9859">
        <ele>353.44</ele>
        <time>2017-06-20T11:49:22Z</time>
      </trkpt>
      <trkpt lat="43.95003" lon="6.98697">
        <ele>352.03</ele>
        <time>2017-06-20T11:49:27Z</time>
      </trkpt>
      <trkpt lat="43.94987" lon="6.98753">
        <ele>351.16</ele>
        <time>2017-06-20T11:49:32Z</time>
      </trkpt>
      <trkpt lat="43.94973" lon="6.98792">
        <ele>351.21</ele>
        <time>2017-06-20T11:52:58Z</time>
      </trkpt>
      <trkpt lat="43.94958" lon="6.98836">
        <ele>351.04</ele>
        <time>2017-06-20T11:53:03Z</time>
      </trkpt>
      <trkpt lat="43.94979" lon="6.98815">
        <ele>351.65</ele>
        <time>2017-06-20T11:53:13Z</time>
      </trkpt>
      <trkpt lat="43.95016" lon="6.9871">
        <ele>353.33</ele>
        <time>2017-06-20T11:53:18Z</time>
      </trkpt>
      <trkpt lat="43.95027" lon="6.9853">
        <ele>355.61</ele>
        <time>2017-06-20T11:53:23Z</time>
      </trkpt>
      <trkpt lat="43.95024" lon="6.98318">
        <ele>355.66</ele>
        <time>2017-06-20T11:53:28Z</time>
      </trkpt>
      <trkpt lat="43.94988" lon="6.98142">
        <ele>356.94</ele>
        <time>2017-06-20T11:53:33Z</time>
      </trkpt>
      <trkpt lat="43.94927" lon="6.97959">
        <ele>357.49</ele>
        <time>2017-06-20T11:53:38Z</time>
      </trkpt>
      <trkpt lat="43.94882" lon="6.9776">
        <ele>360.12</ele>
        <time>2017-06-20T11:53:43Z</time>
      </trkpt>
      <trkpt lat="43.94859" lon="6.97535">
        <ele>362.36</ele>
        <time>2017-06-20T11:53:48Z</time>
      </trkpt>
      <trkpt lat="43.94837" lon="6.97296">
        <ele>362.93</ele>
        <time>2017-06-20T11:53:53Z</time>
      </trkpt>
      <trkpt lat="43.94826" lon="6.97018">
        <ele>368.27</ele>
        <time>2017-06-20T11:53:58Z</time>
      </trkpt>
      <trkpt lat="43.94815" lon="6.96736">
        <ele>367.83</ele>
        <time>2017-06-20T11:54:03Z</time>
      </trkpt>
      <trkpt lat="43.94812" lon="6.96511">
        <ele>367.84</ele>
        <time>2017-06-20T11:54:08Z</time>
      </trkpt>
      <trkpt lat="43.94841" lon="6.96295">
        <ele>368.35</ele>
        <time>2017-06-20T11:54:13Z</time>
      </trkpt>
      <trkpt lat="43.94901" lon="6.96099">
        <ele>370.95</ele>
        <time>2017-06-20T11:54:18Z</time>
      </trkpt>
      <trkpt lat="43.94985" lon="6.95903">
        <ele>374.28</ele>
        <time>2017-06-20T11:54:23Z</time>
      </trkpt>
      <trkpt lat="43.95073" lon="6.95689">
        <ele>375.6</ele>
        <time>2017-06-20T11:54:28Z</time>
      </trkpt>
      <trkpt lat="43.95141" lon="6.95496">
        <ele>377.32</ele>
        <time>2017-06-20T11:54:33Z</time>
      </trkpt>
      <trkpt lat="43.95162" lon="6.95283">
        <ele>381.28</ele>
        <time>2017-06-20T11:54:38Z</time>
      </trkpt>
      <trkpt lat="43.9515" lon="6.95067">
        <ele>384.11</ele>
        <time>2017-06-20T11:54:43Z</time>
      </trkpt>
      <trkpt lat="43.95157" lon="6.94883">
        <ele>385.48</ele>
        <time>2017-06-20T11:54:48Z</time>
      </trkpt>
      <trkpt lat="43.95174" lon="6.94673">
        <ele>386.55</ele>
        <time>2017-06-20T11:54:53Z</time>
      </trkpt>
      <trkpt lat="43.95194" lon="6.94471">
        <ele>384.28</ele>
        <time>2017-06-20T11:54:58Z</time>
      </trkpt>
      <trkpt lat="43.95215" lon="6.94285">
        <ele>383.19</ele>
        <time>2017-06-20T11:55:03Z</time>
      </trkpt>
      <trkpt lat="43.95267" lon="6.9407">
        <ele>386.46</ele>
        <time>2017-06-20T11:55:08Z</time>
      </trkpt>
      <trkpt lat="43.95322" lon="6.93861">
        <ele>387.81</ele>
        <time>2017-06-20T11:55:13Z</time>
      </trkpt>
      <trkpt lat="43.9537" lon="6.93651">
        <ele>391.96</ele>
        <time>2017-06-20T11:55:18Z</time>
      </trkpt>
      <trkpt lat="43.95383" lon="6.93463">
        <ele>394.43</ele>
        <time>2017-06-20T11:55:23Z</time>
      </trkpt>
      <trkpt lat="43.95375" lon="6.93263">
        <ele>394.83</ele>
        <time>2017-06-20T11:55:28Z</time>
      </trkpt>
      <trkpt lat="43.95384" lon="6.93058">
        <ele>393.78</ele>
        <time>2017-06-20T11:55:33Z</time>
      </trkpt>
      <trkpt lat="43.954" lon="6.92887">
        <ele>393.35</ele>
        <time>2017-06-20T11:55:38Z</time>
      </trkpt>
      <trkpt lat="43.95427" lon="6.92735">
        <ele>392.82</ele>
        <time>2017-06-20T11:55:43Z</time>
      </trkpt>
      <trkpt lat="43.95439" lon="6.92606">
        <ele>391.21</ele>
        <time>2017-06-20T11:55:48Z</time>
      </trkpt>
      <trkpt lat="43.95408" lon="6.92482">
        <ele>393.11</ele>
        <time>2017-06-20T11:55:53Z</time>
      </trkpt>
      <trkpt lat="43.95354" lon="6.92356">
        <ele>395.31</ele>
        <time>2017-06-20T11:55:58Z</time>
      </trkpt>
      <trkpt lat="43.95311" lon="6.92215">
        <ele>395.83</ele>
        <time>2017-06-20T11:56:03Z</time>
      </trkpt>
      <trkpt lat="43.95285" lon="6.92068">
        <ele>396.85</ele>
        <time>2017-06-20T11:56:08Z</time>
      </trkpt>
      <trkpt lat="43.95305" lon="6.91931">
        <ele>397.68</ele>
        <time>2017-06-20T11:56:13Z</time>
      </trkpt>
      <trkpt lat="43.95368" lon="6.91799">
        <ele>398.53</ele>
        <time>2017-06-20T11:56:18Z</time>
      </trkpt>
      <trkpt lat="43.95432" lon="6.91672">
        <ele>400.18</ele>
        <time>2017-06-20T11:56:23Z</time>
      </trkpt>
      <trkpt lat="43.95492" lon="6.91547">
        <ele>401.27</ele>
        <time>2017-06-20T11:56:28Z</time>
      </trkpt>
      <trkpt lat="43.95522" lon="6.91414">
        <ele>402.18</ele>
        <time>2017-06-20T11:56:33Z</time>
      </trkpt>
      <trkpt lat="43.95513" lon="6.91274">
        <ele>403.49</ele>
        <time>2017-06-20T11:56:38Z</time>
      </trkpt>
      <trkpt lat="43.95464" lon="6.91142">
        <ele>404.67</ele>
        <time>2017-06-20T11:56:43Z</time>
      </trkpt>
      <trkpt lat="43.954" lon="6.91012">
        <ele>406.18</ele>
        <time>2017-06-20T11:56:48Z</time>
      </trkpt>
      <trkpt lat="43.95337" lon="6.90886">
        <ele>406.05</ele>
        <time>2017-06-20T11:56:53Z</time>
      </trkpt>
      <trkpt lat="43.95285" lon="6.90784">
        <ele>407.07</ele>
        <time>2017-06-20T11:56:58Z</time>
      </trkpt>
      <trkpt lat="43.95236" lon="6.90642">
        <ele>409.01</ele>
        <time>2017-06-20T11:57:03Z</time>
      </trkpt>
      <trkpt lat="43.95225" lon="6.90491">
        <ele>410.43</ele>
        <time>2017-06-20T11:57:09Z</time>
      </trkpt>
      <trkpt lat="43.95255" lon="6.90356">
        <ele>409.9</ele>
        <time>2017-06-20T11:57:14Z</time>
      </trkpt>
      <trkpt lat="43.95301" lon="6.90222">
        <ele>410.93</ele>
        <time>2017-06-20T11:57:19Z</time>
      </trkpt>
      <trkpt lat="43.95353" lon="6.90107">
        <ele>412.72</ele>
        <time>2017-06-20T11:57:24Z</time>
      </trkpt>
      <trkpt lat="43.95401" lon="6.90031">
        <ele>412.65</ele>
        <time>2017-06-20T11:57:29Z</time>
      </trkpt>
      <trkpt lat="43.95447" lon="6.89994">
        <ele>412.21</ele>
        <time>2017-06-20T11:57:34Z</time>
      </trkpt>
      <trkpt lat="43.9547" lon="6.89989">
        <ele>411.9</ele>
        <time>2017-06-20T11:57:41Z</time>
      </trkpt>
      <trkpt lat="43.95473" lon="6.89958">
        <ele>414.63</ele>
        <time>2017-06-20T12:16:29Z</time>
      </trkpt>
      <trkpt lat="43.95488" lon="6.89981">
        <ele>414.29</ele>
        <time>2017-06-20T12:17:32Z</time>
      </trkpt>
      <trkpt lat="43.95483" lon="6.89949">
        <ele>419.68</ele>
        <time>2017-06-20T12:39:45Z</time>
      </trkpt>
      <trkpt lat="43.95504" lon="6.89863">
        <ele>419.69</ele>
        <time>2017-06-20T12:39:50Z</time>
      </trkpt>
      <trkpt lat="43.95518" lon="6.89733">
        <ele>420.78</ele>
        <time>2017-06-20T12:39:55Z</time>
      </trkpt>
      <trkpt lat="43.95526" lon="6.8962">
        <ele>420.39</ele>
        <time>2017-06-20T12:40:00Z</time>
      </trkpt>
      <trkpt lat="43.95516" lon="6.89525">
        <ele>422.03</ele>
        <time>2017-06-20T12:40:05Z</time>
      </trkpt>
      <trkpt lat="43.95496" lon="6.89424">
        <ele>423.29</ele>
        <time>2017-06-20T12:40:10Z</time>
      </trkpt>
      <trkpt lat="43.95478" lon="6.89319">
        <ele>423.87</ele>
        <time>2017-06-20T12:40:15Z</time>
      </trkpt>
      <trkpt lat="43.95474" lon="6.89208">
        <ele>424.83</ele>
        <time>2017-06-20T12:40:20Z</time>
      </trkpt>
      <trkpt lat="43.9547" lon="6.89088">
        <ele>426.25</ele>
        <time>2017-06-20T12:40:25Z</time>
      </trkpt>
      <trkpt lat="43.9545" lon="6.8899">
        <ele>426.09</ele>
        <time>2017-06-20T12:40:30Z</time>
      </trkpt>
      <trkpt lat="43.95414" lon="6.88899">
        <ele>425.95</ele>
        <time>2017-06-20T12:40:35Z</time>
      </trkpt>
      <trkpt lat="43.95384" lon="6.88793">
        <ele>426.74</ele>
        <time>2017-06-20T12:40:40Z</time>
      </trkpt>
      <trkpt lat="43.95358" lon="6.88673">
        <ele>428.17</ele>
        <time>2017-06-20T12:40:45Z</time>
      </trkpt>
      <trkpt lat="43.95318" lon="6.8854">
        <ele>429.55</ele>
        <time>2017-06-20T12:40:50Z</time>
      </trkpt>
      <trkpt lat="43.95274" lon="6.88422">
        <ele>429.77</ele>
        <time>2017-06-20T12:40:55Z</time>
      </trkpt>
      <trkpt lat="43.95234" lon="6.883">
        <ele>430.08</ele>
        <time>2017-06-20T12:41:00Z</time>
      </trkpt>
      <trkpt lat="43.95217" lon="6.88186">
        <ele>431.15</ele>
        <time>2017-06-20T12:41:05Z</time>
      </trkpt>
      <trkpt lat="43.95193" lon="6.88095">
        <ele>431.17</ele>
        <time>2017-06-20T12:41:10Z</time>
      </trkpt>
      <trkpt lat="43.95195" lon="6.87985">
        <ele>432.19</ele>
        <time>2017-06-20T12:41:15Z</time>
      </trkpt>
      <trkpt lat="43.95216" lon="6.8788">
        <ele>433.65</ele>
        <time>2017-06-20T12:41:20Z</time>
      </trkpt>
      <trkpt lat="43.9525" lon="6.87789">
        <ele>435.71</ele>
        <time>2017-06-20T12:41:25Z</time>
      </trkpt>
      <trkpt lat="43.95237" lon="6.87742">
        <ele>436.94</ele>
        <time>2017-06-20T12:41:30Z</time>
      </trkpt>
      <trkpt lat="43.95196" lon="6.87715">
        <ele>436.62</ele>
        <time>2017-06-20T12:41:35Z</time>
      </trkpt>
      <trkpt lat="43.95179" lon="6.87656">
        <ele>437.39</ele>
        <time>2017-06-20T12:41:40Z</time>
      </trkpt>
      <trkpt lat="43.95186" lon="6.87568">
        <ele>437.64</ele>
        <time>2017-06-20T12:41:45Z</time>
      </trkpt>
      <trkpt lat="43.95199" lon="6.8747">
        <ele>437.47</ele>
        <time>2017-06-20T12:41:50Z</time>
      </trkpt>
      <trkpt lat="43.95248" lon="6.87376">
        <ele>437.21</ele>
        <time>2017-06-20T12:41:55Z</time>
      </trkpt>
      <trkpt lat="43.95287" lon="6.87272">
        <ele>437.47</ele>
        <time>2017-06-20T12:42:00Z</time>
      </trkpt>
      <trkpt lat="43.95277" lon="6.87154">
        <ele>437.46</ele>
        <time>2017-06-20T12:42:05Z</time>
      </trkpt>
      <trkpt lat="43.95297" lon="6.87037">
        <ele>438.26</ele>
        <time>2017-06-20T12:42:10Z</time>
      </trkpt>
      <trkpt lat="43.95334" lon="6.86927">
        <ele>439.9</ele>
        <time>2017-06-20T12:42:15Z</time>
      </trkpt>
      <trkpt lat="43.95357" lon="6.86782">
        <ele>441.28</ele>
        <time>2017-06-20T12:42:20Z</time>
      </trkpt>
      <trkpt lat="43.95367" lon="6.86636">
        <ele>442.36</ele>
        <time>2017-06-20T12:42:25Z</time>
      </trkpt>
      <trkpt lat="43.95377" lon="6.86493">
        <ele>444.33</ele>
        <time>2017-06-20T12:42:30Z</time>
      </trkpt>
      <trkpt lat="43.9539" lon="6.86338">
        <ele>446.81</ele>
        <time>2017-06-20T12:42:35Z</time>
      </trkpt>
      <trkpt lat="43.95402" lon="6.86181">
        <ele>447.46</ele>
        <time>2017-06-20T12:42:40Z</time>
      </trkpt>
      <trkpt lat="43.9541" lon="6.86019">
        <ele>448.42</ele>
        <time>2017-06-20T12:42:45Z</time>
      </trkpt>
      <trkpt lat="43.95418" lon="6.85873">
        <ele>449.18</ele>
        <time>2017-06-20T12:42:50Z</time>
      </trkpt>
      <trkpt lat="43.95429" lon="6.85727">
        <ele>449.45</ele>
        <time>2017-06-20T12:42:55Z</time>
      </trkpt>
      <trkpt lat="43.9544" lon="6.85579">
        <ele>451.13</ele>
        <time>2017-06-20T12:43:00Z</time>
      </trkpt>
      <trkpt lat="43.95439" lon="6.85436">
        <ele>453.21</ele>
        <time>2017-06-20T12:43:05Z</time>
      </trkpt>
      <trkpt lat="43.95435" lon="6.85277">
        <ele>454.68</ele>
        <time>2017-06-20T12:43:10Z</time>
      </trkpt>
      <trkpt lat="43.9542" lon="6.85138">
        <ele>454.68</ele>
        <time>2017-06-20T12:43:15Z</time>
      </trkpt>
      <trkpt lat="43.95396" lon="6.85001">
        <ele>456.34</ele>
        <time>2017-06-20T12:43:20Z</time>
      </trkpt>
      <trkpt lat="43.95365" lon="6.84855">
        <ele>458.11</ele>
        <time>2017-06-20T12:43:25Z</time>
      </trkpt>
      <trkpt lat="43.95332" lon="6.84702">
        <ele>460.09</ele>
        <time>2017-06-20T12:43:30Z</time>
      </trkpt>
      <trkpt lat="43.953" lon="6.84554">
        <ele>461.07</ele>
        <time>2017-06-20T12:43:35Z</time>
      </trkpt>
      <trkpt lat="43.95269" lon="6.84409">
        <ele>461.99</ele>
        <time>2017-06-20T12:43:40Z</time>
      </trkpt>
      <trkpt lat="43.95246" lon="6.84258">
        <ele>463.19</ele>
        <time>2017-06-20T12:43:45Z</time>
      </trkpt>
      <trkpt lat="43.95229" lon="6.84116">
        <ele>464.91</ele>
        <time>2017-06-20T12:43:50Z</time>
      </trkpt>
      <trkpt lat="43.95218" lon="6.83966">
        <ele>466.58</ele>
        <time>2017-06-20T12:43:55Z</time>
      </trkpt>
      <trkpt lat="43.95213" lon="6.83794">
        <ele>467.83</ele>
        <time>2017-06-20T12:44:00Z</time>
      </trkpt>
      <trkpt lat="43.95211" lon="6.83633">
        <ele>469.54</ele>
        <time>2017-06-20T12:44:05Z</time>
      </trkpt>
      <trkpt lat="43.95206" lon="6.83485">
        <ele>469.65</ele>
        <time>2017-06-20T12:44:10Z</time>
      </trkpt>
      <trkpt lat="43.95202" lon="6.83331">
        <ele>470.99</ele>
        <time>2017-06-20T12:44:15Z</time>
      </trkpt>
      <trkpt lat="43.95196" lon="6.83164">
        <ele>472.11</ele>
        <time>2017-06-20T12:44:20Z</time>
      </trkpt>
      <trkpt lat="43.95191" lon="6.83015">
        <ele>473.11</ele>
        <time>2017-06-20T12:44:25Z</time>
      </trkpt>
      <trkpt lat="43.95186" lon="6.82867">
        <ele>474.76</ele>
        <time>2017-06-20T12:44:30Z</time>
      </trkpt>
      <trkpt lat="43.95181" lon="6.82734">
        <ele>475.3</ele>
        <time>2017-06-20T12:44:35Z</time>
      </trkpt>
      <trkpt lat="43.95174" lon="6.82623">
        <ele>475.34</ele>
        <time>2017-06-20T12:44:40Z</time>
      </trkpt>
      <trkpt lat="43.95159" lon="6.82536">
        <ele>475.75</ele>
        <time>2017-06-20T12:44:45Z</time>
      </trkpt>
      <trkpt lat="43.9515" lon="6.82466">
        <ele>476.9</ele>
        <time>2017-06-20T12:44:50Z</time>
      </trkpt>
      <trkpt lat="43.95144" lon="6.82373">
        <ele>477.1</ele>
        <time>2017-06-20T12:44:55Z</time>
      </trkpt>
      <trkpt lat="43.95128" lon="6.82222">
        <ele>481.04</ele>
        <time>2017-06-20T12:45:00Z</time>
      </trkpt>
      <trkpt lat="43.9511" lon="6.82082">
        <ele>481.15</ele>
        <time>2017-06-20T12:45:05Z</time>
      </trkpt>
      <trkpt lat="43.95095" lon="6.81949">
        <ele>482</ele>
        <time>2017-06-20T12:45:10Z</time>
      </trkpt>
      <trkpt lat="43.9508" lon="6.81813">
        <ele>483.35</ele>
        <time>2017-06-20T12:45:15Z</time>
      </trkpt>
      <trkpt lat="43.95063" lon="6.81683">
        <ele>485.06</ele>
        <time>2017-06-20T12:45:20Z</time>
      </trkpt>
      <trkpt lat="43.95029" lon="6.81553">
        <ele>486.46</ele>
        <time>2017-06-20T12:45:25Z</time>
      </trkpt>
      <trkpt lat="43.94984" lon="6.81424">
        <ele>486.79</ele>
        <time>2017-06-20T12:45:30Z</time>
      </trkpt>
      <trkpt lat="43.94942" lon="6.81311">
        <ele>489.5</ele>
        <time>2017-06-20T12:45:35Z</time>
      </trkpt>
      <trkpt lat="43.94907" lon="6.8121">
        <ele>493.04</ele>
        <time>2017-06-20T12:45:40Z</time>
      </trkpt>
      <trkpt lat="43.94902" lon="6.81116">
        <ele>496.46</ele>
        <time>2017-06-20T12:45:45Z</time>
      </trkpt>
      <trkpt lat="43.9491" lon="6.81033">
        <ele>498.42</ele>
        <time>2017-06-20T12:45:50Z</time>
      </trkpt>
      <trkpt lat="43.94939" lon="6.80958">
        <ele>498.93</ele>
        <time>2017-06-20T12:45:55Z</time>
      </trkpt>
      <trkpt lat="43.94998" lon="6.80901">
        <ele>497.19</ele>
        <time>2017-06-20T12:46:00Z</time>
      </trkpt>
      <trkpt lat="43.9508" lon="6.80938">
        <ele>492.85</ele>
        <time>2017-06-20T12:46:05Z</time>
      </trkpt>
      <trkpt lat="43.95139" lon="6.80904">
        <ele>494.6</ele>
        <time>2017-06-20T12:46:10Z</time>
      </trkpt>
      <trkpt lat="43.95187" lon="6.80788">
        <ele>496.34</ele>
        <time>2017-06-20T12:46:15Z</time>
      </trkpt>
      <trkpt lat="43.95245" lon="6.80689">
        <ele>497.1</ele>
        <time>2017-06-20T12:46:20Z</time>
      </trkpt>
      <trkpt lat="43.95314" lon="6.8055">
        <ele>497.84</ele>
        <time>2017-06-20T12:46:25Z</time>
      </trkpt>
      <trkpt lat="43.95375" lon="6.80396">
        <ele>498.15</ele>
        <time>2017-06-20T12:46:30Z</time>
      </trkpt>
      <trkpt lat="43.9543" lon="6.80258">
        <ele>499.97</ele>
        <time>2017-06-20T12:46:35Z</time>
      </trkpt>
      <trkpt lat="43.95481" lon="6.80115">
        <ele>504.61</ele>
        <time>2017-06-20T12:46:40Z</time>
      </trkpt>
      <trkpt lat="43.95537" lon="6.79955">
        <ele>507.88</ele>
        <time>2017-06-20T12:46:45Z</time>
      </trkpt>
      <trkpt lat="43.95604" lon="6.79815">
        <ele>509.88</ele>
        <time>2017-06-20T12:46:50Z</time>
      </trkpt>
      <trkpt lat="43.95678" lon="6.79698">
        <ele>513.24</ele>
        <time>2017-06-20T12:46:55Z</time>
      </trkpt>
      <trkpt lat="43.95779" lon="6.79609">
        <ele>517.72</ele>
        <time>2017-06-20T12:47:00Z</time>
      </trkpt>
      <trkpt lat="43.95872" lon="6.79523">
        <ele>520.94</ele>
        <time>2017-06-20T12:47:05Z</time>
      </trkpt>
      <trkpt lat="43.95931" lon="6.79379">
        <ele>521.33</ele>
        <time>2017-06-20T12:47:10Z</time>
      </trkpt>
      <trkpt lat="43.95957" lon="6.79247">
        <ele>521.28</ele>
        <time>2017-06-20T12:47:15Z</time>
      </trkpt>
      <trkpt lat="43.96028" lon="6.79102">
        <ele>521.95</ele>
        <time>2017-06-20T12:47:20Z</time>
      </trkpt>
      <trkpt lat="43.9609" lon="6.7897">
        <ele>523.6</ele>
        <time>2017-06-20T12:47:25Z</time>
      </trkpt>
      <trkpt lat="43.96143" lon="6.78854">
        <ele>523.47</ele>
        <time>2017-06-20T12:47:30Z</time>
      </trkpt>
      <trkpt lat="43.96163" lon="6.78716">
        <ele>526.97</ele>
        <time>2017-06-20T12:47:35Z</time>
      </trkpt>
      <trkpt lat="43.96214" lon="6.7858">
        <ele>527.28</ele>
        <time>2017-06-20T12:47:40Z</time>
      </trkpt>
      <trkpt lat="43.96273" lon="6.78481">
        <ele>526.97</ele>
        <time>2017-06-20T12:47:45Z</time>
      </trkpt>
      <trkpt lat="43.96348" lon="6.78384">
        <ele>527.99</ele>
        <time>2017-06-20T12:47:50Z</time>
      </trkpt>
      <trkpt lat="43.96416" lon="6.78277">
        <ele>525.98</ele>
        <time>2017-06-20T12:47:55Z</time>
      </trkpt>
      <trkpt lat="43.96488" lon="6.78158">
        <ele>525.76</ele>
        <time>2017-06-20T12:48:00Z</time>
      </trkpt>
      <trkpt lat="43.96556" lon="6.78028">
        <ele>525.91</ele>
        <time>2017-06-20T12:48:05Z</time>
      </trkpt>
      <trkpt lat="43.96625" lon="6.77904">
        <ele>527</ele>
        <time>2017-06-20T12:48:10Z</time>
      </trkpt>
      <trkpt lat="43.96703" lon="6.77797">
        <ele>528.07</ele>
        <time>2017-06-20T12:48:15Z</time>
      </trkpt>
      <trkpt lat="43.96803" lon="6.77758">
        <ele>528.76</ele>
        <time>2017-06-20T12:48:20Z</time>
      </trkpt>
      <trkpt lat="43.96894" lon="6.77713">
        <ele>531.13</ele>
        <time>2017-06-20T12:48:25Z</time>
      </trkpt>
      <trkpt lat="43.96954" lon="6.77698">
        <ele>532.26</ele>
        <time>2017-06-20T12:48:30Z</time>
      </trkpt>
      <trkpt lat="43.9699" lon="6.77696">
        <ele>533.16</ele>
        <time>2017-06-20T12:48:35Z</time>
      </trkpt>
      <trkpt lat="43.97015" lon="6.77718">
        <ele>535.22</ele>
        <time>2017-06-20T12:48:40Z</time>
      </trkpt>
      <trkpt lat="43.97046" lon="6.77757">
        <ele>536.98</ele>
        <time>2017-06-20T12:48:45Z</time>
      </trkpt>
      <trkpt lat="43.97116" lon="6.77779">
        <ele>538.3</ele>
        <time>2017-06-20T12:48:50Z</time>
      </trkpt>
      <trkpt lat="43.97166" lon="6.77667">
        <ele>541.37</ele>
        <time>2017-06-20T12:48:55Z</time>
      </trkpt>
      <trkpt lat="43.97183" lon="6.77515">
        <ele>541.53</ele>
        <time>2017-06-20T12:49:00Z</time>
      </trkpt>
      <trkpt lat="43.97227" lon="6.77407">
        <ele>544.4</ele>
        <time>2017-06-20T12:49:05Z</time>
      </trkpt>
      <trkpt lat="43.97234" lon="6.77277">
        <ele>546.78</ele>
        <time>2017-06-20T12:49:10Z</time>
      </trkpt>
      <trkpt lat="43.97216" lon="6.7713">
        <ele>547.78</ele>
        <time>2017-06-20T12:49:15Z</time>
      </trkpt>
      <trkpt lat="43.97208" lon="6.76996">
        <ele>548.38</ele>
        <time>2017-06-20T12:49:20Z</time>
      </trkpt>
      <trkpt lat="43.9722" lon="6.76859">
        <ele>550.08</ele>
        <time>2017-06-20T12:49:25Z</time>
      </trkpt>
      <trkpt lat="43.97264" lon="6.76709">
        <ele>550.45</ele>
        <time>2017-06-20T12:49:30Z</time>
      </trkpt>
      <trkpt lat="43.97261" lon="6.7657">
        <ele>550.34</ele>
        <time>2017-06-20T12:49:35Z</time>
      </trkpt>
      <trkpt lat="43.97238" lon="6.76433">
        <ele>550.03</ele>
        <time>2017-06-20T12:49:40Z</time>
      </trkpt>
      <trkpt lat="43.97206" lon="6.76302">
        <ele>551.3</ele>
        <time>2017-06-20T12:49:45Z</time>
      </trkpt>
      <trkpt lat="43.97168" lon="6.7618">
        <ele>550.72</ele>
        <time>2017-06-20T12:49:50Z</time>
      </trkpt>
      <trkpt lat="43.97153" lon="6.76079">
        <ele>550.69</ele>
        <time>2017-06-20T12:49:55Z</time>
      </trkpt>
      <trkpt lat="43.9712" lon="6.76">
        <ele>551.98</ele>
        <time>2017-06-20T12:50:00Z</time>
      </trkpt>
      <trkpt lat="43.971" lon="6.75951">
        <ele>551.02</ele>
        <time>2017-06-20T12:50:05Z</time>
      </trkpt>
      <trkpt lat="43.97115" lon="6.75896">
        <ele>550.56</ele>
        <time>2017-06-20T12:50:10Z</time>
      </trkpt>
      <trkpt lat="43.97165" lon="6.75866">
        <ele>548.78</ele>
        <time>2017-06-20T12:50:15Z</time>
      </trkpt>
      <trkpt lat="43.97218" lon="6.75843">
        <ele>547.29</ele>
        <time>2017-06-20T12:50:20Z</time>
      </trkpt>
      <trkpt lat="43.97282" lon="6.75862">
        <ele>546.95</ele>
        <time>2017-06-20T12:50:25Z</time>
      </trkpt>
      <trkpt lat="43.97345" lon="6.75888">
        <ele>548.46</ele>
        <time>2017-06-20T12:50:30Z</time>
      </trkpt>
      <trkpt lat="43.97422" lon="6.7592">
        <ele>550.09</ele>
        <time>2017-06-20T12:50:35Z</time>
      </trkpt>
      <trkpt lat="43.975" lon="6.75942">
        <ele>551.18</ele>
        <time>2017-06-20T12:50:40Z</time>
      </trkpt>
      <trkpt lat="43.97571" lon="6.75938">
        <ele>552.03</ele>
        <time>2017-06-20T12:50:45Z</time>
      </trkpt>
      <trkpt lat="43.97634" lon="6.75869">
        <ele>556.12</ele>
        <time>2017-06-20T12:50:50Z</time>
      </trkpt>
      <trkpt lat="43.97697" lon="6.7583">
        <ele>558.08</ele>
        <time>2017-06-20T12:50:55Z</time>
      </trkpt>
      <trkpt lat="43.97777" lon="6.75807">
        <ele>560.22</ele>
        <time>2017-06-20T12:51:00Z</time>
      </trkpt>
      <trkpt lat="43.97864" lon="6.75805">
        <ele>562.06</ele>
        <time>2017-06-20T12:51:05Z</time>
      </trkpt>
      <trkpt lat="43.97958" lon="6.75822">
        <ele>563.63</ele>
        <time>2017-06-20T12:51:10Z</time>
      </trkpt>
      <trkpt lat="43.98048" lon="6.75819">
        <ele>565.44</ele>
        <time>2017-06-20T12:51:15Z</time>
      </trkpt>
      <trkpt lat="43.98124" lon="6.75808">
        <ele>566.73</ele>
        <time>2017-06-20T12:51:20Z</time>
      </trkpt>
      <trkpt lat="43.98194" lon="6.7586">
        <ele>566.49</ele>
        <time>2017-06-20T12:51:25Z</time>
      </trkpt>
      <trkpt lat="43.98254" lon="6.75911">
        <ele>566.31</ele>
        <time>2017-06-20T12:51:30Z</time>
      </trkpt>
      <trkpt lat="43.98317" lon="6.75956">
        <ele>568.54</ele>
        <time>2017-06-20T12:51:35Z</time>
      </trkpt>
      <trkpt lat="43.98389" lon="6.76018">
        <ele>570.82</ele>
        <time>2017-06-20T12:51:40Z</time>
      </trkpt>
      <trkpt lat="43.9843" lon="6.76112">
        <ele>573.4</ele>
        <time>2017-06-20T12:51:45Z</time>
      </trkpt>
      <trkpt lat="43.9847" lon="6.76215">
        <ele>575.35</ele>
        <time>2017-06-20T12:51:50Z</time>
      </trkpt>
      <trkpt lat="43.985" lon="6.76302">
        <ele>576.02</ele>
        <time>2017-06-20T12:51:55Z</time>
      </trkpt>
      <trkpt lat="43.98554" lon="6.76358">
        <ele>576.22</ele>
        <time>2017-06-20T12:52:00Z</time>
      </trkpt>
      <trkpt lat="43.98611" lon="6.76393">
        <ele>577.59</ele>
        <time>2017-06-20T12:52:05Z</time>
      </trkpt>
      <trkpt lat="43.9869" lon="6.764">
        <ele>578.53</ele>
        <time>2017-06-20T12:52:10Z</time>
      </trkpt>
      <trkpt lat="43.98759" lon="6.76446">
        <ele>580.21</ele>
        <time>2017-06-20T12:52:15Z</time>
      </trkpt>
      <trkpt lat="43.98825" lon="6.76477">
        <ele>581.19</ele>
        <time>2017-06-20T12:52:20Z</time>
      </trkpt>
      <trkpt lat="43.98899" lon="6.76514">
        <ele>582.57</ele>
        <time>2017-06-20T12:52:25Z</time>
      </trkpt>
      <trkpt lat="43.98992" lon="6.76627">
        <ele>585.11</ele>
        <time>2017-06-20T12:52:30Z</time>
      </trkpt>
      <trkpt lat="43.99062" lon="6.76701">
        <ele>586.94</ele>
        <time>2017-06-20T12:52:35Z</time>
      </trkpt>
      <trkpt lat="43.99149" lon="6.76762">
        <ele>586.89</ele>
        <time>2017-06-20T12:52:40Z</time>
      </trkpt>
      <trkpt lat="43.99222" lon="6.76858">
        <ele>585.88</ele>
        <time>2017-06-20T12:52:45Z</time>
      </trkpt>
      <trkpt lat="43.99303" lon="6.76942">
        <ele>585.67</ele>
        <time>2017-06-20T12:52:50Z</time>
      </trkpt>
      <trkpt lat="43.99364" lon="6.7704">
        <ele>584.98</ele>
        <time>2017-06-20T12:52:55Z</time>
      </trkpt>
      <trkpt lat="43.99404" lon="6.77168">
        <ele>586.57</ele>
        <time>2017-06-20T12:53:00Z</time>
      </trkpt>
      <trkpt lat="43.99442" lon="6.77282">
        <ele>587.92</ele>
        <time>2017-06-20T12:53:05Z</time>
      </trkpt>
      <trkpt lat="43.99517" lon="6.77384">
        <ele>588.36</ele>
        <time>2017-06-20T12:53:10Z</time>
      </trkpt>
      <trkpt lat="43.99619" lon="6.77483">
        <ele>590.5</ele>
        <time>2017-06-20T12:53:15Z</time>
      </trkpt>
      <trkpt lat="43.99705" lon="6.77582">
        <ele>593.36</ele>
        <time>2017-06-20T12:53:20Z</time>
      </trkpt>
      <trkpt lat="43.99773" lon="6.77682">
        <ele>594.92</ele>
        <time>2017-06-20T12:53:25Z</time>
      </trkpt>
      <trkpt lat="43.99838" lon="6.77765">
        <ele>596.85</ele>
        <time>2017-06-20T12:53:30Z</time>
      </trkpt>
      <trkpt lat="43.99907" lon="6.77871">
        <ele>599.22</ele>
        <time>2017-06-20T12:53:35Z</time>
      </trkpt>
      <trkpt lat="43.99959" lon="6.77988">
        <ele>600.6</ele>
        <time>2017-06-20T12:53:40Z</time>
      </trkpt>
      <trkpt lat="44.00012" lon="6.78112">
        <ele>603.06</ele>
        <time>2017-06-20T12:53:45Z</time>
      </trkpt>
      <trkpt lat="44.00062" lon="6.78231">
        <ele>605.91</ele>
        <time>2017-06-20T12:53:50Z</time>
      </trkpt>
      <trkpt lat="44.00163" lon="6.78293">
        <ele>606.78</ele>
        <time>2017-06-20T12:53:55Z</time>
      </trkpt>
      <trkpt lat="44.00234" lon="6.78374">
        <ele>605.94</ele>
        <time>2017-06-20T12:54:00Z</time>
      </trkpt>
      <trkpt lat="44.00272" lon="6.78494">
        <ele>608.49</ele>
        <time>2017-06-20T12:54:05Z</time>
      </trkpt>
      <trkpt lat="44.00347" lon="6.78583">
        <ele>610.73</ele>
        <time>2017-06-20T12:54:10Z</time>
      </trkpt>
      <trkpt lat="44.00446" lon="6.7866">
        <ele>612.73</ele>
        <time>2017-06-20T12:54:15Z</time>
      </trkpt>
      <trkpt lat="44.00519" lon="6.78749">
        <ele>614.83</ele>
        <time>2017-06-20T12:54:20Z</time>
      </trkpt>
      <trkpt lat="44.00572" lon="6.7887">
        <ele>616.33</ele>
        <time>2017-06-20T12:54:25Z</time>
      </trkpt>
      <trkpt lat="44.0062" lon="6.78998">
        <ele>618.48</ele>
        <time>2017-06-20T12:54:30Z</time>
      </trkpt>
      <trkpt lat="44.00652" lon="6.79129">
        <ele>620.02</ele>
        <time>2017-06-20T12:54:35Z</time>
      </trkpt>
      <trkpt lat="44.0071" lon="6.79237">
        <ele>622.21</ele>
        <time>2017-06-20T12:54:40Z</time>
      </trkpt>
      <trkpt lat="44.00771" lon="6.79336">
        <ele>623.41</ele>
        <time>2017-06-20T12:54:45Z</time>
      </trkpt>
      <trkpt lat="44.00826" lon="6.79453">
        <ele>625.08</ele>
        <time>2017-06-20T12:54:50Z</time>
      </trkpt>
      <trkpt lat="44.00893" lon="6.79558">
        <ele>626.62</ele>
        <time>2017-06-20T12:54:55Z</time>
      </trkpt>
      <trkpt lat="44.0097" lon="6.79674">
        <ele>629.02</ele>
        <time>2017-06-20T12:55:00Z</time>
      </trkpt>
      <trkpt lat="44.01041" lon="6.79776">
        <ele>630.44</ele>
        <time>2017-06-20T12:55:05Z</time>
      </trkpt>
      <trkpt lat="44.01132" lon="6.79856">
        <ele>633.23</ele>
        <time>2017-06-20T12:55:10Z</time>
      </trkpt>
      <trkpt lat="44.01211" lon="6.79954">
        <ele>633.89</ele>
        <time>2017-06-20T12:55:15Z</time>
      </trkpt>
      <trkpt lat="44.01266" lon="6.80076">
        <ele>636.14</ele>
        <time>2017-06-20T12:55:20Z</time>
      </trkpt>
      <trkpt lat="44.01309" lon="6.80202">
        <ele>637.87</ele>
        <time>2017-06-20T12:55:25Z</time>
      </trkpt>
      <trkpt lat="44.01388" lon="6.80269">
        <ele>640</ele>
        <time>2017-06-20T12:55:30Z</time>
      </trkpt>
      <trkpt lat="44.01462" lon="6.80327">
        <ele>639.99</ele>
        <time>2017-06-20T12:55:35Z</time>
      </trkpt>
      <trkpt lat="44.01527" lon="6.80398">
        <ele>641.43</ele>
        <time>2017-06-20T12:55:40Z</time>
      </trkpt>
      <trkpt lat="44.01601" lon="6.80484">
        <ele>642.22</ele>
        <time>2017-06-20T12:55:45Z</time>
      </trkpt>
      <trkpt lat="44.01673" lon="6.80569">
        <ele>642.64</ele>
        <time>2017-06-20T12:55:50Z</time>
      </trkpt>
      <trkpt lat="44.01706" lon="6.80686">
        <ele>643.36</ele>
        <time>2017-06-20T12:55:55Z</time>
      </trkpt>
      <trkpt lat="44.01758" lon="6.8076">
        <ele>643.68</ele>
        <time>2017-06-20T12:56:00Z</time>
      </trkpt>
      <trkpt lat="44.01803" lon="6.80832">
        <ele>645.99</ele>
        <time>2017-06-20T12:56:05Z</time>
      </trkpt>
      <trkpt lat="44.01853" lon="6.8083">
        <ele>646.46</ele>
        <time>2017-06-20T12:56:10Z</time>
      </trkpt>
      <trkpt lat="44.01934" lon="6.80809">
        <ele>650.01</ele>
        <time>2017-06-20T12:56:15Z</time>
      </trkpt>
      <trkpt lat="44.02008" lon="6.8085">
        <ele>650.45</ele>
        <time>2017-06-20T12:56:20Z</time>
      </trkpt>
      <trkpt lat="44.02081" lon="6.80863">
        <ele>652.4</ele>
        <time>2017-06-20T12:56:25Z</time>
      </trkpt>
      <trkpt lat="44.02133" lon="6.80892">
        <ele>652.87</ele>
        <time>2017-06-20T12:56:30Z</time>
      </trkpt>
      <trkpt lat="44.02169" lon="6.80935">
        <ele>654.63</ele>
        <time>2017-06-20T12:56:35Z</time>
      </trkpt>
      <trkpt lat="44.02193" lon="6.80998">
        <ele>655.71</ele>
        <time>2017-06-20T12:56:40Z</time>
      </trkpt>
      <trkpt lat="44.02228" lon="6.81035">
        <ele>658.21</ele>
        <time>2017-06-20T12:56:45Z</time>
      </trkpt>
      <trkpt lat="44.02295" lon="6.81076">
        <ele>661.91</ele>
        <time>2017-06-20T12:56:50Z</time>
      </trkpt>
      <trkpt lat="44.02379" lon="6.81126">
        <ele>665.32</ele>
        <time>2017-06-20T12:56:55Z</time>
      </trkpt>
      <trkpt lat="44.02452" lon="6.81173">
        <ele>667.74</ele>
        <time>2017-06-20T12:57:00Z</time>
      </trkpt>
      <trkpt lat="44.0252" lon="6.81232">
        <ele>670.58</ele>
        <time>2017-06-20T12:57:05Z</time>
      </trkpt>
      <trkpt lat="44.02586" lon="6.81288">
        <ele>673.88</ele>
        <time>2017-06-20T12:57:10Z</time>
      </trkpt>
      <trkpt lat="44.02641" lon="6.81331">
        <ele>675.65</ele>
        <time>2017-06-20T12:57:15Z</time>
      </trkpt>
      <trkpt lat="44.02696" lon="6.81396">
        <ele>677.62</ele>
        <time>2017-06-20T12:57:20Z</time>
      </trkpt>
      <trkpt lat="44.02751" lon="6.81513">
        <ele>682.28</ele>
        <time>2017-06-20T12:57:25Z</time>
      </trkpt>
      <trkpt lat="44.02799" lon="6.81651">
        <ele>685.75</ele>
        <time>2017-06-20T12:57:30Z</time>
      </trkpt>
      <trkpt lat="44.02851" lon="6.81768">
        <ele>689.85</ele>
        <time>2017-06-20T12:57:35Z</time>
      </trkpt>
      <trkpt lat="44.0288" lon="6.81878">
        <ele>692.93</ele>
        <time>2017-06-20T12:57:40Z</time>
      </trkpt>
      <trkpt lat="44.02929" lon="6.8197">
        <ele>695.54</ele>
        <time>2017-06-20T12:57:45Z</time>
      </trkpt>
      <trkpt lat="44.02943" lon="6.82004">
        <ele>696.07</ele>
        <time>2017-06-20T12:57:50Z</time>
      </trkpt>
      <trkpt lat="44.02947" lon="6.82036">
        <ele>697.06</ele>
        <time>2017-06-20T12:57:58Z</time>
      </trkpt>
      <trkpt lat="44.02941" lon="6.82074">
        <ele>698.31</ele>
        <time>2017-06-20T12:58:05Z</time>
      </trkpt>
      <trkpt lat="44.02951" lon="6.82125">
        <ele>699.76</ele>
        <time>2017-06-20T12:58:10Z</time>
      </trkpt>
      <trkpt lat="44.02973" lon="6.82162">
        <ele>701.67</ele>
        <time>2017-06-20T12:58:15Z</time>
      </trkpt>
      <trkpt lat="44.03006" lon="6.82195">
        <ele>703.47</ele>
        <time>2017-06-20T12:58:20Z</time>
      </trkpt>
      <trkpt lat="44.03027" lon="6.82223">
        <ele>704.69</ele>
        <time>2017-06-20T12:58:25Z</time>
      </trkpt>
      <trkpt lat="44.03046" lon="6.82256">
        <ele>705.74</ele>
        <time>2017-06-20T12:58:30Z</time>
      </trkpt>
      <trkpt lat="44.03079" lon="6.82326">
        <ele>710.81</ele>
        <time>2017-06-20T12:58:35Z</time>
      </trkpt>
      <trkpt lat="44.03134" lon="6.82418">
        <ele>712.89</ele>
        <time>2017-06-20T12:58:40Z</time>
      </trkpt>
      <trkpt lat="44.03154" lon="6.82497">
        <ele>716.56</ele>
        <time>2017-06-20T12:58:45Z</time>
      </trkpt>
      <trkpt lat="44.03194" lon="6.82561">
        <ele>719.23</ele>
        <time>2017-06-20T12:58:50Z</time>
      </trkpt>
      <trkpt lat="44.03266" lon="6.82563">
        <ele>722.44</ele>
        <time>2017-06-20T12:58:55Z</time>
      </trkpt>
      <trkpt lat="44.0336" lon="6.82611">
        <ele>726.12</ele>
        <time>2017-06-20T12:59:00Z</time>
      </trkpt>
      <trkpt lat="44.03426" lon="6.82671">
        <ele>730.02</ele>
        <time>2017-06-20T12:59:05Z</time>
      </trkpt>
      <trkpt lat="44.03489" lon="6.82693">
        <ele>733.34</ele>
        <time>2017-06-20T12:59:10Z</time>
      </trkpt>
      <trkpt lat="44.03535" lon="6.82716">
        <ele>736</ele>
        <time>2017-06-20T12:59:15Z</time>
      </trkpt>
      <trkpt lat="44.03566" lon="6.82783">
        <ele>737.63</ele>
        <time>2017-06-20T12:59:20Z</time>
      </trkpt>
      <trkpt lat="44.03619" lon="6.82833">
        <ele>737.8</ele>
        <time>2017-06-20T12:59:25Z</time>
      </trkpt>
      <trkpt lat="44.03679" lon="6.82865">
        <ele>740.6</ele>
        <time>2017-06-20T12:59:30Z</time>
      </trkpt>
      <trkpt lat="44.03732" lon="6.82894">
        <ele>747.59</ele>
        <time>2017-06-20T12:59:35Z</time>
      </trkpt>
      <trkpt lat="44.03761" lon="6.82991">
        <ele>751.7</ele>
        <time>2017-06-20T12:59:40Z</time>
      </trkpt>
      <trkpt lat="44.03797" lon="6.83078">
        <ele>755.63</ele>
        <time>2017-06-20T12:59:45Z</time>
      </trkpt>
      <trkpt lat="44.03848" lon="6.83097">
        <ele>757.88</ele>
        <time>2017-06-20T12:59:50Z</time>
      </trkpt>
      <trkpt lat="44.03873" lon="6.83142">
        <ele>759.82</ele>
        <time>2017-06-20T12:59:55Z</time>
      </trkpt>
      <trkpt lat="44.03889" lon="6.83204">
        <ele>762.69</ele>
        <time>2017-06-20T13:00:00Z</time>
      </trkpt>
      <trkpt lat="44.03899" lon="6.8325">
        <ele>764.67</ele>
        <time>2017-06-20T13:00:05Z</time>
      </trkpt>
      <trkpt lat="44.03907" lon="6.83281">
        <ele>765.14</ele>
        <time>2017-06-20T13:00:17Z</time>
      </trkpt>
      <trkpt lat="44.0392" lon="6.83349">
        <ele>768.19</ele>
        <time>2017-06-20T13:00:22Z</time>
      </trkpt>
      <trkpt lat="44.03903" lon="6.83433">
        <ele>770.57</ele>
        <time>2017-06-20T13:00:27Z</time>
      </trkpt>
      <trkpt lat="44.03902" lon="6.83503">
        <ele>773.08</ele>
        <time>2017-06-20T13:00:32Z</time>
      </trkpt>
      <trkpt lat="44.03939" lon="6.83543">
        <ele>776.18</ele>
        <time>2017-06-20T13:00:37Z</time>
      </trkpt>
      <trkpt lat="44.03986" lon="6.83503">
        <ele>777.67</ele>
        <time>2017-06-20T13:00:42Z</time>
      </trkpt>
      <trkpt lat="44.04036" lon="6.83442">
        <ele>779.74</ele>
        <time>2017-06-20T13:00:47Z</time>
      </trkpt>
      <trkpt lat="44.04056" lon="6.83364">
        <ele>780.84</ele>
        <time>2017-06-20T13:00:52Z</time>
      </trkpt>
      <trkpt lat="44.04078" lon="6.83288">
        <ele>782.55</ele>
        <time>2017-06-20T13:00:57Z</time>
      </trkpt>
      <trkpt lat="44.04129" lon="6.83221">
        <ele>785.41</ele>
        <time>2017-06-20T13:01:02Z</time>
      </trkpt>
      <trkpt lat="44.04171" lon="6.83162">
        <ele>787.08</ele>
        <time>2017-06-20T13:01:07Z</time>
      </trkpt>
      <trkpt lat="44.04209" lon="6.83192">
        <ele>788.76</ele>
        <time>2017-06-20T13:01:12Z</time>
      </trkpt>
      <trkpt lat="44.04214" lon="6.8328">
        <ele>789.91</ele>
        <time>2017-06-20T13:01:17Z</time>
      </trkpt>
      <trkpt lat="44.04195" lon="6.83328">
        <ele>790.85</ele>
        <time>2017-06-20T13:01:22Z</time>
      </trkpt>
      <trkpt lat="44.04182" lon="6.83359">
        <ele>793.06</ele>
        <time>2017-06-20T13:02:46Z</time>
      </trkpt>
      <trkpt lat="44.04172" lon="6.8339">
        <ele>794.08</ele>
        <time>2017-06-20T13:02:51Z</time>
      </trkpt>
      <trkpt lat="44.04183" lon="6.83448">
        <ele>795.29</ele>
        <time>2017-06-20T13:02:56Z</time>
      </trkpt>
      <trkpt lat="44.04168" lon="6.83505">
        <ele>798.51</ele>
        <time>2017-06-20T13:03:01Z</time>
      </trkpt>
      <trkpt lat="44.0413" lon="6.83575">
        <ele>803.02</ele>
        <time>2017-06-20T13:03:06Z</time>
      </trkpt>
      <trkpt lat="44.04094" lon="6.83648">
        <ele>803.54</ele>
        <time>2017-06-20T13:03:11Z</time>
      </trkpt>
      <trkpt lat="44.04053" lon="6.83693">
        <ele>805.66</ele>
        <time>2017-06-20T13:03:16Z</time>
      </trkpt>
      <trkpt lat="44.04025" lon="6.83741">
        <ele>807.53</ele>
        <time>2017-06-20T13:03:21Z</time>
      </trkpt>
      <trkpt lat="44.04046" lon="6.83803">
        <ele>811.41</ele>
        <time>2017-06-20T13:03:26Z</time>
      </trkpt>
      <trkpt lat="44.04092" lon="6.83851">
        <ele>814.06</ele>
        <time>2017-06-20T13:03:31Z</time>
      </trkpt>
      <trkpt lat="44.04143" lon="6.83871">
        <ele>815.92</ele>
        <time>2017-06-20T13:03:36Z</time>
      </trkpt>
      <trkpt lat="44.04165" lon="6.83921">
        <ele>818.23</ele>
        <time>2017-06-20T13:03:41Z</time>
      </trkpt>
      <trkpt lat="44.04283" lon="6.84043">
        <ele>821.88</ele>
        <time>2017-06-20T13:03:51Z</time>
      </trkpt>
      <trkpt lat="44.04336" lon="6.84051">
        <ele>823.39</ele>
        <time>2017-06-20T13:03:56Z</time>
      </trkpt>
      <trkpt lat="44.04373" lon="6.84074">
        <ele>825.18</ele>
        <time>2017-06-20T13:04:01Z</time>
      </trkpt>
      <trkpt lat="44.04407" lon="6.84027">
        <ele>826.16</ele>
        <time>2017-06-20T13:04:06Z</time>
      </trkpt>
      <trkpt lat="44.04442" lon="6.84025">
        <ele>828.35</ele>
        <time>2017-06-20T13:04:11Z</time>
      </trkpt>
      <trkpt lat="44.04461" lon="6.84093">
        <ele>829.34</ele>
        <time>2017-06-20T13:04:16Z</time>
      </trkpt>
      <trkpt lat="44.04673" lon="6.8428">
        <ele>835.72</ele>
        <time>2017-06-20T13:04:30Z</time>
      </trkpt>
      <trkpt lat="44.04727" lon="6.84306">
        <ele>839.26</ele>
        <time>2017-06-20T13:04:35Z</time>
      </trkpt>
      <trkpt lat="44.0475" lon="6.84335">
        <ele>839.45</ele>
        <time>2017-06-20T13:04:40Z</time>
      </trkpt>
      <trkpt lat="44.04778" lon="6.84376">
        <ele>841.01</ele>
        <time>2017-06-20T13:04:45Z</time>
      </trkpt>
      <trkpt lat="44.04867" lon="6.84416">
        <ele>840.94</ele>
        <time>2017-06-20T13:04:54Z</time>
      </trkpt>
      <trkpt lat="44.04896" lon="6.84379">
        <ele>839.73</ele>
        <time>2017-06-20T13:04:59Z</time>
      </trkpt>
      <trkpt lat="44.04924" lon="6.84307">
        <ele>839.06</ele>
        <time>2017-06-20T13:05:04Z</time>
      </trkpt>
      <trkpt lat="44.0495" lon="6.84243">
        <ele>837.72</ele>
        <time>2017-06-20T13:05:09Z</time>
      </trkpt>
      <trkpt lat="44.04989" lon="6.84237">
        <ele>837.79</ele>
        <time>2017-06-20T13:05:14Z</time>
      </trkpt>
      <trkpt lat="44.05027" lon="6.84311">
        <ele>836.44</ele>
        <time>2017-06-20T13:05:19Z</time>
      </trkpt>
      <trkpt lat="44.05024" lon="6.84391">
        <ele>834.46</ele>
        <time>2017-06-20T13:05:24Z</time>
      </trkpt>
      <trkpt lat="44.05028" lon="6.84446">
        <ele>832.73</ele>
        <time>2017-06-20T13:05:29Z</time>
      </trkpt>
      <trkpt lat="44.05062" lon="6.8444">
        <ele>832.04</ele>
        <time>2017-06-20T13:05:34Z</time>
      </trkpt>
      <trkpt lat="44.05107" lon="6.84416">
        <ele>831</ele>
        <time>2017-06-20T13:05:39Z</time>
      </trkpt>
      <trkpt lat="44.05154" lon="6.84473">
        <ele>830.64</ele>
        <time>2017-06-20T13:05:44Z</time>
      </trkpt>
      <trkpt lat="44.05194" lon="6.84523">
        <ele>828.11</ele>
        <time>2017-06-20T13:05:49Z</time>
      </trkpt>
      <trkpt lat="44.05237" lon="6.8452">
        <ele>826.18</ele>
        <time>2017-06-20T13:05:54Z</time>
      </trkpt>
      <trkpt lat="44.0529" lon="6.84516">
        <ele>824.47</ele>
        <time>2017-06-20T13:05:59Z</time>
      </trkpt>
      <trkpt lat="44.05314" lon="6.84572">
        <ele>823.75</ele>
        <time>2017-06-20T13:06:04Z</time>
      </trkpt>
      <trkpt lat="44.05349" lon="6.84574">
        <ele>823.44</ele>
        <time>2017-06-20T13:06:09Z</time>
      </trkpt>
      <trkpt lat="44.05366" lon="6.84511">
        <ele>821.98</ele>
        <time>2017-06-20T13:06:14Z</time>
      </trkpt>
      <trkpt lat="44.05395" lon="6.84501">
        <ele>821.25</ele>
        <time>2017-06-20T13:06:20Z</time>
      </trkpt>
      <trkpt lat="44.05432" lon="6.84522">
        <ele>819.53</ele>
        <time>2017-06-20T13:06:25Z</time>
      </trkpt>
      <trkpt lat="44.05457" lon="6.8453">
        <ele>819.7</ele>
        <time>2017-06-20T13:10:52Z</time>
      </trkpt>
      <trkpt lat="44.05498" lon="6.84519">
        <ele>818.31</ele>
        <time>2017-06-20T13:10:57Z</time>
      </trkpt>
      <trkpt lat="44.05535" lon="6.84559">
        <ele>818.03</ele>
        <time>2017-06-20T13:11:02Z</time>
      </trkpt>
      <trkpt lat="44.05555" lon="6.84626">
        <ele>816.06</ele>
        <time>2017-06-20T13:11:07Z</time>
      </trkpt>
      <trkpt lat="44.05529" lon="6.84697">
        <ele>814.88</ele>
        <time>2017-06-20T13:11:12Z</time>
      </trkpt>
      <trkpt lat="44.055" lon="6.84764">
        <ele>813.35</ele>
        <time>2017-06-20T13:11:17Z</time>
      </trkpt>
      <trkpt lat="44.05476" lon="6.84833">
        <ele>812.17</ele>
        <time>2017-06-20T13:11:22Z</time>
      </trkpt>
      <trkpt lat="44.05455" lon="6.84897">
        <ele>811.66</ele>
        <time>2017-06-20T13:11:27Z</time>
      </trkpt>
      <trkpt lat="44.0547" lon="6.84957">
        <ele>811.34</ele>
        <time>2017-06-20T13:11:32Z</time>
      </trkpt>
      <trkpt lat="44.05505" lon="6.84982">
        <ele>810.06</ele>
        <time>2017-06-20T13:11:37Z</time>
      </trkpt>
      <trkpt lat="44.05523" lon="6.8504">
        <ele>808.42</ele>
        <time>2017-06-20T13:11:42Z</time>
      </trkpt>
      <trkpt lat="44.05575" lon="6.85077">
        <ele>807.43</ele>
        <time>2017-06-20T13:11:47Z</time>
      </trkpt>
      <trkpt lat="44.05623" lon="6.85081">
        <ele>806.25</ele>
        <time>2017-06-20T13:11:52Z</time>
      </trkpt>
      <trkpt lat="44.05661" lon="6.85114">
        <ele>804.56</ele>
        <time>2017-06-20T13:11:57Z</time>
      </trkpt>
      <trkpt lat="44.05704" lon="6.85101">
        <ele>802.79</ele>
        <time>2017-06-20T13:12:02Z</time>
      </trkpt>
      <trkpt lat="44.05728" lon="6.85163">
        <ele>800.72</ele>
        <time>2017-06-20T13:12:07Z</time>
      </trkpt>
      <trkpt lat="44.05747" lon="6.8524">
        <ele>799.84</ele>
        <time>2017-06-20T13:12:12Z</time>
      </trkpt>
      <trkpt lat="44.05787" lon="6.85254">
        <ele>798.9</ele>
        <time>2017-06-20T13:12:17Z</time>
      </trkpt>
      <trkpt lat="44.05831" lon="6.85268">
        <ele>797.06</ele>
        <time>2017-06-20T13:12:22Z</time>
      </trkpt>
      <trkpt lat="44.05876" lon="6.85214">
        <ele>795.65</ele>
        <time>2017-06-20T13:12:27Z</time>
      </trkpt>
      <trkpt lat="44.05927" lon="6.85191">
        <ele>792.89</ele>
        <time>2017-06-20T13:12:32Z</time>
      </trkpt>
      <trkpt lat="44.05974" lon="6.85225">
        <ele>791.1</ele>
        <time>2017-06-20T13:12:37Z</time>
      </trkpt>
      <trkpt lat="44.05983" lon="6.85288">
        <ele>789.61</ele>
        <time>2017-06-20T13:12:42Z</time>
      </trkpt>
      <trkpt lat="44.06011" lon="6.85314">
        <ele>788.51</ele>
        <time>2017-06-20T13:12:47Z</time>
      </trkpt>
      <trkpt lat="44.06014" lon="6.85364">
        <ele>787.37</ele>
        <time>2017-06-20T13:12:52Z</time>
      </trkpt>
      <trkpt lat="44.0604" lon="6.8539">
        <ele>787.55</ele>
        <time>2017-06-20T13:12:57Z</time>
      </trkpt>
      <trkpt lat="44.06074" lon="6.85426">
        <ele>786.35</ele>
        <time>2017-06-20T13:13:02Z</time>
      </trkpt>
      <trkpt lat="44.06098" lon="6.8543">
        <ele>785.99</ele>
        <time>2017-06-20T13:13:07Z</time>
      </trkpt>
      <trkpt lat="44.06149" lon="6.854">
        <ele>786.47</ele>
        <time>2017-06-20T13:13:12Z</time>
      </trkpt>
      <trkpt lat="44.06214" lon="6.85317">
        <ele>783.39</ele>
        <time>2017-06-20T13:13:17Z</time>
      </trkpt>
      <trkpt lat="44.06204" lon="6.85229">
        <ele>781.9</ele>
        <time>2017-06-20T13:13:22Z</time>
      </trkpt>
      <trkpt lat="44.06202" lon="6.8511">
        <ele>779.74</ele>
        <time>2017-06-20T13:13:27Z</time>
      </trkpt>
      <trkpt lat="44.0622" lon="6.85003">
        <ele>777.14</ele>
        <time>2017-06-20T13:13:32Z</time>
      </trkpt>
      <trkpt lat="44.06224" lon="6.84927">
        <ele>775.22</ele>
        <time>2017-06-20T13:13:37Z</time>
      </trkpt>
      <trkpt lat="44.06236" lon="6.84872">
        <ele>773.32</ele>
        <time>2017-06-20T13:13:42Z</time>
      </trkpt>
      <trkpt lat="44.06289" lon="6.84866">
        <ele>772.99</ele>
        <time>2017-06-20T13:13:47Z</time>
      </trkpt>
      <trkpt lat="44.06324" lon="6.84906">
        <ele>773.65</ele>
        <time>2017-06-20T13:13:52Z</time>
      </trkpt>
      <trkpt lat="44.06346" lon="6.85045">
        <ele>776.17</ele>
        <time>2017-06-20T13:13:57Z</time>
      </trkpt>
      <trkpt lat="44.06354" lon="6.85149">
        <ele>776</ele>
        <time>2017-06-20T13:14:02Z</time>
      </trkpt>
      <trkpt lat="44.06349" lon="6.85245">
        <ele>778.08</ele>
        <time>2017-06-20T13:14:07Z</time>
      </trkpt>
      <trkpt lat="44.06351" lon="6.85342">
        <ele>777.8</ele>
        <time>2017-06-20T13:14:12Z</time>
      </trkpt>
      <trkpt lat="44.06367" lon="6.85411">
        <ele>779.36</ele>
        <time>2017-06-20T13:14:17Z</time>
      </trkpt>
      <trkpt lat="44.06428" lon="6.85392">
        <ele>779.29</ele>
        <time>2017-06-20T13:14:22Z</time>
      </trkpt>
      <trkpt lat="44.06496" lon="6.85398">
        <ele>779.9</ele>
        <time>2017-06-20T13:14:27Z</time>
      </trkpt>
      <trkpt lat="44.06563" lon="6.85384">
        <ele>778.61</ele>
        <time>2017-06-20T13:14:32Z</time>
      </trkpt>
      <trkpt lat="44.06627" lon="6.85388">
        <ele>779.39</ele>
        <time>2017-06-20T13:14:37Z</time>
      </trkpt>
      <trkpt lat="44.06668" lon="6.85394">
        <ele>780.05</ele>
        <time>2017-06-20T13:14:42Z</time>
      </trkpt>
      <trkpt lat="44.06692" lon="6.85398">
        <ele>780.11</ele>
        <time>2017-06-20T13:14:49Z</time>
      </trkpt>
      <trkpt lat="44.06715" lon="6.85401">
        <ele>781.32</ele>
        <time>2017-06-20T13:15:46Z</time>
      </trkpt>
      <trkpt lat="44.06791" lon="6.85435">
        <ele>781.78</ele>
        <time>2017-06-20T13:15:51Z</time>
      </trkpt>
      <trkpt lat="44.06852" lon="6.85468">
        <ele>782.24</ele>
        <time>2017-06-20T13:15:56Z</time>
      </trkpt>
      <trkpt lat="44.06925" lon="6.85477">
        <ele>780</ele>
        <time>2017-06-20T13:16:01Z</time>
      </trkpt>
      <trkpt lat="44.06971" lon="6.85536">
        <ele>779.57</ele>
        <time>2017-06-20T13:16:06Z</time>
      </trkpt>
      <trkpt lat="44.07027" lon="6.85611">
        <ele>779.57</ele>
        <time>2017-06-20T13:16:11Z</time>
      </trkpt>
      <trkpt lat="44.07146" lon="6.85664">
        <ele>778.99</ele>
        <time>2017-06-20T13:16:16Z</time>
      </trkpt>
      <trkpt lat="44.07255" lon="6.85683">
        <ele>776.6</ele>
        <time>2017-06-20T13:16:21Z</time>
      </trkpt>
      <trkpt lat="44.07351" lon="6.85702">
        <ele>774.58</ele>
        <time>2017-06-20T13:16:26Z</time>
      </trkpt>
      <trkpt lat="44.07432" lon="6.85718">
        <ele>772.35</ele>
        <time>2017-06-20T13:16:31Z</time>
      </trkpt>
      <trkpt lat="44.07507" lon="6.85771">
        <ele>770.54</ele>
        <time>2017-06-20T13:16:36Z</time>
      </trkpt>
      <trkpt lat="44.07589" lon="6.85812">
        <ele>771.01</ele>
        <time>2017-06-20T13:16:41Z</time>
      </trkpt>
      <trkpt lat="44.07685" lon="6.85779">
        <ele>767.87</ele>
        <time>2017-06-20T13:16:46Z</time>
      </trkpt>
      <trkpt lat="44.07792" lon="6.85734">
        <ele>765.61</ele>
        <time>2017-06-20T13:16:51Z</time>
      </trkpt>
      <trkpt lat="44.07892" lon="6.85694">
        <ele>766.49</ele>
        <time>2017-06-20T13:16:56Z</time>
      </trkpt>
      <trkpt lat="44.07992" lon="6.85657">
        <ele>768.67</ele>
        <time>2017-06-20T13:17:01Z</time>
      </trkpt>
      <trkpt lat="44.08089" lon="6.8562">
        <ele>772.35</ele>
        <time>2017-06-20T13:17:06Z</time>
      </trkpt>
      <trkpt lat="44.08181" lon="6.85583">
        <ele>773.72</ele>
        <time>2017-06-20T13:17:11Z</time>
      </trkpt>
      <trkpt lat="44.08268" lon="6.85549">
        <ele>775.48</ele>
        <time>2017-06-20T13:17:16Z</time>
      </trkpt>
      <trkpt lat="44.08356" lon="6.85516">
        <ele>777.51</ele>
        <time>2017-06-20T13:17:21Z</time>
      </trkpt>
      <trkpt lat="44.08436" lon="6.85485">
        <ele>780.41</ele>
        <time>2017-06-20T13:17:26Z</time>
      </trkpt>
      <trkpt lat="44.08487" lon="6.85465">
        <ele>781.74</ele>
        <time>2017-06-20T13:17:31Z</time>
      </trkpt>
      <trkpt lat="44.08511" lon="6.85456">
        <ele>782</ele>
        <time>2017-06-20T13:17:36Z</time>
      </trkpt>
      <trkpt lat="44.08536" lon="6.85446">
        <ele>782.6</ele>
        <time>2017-06-20T13:17:52Z</time>
      </trkpt>
      <trkpt lat="44.08597" lon="6.85421">
        <ele>784.98</ele>
        <time>2017-06-20T13:17:57Z</time>
      </trkpt>
      <trkpt lat="44.08664" lon="6.85415">
        <ele>787.33</ele>
        <time>2017-06-20T13:18:02Z</time>
      </trkpt>
      <trkpt lat="44.08714" lon="6.85375">
        <ele>788.61</ele>
        <time>2017-06-20T13:18:07Z</time>
      </trkpt>
      <trkpt lat="44.08752" lon="6.85343">
        <ele>789.92</ele>
        <time>2017-06-20T13:18:12Z</time>
      </trkpt>
      <trkpt lat="44.088" lon="6.85361">
        <ele>791.4</ele>
        <time>2017-06-20T13:18:17Z</time>
      </trkpt>
      <trkpt lat="44.08842" lon="6.85377">
        <ele>792.38</ele>
        <time>2017-06-20T13:18:22Z</time>
      </trkpt>
      <trkpt lat="44.08876" lon="6.8537">
        <ele>791.73</ele>
        <time>2017-06-20T13:18:27Z</time>
      </trkpt>
      <trkpt lat="44.08906" lon="6.85363">
        <ele>790.92</ele>
        <time>2017-06-20T13:18:32Z</time>
      </trkpt>
      <trkpt lat="44.08929" lon="6.85358">
        <ele>788.83</ele>
        <time>2017-06-20T13:18:38Z</time>
      </trkpt>
      <trkpt lat="44.08954" lon="6.85348">
        <ele>798.31</ele>
        <time>2017-06-20T14:25:20Z</time>
      </trkpt>
      <trkpt lat="44.0898" lon="6.85346">
        <ele>797.97</ele>
        <time>2017-06-20T14:25:26Z</time>
      </trkpt>
      <trkpt lat="44.09015" lon="6.85343">
        <ele>797.69</ele>
        <time>2017-06-20T14:25:31Z</time>
      </trkpt>
      <trkpt lat="44.09057" lon="6.8532">
        <ele>798.68</ele>
        <time>2017-06-20T14:25:36Z</time>
      </trkpt>
      <trkpt lat="44.09097" lon="6.85295">
        <ele>799.93</ele>
        <time>2017-06-20T14:25:41Z</time>
      </trkpt>
      <trkpt lat="44.09161" lon="6.85261">
        <ele>801.38</ele>
        <time>2017-06-20T14:25:46Z</time>
      </trkpt>
      <trkpt lat="44.09236" lon="6.85223">
        <ele>803.63</ele>
        <time>2017-06-20T14:25:51Z</time>
      </trkpt>
      <trkpt lat="44.09295" lon="6.85235">
        <ele>806.79</ele>
        <time>2017-06-20T14:25:56Z</time>
      </trkpt>
      <trkpt lat="44.09361" lon="6.85251">
        <ele>810.57</ele>
        <time>2017-06-20T14:26:01Z</time>
      </trkpt>
      <trkpt lat="44.09428" lon="6.85245">
        <ele>814.32</ele>
        <time>2017-06-20T14:26:06Z</time>
      </trkpt>
      <trkpt lat="44.09508" lon="6.852">
        <ele>816.76</ele>
        <time>2017-06-20T14:26:11Z</time>
      </trkpt>
      <trkpt lat="44.09601" lon="6.85137">
        <ele>818.95</ele>
        <time>2017-06-20T14:26:17Z</time>
      </trkpt>
      <trkpt lat="44.09658" lon="6.85065">
        <ele>820.8</ele>
        <time>2017-06-20T14:26:22Z</time>
      </trkpt>
      <trkpt lat="44.09705" lon="6.85">
        <ele>823.71</ele>
        <time>2017-06-20T14:26:27Z</time>
      </trkpt>
      <trkpt lat="44.09762" lon="6.84955">
        <ele>826.68</ele>
        <time>2017-06-20T14:26:32Z</time>
      </trkpt>
      <trkpt lat="44.09817" lon="6.84928">
        <ele>828.44</ele>
        <time>2017-06-20T14:26:37Z</time>
      </trkpt>
      <trkpt lat="44.09879" lon="6.84911">
        <ele>829.91</ele>
        <time>2017-06-20T14:26:42Z</time>
      </trkpt>
      <trkpt lat="44.09968" lon="6.84888">
        <ele>833.23</ele>
        <time>2017-06-20T14:26:47Z</time>
      </trkpt>
      <trkpt lat="44.10039" lon="6.84872">
        <ele>836.28</ele>
        <time>2017-06-20T14:26:52Z</time>
      </trkpt>
      <trkpt lat="44.10091" lon="6.8485">
        <ele>838.32</ele>
        <time>2017-06-20T14:26:57Z</time>
      </trkpt>
      <trkpt lat="44.10171" lon="6.84898">
        <ele>842.49</ele>
        <time>2017-06-20T14:27:02Z</time>
      </trkpt>
      <trkpt lat="44.10269" lon="6.84935">
        <ele>844.8</ele>
        <time>2017-06-20T14:27:08Z</time>
      </trkpt>
      <trkpt lat="44.10361" lon="6.84945">
        <ele>847.69</ele>
        <time>2017-06-20T14:27:13Z</time>
      </trkpt>
      <trkpt lat="44.10403" lon="6.84916">
        <ele>848.39</ele>
        <time>2017-06-20T14:27:18Z</time>
      </trkpt>
      <trkpt lat="44.10426" lon="6.84835">
        <ele>853.45</ele>
        <time>2017-06-20T14:27:23Z</time>
      </trkpt>
      <trkpt lat="44.10484" lon="6.84757">
        <ele>857.39</ele>
        <time>2017-06-20T14:27:28Z</time>
      </trkpt>
      <trkpt lat="44.10534" lon="6.84687">
        <ele>861.66</ele>
        <time>2017-06-20T14:27:33Z</time>
      </trkpt>
      <trkpt lat="44.10584" lon="6.84623">
        <ele>863.8</ele>
        <time>2017-06-20T14:27:38Z</time>
      </trkpt>
      <trkpt lat="44.10624" lon="6.84557">
        <ele>863.96</ele>
        <time>2017-06-20T14:27:43Z</time>
      </trkpt>
      <trkpt lat="44.10651" lon="6.84461">
        <ele>863.58</ele>
        <time>2017-06-20T14:27:48Z</time>
      </trkpt>
      <trkpt lat="44.10675" lon="6.84408">
        <ele>863.34</ele>
        <time>2017-06-20T14:27:53Z</time>
      </trkpt>
      <trkpt lat="44.1067" lon="6.84331">
        <ele>864.46</ele>
        <time>2017-06-20T14:27:58Z</time>
      </trkpt>
      <trkpt lat="44.10705" lon="6.84233">
        <ele>867.67</ele>
        <time>2017-06-20T14:28:03Z</time>
      </trkpt>
      <trkpt lat="44.10722" lon="6.84153">
        <ele>868.38</ele>
        <time>2017-06-20T14:28:08Z</time>
      </trkpt>
      <trkpt lat="44.10741" lon="6.84091">
        <ele>869.48</ele>
        <time>2017-06-20T14:28:13Z</time>
      </trkpt>
      <trkpt lat="44.10768" lon="6.84033">
        <ele>869.65</ele>
        <time>2017-06-20T14:28:18Z</time>
      </trkpt>
      <trkpt lat="44.10786" lon="6.83974">
        <ele>870.57</ele>
        <time>2017-06-20T14:28:23Z</time>
      </trkpt>
      <trkpt lat="44.10794" lon="6.83922">
        <ele>870.56</ele>
        <time>2017-06-20T14:28:28Z</time>
      </trkpt>
      <trkpt lat="44.10813" lon="6.83861">
        <ele>870.54</ele>
        <time>2017-06-20T14:28:33Z</time>
      </trkpt>
      <trkpt lat="44.10851" lon="6.83807">
        <ele>870.83</ele>
        <time>2017-06-20T14:28:38Z</time>
      </trkpt>
      <trkpt lat="44.10907" lon="6.83773">
        <ele>872.06</ele>
        <time>2017-06-20T14:28:43Z</time>
      </trkpt>
      <trkpt lat="44.11004" lon="6.83723">
        <ele>873.5</ele>
        <time>2017-06-20T14:28:48Z</time>
      </trkpt>
      <trkpt lat="44.11095" lon="6.83692">
        <ele>872.38</ele>
        <time>2017-06-20T14:28:53Z</time>
      </trkpt>
      <trkpt lat="44.1118" lon="6.83683">
        <ele>871.78</ele>
        <time>2017-06-20T14:28:58Z</time>
      </trkpt>
      <trkpt lat="44.11223" lon="6.83624">
        <ele>872.14</ele>
        <time>2017-06-20T14:29:03Z</time>
      </trkpt>
      <trkpt lat="44.11211" lon="6.83527">
        <ele>872.56</ele>
        <time>2017-06-20T14:29:08Z</time>
      </trkpt>
      <trkpt lat="44.11124" lon="6.83428">
        <ele>876.8</ele>
        <time>2017-06-20T14:29:13Z</time>
      </trkpt>
      <trkpt lat="44.11033" lon="6.83389">
        <ele>878.92</ele>
        <time>2017-06-20T14:29:18Z</time>
      </trkpt>
      <trkpt lat="44.10945" lon="6.83366">
        <ele>881.95</ele>
        <time>2017-06-20T14:29:23Z</time>
      </trkpt>
      <trkpt lat="44.10897" lon="6.83275">
        <ele>884.83</ele>
        <time>2017-06-20T14:29:28Z</time>
      </trkpt>
      <trkpt lat="44.10878" lon="6.83126">
        <ele>886.57</ele>
        <time>2017-06-20T14:29:33Z</time>
      </trkpt>
      <trkpt lat="44.10889" lon="6.83005">
        <ele>887.71</ele>
        <time>2017-06-20T14:29:38Z</time>
      </trkpt>
      <trkpt lat="44.10877" lon="6.82898">
        <ele>888.91</ele>
        <time>2017-06-20T14:29:43Z</time>
      </trkpt>
      <trkpt lat="44.10885" lon="6.82761">
        <ele>891.25</ele>
        <time>2017-06-20T14:29:48Z</time>
      </trkpt>
      <trkpt lat="44.10914" lon="6.82647">
        <ele>891.52</ele>
        <time>2017-06-20T14:29:53Z</time>
      </trkpt>
      <trkpt lat="44.10909" lon="6.82511">
        <ele>892.61</ele>
        <time>2017-06-20T14:29:58Z</time>
      </trkpt>
      <trkpt lat="44.10918" lon="6.82374">
        <ele>891.48</ele>
        <time>2017-06-20T14:30:03Z</time>
      </trkpt>
      <trkpt lat="44.10968" lon="6.82293">
        <ele>892.14</ele>
        <time>2017-06-20T14:30:08Z</time>
      </trkpt>
      <trkpt lat="44.11027" lon="6.82236">
        <ele>891.88</ele>
        <time>2017-06-20T14:30:13Z</time>
      </trkpt>
      <trkpt lat="44.1107" lon="6.82119">
        <ele>890.55</ele>
        <time>2017-06-20T14:30:18Z</time>
      </trkpt>
      <trkpt lat="44.11125" lon="6.82053">
        <ele>886.66</ele>
        <time>2017-06-20T14:30:23Z</time>
      </trkpt>
      <trkpt lat="44.11191" lon="6.82011">
        <ele>882.41</ele>
        <time>2017-06-20T14:30:28Z</time>
      </trkpt>
      <trkpt lat="44.11188" lon="6.8193">
        <ele>879.59</ele>
        <time>2017-06-20T14:30:33Z</time>
      </trkpt>
      <trkpt lat="44.11225" lon="6.81846">
        <ele>881.63</ele>
        <time>2017-06-20T14:30:38Z</time>
      </trkpt>
      <trkpt lat="44.1131" lon="6.81733">
        <ele>883.46</ele>
        <time>2017-06-20T14:30:43Z</time>
      </trkpt>
      <trkpt lat="44.11366" lon="6.8163">
        <ele>881.94</ele>
        <time>2017-06-20T14:30:48Z</time>
      </trkpt>
      <trkpt lat="44.114" lon="6.8149">
        <ele>883.41</ele>
        <time>2017-06-20T14:30:53Z</time>
      </trkpt>
      <trkpt lat="44.11446" lon="6.81328">
        <ele>887.16</ele>
        <time>2017-06-20T14:30:58Z</time>
      </trkpt>
      <trkpt lat="44.11484" lon="6.81174">
        <ele>894.6</ele>
        <time>2017-06-20T14:31:03Z</time>
      </trkpt>
      <trkpt lat="44.11508" lon="6.8102">
        <ele>900.43</ele>
        <time>2017-06-20T14:31:08Z</time>
      </trkpt>
      <trkpt lat="44.11529" lon="6.809">
        <ele>902.06</ele>
        <time>2017-06-20T14:31:13Z</time>
      </trkpt>
      <trkpt lat="44.1158" lon="6.80795">
        <ele>905.69</ele>
        <time>2017-06-20T14:31:18Z</time>
      </trkpt>
      <trkpt lat="44.11614" lon="6.80672">
        <ele>908.15</ele>
        <time>2017-06-20T14:31:23Z</time>
      </trkpt>
      <trkpt lat="44.11657" lon="6.8057">
        <ele>908.29</ele>
        <time>2017-06-20T14:31:28Z</time>
      </trkpt>
      <trkpt lat="44.11717" lon="6.80465">
        <ele>909.53</ele>
        <time>2017-06-20T14:31:33Z</time>
      </trkpt>
      <trkpt lat="44.11789" lon="6.80407">
        <ele>910.54</ele>
        <time>2017-06-20T14:31:38Z</time>
      </trkpt>
      <trkpt lat="44.11858" lon="6.80364">
        <ele>912.4</ele>
        <time>2017-06-20T14:31:43Z</time>
      </trkpt>
      <trkpt lat="44.11842" lon="6.80284">
        <ele>914.66</ele>
        <time>2017-06-20T14:31:48Z</time>
      </trkpt>
      <trkpt lat="44.11786" lon="6.80229">
        <ele>918.64</ele>
        <time>2017-06-20T14:31:53Z</time>
      </trkpt>
      <trkpt lat="44.11805" lon="6.80139">
        <ele>923.29</ele>
        <time>2017-06-20T14:31:58Z</time>
      </trkpt>
      <trkpt lat="44.11823" lon="6.80053">
        <ele>927.41</ele>
        <time>2017-06-20T14:32:03Z</time>
      </trkpt>
      <trkpt lat="44.11812" lon="6.79951">
        <ele>932.12</ele>
        <time>2017-06-20T14:32:08Z</time>
      </trkpt>
      <trkpt lat="44.11835" lon="6.79817">
        <ele>937.51</ele>
        <time>2017-06-20T14:32:13Z</time>
      </trkpt>
      <trkpt lat="44.11893" lon="6.79715">
        <ele>941.52</ele>
        <time>2017-06-20T14:32:18Z</time>
      </trkpt>
      <trkpt lat="44.11963" lon="6.79628">
        <ele>944.05</ele>
        <time>2017-06-20T14:32:23Z</time>
      </trkpt>
      <trkpt lat="44.11996" lon="6.79586">
        <ele>945.02</ele>
        <time>2017-06-20T14:32:28Z</time>
      </trkpt>
      <trkpt lat="44.12036" lon="6.79519">
        <ele>946.55</ele>
        <time>2017-06-20T14:32:33Z</time>
      </trkpt>
      <trkpt lat="44.12079" lon="6.79469">
        <ele>946.55</ele>
        <time>2017-06-20T14:32:38Z</time>
      </trkpt>
      <trkpt lat="44.12133" lon="6.79382">
        <ele>947.94</ele>
        <time>2017-06-20T14:32:43Z</time>
      </trkpt>
      <trkpt lat="44.12182" lon="6.79304">
        <ele>948.43</ele>
        <time>2017-06-20T14:32:48Z</time>
      </trkpt>
      <trkpt lat="44.12214" lon="6.79226">
        <ele>948.28</ele>
        <time>2017-06-20T14:32:53Z</time>
      </trkpt>
      <trkpt lat="44.12232" lon="6.79136">
        <ele>947.91</ele>
        <time>2017-06-20T14:32:58Z</time>
      </trkpt>
      <trkpt lat="44.12263" lon="6.79039">
        <ele>948.99</ele>
        <time>2017-06-20T14:33:03Z</time>
      </trkpt>
      <trkpt lat="44.12304" lon="6.78929">
        <ele>948.98</ele>
        <time>2017-06-20T14:33:08Z</time>
      </trkpt>
      <trkpt lat="44.12285" lon="6.78835">
        <ele>949</ele>
        <time>2017-06-20T14:33:13Z</time>
      </trkpt>
      <trkpt lat="44.12303" lon="6.78751">
        <ele>948.64</ele>
        <time>2017-06-20T14:33:18Z</time>
      </trkpt>
      <trkpt lat="44.12365" lon="6.78703">
        <ele>949.85</ele>
        <time>2017-06-20T14:33:23Z</time>
      </trkpt>
      <trkpt lat="44.12384" lon="6.7858">
        <ele>949.88</ele>
        <time>2017-06-20T14:33:28Z</time>
      </trkpt>
      <trkpt lat="44.12423" lon="6.78479">
        <ele>952.04</ele>
        <time>2017-06-20T14:33:33Z</time>
      </trkpt>
      <trkpt lat="44.12493" lon="6.78433">
        <ele>954.29</ele>
        <time>2017-06-20T14:33:38Z</time>
      </trkpt>
      <trkpt lat="44.12539" lon="6.78348">
        <ele>956.93</ele>
        <time>2017-06-20T14:33:43Z</time>
      </trkpt>
      <trkpt lat="44.1259" lon="6.78265">
        <ele>958.17</ele>
        <time>2017-06-20T14:33:48Z</time>
      </trkpt>
      <trkpt lat="44.12652" lon="6.78216">
        <ele>960.16</ele>
        <time>2017-06-20T14:33:53Z</time>
      </trkpt>
      <trkpt lat="44.12682" lon="6.78151">
        <ele>962.43</ele>
        <time>2017-06-20T14:33:58Z</time>
      </trkpt>
      <trkpt lat="44.12701" lon="6.78066">
        <ele>965</ele>
        <time>2017-06-20T14:34:03Z</time>
      </trkpt>
      <trkpt lat="44.12729" lon="6.77928">
        <ele>969.31</ele>
        <time>2017-06-20T14:34:08Z</time>
      </trkpt>
      <trkpt lat="44.12749" lon="6.7781">
        <ele>969.81</ele>
        <time>2017-06-20T14:34:13Z</time>
      </trkpt>
      <trkpt lat="44.12798" lon="6.7772">
        <ele>971.61</ele>
        <time>2017-06-20T14:34:18Z</time>
      </trkpt>
      <trkpt lat="44.12866" lon="6.77621">
        <ele>975.5</ele>
        <time>2017-06-20T14:34:23Z</time>
      </trkpt>
      <trkpt lat="44.12931" lon="6.77522">
        <ele>976.71</ele>
        <time>2017-06-20T14:34:28Z</time>
      </trkpt>
      <trkpt lat="44.12957" lon="6.77423">
        <ele>977.81</ele>
        <time>2017-06-20T14:34:33Z</time>
      </trkpt>
      <trkpt lat="44.1302" lon="6.77381">
        <ele>981.68</ele>
        <time>2017-06-20T14:34:38Z</time>
      </trkpt>
      <trkpt lat="44.13122" lon="6.77389">
        <ele>985.41</ele>
        <time>2017-06-20T14:34:43Z</time>
      </trkpt>
      <trkpt lat="44.13204" lon="6.77321">
        <ele>988.33</ele>
        <time>2017-06-20T14:34:48Z</time>
      </trkpt>
      <trkpt lat="44.13265" lon="6.77191">
        <ele>992.96</ele>
        <time>2017-06-20T14:34:53Z</time>
      </trkpt>
      <trkpt lat="44.1332" lon="6.7706">
        <ele>996.61</ele>
        <time>2017-06-20T14:34:58Z</time>
      </trkpt>
      <trkpt lat="44.13365" lon="6.76963">
        <ele>996.14</ele>
        <time>2017-06-20T14:35:03Z</time>
      </trkpt>
      <trkpt lat="44.13432" lon="6.76926">
        <ele>997.65</ele>
        <time>2017-06-20T14:35:08Z</time>
      </trkpt>
      <trkpt lat="44.1353" lon="6.76862">
        <ele>999.38</ele>
        <time>2017-06-20T14:35:13Z</time>
      </trkpt>
      <trkpt lat="44.13612" lon="6.76806">
        <ele>998.69</ele>
        <time>2017-06-20T14:35:18Z</time>
      </trkpt>
      <trkpt lat="44.1367" lon="6.76711">
        <ele>1000.27</ele>
        <time>2017-06-20T14:35:23Z</time>
      </trkpt>
      <trkpt lat="44.13725" lon="6.76596">
        <ele>1003.39</ele>
        <time>2017-06-20T14:35:28Z</time>
      </trkpt>
      <trkpt lat="44.13814" lon="6.76501">
        <ele>1007.48</ele>
        <time>2017-06-20T14:35:33Z</time>
      </trkpt>
      <trkpt lat="44.13916" lon="6.76417">
        <ele>1010.14</ele>
        <time>2017-06-20T14:35:38Z</time>
      </trkpt>
      <trkpt lat="44.13994" lon="6.76344">
        <ele>1012.64</ele>
        <time>2017-06-20T14:35:43Z</time>
      </trkpt>
      <trkpt lat="44.14041" lon="6.76298">
        <ele>1014.53</ele>
        <time>2017-06-20T14:35:48Z</time>
      </trkpt>
      <trkpt lat="44.14039" lon="6.76207">
        <ele>1018.17</ele>
        <time>2017-06-20T14:35:53Z</time>
      </trkpt>
      <trkpt lat="44.14096" lon="6.76125">
        <ele>1022.06</ele>
        <time>2017-06-20T14:35:58Z</time>
      </trkpt>
      <trkpt lat="44.14163" lon="6.76082">
        <ele>1025.82</ele>
        <time>2017-06-20T14:36:03Z</time>
      </trkpt>
      <trkpt lat="44.14205" lon="6.76036">
        <ele>1028.41</ele>
        <time>2017-06-20T14:36:08Z</time>
      </trkpt>
      <trkpt lat="44.14243" lon="6.76079">
        <ele>1029.03</ele>
        <time>2017-06-20T14:36:13Z</time>
      </trkpt>
      <trkpt lat="44.14215" lon="6.76162">
        <ele>1032.27</ele>
        <time>2017-06-20T14:36:18Z</time>
      </trkpt>
      <trkpt lat="44.14162" lon="6.76222">
        <ele>1035.55</ele>
        <time>2017-06-20T14:36:23Z</time>
      </trkpt>
      <trkpt lat="44.14142" lon="6.76264">
        <ele>1036.12</ele>
        <time>2017-06-20T14:36:28Z</time>
      </trkpt>
      <trkpt lat="44.14162" lon="6.76241">
        <ele>1037.13</ele>
        <time>2017-06-20T14:36:33Z</time>
      </trkpt>
      <trkpt lat="44.14195" lon="6.76192">
        <ele>1037.09</ele>
        <time>2017-06-20T14:36:38Z</time>
      </trkpt>
      <trkpt lat="44.14231" lon="6.76156">
        <ele>1037.73</ele>
        <time>2017-06-20T14:36:43Z</time>
      </trkpt>
      <trkpt lat="44.14253" lon="6.76132">
        <ele>1037.45</ele>
        <time>2017-06-20T14:36:48Z</time>
      </trkpt>
      <trkpt lat="44.14293" lon="6.76115">
        <ele>1038.32</ele>
        <time>2017-06-20T14:36:53Z</time>
      </trkpt>
      <trkpt lat="44.1435" lon="6.76042">
        <ele>1040.81</ele>
        <time>2017-06-20T14:36:58Z</time>
      </trkpt>
      <trkpt lat="44.14428" lon="6.75953">
        <ele>1044.51</ele>
        <time>2017-06-20T14:37:03Z</time>
      </trkpt>
      <trkpt lat="44.14501" lon="6.75842">
        <ele>1047.5</ele>
        <time>2017-06-20T14:37:08Z</time>
      </trkpt>
      <trkpt lat="44.14564" lon="6.75773">
        <ele>1050.33</ele>
        <time>2017-06-20T14:37:13Z</time>
      </trkpt>
      <trkpt lat="44.14675" lon="6.75721">
        <ele>1055.19</ele>
        <time>2017-06-20T14:37:18Z</time>
      </trkpt>
      <trkpt lat="44.14759" lon="6.75724">
        <ele>1057.89</ele>
        <time>2017-06-20T14:37:23Z</time>
      </trkpt>
      <trkpt lat="44.14864" lon="6.75701">
        <ele>1061.86</ele>
        <time>2017-06-20T14:37:28Z</time>
      </trkpt>
      <trkpt lat="44.14966" lon="6.75646">
        <ele>1065.77</ele>
        <time>2017-06-20T14:37:33Z</time>
      </trkpt>
      <trkpt lat="44.15052" lon="6.75632">
        <ele>1067.3</ele>
        <time>2017-06-20T14:37:38Z</time>
      </trkpt>
      <trkpt lat="44.15113" lon="6.75663">
        <ele>1069.97</ele>
        <time>2017-06-20T14:37:43Z</time>
      </trkpt>
      <trkpt lat="44.1522" lon="6.75633">
        <ele>1074.75</ele>
        <time>2017-06-20T14:37:48Z</time>
      </trkpt>
      <trkpt lat="44.15333" lon="6.7563">
        <ele>1076.74</ele>
        <time>2017-06-20T14:37:53Z</time>
      </trkpt>
      <trkpt lat="44.15434" lon="6.75669">
        <ele>1079.88</ele>
        <time>2017-06-20T14:37:58Z</time>
      </trkpt>
      <trkpt lat="44.15517" lon="6.75711">
        <ele>1082.04</ele>
        <time>2017-06-20T14:38:03Z</time>
      </trkpt>
      <trkpt lat="44.15589" lon="6.75701">
        <ele>1084.71</ele>
        <time>2017-06-20T14:38:08Z</time>
      </trkpt>
      <trkpt lat="44.15849" lon="6.75744">
        <ele>1094.18</ele>
        <time>2017-06-20T14:38:24Z</time>
      </trkpt>
      <trkpt lat="44.15925" lon="6.75745">
        <ele>1101.52</ele>
        <time>2017-06-20T14:38:29Z</time>
      </trkpt>
      <trkpt lat="44.16005" lon="6.75741">
        <ele>1105.8</ele>
        <time>2017-06-20T14:38:34Z</time>
      </trkpt>
      <trkpt lat="44.16055" lon="6.75693">
        <ele>1109.17</ele>
        <time>2017-06-20T14:38:39Z</time>
      </trkpt>
      <trkpt lat="44.16126" lon="6.75616">
        <ele>1113.52</ele>
        <time>2017-06-20T14:38:44Z</time>
      </trkpt>
      <trkpt lat="44.16209" lon="6.7556">
        <ele>1116.52</ele>
        <time>2017-06-20T14:38:49Z</time>
      </trkpt>
      <trkpt lat="44.16281" lon="6.75513">
        <ele>1118.52</ele>
        <time>2017-06-20T14:38:54Z</time>
      </trkpt>
      <trkpt lat="44.16282" lon="6.75413">
        <ele>1121.66</ele>
        <time>2017-06-20T14:38:59Z</time>
      </trkpt>
      <trkpt lat="44.16296" lon="6.75346">
        <ele>1122.9</ele>
        <time>2017-06-20T14:39:04Z</time>
      </trkpt>
      <trkpt lat="44.16346" lon="6.75391">
        <ele>1125.45</ele>
        <time>2017-06-20T14:39:09Z</time>
      </trkpt>
      <trkpt lat="44.16423" lon="6.75374">
        <ele>1130.48</ele>
        <time>2017-06-20T14:39:14Z</time>
      </trkpt>
      <trkpt lat="44.16558" lon="6.75328">
        <ele>1137.7</ele>
        <time>2017-06-20T14:39:19Z</time>
      </trkpt>
      <trkpt lat="44.16646" lon="6.75272">
        <ele>1140.67</ele>
        <time>2017-06-20T14:39:24Z</time>
      </trkpt>
      <trkpt lat="44.16736" lon="6.75199">
        <ele>1144.84</ele>
        <time>2017-06-20T14:39:29Z</time>
      </trkpt>
      <trkpt lat="44.16836" lon="6.75156">
        <ele>1149.68</ele>
        <time>2017-06-20T14:39:34Z</time>
      </trkpt>
      <trkpt lat="44.16951" lon="6.75146">
        <ele>1153.87</ele>
        <time>2017-06-20T14:39:39Z</time>
      </trkpt>
      <trkpt lat="44.17049" lon="6.75132">
        <ele>1158.56</ele>
        <time>2017-06-20T14:39:44Z</time>
      </trkpt>
      <trkpt lat="44.17127" lon="6.75091">
        <ele>1162</ele>
        <time>2017-06-20T14:39:49Z</time>
      </trkpt>
      <trkpt lat="44.17203" lon="6.75017">
        <ele>1165.74</ele>
        <time>2017-06-20T14:39:54Z</time>
      </trkpt>
      <trkpt lat="44.17277" lon="6.74984">
        <ele>1168.84</ele>
        <time>2017-06-20T14:39:59Z</time>
      </trkpt>
      <trkpt lat="44.17357" lon="6.75022">
        <ele>1173.19</ele>
        <time>2017-06-20T14:40:04Z</time>
      </trkpt>
      <trkpt lat="44.17432" lon="6.75005">
        <ele>1177.62</ele>
        <time>2017-06-20T14:40:09Z</time>
      </trkpt>
      <trkpt lat="44.17495" lon="6.74942">
        <ele>1182.26</ele>
        <time>2017-06-20T14:40:14Z</time>
      </trkpt>
      <trkpt lat="44.17575" lon="6.74916">
        <ele>1185.99</ele>
        <time>2017-06-20T14:40:19Z</time>
      </trkpt>
      <trkpt lat="44.17664" lon="6.74863">
        <ele>1188.66</ele>
        <time>2017-06-20T14:40:24Z</time>
      </trkpt>
      <trkpt lat="44.17736" lon="6.74822">
        <ele>1191.73</ele>
        <time>2017-06-20T14:40:29Z</time>
      </trkpt>
      <trkpt lat="44.17788" lon="6.74837">
        <ele>1192.72</ele>
        <time>2017-06-20T14:40:34Z</time>
      </trkpt>
      <trkpt lat="44.17834" lon="6.74899">
        <ele>1194.85</ele>
        <time>2017-06-20T14:40:39Z</time>
      </trkpt>
      <trkpt lat="44.17935" lon="6.74894">
        <ele>1198.72</ele>
        <time>2017-06-20T14:40:44Z</time>
      </trkpt>
      <trkpt lat="44.18028" lon="6.74901">
        <ele>1201.63</ele>
        <time>2017-06-20T14:40:49Z</time>
      </trkpt>
      <trkpt lat="44.1811" lon="6.74861">
        <ele>1203.1</ele>
        <time>2017-06-20T14:40:54Z</time>
      </trkpt>
      <trkpt lat="44.1817" lon="6.74822">
        <ele>1204.31</ele>
        <time>2017-06-20T14:40:59Z</time>
      </trkpt>
      <trkpt lat="44.18227" lon="6.74828">
        <ele>1206.35</ele>
        <time>2017-06-20T14:41:04Z</time>
      </trkpt>
      <trkpt lat="44.18289" lon="6.74871">
        <ele>1208.54</ele>
        <time>2017-06-20T14:41:09Z</time>
      </trkpt>
      <trkpt lat="44.18354" lon="6.7491">
        <ele>1210.62</ele>
        <time>2017-06-20T14:41:14Z</time>
      </trkpt>
      <trkpt lat="44.18423" lon="6.7491">
        <ele>1213.87</ele>
        <time>2017-06-20T14:41:19Z</time>
      </trkpt>
      <trkpt lat="44.18524" lon="6.74866">
        <ele>1219.09</ele>
        <time>2017-06-20T14:41:24Z</time>
      </trkpt>
      <trkpt lat="44.18623" lon="6.74817">
        <ele>1223.41</ele>
        <time>2017-06-20T14:41:29Z</time>
      </trkpt>
      <trkpt lat="44.18692" lon="6.74777">
        <ele>1224.72</ele>
        <time>2017-06-20T14:41:34Z</time>
      </trkpt>
      <trkpt lat="44.18747" lon="6.74788">
        <ele>1226.11</ele>
        <time>2017-06-20T14:41:39Z</time>
      </trkpt>
      <trkpt lat="44.18787" lon="6.74831">
        <ele>1227.47</ele>
        <time>2017-06-20T14:41:44Z</time>
      </trkpt>
      <trkpt lat="44.18835" lon="6.74864">
        <ele>1230.85</ele>
        <time>2017-06-20T14:41:49Z</time>
      </trkpt>
      <trkpt lat="44.18892" lon="6.74885">
        <ele>1233.43</ele>
        <time>2017-06-20T14:41:54Z</time>
      </trkpt>
      <trkpt lat="44.18919" lon="6.74898">
        <ele>1235.36</ele>
        <time>2017-06-20T14:41:59Z</time>
      </trkpt>
      <trkpt lat="44.18942" lon="6.74906">
        <ele>1237.57</ele>
        <time>2017-06-20T14:42:37Z</time>
      </trkpt>
      <trkpt lat="44.18993" lon="6.749">
        <ele>1241.59</ele>
        <time>2017-06-20T14:42:42Z</time>
      </trkpt>
      <trkpt lat="44.19066" lon="6.74857">
        <ele>1248.7</ele>
        <time>2017-06-20T14:42:47Z</time>
      </trkpt>
      <trkpt lat="44.19133" lon="6.74803">
        <ele>1254.33</ele>
        <time>2017-06-20T14:42:52Z</time>
      </trkpt>
      <trkpt lat="44.19179" lon="6.74759">
        <ele>1258.93</ele>
        <time>2017-06-20T14:42:57Z</time>
      </trkpt>
      <trkpt lat="44.19255" lon="6.74757">
        <ele>1266.09</ele>
        <time>2017-06-20T14:43:02Z</time>
      </trkpt>
      <trkpt lat="44.19308" lon="6.74705">
        <ele>1271.59</ele>
        <time>2017-06-20T14:43:07Z</time>
      </trkpt>
      <trkpt lat="44.19381" lon="6.74649">
        <ele>1278.95</ele>
        <time>2017-06-20T14:43:12Z</time>
      </trkpt>
      <trkpt lat="44.19434" lon="6.7464">
        <ele>1284.67</ele>
        <time>2017-06-20T14:43:17Z</time>
      </trkpt>
      <trkpt lat="44.1949" lon="6.74629">
        <ele>1288.82</ele>
        <time>2017-06-20T14:43:22Z</time>
      </trkpt>
      <trkpt lat="44.19522" lon="6.7466">
        <ele>1292.36</ele>
        <time>2017-06-20T14:43:27Z</time>
      </trkpt>
      <trkpt lat="44.19542" lon="6.74598">
        <ele>1296.42</ele>
        <time>2017-06-20T14:43:32Z</time>
      </trkpt>
      <trkpt lat="44.19577" lon="6.74595">
        <ele>1300.27</ele>
        <time>2017-06-20T14:43:37Z</time>
      </trkpt>
      <trkpt lat="44.19631" lon="6.74641">
        <ele>1304.85</ele>
        <time>2017-06-20T14:43:42Z</time>
      </trkpt>
      <trkpt lat="44.19598" lon="6.74635">
        <ele>1310.62</ele>
        <time>2017-06-20T14:43:51Z</time>
      </trkpt>
      <trkpt lat="44.19554" lon="6.74644">
        <ele>1314.19</ele>
        <time>2017-06-20T14:43:56Z</time>
      </trkpt>
      <trkpt lat="44.1955" lon="6.74733">
        <ele>1319.63</ele>
        <time>2017-06-20T14:44:01Z</time>
      </trkpt>
      <trkpt lat="44.19514" lon="6.74765">
        <ele>1324.14</ele>
        <time>2017-06-20T14:44:06Z</time>
      </trkpt>
      <trkpt lat="44.19445" lon="6.74775">
        <ele>1330.69</ele>
        <time>2017-06-20T14:44:11Z</time>
      </trkpt>
      <trkpt lat="44.19398" lon="6.74816">
        <ele>1334.44</ele>
        <time>2017-06-20T14:44:16Z</time>
      </trkpt>
      <trkpt lat="44.19436" lon="6.74822">
        <ele>1336.65</ele>
        <time>2017-06-20T14:44:21Z</time>
      </trkpt>
      <trkpt lat="44.19483" lon="6.74819">
        <ele>1341.09</ele>
        <time>2017-06-20T14:44:26Z</time>
      </trkpt>
      <trkpt lat="44.19495" lon="6.74905">
        <ele>1346.96</ele>
        <time>2017-06-20T14:44:31Z</time>
      </trkpt>
      <trkpt lat="44.19522" lon="6.7495">
        <ele>1350.27</ele>
        <time>2017-06-20T14:44:36Z</time>
      </trkpt>
      <trkpt lat="44.19562" lon="6.749">
        <ele>1354.88</ele>
        <time>2017-06-20T14:44:41Z</time>
      </trkpt>
      <trkpt lat="44.19607" lon="6.74841">
        <ele>1359.49</ele>
        <time>2017-06-20T14:44:46Z</time>
      </trkpt>
      <trkpt lat="44.19636" lon="6.74845">
        <ele>1362.58</ele>
        <time>2017-06-20T14:44:51Z</time>
      </trkpt>
      <trkpt lat="44.19661" lon="6.74906">
        <ele>1366.64</ele>
        <time>2017-06-20T14:44:56Z</time>
      </trkpt>
      <trkpt lat="44.19705" lon="6.74923">
        <ele>1371.58</ele>
        <time>2017-06-20T14:45:01Z</time>
      </trkpt>
      <trkpt lat="44.19753" lon="6.74873">
        <ele>1376.49</ele>
        <time>2017-06-20T14:45:06Z</time>
      </trkpt>
      <trkpt lat="44.19796" lon="6.74887">
        <ele>1382.03</ele>
        <time>2017-06-20T14:45:11Z</time>
      </trkpt>
      <trkpt lat="44.19838" lon="6.74934">
        <ele>1388.35</ele>
        <time>2017-06-20T14:45:16Z</time>
      </trkpt>
      <trkpt lat="44.19864" lon="6.74868">
        <ele>1392.35</ele>
        <time>2017-06-20T14:45:21Z</time>
      </trkpt>
      <trkpt lat="44.19921" lon="6.74831">
        <ele>1397.92</ele>
        <time>2017-06-20T14:45:26Z</time>
      </trkpt>
      <trkpt lat="44.20016" lon="6.74813">
        <ele>1405.79</ele>
        <time>2017-06-20T14:45:31Z</time>
      </trkpt>
      <trkpt lat="44.20086" lon="6.74764">
        <ele>1412.06</ele>
        <time>2017-06-20T14:45:36Z</time>
      </trkpt>
      <trkpt lat="44.20132" lon="6.74732">
        <ele>1416.36</ele>
        <time>2017-06-20T14:45:41Z</time>
      </trkpt>
      <trkpt lat="44.20195" lon="6.74704">
        <ele>1422.03</ele>
        <time>2017-06-20T14:45:46Z</time>
      </trkpt>
      <trkpt lat="44.20233" lon="6.74657">
        <ele>1426.05</ele>
        <time>2017-06-20T14:45:51Z</time>
      </trkpt>
      <trkpt lat="44.2028" lon="6.74659">
        <ele>1430.21</ele>
        <time>2017-06-20T14:45:56Z</time>
      </trkpt>
      <trkpt lat="44.20356" lon="6.74675">
        <ele>1436.71</ele>
        <time>2017-06-20T14:46:01Z</time>
      </trkpt>
      <trkpt lat="44.20394" lon="6.74612">
        <ele>1442.42</ele>
        <time>2017-06-20T14:46:06Z</time>
      </trkpt>
      <trkpt lat="44.20421" lon="6.74576">
        <ele>1446.03</ele>
        <time>2017-06-20T14:46:11Z</time>
      </trkpt>
      <trkpt lat="44.20467" lon="6.74621">
        <ele>1451.46</ele>
        <time>2017-06-20T14:46:16Z</time>
      </trkpt>
      <trkpt lat="44.20548" lon="6.746">
        <ele>1458.45</ele>
        <time>2017-06-20T14:46:21Z</time>
      </trkpt>
      <trkpt lat="44.20612" lon="6.74572">
        <ele>1464</ele>
        <time>2017-06-20T14:46:26Z</time>
      </trkpt>
      <trkpt lat="44.20676" lon="6.74567">
        <ele>1469.64</ele>
        <time>2017-06-20T14:46:31Z</time>
      </trkpt>
      <trkpt lat="44.20721" lon="6.74606">
        <ele>1473.97</ele>
        <time>2017-06-20T14:46:36Z</time>
      </trkpt>
      <trkpt lat="44.20777" lon="6.74592">
        <ele>1479.67</ele>
        <time>2017-06-20T14:46:41Z</time>
      </trkpt>
      <trkpt lat="44.20841" lon="6.7452">
        <ele>1486.1</ele>
        <time>2017-06-20T14:46:46Z</time>
      </trkpt>
      <trkpt lat="44.20888" lon="6.74464">
        <ele>1490.53</ele>
        <time>2017-06-20T14:46:51Z</time>
      </trkpt>
      <trkpt lat="44.20933" lon="6.74487">
        <ele>1495.1</ele>
        <time>2017-06-20T14:46:56Z</time>
      </trkpt>
      <trkpt lat="44.20964" lon="6.74543">
        <ele>1499.24</ele>
        <time>2017-06-20T14:47:01Z</time>
      </trkpt>
      <trkpt lat="44.20997" lon="6.74612">
        <ele>1504.33</ele>
        <time>2017-06-20T14:47:06Z</time>
      </trkpt>
      <trkpt lat="44.21038" lon="6.74666">
        <ele>1508.05</ele>
        <time>2017-06-20T14:47:11Z</time>
      </trkpt>
      <trkpt lat="44.21098" lon="6.74661">
        <ele>1513.57</ele>
        <time>2017-06-20T14:47:16Z</time>
      </trkpt>
      <trkpt lat="44.21136" lon="6.74708">
        <ele>1518.63</ele>
        <time>2017-06-20T14:47:21Z</time>
      </trkpt>
      <trkpt lat="44.21207" lon="6.7472">
        <ele>1524.13</ele>
        <time>2017-06-20T14:47:26Z</time>
      </trkpt>
      <trkpt lat="44.21281" lon="6.74739">
        <ele>1527.05</ele>
        <time>2017-06-20T14:47:31Z</time>
      </trkpt>
      <trkpt lat="44.21331" lon="6.74771">
        <ele>1528.59</ele>
        <time>2017-06-20T14:47:36Z</time>
      </trkpt>
      <trkpt lat="44.21409" lon="6.74776">
        <ele>1530.67</ele>
        <time>2017-06-20T14:47:41Z</time>
      </trkpt>
      <trkpt lat="44.2149" lon="6.74777">
        <ele>1531.59</ele>
        <time>2017-06-20T14:47:46Z</time>
      </trkpt>
      <trkpt lat="44.21564" lon="6.7482">
        <ele>1533.66</ele>
        <time>2017-06-20T14:47:51Z</time>
      </trkpt>
      <trkpt lat="44.21608" lon="6.74873">
        <ele>1533.76</ele>
        <time>2017-06-20T14:47:56Z</time>
      </trkpt>
      <trkpt lat="44.21652" lon="6.74913">
        <ele>1535.66</ele>
        <time>2017-06-20T14:48:01Z</time>
      </trkpt>
      <trkpt lat="44.21734" lon="6.74891">
        <ele>1537.27</ele>
        <time>2017-06-20T14:48:06Z</time>
      </trkpt>
      <trkpt lat="44.21811" lon="6.74836">
        <ele>1538.25</ele>
        <time>2017-06-20T14:48:14Z</time>
      </trkpt>
      <trkpt lat="44.21854" lon="6.74804">
        <ele>1538.98</ele>
        <time>2017-06-20T14:48:19Z</time>
      </trkpt>
      <trkpt lat="44.21906" lon="6.74803">
        <ele>1541.84</ele>
        <time>2017-06-20T14:48:24Z</time>
      </trkpt>
      <trkpt lat="44.21953" lon="6.74789">
        <ele>1543.47</ele>
        <time>2017-06-20T14:48:29Z</time>
      </trkpt>
      <trkpt lat="44.21987" lon="6.74703">
        <ele>1548.8</ele>
        <time>2017-06-20T14:48:34Z</time>
      </trkpt>
      <trkpt lat="44.21982" lon="6.74617">
        <ele>1553.64</ele>
        <time>2017-06-20T14:48:39Z</time>
      </trkpt>
      <trkpt lat="44.21926" lon="6.74567">
        <ele>1560.55</ele>
        <time>2017-06-20T14:48:44Z</time>
      </trkpt>
      <trkpt lat="44.21887" lon="6.74553">
        <ele>1563.44</ele>
        <time>2017-06-20T14:48:49Z</time>
      </trkpt>
      <trkpt lat="44.2191" lon="6.74556">
        <ele>1567.58</ele>
        <time>2017-06-20T14:50:23Z</time>
      </trkpt>
      <trkpt lat="44.21939" lon="6.74559">
        <ele>1568.98</ele>
        <time>2017-06-20T14:50:29Z</time>
      </trkpt>
      <trkpt lat="44.21988" lon="6.74567">
        <ele>1571.23</ele>
        <time>2017-06-20T14:50:34Z</time>
      </trkpt>
      <trkpt lat="44.22039" lon="6.74622">
        <ele>1576.95</ele>
        <time>2017-06-20T14:50:39Z</time>
      </trkpt>
      <trkpt lat="44.22075" lon="6.74701">
        <ele>1582.81</ele>
        <time>2017-06-20T14:50:44Z</time>
      </trkpt>
      <trkpt lat="44.22123" lon="6.74778">
        <ele>1589.2</ele>
        <time>2017-06-20T14:50:49Z</time>
      </trkpt>
      <trkpt lat="44.22196" lon="6.74824">
        <ele>1595.11</ele>
        <time>2017-06-20T14:50:54Z</time>
      </trkpt>
      <trkpt lat="44.22286" lon="6.74834">
        <ele>1603.14</ele>
        <time>2017-06-20T14:50:59Z</time>
      </trkpt>
      <trkpt lat="44.22382" lon="6.74824">
        <ele>1610.9</ele>
        <time>2017-06-20T14:51:04Z</time>
      </trkpt>
      <trkpt lat="44.22466" lon="6.74827">
        <ele>1617.96</ele>
        <time>2017-06-20T14:51:09Z</time>
      </trkpt>
      <trkpt lat="44.22517" lon="6.7485">
        <ele>1622.53</ele>
        <time>2017-06-20T14:51:14Z</time>
      </trkpt>
      <trkpt lat="44.22577" lon="6.7485">
        <ele>1628.43</ele>
        <time>2017-06-20T14:51:19Z</time>
      </trkpt>
      <trkpt lat="44.22647" lon="6.74874">
        <ele>1635.07</ele>
        <time>2017-06-20T14:51:24Z</time>
      </trkpt>
      <trkpt lat="44.22718" lon="6.74868">
        <ele>1640.46</ele>
        <time>2017-06-20T14:51:29Z</time>
      </trkpt>
      <trkpt lat="44.22775" lon="6.74881">
        <ele>1644.4</ele>
        <time>2017-06-20T14:51:34Z</time>
      </trkpt>
      <trkpt lat="44.22836" lon="6.74879">
        <ele>1650</ele>
        <time>2017-06-20T14:51:39Z</time>
      </trkpt>
      <trkpt lat="44.22896" lon="6.749">
        <ele>1655.88</ele>
        <time>2017-06-20T14:51:44Z</time>
      </trkpt>
      <trkpt lat="44.22977" lon="6.74876">
        <ele>1663.39</ele>
        <time>2017-06-20T14:51:49Z</time>
      </trkpt>
      <trkpt lat="44.2304" lon="6.7489">
        <ele>1669.14</ele>
        <time>2017-06-20T14:51:54Z</time>
      </trkpt>
      <trkpt lat="44.23067" lon="6.74964">
        <ele>1673.72</ele>
        <time>2017-06-20T14:51:59Z</time>
      </trkpt>
      <trkpt lat="44.23111" lon="6.74988">
        <ele>1678.25</ele>
        <time>2017-06-20T14:52:04Z</time>
      </trkpt>
      <trkpt lat="44.2315" lon="6.7505">
        <ele>1683.76</ele>
        <time>2017-06-20T14:52:09Z</time>
      </trkpt>
      <trkpt lat="44.23176" lon="6.75111">
        <ele>1688.61</ele>
        <time>2017-06-20T14:52:14Z</time>
      </trkpt>
      <trkpt lat="44.23242" lon="6.75114">
        <ele>1694.19</ele>
        <time>2017-06-20T14:52:19Z</time>
      </trkpt>
      <trkpt lat="44.23269" lon="6.75187">
        <ele>1700.27</ele>
        <time>2017-06-20T14:52:24Z</time>
      </trkpt>
      <trkpt lat="44.23341" lon="6.75234">
        <ele>1706.6</ele>
        <time>2017-06-20T14:52:29Z</time>
      </trkpt>
      <trkpt lat="44.23425" lon="6.75252">
        <ele>1712.36</ele>
        <time>2017-06-20T14:52:34Z</time>
      </trkpt>
      <trkpt lat="44.23481" lon="6.75249">
        <ele>1715.79</ele>
        <time>2017-06-20T14:52:39Z</time>
      </trkpt>
      <trkpt lat="44.23518" lon="6.75227">
        <ele>1717.08</ele>
        <time>2017-06-20T14:52:44Z</time>
      </trkpt>
      <trkpt lat="44.23557" lon="6.7516">
        <ele>1718.58</ele>
        <time>2017-06-20T14:52:49Z</time>
      </trkpt>
      <trkpt lat="44.23608" lon="6.75111">
        <ele>1720.32</ele>
        <time>2017-06-20T14:52:54Z</time>
      </trkpt>
      <trkpt lat="44.23679" lon="6.75142">
        <ele>1725.22</ele>
        <time>2017-06-20T14:52:59Z</time>
      </trkpt>
      <trkpt lat="44.2375" lon="6.75166">
        <ele>1728.88</ele>
        <time>2017-06-20T14:53:04Z</time>
      </trkpt>
      <trkpt lat="44.23815" lon="6.7514">
        <ele>1733.3</ele>
        <time>2017-06-20T14:53:09Z</time>
      </trkpt>
      <trkpt lat="44.23873" lon="6.75118">
        <ele>1736.88</ele>
        <time>2017-06-20T14:53:14Z</time>
      </trkpt>
      <trkpt lat="44.23916" lon="6.75162">
        <ele>1740.73</ele>
        <time>2017-06-20T14:53:19Z</time>
      </trkpt>
      <trkpt lat="44.23945" lon="6.75174">
        <ele>1742.86</ele>
        <time>2017-06-20T14:53:24Z</time>
      </trkpt>
      <trkpt lat="44.23974" lon="6.75182">
        <ele>1745.85</ele>
        <time>2017-06-20T14:55:05Z</time>
      </trkpt>
      <trkpt lat="44.24028" lon="6.75196">
        <ele>1750.48</ele>
        <time>2017-06-20T14:55:10Z</time>
      </trkpt>
      <trkpt lat="44.24096" lon="6.75238">
        <ele>1756.16</ele>
        <time>2017-06-20T14:55:15Z</time>
      </trkpt>
      <trkpt lat="44.24181" lon="6.75238">
        <ele>1763.99</ele>
        <time>2017-06-20T14:55:20Z</time>
      </trkpt>
      <trkpt lat="44.24238" lon="6.75305">
        <ele>1769.43</ele>
        <time>2017-06-20T14:55:25Z</time>
      </trkpt>
      <trkpt lat="44.24283" lon="6.75451">
        <ele>1778.68</ele>
        <time>2017-06-20T14:55:30Z</time>
      </trkpt>
      <trkpt lat="44.24324" lon="6.75589">
        <ele>1787.62</ele>
        <time>2017-06-20T14:55:35Z</time>
      </trkpt>
      <trkpt lat="44.24367" lon="6.7568">
        <ele>1793.99</ele>
        <time>2017-06-20T14:55:40Z</time>
      </trkpt>
      <trkpt lat="44.24448" lon="6.7572">
        <ele>1801.5</ele>
        <time>2017-06-20T14:55:45Z</time>
      </trkpt>
      <trkpt lat="44.24491" lon="6.75715">
        <ele>1803.66</ele>
        <time>2017-06-20T14:55:50Z</time>
      </trkpt>
      <trkpt lat="44.24454" lon="6.75669">
        <ele>1806.82</ele>
        <time>2017-06-20T14:55:55Z</time>
      </trkpt>
      <trkpt lat="44.2444" lon="6.7561">
        <ele>1810.1</ele>
        <time>2017-06-20T14:56:00Z</time>
      </trkpt>
      <trkpt lat="44.2446" lon="6.75525">
        <ele>1814.19</ele>
        <time>2017-06-20T14:56:05Z</time>
      </trkpt>
      <trkpt lat="44.24419" lon="6.75437">
        <ele>1819.22</ele>
        <time>2017-06-20T14:56:10Z</time>
      </trkpt>
      <trkpt lat="44.24404" lon="6.75406">
        <ele>1820</ele>
        <time>2017-06-20T14:56:15Z</time>
      </trkpt>
      <trkpt lat="44.24423" lon="6.75432">
        <ele>1821.73</ele>
        <time>2017-06-20T14:58:51Z</time>
      </trkpt>
      <trkpt lat="44.24466" lon="6.75485">
        <ele>1826.33</ele>
        <time>2017-06-20T14:58:56Z</time>
      </trkpt>
      <trkpt lat="44.24546" lon="6.75539">
        <ele>1834.3</ele>
        <time>2017-06-20T14:59:01Z</time>
      </trkpt>
      <trkpt lat="44.24623" lon="6.75599">
        <ele>1841.72</ele>
        <time>2017-06-20T14:59:06Z</time>
      </trkpt>
      <trkpt lat="44.24666" lon="6.7566">
        <ele>1847.19</ele>
        <time>2017-06-20T14:59:11Z</time>
      </trkpt>
      <trkpt lat="44.24682" lon="6.75778">
        <ele>1853.62</ele>
        <time>2017-06-20T14:59:16Z</time>
      </trkpt>
      <trkpt lat="44.24692" lon="6.75901">
        <ele>1860.8</ele>
        <time>2017-06-20T14:59:21Z</time>
      </trkpt>
      <trkpt lat="44.24703" lon="6.75975">
        <ele>1865.67</ele>
        <time>2017-06-20T14:59:26Z</time>
      </trkpt>
      <trkpt lat="44.24754" lon="6.7602">
        <ele>1870.93</ele>
        <time>2017-06-20T14:59:31Z</time>
      </trkpt>
      <trkpt lat="44.24811" lon="6.76082">
        <ele>1876.9</ele>
        <time>2017-06-20T14:59:36Z</time>
      </trkpt>
      <trkpt lat="44.24849" lon="6.76179">
        <ele>1883.17</ele>
        <time>2017-06-20T14:59:41Z</time>
      </trkpt>
      <trkpt lat="44.24875" lon="6.76289">
        <ele>1890.81</ele>
        <time>2017-06-20T14:59:46Z</time>
      </trkpt>
      <trkpt lat="44.24912" lon="6.76377">
        <ele>1897.47</ele>
        <time>2017-06-20T14:59:51Z</time>
      </trkpt>
      <trkpt lat="44.24943" lon="6.7646">
        <ele>1903.13</ele>
        <time>2017-06-20T14:59:56Z</time>
      </trkpt>
      <trkpt lat="44.2495" lon="6.76547">
        <ele>1907.36</ele>
        <time>2017-06-20T15:00:01Z</time>
      </trkpt>
      <trkpt lat="44.24981" lon="6.76533">
        <ele>1910.05</ele>
        <time>2017-06-20T15:00:06Z</time>
      </trkpt>
      <trkpt lat="44.24997" lon="6.76455">
        <ele>1914.4</ele>
        <time>2017-06-20T15:00:11Z</time>
      </trkpt>
      <trkpt lat="44.24994" lon="6.76355">
        <ele>1920.19</ele>
        <time>2017-06-20T15:00:16Z</time>
      </trkpt>
      <trkpt lat="44.24979" lon="6.76258">
        <ele>1926.29</ele>
        <time>2017-06-20T15:00:21Z</time>
      </trkpt>
      <trkpt lat="44.24962" lon="6.76146">
        <ele>1932.85</ele>
        <time>2017-06-20T15:00:26Z</time>
      </trkpt>
      <trkpt lat="44.24949" lon="6.76058">
        <ele>1937.77</ele>
        <time>2017-06-20T15:00:31Z</time>
      </trkpt>
      <trkpt lat="44.24927" lon="6.75955">
        <ele>1944.79</ele>
        <time>2017-06-20T15:00:36Z</time>
      </trkpt>
      <trkpt lat="44.24901" lon="6.75864">
        <ele>1950.3</ele>
        <time>2017-06-20T15:00:41Z</time>
      </trkpt>
      <trkpt lat="44.24854" lon="6.75789">
        <ele>1955.98</ele>
        <time>2017-06-20T15:00:46Z</time>
      </trkpt>
      <trkpt lat="44.24829" lon="6.75742">
        <ele>1959.69</ele>
        <time>2017-06-20T15:00:51Z</time>
      </trkpt>
      <trkpt lat="44.24819" lon="6.75688">
        <ele>1962.63</ele>
        <time>2017-06-20T15:00:56Z</time>
      </trkpt>
      <trkpt lat="44.24891" lon="6.75685">
        <ele>1966.09</ele>
        <time>2017-06-20T15:01:01Z</time>
      </trkpt>
      <trkpt lat="44.24949" lon="6.75678">
        <ele>1971.03</ele>
        <time>2017-06-20T15:01:06Z</time>
      </trkpt>
      <trkpt lat="44.25001" lon="6.75656">
        <ele>1975.65</ele>
        <time>2017-06-20T15:01:11Z</time>
      </trkpt>
      <trkpt lat="44.25056" lon="6.75616">
        <ele>1980.47</ele>
        <time>2017-06-20T15:01:16Z</time>
      </trkpt>
      <trkpt lat="44.2514" lon="6.7556">
        <ele>1988.71</ele>
        <time>2017-06-20T15:01:21Z</time>
      </trkpt>
      <trkpt lat="44.25188" lon="6.75483">
        <ele>1994.3</ele>
        <time>2017-06-20T15:01:26Z</time>
      </trkpt>
      <trkpt lat="44.25229" lon="6.75458">
        <ele>1998.23</ele>
        <time>2017-06-20T15:01:31Z</time>
      </trkpt>
      <trkpt lat="44.25254" lon="6.7538">
        <ele>2002.88</ele>
        <time>2017-06-20T15:01:36Z</time>
      </trkpt>
      <trkpt lat="44.25232" lon="6.75307">
        <ele>2007.38</ele>
        <time>2017-06-20T15:01:41Z</time>
      </trkpt>
      <trkpt lat="44.2526" lon="6.75227">
        <ele>2013.25</ele>
        <time>2017-06-20T15:01:46Z</time>
      </trkpt>
      <trkpt lat="44.25305" lon="6.75154">
        <ele>2019.28</ele>
        <time>2017-06-20T15:01:51Z</time>
      </trkpt>
      <trkpt lat="44.25343" lon="6.75086">
        <ele>2024.68</ele>
        <time>2017-06-20T15:01:56Z</time>
      </trkpt>
      <trkpt lat="44.25319" lon="6.75026">
        <ele>2028.34</ele>
        <time>2017-06-20T15:02:01Z</time>
      </trkpt>
      <trkpt lat="44.25314" lon="6.74994">
        <ele>2030.43</ele>
        <time>2017-06-20T15:02:06Z</time>
      </trkpt>
      <trkpt lat="44.25362" lon="6.75008">
        <ele>2035.23</ele>
        <time>2017-06-20T15:02:11Z</time>
      </trkpt>
      <trkpt lat="44.25385" lon="6.75081">
        <ele>2039.58</ele>
        <time>2017-06-20T15:02:16Z</time>
      </trkpt>
      <trkpt lat="44.25355" lon="6.75164">
        <ele>2045.08</ele>
        <time>2017-06-20T15:02:21Z</time>
      </trkpt>
      <trkpt lat="44.25354" lon="6.75261">
        <ele>2051.12</ele>
        <time>2017-06-20T15:02:26Z</time>
      </trkpt>
      <trkpt lat="44.25365" lon="6.75359">
        <ele>2057.16</ele>
        <time>2017-06-20T15:02:31Z</time>
      </trkpt>
      <trkpt lat="44.25376" lon="6.75429">
        <ele>2060.24</ele>
        <time>2017-06-20T15:02:36Z</time>
      </trkpt>
      <trkpt lat="44.25392" lon="6.75405">
        <ele>2064.12</ele>
        <time>2017-06-20T15:02:45Z</time>
      </trkpt>
      <trkpt lat="44.25389" lon="6.75369">
        <ele>2066.74</ele>
        <time>2017-06-20T15:02:53Z</time>
      </trkpt>
      <trkpt lat="44.2539" lon="6.75312">
        <ele>2070.67</ele>
        <time>2017-06-20T15:02:58Z</time>
      </trkpt>
      <trkpt lat="44.25414" lon="6.75262">
        <ele>2073.79</ele>
        <time>2017-06-20T15:03:03Z</time>
      </trkpt>
      <trkpt lat="44.25445" lon="6.7523">
        <ele>2077.23</ele>
        <time>2017-06-20T15:03:08Z</time>
      </trkpt>
      <trkpt lat="44.25472" lon="6.75187">
        <ele>2080.72</ele>
        <time>2017-06-20T15:03:13Z</time>
      </trkpt>
      <trkpt lat="44.2548" lon="6.75119">
        <ele>2084.64</ele>
        <time>2017-06-20T15:03:18Z</time>
      </trkpt>
      <trkpt lat="44.2546" lon="6.75016">
        <ele>2091.16</ele>
        <time>2017-06-20T15:03:23Z</time>
      </trkpt>
      <trkpt lat="44.25454" lon="6.74926">
        <ele>2097.19</ele>
        <time>2017-06-20T15:03:28Z</time>
      </trkpt>
      <trkpt lat="44.25433" lon="6.7483">
        <ele>2103.89</ele>
        <time>2017-06-20T15:03:33Z</time>
      </trkpt>
      <trkpt lat="44.25383" lon="6.74785">
        <ele>2108.37</ele>
        <time>2017-06-20T15:03:38Z</time>
      </trkpt>
      <trkpt lat="44.25341" lon="6.74789">
        <ele>2110.71</ele>
        <time>2017-06-20T15:03:43Z</time>
      </trkpt>
      <trkpt lat="44.25355" lon="6.74756">
        <ele>2113.35</ele>
        <time>2017-06-20T15:03:50Z</time>
      </trkpt>
      <trkpt lat="44.25409" lon="6.74742">
        <ele>2117.93</ele>
        <time>2017-06-20T15:03:55Z</time>
      </trkpt>
      <trkpt lat="44.25462" lon="6.74809">
        <ele>2124.17</ele>
        <time>2017-06-20T15:04:00Z</time>
      </trkpt>
      <trkpt lat="44.25502" lon="6.74884">
        <ele>2129.35</ele>
        <time>2017-06-20T15:04:05Z</time>
      </trkpt>
      <trkpt lat="44.25517" lon="6.74965">
        <ele>2134.3</ele>
        <time>2017-06-20T15:04:10Z</time>
      </trkpt>
      <trkpt lat="44.25529" lon="6.75038">
        <ele>2138.84</ele>
        <time>2017-06-20T15:04:15Z</time>
      </trkpt>
      <trkpt lat="44.25545" lon="6.75094">
        <ele>2142.34</ele>
        <time>2017-06-20T15:04:20Z</time>
      </trkpt>
      <trkpt lat="44.25555" lon="6.75145">
        <ele>2145.95</ele>
        <time>2017-06-20T15:04:25Z</time>
      </trkpt>
      <trkpt lat="44.25592" lon="6.75185">
        <ele>2149.41</ele>
        <time>2017-06-20T15:04:30Z</time>
      </trkpt>
      <trkpt lat="44.25583" lon="6.75152">
        <ele>2151.64</ele>
        <time>2017-06-20T15:04:35Z</time>
      </trkpt>
      <trkpt lat="44.25557" lon="6.75109">
        <ele>2154.31</ele>
        <time>2017-06-20T15:04:40Z</time>
      </trkpt>
      <trkpt lat="44.25571" lon="6.75041">
        <ele>2157.5</ele>
        <time>2017-06-20T15:04:45Z</time>
      </trkpt>
      <trkpt lat="44.25555" lon="6.74963">
        <ele>2162.25</ele>
        <time>2017-06-20T15:04:50Z</time>
      </trkpt>
      <trkpt lat="44.2556" lon="6.74871">
        <ele>2167.33</ele>
        <time>2017-06-20T15:04:55Z</time>
      </trkpt>
      <trkpt lat="44.25556" lon="6.74753">
        <ele>2174.33</ele>
        <time>2017-06-20T15:05:00Z</time>
      </trkpt>
      <trkpt lat="44.25558" lon="6.74665">
        <ele>2179.66</ele>
        <time>2017-06-20T15:05:05Z</time>
      </trkpt>
      <trkpt lat="44.25549" lon="6.74594">
        <ele>2184.64</ele>
        <time>2017-06-20T15:05:10Z</time>
      </trkpt>
      <trkpt lat="44.25498" lon="6.7453">
        <ele>2190.74</ele>
        <time>2017-06-20T15:05:15Z</time>
      </trkpt>
      <trkpt lat="44.25477" lon="6.74497">
        <ele>2193.05</ele>
        <time>2017-06-20T15:05:20Z</time>
      </trkpt>
      <trkpt lat="44.25503" lon="6.7451">
        <ele>2195.7</ele>
        <time>2017-06-20T15:05:26Z</time>
      </trkpt>
      <trkpt lat="44.25521" lon="6.74538">
        <ele>2196.95</ele>
        <time>2017-06-20T15:05:32Z</time>
      </trkpt>
      <trkpt lat="44.2556" lon="6.74567">
        <ele>2200.2</ele>
        <time>2017-06-20T15:05:37Z</time>
      </trkpt>
      <trkpt lat="44.25609" lon="6.74567">
        <ele>2204.99</ele>
        <time>2017-06-20T15:05:42Z</time>
      </trkpt>
      <trkpt lat="44.2567" lon="6.74518">
        <ele>2211.01</ele>
        <time>2017-06-20T15:05:47Z</time>
      </trkpt>
      <trkpt lat="44.25722" lon="6.74524">
        <ele>2215.05</ele>
        <time>2017-06-20T15:05:52Z</time>
      </trkpt>
      <trkpt lat="44.25789" lon="6.74511">
        <ele>2219.99</ele>
        <time>2017-06-20T15:05:57Z</time>
      </trkpt>
      <trkpt lat="44.25842" lon="6.74463">
        <ele>2224.19</ele>
        <time>2017-06-20T15:06:02Z</time>
      </trkpt>
      <trkpt lat="44.25875" lon="6.74429">
        <ele>2226.78</ele>
        <time>2017-06-20T15:06:07Z</time>
      </trkpt>
      <trkpt lat="44.259" lon="6.74407">
        <ele>2227.9</ele>
        <time>2017-06-20T15:06:12Z</time>
      </trkpt>
      <trkpt lat="44.25921" lon="6.74395">
        <ele>2228.59</ele>
        <time>2017-06-20T15:06:19Z</time>
      </trkpt>
      <trkpt lat="44.25944" lon="6.74404">
        <ele>2226.2</ele>
        <time>2017-06-20T15:07:43Z</time>
      </trkpt>
      <trkpt lat="44.25968" lon="6.74399">
        <ele>2223.4</ele>
        <time>2017-06-20T15:07:49Z</time>
      </trkpt>
      <trkpt lat="44.25987" lon="6.74382">
        <ele>2222.43</ele>
        <time>2017-06-20T15:07:58Z</time>
      </trkpt>
      <trkpt lat="44.26008" lon="6.74364">
        <ele>2221.53</ele>
        <time>2017-06-20T15:08:08Z</time>
      </trkpt>
      <trkpt lat="44.26025" lon="6.74342">
        <ele>2219.95</ele>
        <time>2017-06-20T15:10:03Z</time>
      </trkpt>
      <trkpt lat="44.26048" lon="6.7431">
        <ele>2217.09</ele>
        <time>2017-06-20T15:10:08Z</time>
      </trkpt>
      <trkpt lat="44.26093" lon="6.74269">
        <ele>2214.34</ele>
        <time>2017-06-20T15:10:13Z</time>
      </trkpt>
      <trkpt lat="44.26156" lon="6.74236">
        <ele>2210.67</ele>
        <time>2017-06-20T15:10:18Z</time>
      </trkpt>
      <trkpt lat="44.26239" lon="6.74247">
        <ele>2205.47</ele>
        <time>2017-06-20T15:10:23Z</time>
      </trkpt>
      <trkpt lat="44.26307" lon="6.74254">
        <ele>2199.04</ele>
        <time>2017-06-20T15:10:28Z</time>
      </trkpt>
      <trkpt lat="44.2633" lon="6.74236">
        <ele>2195.5</ele>
        <time>2017-06-20T15:10:34Z</time>
      </trkpt>
      <trkpt lat="44.26354" lon="6.74211">
        <ele>2193.39</ele>
        <time>2017-06-20T15:10:39Z</time>
      </trkpt>
      <trkpt lat="44.26367" lon="6.74253">
        <ele>2192.33</ele>
        <time>2017-06-20T15:10:44Z</time>
      </trkpt>
      <trkpt lat="44.2638" lon="6.74305">
        <ele>2189.54</ele>
        <time>2017-06-20T15:10:49Z</time>
      </trkpt>
      <trkpt lat="44.26401" lon="6.74364">
        <ele>2185.75</ele>
        <time>2017-06-20T15:10:54Z</time>
      </trkpt>
      <trkpt lat="44.26413" lon="6.7443">
        <ele>2181.8</ele>
        <time>2017-06-20T15:10:59Z</time>
      </trkpt>
      <trkpt lat="44.26438" lon="6.74477">
        <ele>2178.35</ele>
        <time>2017-06-20T15:11:04Z</time>
      </trkpt>
      <trkpt lat="44.26409" lon="6.74501">
        <ele>2177.04</ele>
        <time>2017-06-20T15:11:09Z</time>
      </trkpt>
      <trkpt lat="44.26361" lon="6.74524">
        <ele>2173.31</ele>
        <time>2017-06-20T15:11:14Z</time>
      </trkpt>
      <trkpt lat="44.26366" lon="6.7458">
        <ele>2169.75</ele>
        <time>2017-06-20T15:11:19Z</time>
      </trkpt>
      <trkpt lat="44.26417" lon="6.74609">
        <ele>2166.38</ele>
        <time>2017-06-20T15:11:24Z</time>
      </trkpt>
      <trkpt lat="44.26479" lon="6.7461">
        <ele>2162.09</ele>
        <time>2017-06-20T15:11:29Z</time>
      </trkpt>
      <trkpt lat="44.2655" lon="6.74596">
        <ele>2157.63</ele>
        <time>2017-06-20T15:11:34Z</time>
      </trkpt>
      <trkpt lat="44.26623" lon="6.74608">
        <ele>2152.96</ele>
        <time>2017-06-20T15:11:39Z</time>
      </trkpt>
      <trkpt lat="44.26688" lon="6.74603">
        <ele>2146.27</ele>
        <time>2017-06-20T15:11:44Z</time>
      </trkpt>
      <trkpt lat="44.2674" lon="6.74612">
        <ele>2141.33</ele>
        <time>2017-06-20T15:11:49Z</time>
      </trkpt>
      <trkpt lat="44.26796" lon="6.74637">
        <ele>2137.18</ele>
        <time>2017-06-20T15:11:54Z</time>
      </trkpt>
      <trkpt lat="44.26871" lon="6.74632">
        <ele>2132.92</ele>
        <time>2017-06-20T15:11:59Z</time>
      </trkpt>
      <trkpt lat="44.26923" lon="6.74625">
        <ele>2127.62</ele>
        <time>2017-06-20T15:12:04Z</time>
      </trkpt>
      <trkpt lat="44.26967" lon="6.74664">
        <ele>2123.65</ele>
        <time>2017-06-20T15:12:09Z</time>
      </trkpt>
      <trkpt lat="44.2703" lon="6.74683">
        <ele>2119.71</ele>
        <time>2017-06-20T15:12:14Z</time>
      </trkpt>
      <trkpt lat="44.27088" lon="6.74659">
        <ele>2114.09</ele>
        <time>2017-06-20T15:12:19Z</time>
      </trkpt>
      <trkpt lat="44.27137" lon="6.74613">
        <ele>2110.12</ele>
        <time>2017-06-20T15:12:24Z</time>
      </trkpt>
      <trkpt lat="44.27155" lon="6.74538">
        <ele>2106.03</ele>
        <time>2017-06-20T15:12:29Z</time>
      </trkpt>
      <trkpt lat="44.27208" lon="6.74489">
        <ele>2101.19</ele>
        <time>2017-06-20T15:12:34Z</time>
      </trkpt>
      <trkpt lat="44.27291" lon="6.74479">
        <ele>2094.97</ele>
        <time>2017-06-20T15:12:39Z</time>
      </trkpt>
      <trkpt lat="44.27354" lon="6.74507">
        <ele>2088.97</ele>
        <time>2017-06-20T15:12:44Z</time>
      </trkpt>
      <trkpt lat="44.2741" lon="6.74482">
        <ele>2084.29</ele>
        <time>2017-06-20T15:12:49Z</time>
      </trkpt>
      <trkpt lat="44.27466" lon="6.74495">
        <ele>2080.94</ele>
        <time>2017-06-20T15:12:54Z</time>
      </trkpt>
      <trkpt lat="44.27545" lon="6.74495">
        <ele>2076.18</ele>
        <time>2017-06-20T15:12:59Z</time>
      </trkpt>
      <trkpt lat="44.27622" lon="6.74502">
        <ele>2069.61</ele>
        <time>2017-06-20T15:13:04Z</time>
      </trkpt>
      <trkpt lat="44.27685" lon="6.74472">
        <ele>2064.49</ele>
        <time>2017-06-20T15:13:09Z</time>
      </trkpt>
      <trkpt lat="44.27725" lon="6.74417">
        <ele>2059.86</ele>
        <time>2017-06-20T15:13:14Z</time>
      </trkpt>
      <trkpt lat="44.27766" lon="6.74421">
        <ele>2056.35</ele>
        <time>2017-06-20T15:13:19Z</time>
      </trkpt>
      <trkpt lat="44.27786" lon="6.74464">
        <ele>2053.18</ele>
        <time>2017-06-20T15:13:24Z</time>
      </trkpt>
      <trkpt lat="44.27758" lon="6.74527">
        <ele>2048.97</ele>
        <time>2017-06-20T15:13:29Z</time>
      </trkpt>
      <trkpt lat="44.27705" lon="6.74555">
        <ele>2045.31</ele>
        <time>2017-06-20T15:13:34Z</time>
      </trkpt>
      <trkpt lat="44.27649" lon="6.74581">
        <ele>2041.23</ele>
        <time>2017-06-20T15:13:39Z</time>
      </trkpt>
      <trkpt lat="44.27654" lon="6.7462">
        <ele>2037.28</ele>
        <time>2017-06-20T15:13:44Z</time>
      </trkpt>
      <trkpt lat="44.27702" lon="6.74605">
        <ele>2034.07</ele>
        <time>2017-06-20T15:13:49Z</time>
      </trkpt>
      <trkpt lat="44.27772" lon="6.74636">
        <ele>2030.01</ele>
        <time>2017-06-20T15:13:54Z</time>
      </trkpt>
      <trkpt lat="44.27849" lon="6.74633">
        <ele>2025.19</ele>
        <time>2017-06-20T15:13:59Z</time>
      </trkpt>
      <trkpt lat="44.27909" lon="6.74622">
        <ele>2018.85</ele>
        <time>2017-06-20T15:14:04Z</time>
      </trkpt>
      <trkpt lat="44.27928" lon="6.74543">
        <ele>2015.35</ele>
        <time>2017-06-20T15:14:09Z</time>
      </trkpt>
      <trkpt lat="44.27922" lon="6.74444">
        <ele>2009.63</ele>
        <time>2017-06-20T15:14:14Z</time>
      </trkpt>
      <trkpt lat="44.27883" lon="6.74354">
        <ele>2004.4</ele>
        <time>2017-06-20T15:14:19Z</time>
      </trkpt>
      <trkpt lat="44.27852" lon="6.74269">
        <ele>1996.94</ele>
        <time>2017-06-20T15:14:24Z</time>
      </trkpt>
      <trkpt lat="44.27887" lon="6.74216">
        <ele>1992.9</ele>
        <time>2017-06-20T15:14:29Z</time>
      </trkpt>
      <trkpt lat="44.27947" lon="6.74173">
        <ele>1986.86</ele>
        <time>2017-06-20T15:14:34Z</time>
      </trkpt>
      <trkpt lat="44.27989" lon="6.74134">
        <ele>1980.61</ele>
        <time>2017-06-20T15:14:39Z</time>
      </trkpt>
      <trkpt lat="44.28026" lon="6.74165">
        <ele>1978.52</ele>
        <time>2017-06-20T15:14:44Z</time>
      </trkpt>
      <trkpt lat="44.28042" lon="6.74232">
        <ele>1974.57</ele>
        <time>2017-06-20T15:14:49Z</time>
      </trkpt>
      <trkpt lat="44.28087" lon="6.74279">
        <ele>1969.6</ele>
        <time>2017-06-20T15:14:54Z</time>
      </trkpt>
      <trkpt lat="44.28104" lon="6.74342">
        <ele>1965.13</ele>
        <time>2017-06-20T15:14:59Z</time>
      </trkpt>
      <trkpt lat="44.28063" lon="6.74434">
        <ele>1962.41</ele>
        <time>2017-06-20T15:15:04Z</time>
      </trkpt>
      <trkpt lat="44.28028" lon="6.74506">
        <ele>1957.64</ele>
        <time>2017-06-20T15:15:09Z</time>
      </trkpt>
      <trkpt lat="44.28054" lon="6.74552">
        <ele>1955.38</ele>
        <time>2017-06-20T15:15:14Z</time>
      </trkpt>
      <trkpt lat="44.28143" lon="6.74595">
        <ele>1948.68</ele>
        <time>2017-06-20T15:15:19Z</time>
      </trkpt>
      <trkpt lat="44.2823" lon="6.74627">
        <ele>1941.77</ele>
        <time>2017-06-20T15:15:24Z</time>
      </trkpt>
      <trkpt lat="44.28315" lon="6.74611">
        <ele>1935.02</ele>
        <time>2017-06-20T15:15:29Z</time>
      </trkpt>
      <trkpt lat="44.28366" lon="6.74555">
        <ele>1927.98</ele>
        <time>2017-06-20T15:15:34Z</time>
      </trkpt>
      <trkpt lat="44.28413" lon="6.74555">
        <ele>1924.19</ele>
        <time>2017-06-20T15:15:39Z</time>
      </trkpt>
      <trkpt lat="44.28475" lon="6.74598">
        <ele>1918.43</ele>
        <time>2017-06-20T15:15:44Z</time>
      </trkpt>
      <trkpt lat="44.28513" lon="6.74588">
        <ele>1914.7</ele>
        <time>2017-06-20T15:15:49Z</time>
      </trkpt>
      <trkpt lat="44.28499" lon="6.74522">
        <ele>1911.56</ele>
        <time>2017-06-20T15:15:54Z</time>
      </trkpt>
      <trkpt lat="44.2852" lon="6.74477">
        <ele>1907.67</ele>
        <time>2017-06-20T15:15:59Z</time>
      </trkpt>
      <trkpt lat="44.28553" lon="6.74435">
        <ele>1903.95</ele>
        <time>2017-06-20T15:16:04Z</time>
      </trkpt>
      <trkpt lat="44.28532" lon="6.74402">
        <ele>1902.23</ele>
        <time>2017-06-20T15:16:09Z</time>
      </trkpt>
      <trkpt lat="44.28472" lon="6.74393">
        <ele>1898</ele>
        <time>2017-06-20T15:16:14Z</time>
      </trkpt>
      <trkpt lat="44.28396" lon="6.74389">
        <ele>1892.65</ele>
        <time>2017-06-20T15:16:19Z</time>
      </trkpt>
      <trkpt lat="44.28364" lon="6.74353">
        <ele>1889.86</ele>
        <time>2017-06-20T15:16:24Z</time>
      </trkpt>
      <trkpt lat="44.28358" lon="6.74287">
        <ele>1888.34</ele>
        <time>2017-06-20T15:16:29Z</time>
      </trkpt>
      <trkpt lat="44.28413" lon="6.74233">
        <ele>1887.17</ele>
        <time>2017-06-20T15:16:34Z</time>
      </trkpt>
      <trkpt lat="44.28489" lon="6.742">
        <ele>1883.43</ele>
        <time>2017-06-20T15:16:39Z</time>
      </trkpt>
      <trkpt lat="44.28557" lon="6.74214">
        <ele>1880.69</ele>
        <time>2017-06-20T15:16:44Z</time>
      </trkpt>
      <trkpt lat="44.28627" lon="6.74238">
        <ele>1878.49</ele>
        <time>2017-06-20T15:16:49Z</time>
      </trkpt>
      <trkpt lat="44.28696" lon="6.74234">
        <ele>1875.62</ele>
        <time>2017-06-20T15:16:54Z</time>
      </trkpt>
      <trkpt lat="44.28766" lon="6.74238">
        <ele>1873.14</ele>
        <time>2017-06-20T15:16:59Z</time>
      </trkpt>
      <trkpt lat="44.2885" lon="6.74288">
        <ele>1869.74</ele>
        <time>2017-06-20T15:17:04Z</time>
      </trkpt>
      <trkpt lat="44.28913" lon="6.74329">
        <ele>1866.09</ele>
        <time>2017-06-20T15:17:09Z</time>
      </trkpt>
      <trkpt lat="44.2899" lon="6.74369">
        <ele>1863.27</ele>
        <time>2017-06-20T15:17:14Z</time>
      </trkpt>
      <trkpt lat="44.29068" lon="6.74398">
        <ele>1859.48</ele>
        <time>2017-06-20T15:17:19Z</time>
      </trkpt>
      <trkpt lat="44.29141" lon="6.74401">
        <ele>1856.1</ele>
        <time>2017-06-20T15:17:24Z</time>
      </trkpt>
      <trkpt lat="44.29198" lon="6.74406">
        <ele>1853.02</ele>
        <time>2017-06-20T15:17:29Z</time>
      </trkpt>
      <trkpt lat="44.29247" lon="6.74402">
        <ele>1851.95</ele>
        <time>2017-06-20T15:17:34Z</time>
      </trkpt>
      <trkpt lat="44.293" lon="6.74396">
        <ele>1849.49</ele>
        <time>2017-06-20T15:17:39Z</time>
      </trkpt>
      <trkpt lat="44.29384" lon="6.74392">
        <ele>1846.95</ele>
        <time>2017-06-20T15:17:44Z</time>
      </trkpt>
      <trkpt lat="44.29473" lon="6.74374">
        <ele>1843.52</ele>
        <time>2017-06-20T15:17:49Z</time>
      </trkpt>
      <trkpt lat="44.29553" lon="6.74385">
        <ele>1839.35</ele>
        <time>2017-06-20T15:17:54Z</time>
      </trkpt>
      <trkpt lat="44.29642" lon="6.74387">
        <ele>1835.67</ele>
        <time>2017-06-20T15:17:59Z</time>
      </trkpt>
      <trkpt lat="44.29717" lon="6.74394">
        <ele>1831.7</ele>
        <time>2017-06-20T15:18:04Z</time>
      </trkpt>
      <trkpt lat="44.2978" lon="6.74428">
        <ele>1828.48</ele>
        <time>2017-06-20T15:18:09Z</time>
      </trkpt>
      <trkpt lat="44.29857" lon="6.74423">
        <ele>1826.05</ele>
        <time>2017-06-20T15:18:14Z</time>
      </trkpt>
      <trkpt lat="44.29934" lon="6.74412">
        <ele>1822.69</ele>
        <time>2017-06-20T15:18:19Z</time>
      </trkpt>
      <trkpt lat="44.30023" lon="6.74417">
        <ele>1819.71</ele>
        <time>2017-06-20T15:18:24Z</time>
      </trkpt>
      <trkpt lat="44.30099" lon="6.74429">
        <ele>1816.25</ele>
        <time>2017-06-20T15:18:29Z</time>
      </trkpt>
      <trkpt lat="44.30163" lon="6.7445">
        <ele>1812.54</ele>
        <time>2017-06-20T15:18:34Z</time>
      </trkpt>
      <trkpt lat="44.3023" lon="6.74451">
        <ele>1809.58</ele>
        <time>2017-06-20T15:18:39Z</time>
      </trkpt>
      <trkpt lat="44.30288" lon="6.74421">
        <ele>1806.89</ele>
        <time>2017-06-20T15:18:44Z</time>
      </trkpt>
      <trkpt lat="44.30331" lon="6.7441">
        <ele>1804.01</ele>
        <time>2017-06-20T15:18:49Z</time>
      </trkpt>
      <trkpt lat="44.30376" lon="6.74429">
        <ele>1802.39</ele>
        <time>2017-06-20T15:18:54Z</time>
      </trkpt>
      <trkpt lat="44.30436" lon="6.74408">
        <ele>1800.33</ele>
        <time>2017-06-20T15:18:59Z</time>
      </trkpt>
      <trkpt lat="44.30497" lon="6.74363">
        <ele>1798.58</ele>
        <time>2017-06-20T15:19:04Z</time>
      </trkpt>
      <trkpt lat="44.30549" lon="6.74299">
        <ele>1793.55</ele>
        <time>2017-06-20T15:19:09Z</time>
      </trkpt>
      <trkpt lat="44.30604" lon="6.74255">
        <ele>1791.15</ele>
        <time>2017-06-20T15:19:14Z</time>
      </trkpt>
      <trkpt lat="44.30679" lon="6.74219">
        <ele>1787.75</ele>
        <time>2017-06-20T15:19:19Z</time>
      </trkpt>
      <trkpt lat="44.30732" lon="6.74186">
        <ele>1784.86</ele>
        <time>2017-06-20T15:19:24Z</time>
      </trkpt>
      <trkpt lat="44.30781" lon="6.74183">
        <ele>1782.15</ele>
        <time>2017-06-20T15:19:29Z</time>
      </trkpt>
      <trkpt lat="44.30817" lon="6.74159">
        <ele>1780.63</ele>
        <time>2017-06-20T15:19:34Z</time>
      </trkpt>
      <trkpt lat="44.30833" lon="6.74091">
        <ele>1777.25</ele>
        <time>2017-06-20T15:19:39Z</time>
      </trkpt>
      <trkpt lat="44.30874" lon="6.74046">
        <ele>1772.78</ele>
        <time>2017-06-20T15:19:44Z</time>
      </trkpt>
      <trkpt lat="44.30916" lon="6.74">
        <ele>1771.16</ele>
        <time>2017-06-20T15:19:49Z</time>
      </trkpt>
      <trkpt lat="44.30963" lon="6.73962">
        <ele>1768.34</ele>
        <time>2017-06-20T15:19:54Z</time>
      </trkpt>
      <trkpt lat="44.31005" lon="6.73886">
        <ele>1764.2</ele>
        <time>2017-06-20T15:19:59Z</time>
      </trkpt>
      <trkpt lat="44.31018" lon="6.73803">
        <ele>1758.04</ele>
        <time>2017-06-20T15:20:04Z</time>
      </trkpt>
      <trkpt lat="44.31041" lon="6.7372">
        <ele>1752.89</ele>
        <time>2017-06-20T15:20:09Z</time>
      </trkpt>
      <trkpt lat="44.31072" lon="6.73659">
        <ele>1746.27</ele>
        <time>2017-06-20T15:20:14Z</time>
      </trkpt>
      <trkpt lat="44.31105" lon="6.73642">
        <ele>1742.94</ele>
        <time>2017-06-20T15:20:19Z</time>
      </trkpt>
      <trkpt lat="44.311" lon="6.7368">
        <ele>1739.67</ele>
        <time>2017-06-20T15:20:24Z</time>
      </trkpt>
      <trkpt lat="44.31072" lon="6.73726">
        <ele>1735.62</ele>
        <time>2017-06-20T15:20:29Z</time>
      </trkpt>
      <trkpt lat="44.31094" lon="6.73731">
        <ele>1732.7</ele>
        <time>2017-06-20T15:20:34Z</time>
      </trkpt>
      <trkpt lat="44.31129" lon="6.7369">
        <ele>1731.42</ele>
        <time>2017-06-20T15:20:39Z</time>
      </trkpt>
      <trkpt lat="44.31136" lon="6.73732">
        <ele>1728.71</ele>
        <time>2017-06-20T15:20:45Z</time>
      </trkpt>
      <trkpt lat="44.31111" lon="6.73822">
        <ele>1723.57</ele>
        <time>2017-06-20T15:20:50Z</time>
      </trkpt>
      <trkpt lat="44.31075" lon="6.73892">
        <ele>1719.93</ele>
        <time>2017-06-20T15:20:55Z</time>
      </trkpt>
      <trkpt lat="44.3109" lon="6.73937">
        <ele>1718.82</ele>
        <time>2017-06-20T15:21:00Z</time>
      </trkpt>
      <trkpt lat="44.31118" lon="6.73968">
        <ele>1719.23</ele>
        <time>2017-06-20T15:21:05Z</time>
      </trkpt>
      <trkpt lat="44.31163" lon="6.73975">
        <ele>1720.24</ele>
        <time>2017-06-20T15:21:10Z</time>
      </trkpt>
      <trkpt lat="44.31202" lon="6.73909">
        <ele>1721.72</ele>
        <time>2017-06-20T15:21:15Z</time>
      </trkpt>
      <trkpt lat="44.31225" lon="6.73806">
        <ele>1721.55</ele>
        <time>2017-06-20T15:21:20Z</time>
      </trkpt>
      <trkpt lat="44.31276" lon="6.73687">
        <ele>1720.13</ele>
        <time>2017-06-20T15:21:25Z</time>
      </trkpt>
      <trkpt lat="44.31336" lon="6.73559">
        <ele>1717.66</ele>
        <time>2017-06-20T15:21:30Z</time>
      </trkpt>
      <trkpt lat="44.31388" lon="6.73463">
        <ele>1717.79</ele>
        <time>2017-06-20T15:21:35Z</time>
      </trkpt>
      <trkpt lat="44.31434" lon="6.73377">
        <ele>1718.01</ele>
        <time>2017-06-20T15:21:40Z</time>
      </trkpt>
      <trkpt lat="44.31494" lon="6.73286">
        <ele>1716.27</ele>
        <time>2017-06-20T15:21:45Z</time>
      </trkpt>
      <trkpt lat="44.31552" lon="6.73166">
        <ele>1712.28</ele>
        <time>2017-06-20T15:21:50Z</time>
      </trkpt>
      <trkpt lat="44.31606" lon="6.73063">
        <ele>1709.04</ele>
        <time>2017-06-20T15:21:55Z</time>
      </trkpt>
      <trkpt lat="44.31674" lon="6.72964">
        <ele>1706.32</ele>
        <time>2017-06-20T15:22:00Z</time>
      </trkpt>
      <trkpt lat="44.31735" lon="6.7287">
        <ele>1703.12</ele>
        <time>2017-06-20T15:22:05Z</time>
      </trkpt>
      <trkpt lat="44.31783" lon="6.72767">
        <ele>1701.42</ele>
        <time>2017-06-20T15:22:10Z</time>
      </trkpt>
      <trkpt lat="44.31806" lon="6.72641">
        <ele>1698.74</ele>
        <time>2017-06-20T15:22:15Z</time>
      </trkpt>
      <trkpt lat="44.31839" lon="6.72529">
        <ele>1695.23</ele>
        <time>2017-06-20T15:22:20Z</time>
      </trkpt>
      <trkpt lat="44.31872" lon="6.72424">
        <ele>1691.59</ele>
        <time>2017-06-20T15:22:25Z</time>
      </trkpt>
      <trkpt lat="44.31895" lon="6.72334">
        <ele>1689.78</ele>
        <time>2017-06-20T15:22:30Z</time>
      </trkpt>
      <trkpt lat="44.31939" lon="6.72289">
        <ele>1688.79</ele>
        <time>2017-06-20T15:22:35Z</time>
      </trkpt>
      <trkpt lat="44.31953" lon="6.72204">
        <ele>1690.44</ele>
        <time>2017-06-20T15:22:40Z</time>
      </trkpt>
      <trkpt lat="44.3196" lon="6.72082">
        <ele>1693.11</ele>
        <time>2017-06-20T15:22:45Z</time>
      </trkpt>
      <trkpt lat="44.31938" lon="6.71973">
        <ele>1694.83</ele>
        <time>2017-06-20T15:22:50Z</time>
      </trkpt>
      <trkpt lat="44.3194" lon="6.7189">
        <ele>1694.46</ele>
        <time>2017-06-20T15:22:55Z</time>
      </trkpt>
      <trkpt lat="44.31932" lon="6.71791">
        <ele>1695.5</ele>
        <time>2017-06-20T15:23:00Z</time>
      </trkpt>
      <trkpt lat="44.3193" lon="6.71701">
        <ele>1692.87</ele>
        <time>2017-06-20T15:23:05Z</time>
      </trkpt>
      <trkpt lat="44.31967" lon="6.71616">
        <ele>1690.95</ele>
        <time>2017-06-20T15:23:10Z</time>
      </trkpt>
      <trkpt lat="44.31991" lon="6.71558">
        <ele>1686.62</ele>
        <time>2017-06-20T15:23:15Z</time>
      </trkpt>
      <trkpt lat="44.3202" lon="6.71548">
        <ele>1684.34</ele>
        <time>2017-06-20T15:23:20Z</time>
      </trkpt>
      <trkpt lat="44.32023" lon="6.71505">
        <ele>1683.04</ele>
        <time>2017-06-20T15:23:25Z</time>
      </trkpt>
      <trkpt lat="44.32013" lon="6.71451">
        <ele>1680.78</ele>
        <time>2017-06-20T15:23:30Z</time>
      </trkpt>
      <trkpt lat="44.32045" lon="6.71358">
        <ele>1678.32</ele>
        <time>2017-06-20T15:23:35Z</time>
      </trkpt>
      <trkpt lat="44.32069" lon="6.71253">
        <ele>1674.56</ele>
        <time>2017-06-20T15:23:40Z</time>
      </trkpt>
      <trkpt lat="44.32104" lon="6.71167">
        <ele>1672.76</ele>
        <time>2017-06-20T15:23:45Z</time>
      </trkpt>
      <trkpt lat="44.32124" lon="6.71086">
        <ele>1672.24</ele>
        <time>2017-06-20T15:23:50Z</time>
      </trkpt>
      <trkpt lat="44.32144" lon="6.70995">
        <ele>1671.71</ele>
        <time>2017-06-20T15:23:55Z</time>
      </trkpt>
      <trkpt lat="44.3218" lon="6.70947">
        <ele>1671.69</ele>
        <time>2017-06-20T15:24:00Z</time>
      </trkpt>
      <trkpt lat="44.32189" lon="6.70897">
        <ele>1671.72</ele>
        <time>2017-06-20T15:24:05Z</time>
      </trkpt>
      <trkpt lat="44.32161" lon="6.7086">
        <ele>1669.67</ele>
        <time>2017-06-20T15:24:10Z</time>
      </trkpt>
      <trkpt lat="44.32145" lon="6.70773">
        <ele>1666.7</ele>
        <time>2017-06-20T15:24:15Z</time>
      </trkpt>
      <trkpt lat="44.32131" lon="6.70682">
        <ele>1662.48</ele>
        <time>2017-06-20T15:24:20Z</time>
      </trkpt>
      <trkpt lat="44.32134" lon="6.70539">
        <ele>1655.43</ele>
        <time>2017-06-20T15:24:25Z</time>
      </trkpt>
      <trkpt lat="44.32138" lon="6.70444">
        <ele>1648.57</ele>
        <time>2017-06-20T15:24:30Z</time>
      </trkpt>
      <trkpt lat="44.32163" lon="6.70384">
        <ele>1643.92</ele>
        <time>2017-06-20T15:24:36Z</time>
      </trkpt>
      <trkpt lat="44.32197" lon="6.70333">
        <ele>1641.16</ele>
        <time>2017-06-20T15:24:41Z</time>
      </trkpt>
      <trkpt lat="44.32206" lon="6.70222">
        <ele>1637.61</ele>
        <time>2017-06-20T15:24:46Z</time>
      </trkpt>
      <trkpt lat="44.32192" lon="6.70114">
        <ele>1632.97</ele>
        <time>2017-06-20T15:24:51Z</time>
      </trkpt>
      <trkpt lat="44.32166" lon="6.70007">
        <ele>1630.18</ele>
        <time>2017-06-20T15:24:56Z</time>
      </trkpt>
      <trkpt lat="44.32142" lon="6.69903">
        <ele>1627.02</ele>
        <time>2017-06-20T15:25:01Z</time>
      </trkpt>
      <trkpt lat="44.32117" lon="6.6979">
        <ele>1624.05</ele>
        <time>2017-06-20T15:25:06Z</time>
      </trkpt>
      <trkpt lat="44.32095" lon="6.69696">
        <ele>1620.4</ele>
        <time>2017-06-20T15:25:11Z</time>
      </trkpt>
      <trkpt lat="44.32063" lon="6.6964">
        <ele>1616.66</ele>
        <time>2017-06-20T15:25:16Z</time>
      </trkpt>
      <trkpt lat="44.32035" lon="6.69561">
        <ele>1614.95</ele>
        <time>2017-06-20T15:25:21Z</time>
      </trkpt>
      <trkpt lat="44.31982" lon="6.69502">
        <ele>1611.59</ele>
        <time>2017-06-20T15:25:26Z</time>
      </trkpt>
      <trkpt lat="44.31943" lon="6.69437">
        <ele>1608.42</ele>
        <time>2017-06-20T15:25:31Z</time>
      </trkpt>
      <trkpt lat="44.31924" lon="6.69354">
        <ele>1605.25</ele>
        <time>2017-06-20T15:25:36Z</time>
      </trkpt>
      <trkpt lat="44.31892" lon="6.69295">
        <ele>1603.13</ele>
        <time>2017-06-20T15:25:41Z</time>
      </trkpt>
      <trkpt lat="44.31876" lon="6.69242">
        <ele>1601.46</ele>
        <time>2017-06-20T15:25:46Z</time>
      </trkpt>
      <trkpt lat="44.31875" lon="6.69171">
        <ele>1600.92</ele>
        <time>2017-06-20T15:25:51Z</time>
      </trkpt>
      <trkpt lat="44.31893" lon="6.691">
        <ele>1600.83</ele>
        <time>2017-06-20T15:25:56Z</time>
      </trkpt>
      <trkpt lat="44.31921" lon="6.69032">
        <ele>1600.66</ele>
        <time>2017-06-20T15:26:01Z</time>
      </trkpt>
      <trkpt lat="44.31941" lon="6.68936">
        <ele>1599.87</ele>
        <time>2017-06-20T15:26:06Z</time>
      </trkpt>
      <trkpt lat="44.31933" lon="6.68847">
        <ele>1600.14</ele>
        <time>2017-06-20T15:26:11Z</time>
      </trkpt>
      <trkpt lat="44.31898" lon="6.68736">
        <ele>1599.73</ele>
        <time>2017-06-20T15:26:16Z</time>
      </trkpt>
      <trkpt lat="44.31864" lon="6.68661">
        <ele>1599.42</ele>
        <time>2017-06-20T15:26:21Z</time>
      </trkpt>
      <trkpt lat="44.31857" lon="6.68576">
        <ele>1599.65</ele>
        <time>2017-06-20T15:26:26Z</time>
      </trkpt>
      <trkpt lat="44.31868" lon="6.68473">
        <ele>1598.56</ele>
        <time>2017-06-20T15:26:31Z</time>
      </trkpt>
      <trkpt lat="44.31871" lon="6.68387">
        <ele>1596.33</ele>
        <time>2017-06-20T15:26:36Z</time>
      </trkpt>
      <trkpt lat="44.31885" lon="6.68275">
        <ele>1592.33</ele>
        <time>2017-06-20T15:26:41Z</time>
      </trkpt>
      <trkpt lat="44.31904" lon="6.68164">
        <ele>1585.49</ele>
        <time>2017-06-20T15:26:46Z</time>
      </trkpt>
      <trkpt lat="44.31906" lon="6.68085">
        <ele>1582.34</ele>
        <time>2017-06-20T15:26:51Z</time>
      </trkpt>
      <trkpt lat="44.31918" lon="6.68053">
        <ele>1580.07</ele>
        <time>2017-06-20T15:26:57Z</time>
      </trkpt>
      <trkpt lat="44.31941" lon="6.68035">
        <ele>1578.96</ele>
        <time>2017-06-20T15:27:02Z</time>
      </trkpt>
      <trkpt lat="44.31956" lon="6.67988">
        <ele>1577.92</ele>
        <time>2017-06-20T15:27:07Z</time>
      </trkpt>
      <trkpt lat="44.31953" lon="6.67936">
        <ele>1577.46</ele>
        <time>2017-06-20T15:27:12Z</time>
      </trkpt>
      <trkpt lat="44.31975" lon="6.6788">
        <ele>1577.44</ele>
        <time>2017-06-20T15:27:17Z</time>
      </trkpt>
      <trkpt lat="44.32026" lon="6.67809">
        <ele>1574.68</ele>
        <time>2017-06-20T15:27:22Z</time>
      </trkpt>
      <trkpt lat="44.32043" lon="6.6772">
        <ele>1570.56</ele>
        <time>2017-06-20T15:27:27Z</time>
      </trkpt>
      <trkpt lat="44.3204" lon="6.67622">
        <ele>1567.1</ele>
        <time>2017-06-20T15:27:32Z</time>
      </trkpt>
      <trkpt lat="44.32055" lon="6.67523">
        <ele>1565.38</ele>
        <time>2017-06-20T15:27:37Z</time>
      </trkpt>
      <trkpt lat="44.32102" lon="6.67451">
        <ele>1563.61</ele>
        <time>2017-06-20T15:27:42Z</time>
      </trkpt>
      <trkpt lat="44.32134" lon="6.67358">
        <ele>1561.93</ele>
        <time>2017-06-20T15:27:47Z</time>
      </trkpt>
      <trkpt lat="44.32152" lon="6.67245">
        <ele>1559.23</ele>
        <time>2017-06-20T15:27:52Z</time>
      </trkpt>
      <trkpt lat="44.32163" lon="6.67138">
        <ele>1554.87</ele>
        <time>2017-06-20T15:27:57Z</time>
      </trkpt>
      <trkpt lat="44.32146" lon="6.67053">
        <ele>1548.45</ele>
        <time>2017-06-20T15:28:02Z</time>
      </trkpt>
      <trkpt lat="44.32157" lon="6.66954">
        <ele>1542.13</ele>
        <time>2017-06-20T15:28:07Z</time>
      </trkpt>
      <trkpt lat="44.32195" lon="6.66878">
        <ele>1538.55</ele>
        <time>2017-06-20T15:28:12Z</time>
      </trkpt>
      <trkpt lat="44.32245" lon="6.66817">
        <ele>1533.78</ele>
        <time>2017-06-20T15:28:17Z</time>
      </trkpt>
      <trkpt lat="44.32301" lon="6.66784">
        <ele>1530.38</ele>
        <time>2017-06-20T15:28:22Z</time>
      </trkpt>
      <trkpt lat="44.32349" lon="6.66738">
        <ele>1527.83</ele>
        <time>2017-06-20T15:28:27Z</time>
      </trkpt>
      <trkpt lat="44.3235" lon="6.66638">
        <ele>1525.28</ele>
        <time>2017-06-20T15:28:32Z</time>
      </trkpt>
      <trkpt lat="44.32337" lon="6.66551">
        <ele>1523.28</ele>
        <time>2017-06-20T15:28:37Z</time>
      </trkpt>
      <trkpt lat="44.32348" lon="6.66441">
        <ele>1519.06</ele>
        <time>2017-06-20T15:28:42Z</time>
      </trkpt>
      <trkpt lat="44.32332" lon="6.66477">
        <ele>1515.21</ele>
        <time>2017-06-20T15:28:52Z</time>
      </trkpt>
      <trkpt lat="44.32317" lon="6.66568">
        <ele>1512.13</ele>
        <time>2017-06-20T15:28:57Z</time>
      </trkpt>
      <trkpt lat="44.32305" lon="6.66596">
        <ele>1509.47</ele>
        <time>2017-06-20T15:29:02Z</time>
      </trkpt>
      <trkpt lat="44.32312" lon="6.66535">
        <ele>1508.38</ele>
        <time>2017-06-20T15:29:07Z</time>
      </trkpt>
      <trkpt lat="44.32316" lon="6.66422">
        <ele>1504.68</ele>
        <time>2017-06-20T15:29:12Z</time>
      </trkpt>
      <trkpt lat="44.3231" lon="6.66326">
        <ele>1500.02</ele>
        <time>2017-06-20T15:29:17Z</time>
      </trkpt>
      <trkpt lat="44.32291" lon="6.66253">
        <ele>1496.52</ele>
        <time>2017-06-20T15:29:22Z</time>
      </trkpt>
      <trkpt lat="44.32278" lon="6.66169">
        <ele>1493.06</ele>
        <time>2017-06-20T15:29:27Z</time>
      </trkpt>
      <trkpt lat="44.3227" lon="6.66099">
        <ele>1488.61</ele>
        <time>2017-06-20T15:29:32Z</time>
      </trkpt>
      <trkpt lat="44.32273" lon="6.6604">
        <ele>1486.17</ele>
        <time>2017-06-20T15:29:37Z</time>
      </trkpt>
      <trkpt lat="44.3224" lon="6.6604">
        <ele>1483.48</ele>
        <time>2017-06-20T15:29:42Z</time>
      </trkpt>
      <trkpt lat="44.32197" lon="6.66001">
        <ele>1480.42</ele>
        <time>2017-06-20T15:29:47Z</time>
      </trkpt>
      <trkpt lat="44.32154" lon="6.65931">
        <ele>1475.02</ele>
        <time>2017-06-20T15:29:52Z</time>
      </trkpt>
      <trkpt lat="44.32104" lon="6.65861">
        <ele>1469.57</ele>
        <time>2017-06-20T15:29:57Z</time>
      </trkpt>
      <trkpt lat="44.32065" lon="6.65794">
        <ele>1464.99</ele>
        <time>2017-06-20T15:30:02Z</time>
      </trkpt>
      <trkpt lat="44.32045" lon="6.65721">
        <ele>1460.78</ele>
        <time>2017-06-20T15:30:07Z</time>
      </trkpt>
      <trkpt lat="44.32" lon="6.65672">
        <ele>1457.3</ele>
        <time>2017-06-20T15:30:12Z</time>
      </trkpt>
      <trkpt lat="44.31969" lon="6.65625">
        <ele>1452.52</ele>
        <time>2017-06-20T15:30:17Z</time>
      </trkpt>
      <trkpt lat="44.31964" lon="6.65556">
        <ele>1448.81</ele>
        <time>2017-06-20T15:30:22Z</time>
      </trkpt>
      <trkpt lat="44.31959" lon="6.65471">
        <ele>1445.74</ele>
        <time>2017-06-20T15:30:27Z</time>
      </trkpt>
      <trkpt lat="44.31962" lon="6.65379">
        <ele>1440.39</ele>
        <time>2017-06-20T15:30:32Z</time>
      </trkpt>
      <trkpt lat="44.31965" lon="6.65309">
        <ele>1437.49</ele>
        <time>2017-06-20T15:30:37Z</time>
      </trkpt>
      <trkpt lat="44.31968" lon="6.6524">
        <ele>1435.58</ele>
        <time>2017-06-20T15:30:42Z</time>
      </trkpt>
      <trkpt lat="44.31952" lon="6.65168">
        <ele>1433.6</ele>
        <time>2017-06-20T15:30:47Z</time>
      </trkpt>
      <trkpt lat="44.31935" lon="6.65089">
        <ele>1432.27</ele>
        <time>2017-06-20T15:30:52Z</time>
      </trkpt>
      <trkpt lat="44.31927" lon="6.65005">
        <ele>1432.19</ele>
        <time>2017-06-20T15:30:57Z</time>
      </trkpt>
      <trkpt lat="44.31925" lon="6.64942">
        <ele>1430.88</ele>
        <time>2017-06-20T15:31:02Z</time>
      </trkpt>
      <trkpt lat="44.31922" lon="6.64881">
        <ele>1430.06</ele>
        <time>2017-06-20T15:31:07Z</time>
      </trkpt>
      <trkpt lat="44.31922" lon="6.64813">
        <ele>1429.36</ele>
        <time>2017-06-20T15:31:12Z</time>
      </trkpt>
      <trkpt lat="44.31916" lon="6.64744">
        <ele>1427.36</ele>
        <time>2017-06-20T15:31:17Z</time>
      </trkpt>
      <trkpt lat="44.31904" lon="6.64661">
        <ele>1425.69</ele>
        <time>2017-06-20T15:31:22Z</time>
      </trkpt>
      <trkpt lat="44.319" lon="6.64546">
        <ele>1422.33</ele>
        <time>2017-06-20T15:31:27Z</time>
      </trkpt>
      <trkpt lat="44.31893" lon="6.64454">
        <ele>1419.06</ele>
        <time>2017-06-20T15:31:32Z</time>
      </trkpt>
      <trkpt lat="44.31871" lon="6.64394">
        <ele>1416.5</ele>
        <time>2017-06-20T15:31:37Z</time>
      </trkpt>
      <trkpt lat="44.31856" lon="6.6434">
        <ele>1413.93</ele>
        <time>2017-06-20T15:31:42Z</time>
      </trkpt>
      <trkpt lat="44.3184" lon="6.64258">
        <ele>1412.13</ele>
        <time>2017-06-20T15:31:47Z</time>
      </trkpt>
      <trkpt lat="44.31836" lon="6.64142">
        <ele>1408.13</ele>
        <time>2017-06-20T15:31:52Z</time>
      </trkpt>
      <trkpt lat="44.31839" lon="6.64032">
        <ele>1404.91</ele>
        <time>2017-06-20T15:31:57Z</time>
      </trkpt>
      <trkpt lat="44.31827" lon="6.63914">
        <ele>1400.93</ele>
        <time>2017-06-20T15:32:02Z</time>
      </trkpt>
      <trkpt lat="44.3182" lon="6.63811">
        <ele>1397.33</ele>
        <time>2017-06-20T15:32:07Z</time>
      </trkpt>
      <trkpt lat="44.31815" lon="6.63711">
        <ele>1392.77</ele>
        <time>2017-06-20T15:32:12Z</time>
      </trkpt>
      <trkpt lat="44.31827" lon="6.63612">
        <ele>1390.37</ele>
        <time>2017-06-20T15:32:17Z</time>
      </trkpt>
      <trkpt lat="44.31832" lon="6.63502">
        <ele>1387.68</ele>
        <time>2017-06-20T15:32:22Z</time>
      </trkpt>
      <trkpt lat="44.3185" lon="6.63418">
        <ele>1383.95</ele>
        <time>2017-06-20T15:32:27Z</time>
      </trkpt>
      <trkpt lat="44.31858" lon="6.63323">
        <ele>1381.69</ele>
        <time>2017-06-20T15:32:32Z</time>
      </trkpt>
      <trkpt lat="44.31858" lon="6.63239">
        <ele>1378.24</ele>
        <time>2017-06-20T15:32:37Z</time>
      </trkpt>
      <trkpt lat="44.31869" lon="6.63173">
        <ele>1375.21</ele>
        <time>2017-06-20T15:32:42Z</time>
      </trkpt>
      <trkpt lat="44.31875" lon="6.63108">
        <ele>1371.95</ele>
        <time>2017-06-20T15:32:47Z</time>
      </trkpt>
      <trkpt lat="44.31865" lon="6.63062">
        <ele>1369.85</ele>
        <time>2017-06-20T15:32:52Z</time>
      </trkpt>
      <trkpt lat="44.31855" lon="6.63006">
        <ele>1367.88</ele>
        <time>2017-06-20T15:32:57Z</time>
      </trkpt>
      <trkpt lat="44.31877" lon="6.62941">
        <ele>1365.93</ele>
        <time>2017-06-20T15:33:02Z</time>
      </trkpt>
      <trkpt lat="44.31898" lon="6.62861">
        <ele>1363.29</ele>
        <time>2017-06-20T15:33:07Z</time>
      </trkpt>
      <trkpt lat="44.31916" lon="6.62787">
        <ele>1360.15</ele>
        <time>2017-06-20T15:33:12Z</time>
      </trkpt>
      <trkpt lat="44.31949" lon="6.6272">
        <ele>1355.76</ele>
        <time>2017-06-20T15:33:17Z</time>
      </trkpt>
      <trkpt lat="44.31979" lon="6.62665">
        <ele>1351.77</ele>
        <time>2017-06-20T15:33:22Z</time>
      </trkpt>
      <trkpt lat="44.32" lon="6.6262">
        <ele>1349.26</ele>
        <time>2017-06-20T15:33:27Z</time>
      </trkpt>
      <trkpt lat="44.32013" lon="6.6257">
        <ele>1347.55</ele>
        <time>2017-06-20T15:33:32Z</time>
      </trkpt>
      <trkpt lat="44.32018" lon="6.62516">
        <ele>1344.61</ele>
        <time>2017-06-20T15:33:37Z</time>
      </trkpt>
      <trkpt lat="44.32026" lon="6.62458">
        <ele>1341.72</ele>
        <time>2017-06-20T15:33:42Z</time>
      </trkpt>
      <trkpt lat="44.32011" lon="6.62387">
        <ele>1338.81</ele>
        <time>2017-06-20T15:33:47Z</time>
      </trkpt>
      <trkpt lat="44.31993" lon="6.62335">
        <ele>1335.15</ele>
        <time>2017-06-20T15:33:52Z</time>
      </trkpt>
      <trkpt lat="44.32013" lon="6.62271">
        <ele>1331.93</ele>
        <time>2017-06-20T15:33:57Z</time>
      </trkpt>
      <trkpt lat="44.32023" lon="6.62199">
        <ele>1327.93</ele>
        <time>2017-06-20T15:34:02Z</time>
      </trkpt>
      <trkpt lat="44.32036" lon="6.62118">
        <ele>1324.71</ele>
        <time>2017-06-20T15:34:07Z</time>
      </trkpt>
      <trkpt lat="44.32039" lon="6.62032">
        <ele>1320.38</ele>
        <time>2017-06-20T15:34:12Z</time>
      </trkpt>
      <trkpt lat="44.3204" lon="6.61975">
        <ele>1317.58</ele>
        <time>2017-06-20T15:34:17Z</time>
      </trkpt>
      <trkpt lat="44.32051" lon="6.61919">
        <ele>1315.33</ele>
        <time>2017-06-20T15:34:22Z</time>
      </trkpt>
      <trkpt lat="44.32072" lon="6.61852">
        <ele>1312.45</ele>
        <time>2017-06-20T15:34:27Z</time>
      </trkpt>
      <trkpt lat="44.32112" lon="6.618">
        <ele>1308.81</ele>
        <time>2017-06-20T15:34:32Z</time>
      </trkpt>
      <trkpt lat="44.32145" lon="6.61753">
        <ele>1305.59</ele>
        <time>2017-06-20T15:34:37Z</time>
      </trkpt>
      <trkpt lat="44.32199" lon="6.61707">
        <ele>1301.19</ele>
        <time>2017-06-20T15:34:42Z</time>
      </trkpt>
      <trkpt lat="44.32237" lon="6.61668">
        <ele>1297.95</ele>
        <time>2017-06-20T15:34:47Z</time>
      </trkpt>
      <trkpt lat="44.32237" lon="6.61619">
        <ele>1296.02</ele>
        <time>2017-06-20T15:34:52Z</time>
      </trkpt>
      <trkpt lat="44.3223" lon="6.6157">
        <ele>1294.72</ele>
        <time>2017-06-20T15:34:57Z</time>
      </trkpt>
      <trkpt lat="44.32248" lon="6.61526">
        <ele>1293.34</ele>
        <time>2017-06-20T15:35:02Z</time>
      </trkpt>
      <trkpt lat="44.32289" lon="6.61501">
        <ele>1292.5</ele>
        <time>2017-06-20T15:35:07Z</time>
      </trkpt>
      <trkpt lat="44.32341" lon="6.61483">
        <ele>1290.07</ele>
        <time>2017-06-20T15:35:12Z</time>
      </trkpt>
      <trkpt lat="44.32395" lon="6.61443">
        <ele>1286.76</ele>
        <time>2017-06-20T15:35:17Z</time>
      </trkpt>
      <trkpt lat="44.32434" lon="6.61403">
        <ele>1284</ele>
        <time>2017-06-20T15:35:22Z</time>
      </trkpt>
      <trkpt lat="44.32472" lon="6.61393">
        <ele>1282.15</ele>
        <time>2017-06-20T15:35:27Z</time>
      </trkpt>
      <trkpt lat="44.32517" lon="6.6139">
        <ele>1279.77</ele>
        <time>2017-06-20T15:35:32Z</time>
      </trkpt>
      <trkpt lat="44.32561" lon="6.61389">
        <ele>1277.58</ele>
        <time>2017-06-20T15:35:37Z</time>
      </trkpt>
      <trkpt lat="44.32604" lon="6.6136">
        <ele>1275.15</ele>
        <time>2017-06-20T15:35:42Z</time>
      </trkpt>
      <trkpt lat="44.32632" lon="6.61356">
        <ele>1273.78</ele>
        <time>2017-06-20T15:35:47Z</time>
      </trkpt>
      <trkpt lat="44.32675" lon="6.61379">
        <ele>1272.56</ele>
        <time>2017-06-20T15:35:52Z</time>
      </trkpt>
      <trkpt lat="44.32727" lon="6.61379">
        <ele>1269.97</ele>
        <time>2017-06-20T15:35:57Z</time>
      </trkpt>
      <trkpt lat="44.3277" lon="6.61346">
        <ele>1267.02</ele>
        <time>2017-06-20T15:36:02Z</time>
      </trkpt>
      <trkpt lat="44.32812" lon="6.61337">
        <ele>1264.79</ele>
        <time>2017-06-20T15:36:07Z</time>
      </trkpt>
      <trkpt lat="44.32884" lon="6.61338">
        <ele>1262.21</ele>
        <time>2017-06-20T15:36:12Z</time>
      </trkpt>
      <trkpt lat="44.32966" lon="6.61368">
        <ele>1257.61</ele>
        <time>2017-06-20T15:36:17Z</time>
      </trkpt>
      <trkpt lat="44.33042" lon="6.61419">
        <ele>1252.94</ele>
        <time>2017-06-20T15:36:22Z</time>
      </trkpt>
      <trkpt lat="44.33096" lon="6.61446">
        <ele>1250.06</ele>
        <time>2017-06-20T15:36:27Z</time>
      </trkpt>
      <trkpt lat="44.33148" lon="6.61428">
        <ele>1247.55</ele>
        <time>2017-06-20T15:36:32Z</time>
      </trkpt>
      <trkpt lat="44.33191" lon="6.61383">
        <ele>1245.57</ele>
        <time>2017-06-20T15:36:37Z</time>
      </trkpt>
      <trkpt lat="44.33273" lon="6.61396">
        <ele>1244.12</ele>
        <time>2017-06-20T15:36:42Z</time>
      </trkpt>
      <trkpt lat="44.33338" lon="6.61426">
        <ele>1240.59</ele>
        <time>2017-06-20T15:36:47Z</time>
      </trkpt>
      <trkpt lat="44.33368" lon="6.61462">
        <ele>1240.01</ele>
        <time>2017-06-20T15:36:52Z</time>
      </trkpt>
      <trkpt lat="44.33417" lon="6.6148">
        <ele>1238.32</ele>
        <time>2017-06-20T15:36:57Z</time>
      </trkpt>
      <trkpt lat="44.33488" lon="6.61537">
        <ele>1235.71</ele>
        <time>2017-06-20T15:37:02Z</time>
      </trkpt>
      <trkpt lat="44.33551" lon="6.61588">
        <ele>1232.92</ele>
        <time>2017-06-20T15:37:07Z</time>
      </trkpt>
      <trkpt lat="44.33602" lon="6.61642">
        <ele>1229.39</ele>
        <time>2017-06-20T15:37:12Z</time>
      </trkpt>
      <trkpt lat="44.33672" lon="6.61632">
        <ele>1225.81</ele>
        <time>2017-06-20T15:37:17Z</time>
      </trkpt>
      <trkpt lat="44.33757" lon="6.6165">
        <ele>1224.64</ele>
        <time>2017-06-20T15:37:22Z</time>
      </trkpt>
      <trkpt lat="44.33847" lon="6.61653">
        <ele>1222.91</ele>
        <time>2017-06-20T15:37:27Z</time>
      </trkpt>
      <trkpt lat="44.33882" lon="6.61691">
        <ele>1221.08</ele>
        <time>2017-06-20T15:37:32Z</time>
      </trkpt>
      <trkpt lat="44.33902" lon="6.61741">
        <ele>1221.55</ele>
        <time>2017-06-20T15:37:37Z</time>
      </trkpt>
      <trkpt lat="44.33974" lon="6.61774">
        <ele>1220.47</ele>
        <time>2017-06-20T15:37:42Z</time>
      </trkpt>
      <trkpt lat="44.34053" lon="6.61837">
        <ele>1218.34</ele>
        <time>2017-06-20T15:37:47Z</time>
      </trkpt>
      <trkpt lat="44.34093" lon="6.61917">
        <ele>1216.83</ele>
        <time>2017-06-20T15:37:52Z</time>
      </trkpt>
      <trkpt lat="44.34172" lon="6.61929">
        <ele>1216.76</ele>
        <time>2017-06-20T15:37:57Z</time>
      </trkpt>
      <trkpt lat="44.34261" lon="6.6191">
        <ele>1216.09</ele>
        <time>2017-06-20T15:38:02Z</time>
      </trkpt>
      <trkpt lat="44.34328" lon="6.61941">
        <ele>1214.83</ele>
        <time>2017-06-20T15:38:07Z</time>
      </trkpt>
      <trkpt lat="44.34409" lon="6.61975">
        <ele>1215.82</ele>
        <time>2017-06-20T15:38:12Z</time>
      </trkpt>
      <trkpt lat="44.34495" lon="6.61978">
        <ele>1212.43</ele>
        <time>2017-06-20T15:38:17Z</time>
      </trkpt>
      <trkpt lat="44.3456" lon="6.61989">
        <ele>1212.93</ele>
        <time>2017-06-20T15:38:22Z</time>
      </trkpt>
      <trkpt lat="44.34632" lon="6.62008">
        <ele>1211.49</ele>
        <time>2017-06-20T15:38:27Z</time>
      </trkpt>
      <trkpt lat="44.34728" lon="6.61988">
        <ele>1210.74</ele>
        <time>2017-06-20T15:38:32Z</time>
      </trkpt>
      <trkpt lat="44.34842" lon="6.61963">
        <ele>1206.57</ele>
        <time>2017-06-20T15:38:37Z</time>
      </trkpt>
      <trkpt lat="44.34952" lon="6.61925">
        <ele>1200.81</ele>
        <time>2017-06-20T15:38:42Z</time>
      </trkpt>
      <trkpt lat="44.35046" lon="6.61947">
        <ele>1198.2</ele>
        <time>2017-06-20T15:38:47Z</time>
      </trkpt>
      <trkpt lat="44.35122" lon="6.6201">
        <ele>1197.37</ele>
        <time>2017-06-20T15:38:52Z</time>
      </trkpt>
      <trkpt lat="44.3521" lon="6.62031">
        <ele>1195.79</ele>
        <time>2017-06-20T15:38:57Z</time>
      </trkpt>
      <trkpt lat="44.35274" lon="6.62093">
        <ele>1194.92</ele>
        <time>2017-06-20T15:39:02Z</time>
      </trkpt>
      <trkpt lat="44.35355" lon="6.62142">
        <ele>1194.37</ele>
        <time>2017-06-20T15:39:07Z</time>
      </trkpt>
      <trkpt lat="44.35443" lon="6.62172">
        <ele>1192.01</ele>
        <time>2017-06-20T15:39:12Z</time>
      </trkpt>
      <trkpt lat="44.35503" lon="6.62235">
        <ele>1191.54</ele>
        <time>2017-06-20T15:39:17Z</time>
      </trkpt>
      <trkpt lat="44.35594" lon="6.62256">
        <ele>1187.88</ele>
        <time>2017-06-20T15:39:22Z</time>
      </trkpt>
      <trkpt lat="44.35689" lon="6.62309">
        <ele>1182.75</ele>
        <time>2017-06-20T15:39:27Z</time>
      </trkpt>
      <trkpt lat="44.35772" lon="6.62351">
        <ele>1177.58</ele>
        <time>2017-06-20T15:39:32Z</time>
      </trkpt>
      <trkpt lat="44.35855" lon="6.62409">
        <ele>1173.39</ele>
        <time>2017-06-20T15:39:37Z</time>
      </trkpt>
      <trkpt lat="44.35938" lon="6.62447">
        <ele>1169.61</ele>
        <time>2017-06-20T15:39:42Z</time>
      </trkpt>
      <trkpt lat="44.36002" lon="6.62482">
        <ele>1165.67</ele>
        <time>2017-06-20T15:39:47Z</time>
      </trkpt>
      <trkpt lat="44.3605" lon="6.62513">
        <ele>1162.8</ele>
        <time>2017-06-20T15:39:52Z</time>
      </trkpt>
      <trkpt lat="44.36095" lon="6.62574">
        <ele>1160.97</ele>
        <time>2017-06-20T15:39:57Z</time>
      </trkpt>
      <trkpt lat="44.36138" lon="6.62654">
        <ele>1158.84</ele>
        <time>2017-06-20T15:40:02Z</time>
      </trkpt>
      <trkpt lat="44.362" lon="6.6271">
        <ele>1156.2</ele>
        <time>2017-06-20T15:40:07Z</time>
      </trkpt>
      <trkpt lat="44.36282" lon="6.6275">
        <ele>1152.78</ele>
        <time>2017-06-20T15:40:12Z</time>
      </trkpt>
      <trkpt lat="44.36366" lon="6.62779">
        <ele>1151.13</ele>
        <time>2017-06-20T15:40:17Z</time>
      </trkpt>
      <trkpt lat="44.36456" lon="6.62792">
        <ele>1147.84</ele>
        <time>2017-06-20T15:40:22Z</time>
      </trkpt>
      <trkpt lat="44.36555" lon="6.62794">
        <ele>1146</ele>
        <time>2017-06-20T15:40:27Z</time>
      </trkpt>
      <trkpt lat="44.36656" lon="6.62791">
        <ele>1143.85</ele>
        <time>2017-06-20T15:40:32Z</time>
      </trkpt>
      <trkpt lat="44.36755" lon="6.62793">
        <ele>1141.75</ele>
        <time>2017-06-20T15:40:37Z</time>
      </trkpt>
      <trkpt lat="44.36847" lon="6.62795">
        <ele>1139.23</ele>
        <time>2017-06-20T15:40:42Z</time>
      </trkpt>
      <trkpt lat="44.36941" lon="6.62792">
        <ele>1137.63</ele>
        <time>2017-06-20T15:40:47Z</time>
      </trkpt>
      <trkpt lat="44.37038" lon="6.62788">
        <ele>1135.66</ele>
        <time>2017-06-20T15:40:52Z</time>
      </trkpt>
      <trkpt lat="44.37131" lon="6.62786">
        <ele>1133.4</ele>
        <time>2017-06-20T15:40:57Z</time>
      </trkpt>
      <trkpt lat="44.37222" lon="6.62782">
        <ele>1131.26</ele>
        <time>2017-06-20T15:41:02Z</time>
      </trkpt>
      <trkpt lat="44.37311" lon="6.62779">
        <ele>1128.49</ele>
        <time>2017-06-20T15:41:07Z</time>
      </trkpt>
      <trkpt lat="44.37399" lon="6.62778">
        <ele>1126</ele>
        <time>2017-06-20T15:41:12Z</time>
      </trkpt>
      <trkpt lat="44.3748" lon="6.62777">
        <ele>1123.97</ele>
        <time>2017-06-20T15:41:17Z</time>
      </trkpt>
      <trkpt lat="44.3754" lon="6.62774">
        <ele>1121.86</ele>
        <time>2017-06-20T15:41:22Z</time>
      </trkpt>
      <trkpt lat="44.37567" lon="6.62772">
        <ele>1120.83</ele>
        <time>2017-06-20T15:41:27Z</time>
      </trkpt>
      <trkpt lat="44.37607" lon="6.62784">
        <ele>1120.78</ele>
        <time>2017-06-20T15:41:32Z</time>
      </trkpt>
      <trkpt lat="44.37673" lon="6.62802">
        <ele>1120.58</ele>
        <time>2017-06-20T15:41:37Z</time>
      </trkpt>
      <trkpt lat="44.37745" lon="6.62821">
        <ele>1119.21</ele>
        <time>2017-06-20T15:41:42Z</time>
      </trkpt>
      <trkpt lat="44.37827" lon="6.6284">
        <ele>1118.48</ele>
        <time>2017-06-20T15:41:47Z</time>
      </trkpt>
      <trkpt lat="44.37891" lon="6.62858">
        <ele>1117.65</ele>
        <time>2017-06-20T15:41:52Z</time>
      </trkpt>
      <trkpt lat="44.37958" lon="6.62889">
        <ele>1117.36</ele>
        <time>2017-06-20T15:41:57Z</time>
      </trkpt>
      <trkpt lat="44.3803" lon="6.62929">
        <ele>1116.34</ele>
        <time>2017-06-20T15:42:02Z</time>
      </trkpt>
      <trkpt lat="44.38101" lon="6.62981">
        <ele>1114.04</ele>
        <time>2017-06-20T15:42:07Z</time>
      </trkpt>
      <trkpt lat="44.38173" lon="6.63063">
        <ele>1112.38</ele>
        <time>2017-06-20T15:42:12Z</time>
      </trkpt>
      <trkpt lat="44.38223" lon="6.63142">
        <ele>1111.06</ele>
        <time>2017-06-20T15:42:17Z</time>
      </trkpt>
      <trkpt lat="44.38254" lon="6.63249">
        <ele>1112.09</ele>
        <time>2017-06-20T15:42:22Z</time>
      </trkpt>
      <trkpt lat="44.38285" lon="6.63368">
        <ele>1113.4</ele>
        <time>2017-06-20T15:42:27Z</time>
      </trkpt>
      <trkpt lat="44.38297" lon="6.63499">
        <ele>1113.65</ele>
        <time>2017-06-20T15:42:32Z</time>
      </trkpt>
      <trkpt lat="44.38303" lon="6.63629">
        <ele>1115.3</ele>
        <time>2017-06-20T15:42:37Z</time>
      </trkpt>
      <trkpt lat="44.38314" lon="6.6376">
        <ele>1116.72</ele>
        <time>2017-06-20T15:42:42Z</time>
      </trkpt>
      <trkpt lat="44.38333" lon="6.63883">
        <ele>1117.93</ele>
        <time>2017-06-20T15:42:47Z</time>
      </trkpt>
      <trkpt lat="44.38351" lon="6.63998">
        <ele>1118.79</ele>
        <time>2017-06-20T15:42:52Z</time>
      </trkpt>
      <trkpt lat="44.38366" lon="6.64102">
        <ele>1118.86</ele>
        <time>2017-06-20T15:42:57Z</time>
      </trkpt>
      <trkpt lat="44.38378" lon="6.64184">
        <ele>1118.9</ele>
        <time>2017-06-20T15:43:02Z</time>
      </trkpt>
      <trkpt lat="44.38387" lon="6.64265">
        <ele>1119.78</ele>
        <time>2017-06-20T15:43:07Z</time>
      </trkpt>
      <trkpt lat="44.384" lon="6.64357">
        <ele>1121.5</ele>
        <time>2017-06-20T15:43:12Z</time>
      </trkpt>
      <trkpt lat="44.38416" lon="6.64448">
        <ele>1123.11</ele>
        <time>2017-06-20T15:43:17Z</time>
      </trkpt>
      <trkpt lat="44.3843" lon="6.64535">
        <ele>1123.71</ele>
        <time>2017-06-20T15:43:22Z</time>
      </trkpt>
      <trkpt lat="44.38443" lon="6.6462">
        <ele>1124.87</ele>
        <time>2017-06-20T15:43:27Z</time>
      </trkpt>
      <trkpt lat="44.38453" lon="6.64701">
        <ele>1125.98</ele>
        <time>2017-06-20T15:43:32Z</time>
      </trkpt>
      <trkpt lat="44.38453" lon="6.64775">
        <ele>1127.61</ele>
        <time>2017-06-20T15:43:37Z</time>
      </trkpt>
      <trkpt lat="44.38449" lon="6.64834">
        <ele>1130.38</ele>
        <time>2017-06-20T15:43:42Z</time>
      </trkpt>
      <trkpt lat="44.38474" lon="6.64864">
        <ele>1132.22</ele>
        <time>2017-06-20T15:43:47Z</time>
      </trkpt>
      <trkpt lat="44.38497" lon="6.6488">
        <ele>1132</ele>
        <time>2017-06-20T15:43:52Z</time>
      </trkpt>
      <trkpt lat="44.38519" lon="6.64913">
        <ele>1131.02</ele>
        <time>2017-06-20T15:43:57Z</time>
      </trkpt>
      <trkpt lat="44.38536" lon="6.6495">
        <ele>1129.89</ele>
        <time>2017-06-20T15:44:02Z</time>
      </trkpt>
      <trkpt lat="44.38553" lon="6.64988">
        <ele>1130.48</ele>
        <time>2017-06-20T15:44:07Z</time>
      </trkpt>
      <trkpt lat="44.38563" lon="6.65017">
        <ele>1130.96</ele>
        <time>2017-06-20T15:44:14Z</time>
      </trkpt>
      <trkpt lat="44.38576" lon="6.6505">
        <ele>1145.42</ele>
        <time>2017-06-20T15:47:00Z</time>
      </trkpt>
      <trkpt lat="44.38584" lon="6.65084">
        <ele>1145.69</ele>
        <time>2017-06-20T15:47:05Z</time>
      </trkpt>
      <trkpt lat="44.38575" lon="6.65114">
        <ele>1146.32</ele>
        <time>2017-06-20T15:47:17Z</time>
      </trkpt>
      <trkpt lat="44.38539" lon="6.65122">
        <ele>1146.91</ele>
        <time>2017-06-20T15:47:22Z</time>
      </trkpt>
      <trkpt lat="44.38505" lon="6.65133">
        <ele>1146.75</ele>
        <time>2017-06-20T15:47:27Z</time>
      </trkpt>
      <trkpt lat="44.3847" lon="6.65145">
        <ele>1148.08</ele>
        <time>2017-06-20T15:47:32Z</time>
      </trkpt>
      <trkpt lat="44.38445" lon="6.65151">
        <ele>1149.06</ele>
        <time>2017-06-20T15:47:37Z</time>
      </trkpt>
      <trkpt lat="44.38434" lon="6.65202">
        <ele>1150.4</ele>
        <time>2017-06-20T15:47:42Z</time>
      </trkpt>
      <trkpt lat="44.38428" lon="6.65278">
        <ele>1150.42</ele>
        <time>2017-06-20T15:47:47Z</time>
      </trkpt>
      <trkpt lat="44.3842" lon="6.65362">
        <ele>1151.3</ele>
        <time>2017-06-20T15:47:52Z</time>
      </trkpt>
      <trkpt lat="44.38413" lon="6.65447">
        <ele>1151.72</ele>
        <time>2017-06-20T15:47:57Z</time>
      </trkpt>
      <trkpt lat="44.38408" lon="6.65514">
        <ele>1152.15</ele>
        <time>2017-06-20T15:48:02Z</time>
      </trkpt>
      <trkpt lat="44.38406" lon="6.6556">
        <ele>1151.87</ele>
        <time>2017-06-20T15:48:07Z</time>
      </trkpt>
      <trkpt lat="44.38405" lon="6.65595">
        <ele>1151.78</ele>
        <time>2017-06-20T15:48:17Z</time>
      </trkpt>
      <trkpt lat="44.38402" lon="6.6563">
        <ele>1152.06</ele>
        <time>2017-06-20T15:48:24Z</time>
      </trkpt>
      <trkpt lat="44.38402" lon="6.65666">
        <ele>1152.25</ele>
        <time>2017-06-20T15:48:30Z</time>
      </trkpt>
      <trkpt lat="44.38401" lon="6.65705">
        <ele>1152.93</ele>
        <time>2017-06-20T15:48:35Z</time>
      </trkpt>
      <trkpt lat="44.38401" lon="6.65753">
        <ele>1153.46</ele>
        <time>2017-06-20T15:48:40Z</time>
      </trkpt>
      <trkpt lat="44.38402" lon="6.65802">
        <ele>1154.52</ele>
        <time>2017-06-20T15:48:45Z</time>
      </trkpt>
      <trkpt lat="44.38412" lon="6.65882">
        <ele>1155.13</ele>
        <time>2017-06-20T15:48:50Z</time>
      </trkpt>
      <trkpt lat="44.38438" lon="6.65979">
        <ele>1156.17</ele>
        <time>2017-06-20T15:48:55Z</time>
      </trkpt>
      <trkpt lat="44.38477" lon="6.66073">
        <ele>1155.89</ele>
        <time>2017-06-20T15:49:00Z</time>
      </trkpt>
      <trkpt lat="44.38519" lon="6.66144">
        <ele>1156.29</ele>
        <time>2017-06-20T15:49:05Z</time>
      </trkpt>
      <trkpt lat="44.38559" lon="6.6621">
        <ele>1157.03</ele>
        <time>2017-06-20T15:49:10Z</time>
      </trkpt>
      <trkpt lat="44.38602" lon="6.66276">
        <ele>1157.44</ele>
        <time>2017-06-20T15:49:15Z</time>
      </trkpt>
      <trkpt lat="44.38646" lon="6.66341">
        <ele>1157.73</ele>
        <time>2017-06-20T15:49:20Z</time>
      </trkpt>
      <trkpt lat="44.38688" lon="6.66405">
        <ele>1158.85</ele>
        <time>2017-06-20T15:49:25Z</time>
      </trkpt>
      <trkpt lat="44.38732" lon="6.6647">
        <ele>1159.36</ele>
        <time>2017-06-20T15:49:30Z</time>
      </trkpt>
      <trkpt lat="44.38779" lon="6.66541">
        <ele>1160.12</ele>
        <time>2017-06-20T15:49:35Z</time>
      </trkpt>
      <trkpt lat="44.38827" lon="6.66611">
        <ele>1160.93</ele>
        <time>2017-06-20T15:49:40Z</time>
      </trkpt>
      <trkpt lat="44.38873" lon="6.66681">
        <ele>1161.07</ele>
        <time>2017-06-20T15:49:45Z</time>
      </trkpt>
      <trkpt lat="44.38916" lon="6.66746">
        <ele>1161.61</ele>
        <time>2017-06-20T15:49:50Z</time>
      </trkpt>
      <trkpt lat="44.38945" lon="6.6678">
        <ele>1162.2</ele>
        <time>2017-06-20T15:49:55Z</time>
      </trkpt>
      <trkpt lat="44.38965" lon="6.66797">
        <ele>1163.19</ele>
        <time>2017-06-20T15:50:02Z</time>
      </trkpt>
      <trkpt lat="44.38991" lon="6.66801">
        <ele>1163.14</ele>
        <time>2017-06-20T15:50:07Z</time>
      </trkpt>
      <trkpt lat="44.39004" lon="6.66833">
        <ele>1163.93</ele>
        <time>2017-06-20T15:50:12Z</time>
      </trkpt>
      <trkpt lat="44.39023" lon="6.66912">
        <ele>1165.48</ele>
        <time>2017-06-20T15:50:17Z</time>
      </trkpt>
      <trkpt lat="44.39053" lon="6.66991">
        <ele>1167.9</ele>
        <time>2017-06-20T15:50:22Z</time>
      </trkpt>
      <trkpt lat="44.39118" lon="6.67066">
        <ele>1167.89</ele>
        <time>2017-06-20T15:50:27Z</time>
      </trkpt>
      <trkpt lat="44.39141" lon="6.67175">
        <ele>1169.15</ele>
        <time>2017-06-20T15:50:32Z</time>
      </trkpt>
      <trkpt lat="44.39143" lon="6.67302">
        <ele>1171.95</ele>
        <time>2017-06-20T15:50:37Z</time>
      </trkpt>
      <trkpt lat="44.39142" lon="6.67441">
        <ele>1173.61</ele>
        <time>2017-06-20T15:50:42Z</time>
      </trkpt>
      <trkpt lat="44.39146" lon="6.67574">
        <ele>1174.38</ele>
        <time>2017-06-20T15:50:47Z</time>
      </trkpt>
      <trkpt lat="44.39149" lon="6.67676">
        <ele>1174.99</ele>
        <time>2017-06-20T15:50:52Z</time>
      </trkpt>
      <trkpt lat="44.3915" lon="6.67746">
        <ele>1175.72</ele>
        <time>2017-06-20T15:50:57Z</time>
      </trkpt>
      <trkpt lat="44.3915" lon="6.67808">
        <ele>1176.14</ele>
        <time>2017-06-20T15:51:02Z</time>
      </trkpt>
      <trkpt lat="44.39153" lon="6.67911">
        <ele>1178.58</ele>
        <time>2017-06-20T15:51:07Z</time>
      </trkpt>
      <trkpt lat="44.39154" lon="6.68051">
        <ele>1180.6</ele>
        <time>2017-06-20T15:51:12Z</time>
      </trkpt>
      <trkpt lat="44.39156" lon="6.68197">
        <ele>1181.74</ele>
        <time>2017-06-20T15:51:17Z</time>
      </trkpt>
      <trkpt lat="44.3917" lon="6.68343">
        <ele>1182.03</ele>
        <time>2017-06-20T15:51:22Z</time>
      </trkpt>
      <trkpt lat="44.39211" lon="6.685">
        <ele>1183.06</ele>
        <time>2017-06-20T15:51:27Z</time>
      </trkpt>
      <trkpt lat="44.39252" lon="6.68637">
        <ele>1182.66</ele>
        <time>2017-06-20T15:51:32Z</time>
      </trkpt>
      <trkpt lat="44.39318" lon="6.68751">
        <ele>1184.2</ele>
        <time>2017-06-20T15:51:37Z</time>
      </trkpt>
      <trkpt lat="44.39393" lon="6.68872">
        <ele>1185.39</ele>
        <time>2017-06-20T15:51:42Z</time>
      </trkpt>
      <trkpt lat="44.39474" lon="6.68992">
        <ele>1185.48</ele>
        <time>2017-06-20T15:51:47Z</time>
      </trkpt>
      <trkpt lat="44.39558" lon="6.69089">
        <ele>1186.49</ele>
        <time>2017-06-20T15:51:52Z</time>
      </trkpt>
      <trkpt lat="44.39642" lon="6.69166">
        <ele>1188.26</ele>
        <time>2017-06-20T15:51:57Z</time>
      </trkpt>
      <trkpt lat="44.39728" lon="6.69239">
        <ele>1190.12</ele>
        <time>2017-06-20T15:52:02Z</time>
      </trkpt>
      <trkpt lat="44.39821" lon="6.69317">
        <ele>1190.07</ele>
        <time>2017-06-20T15:52:07Z</time>
      </trkpt>
      <trkpt lat="44.39913" lon="6.69393">
        <ele>1191.97</ele>
        <time>2017-06-20T15:52:12Z</time>
      </trkpt>
      <trkpt lat="44.39975" lon="6.69498">
        <ele>1192.02</ele>
        <time>2017-06-20T15:52:17Z</time>
      </trkpt>
      <trkpt lat="44.40022" lon="6.69634">
        <ele>1193.99</ele>
        <time>2017-06-20T15:52:22Z</time>
      </trkpt>
      <trkpt lat="44.40071" lon="6.69775">
        <ele>1195.32</ele>
        <time>2017-06-20T15:52:27Z</time>
      </trkpt>
      <trkpt lat="44.40121" lon="6.69918">
        <ele>1197.56</ele>
        <time>2017-06-20T15:52:32Z</time>
      </trkpt>
      <trkpt lat="44.40168" lon="6.70056">
        <ele>1198.77</ele>
        <time>2017-06-20T15:52:37Z</time>
      </trkpt>
      <trkpt lat="44.40228" lon="6.70148">
        <ele>1199.61</ele>
        <time>2017-06-20T15:52:42Z</time>
      </trkpt>
      <trkpt lat="44.40322" lon="6.70185">
        <ele>1198.69</ele>
        <time>2017-06-20T15:52:47Z</time>
      </trkpt>
      <trkpt lat="44.40395" lon="6.70245">
        <ele>1197.07</ele>
        <time>2017-06-20T15:52:52Z</time>
      </trkpt>
      <trkpt lat="44.4043" lon="6.70368">
        <ele>1196.5</ele>
        <time>2017-06-20T15:52:57Z</time>
      </trkpt>
      <trkpt lat="44.40464" lon="6.70507">
        <ele>1195.44</ele>
        <time>2017-06-20T15:53:02Z</time>
      </trkpt>
      <trkpt lat="44.40483" lon="6.70653">
        <ele>1197.46</ele>
        <time>2017-06-20T15:53:07Z</time>
      </trkpt>
      <trkpt lat="44.40483" lon="6.708">
        <ele>1197.91</ele>
        <time>2017-06-20T15:53:12Z</time>
      </trkpt>
      <trkpt lat="44.40484" lon="6.70948">
        <ele>1200.27</ele>
        <time>2017-06-20T15:53:17Z</time>
      </trkpt>
      <trkpt lat="44.40485" lon="6.71096">
        <ele>1204.15</ele>
        <time>2017-06-20T15:53:22Z</time>
      </trkpt>
      <trkpt lat="44.40496" lon="6.71226">
        <ele>1205.74</ele>
        <time>2017-06-20T15:53:27Z</time>
      </trkpt>
      <trkpt lat="44.40516" lon="6.71362">
        <ele>1208.97</ele>
        <time>2017-06-20T15:53:32Z</time>
      </trkpt>
      <trkpt lat="44.40538" lon="6.71507">
        <ele>1210.71</ele>
        <time>2017-06-20T15:53:37Z</time>
      </trkpt>
      <trkpt lat="44.40562" lon="6.71658">
        <ele>1214.85</ele>
        <time>2017-06-20T15:53:42Z</time>
      </trkpt>
      <trkpt lat="44.40588" lon="6.71803">
        <ele>1217.48</ele>
        <time>2017-06-20T15:53:47Z</time>
      </trkpt>
      <trkpt lat="44.40616" lon="6.71904">
        <ele>1219.19</ele>
        <time>2017-06-20T15:53:52Z</time>
      </trkpt>
      <trkpt lat="44.40642" lon="6.71985">
        <ele>1220.89</ele>
        <time>2017-06-20T15:53:57Z</time>
      </trkpt>
      <trkpt lat="44.40674" lon="6.72083">
        <ele>1222.33</ele>
        <time>2017-06-20T15:54:02Z</time>
      </trkpt>
      <trkpt lat="44.40705" lon="6.72195">
        <ele>1224.03</ele>
        <time>2017-06-20T15:54:07Z</time>
      </trkpt>
      <trkpt lat="44.40749" lon="6.72305">
        <ele>1224.05</ele>
        <time>2017-06-20T15:54:12Z</time>
      </trkpt>
      <trkpt lat="44.40808" lon="6.72423">
        <ele>1224.92</ele>
        <time>2017-06-20T15:54:17Z</time>
      </trkpt>
      <trkpt lat="44.40861" lon="6.72539">
        <ele>1226.32</ele>
        <time>2017-06-20T15:54:22Z</time>
      </trkpt>
      <trkpt lat="44.4092" lon="6.72655">
        <ele>1226.69</ele>
        <time>2017-06-20T15:54:27Z</time>
      </trkpt>
      <trkpt lat="44.40982" lon="6.72748">
        <ele>1226.47</ele>
        <time>2017-06-20T15:54:32Z</time>
      </trkpt>
      <trkpt lat="44.41043" lon="6.7282">
        <ele>1226.77</ele>
        <time>2017-06-20T15:54:37Z</time>
      </trkpt>
      <trkpt lat="44.41114" lon="6.72873">
        <ele>1225.65</ele>
        <time>2017-06-20T15:54:42Z</time>
      </trkpt>
      <trkpt lat="44.41187" lon="6.729">
        <ele>1224.72</ele>
        <time>2017-06-20T15:54:47Z</time>
      </trkpt>
      <trkpt lat="44.4125" lon="6.72913">
        <ele>1223.52</ele>
        <time>2017-06-20T15:54:52Z</time>
      </trkpt>
      <trkpt lat="44.413" lon="6.72916">
        <ele>1223.16</ele>
        <time>2017-06-20T15:54:57Z</time>
      </trkpt>
      <trkpt lat="44.41329" lon="6.72915">
        <ele>1223.51</ele>
        <time>2017-06-20T15:55:02Z</time>
      </trkpt>
      <trkpt lat="44.41351" lon="6.72902">
        <ele>1222.74</ele>
        <time>2017-06-20T15:55:15Z</time>
      </trkpt>
      <trkpt lat="44.41374" lon="6.72889">
        <ele>1224.08</ele>
        <time>2017-06-20T16:01:31Z</time>
      </trkpt>
      <trkpt lat="44.41393" lon="6.72904">
        <ele>1224.28</ele>
        <time>2017-06-20T16:09:28Z</time>
      </trkpt>
      <trkpt lat="44.41373" lon="6.72891">
        <ele>1225.03</ele>
        <time>2017-06-20T16:19:13Z</time>
      </trkpt>
      <trkpt lat="44.4137" lon="6.72859">
        <ele>1229.7</ele>
        <time>2017-06-20T16:23:39Z</time>
      </trkpt>
      <trkpt lat="44.41368" lon="6.72863">
        <ele>1229.84</ele>
        <time>2017-06-20T16:31:31Z</time>
      </trkpt>
    </trkseg>
  </trk>
</gpx>